<?xml version="1.0" encoding="UTF-8" standalone="no" ?>
<gpx xmlns="http://www.topografix.com/GPX/1/1" xmlns:xsi="http://www.w3.org/2001/XMLSchema-instance" xsi:schemaLocation="http://www.topografix.com/GPX/1/1 http://www.topografix.com/GPX/1/1/gpx.xsd" version="1.1" creator="VisuGPX - https://www.visugpx.com">
  <metadata>
    <name>Boucle de deux petits jours en Suisse normande</name>
    <desc><![CDATA[Paysages et chemins variés. Du relief. Chemins humides hors été.]]></desc>
  </metadata>
  <wpt lat="48.98567" lon="-0.47813">
    <ele>50</ele>
    <name><![CDATA[Parking - depart]]></name>
  </wpt>
  <wpt lat="48.91648" lon="-0.48294">
    <ele>66</ele>
    <name><![CDATA[Hotel-restaurant **]]></name>
  </wpt>
  <wpt lat="48.92964" lon="-0.4765">
    <ele>171</ele>
    <name><![CDATA[Pain de Sucre]]></name>
  </wpt>
  <wpt lat="48.92941" lon="-0.47014">
    <ele>219</ele>
    <name><![CDATA[Envol parapente]]></name>
  </wpt>
  <wpt lat="48.92362" lon="-0.46168">
    <ele>253</ele>
    <name><![CDATA[Borne IGN ?]]></name>
  </wpt>
  <trk>
    <name><![CDATA[Boucle de deux petits jours en Suisse normande_1]]></name>
    <trkseg>
      <trkpt lat="48.98567" lon="-0.47813">
        <ele>50</ele>
        <time>2011-03-05T11:32:32Z</time>
      </trkpt>
      <trkpt lat="48.98567" lon="-0.47821">
        <ele>51</ele>
        <time>2011-03-05T11:38:29Z</time>
      </trkpt>
      <trkpt lat="48.98575" lon="-0.47828">
        <ele>51</ele>
        <time>2011-03-05T11:38:39Z</time>
      </trkpt>
      <trkpt lat="48.98585" lon="-0.4783">
        <ele>43</ele>
        <time>2011-03-05T11:38:49Z</time>
      </trkpt>
      <trkpt lat="48.98593" lon="-0.4784">
        <ele>43</ele>
        <time>2011-03-05T11:39:00Z</time>
      </trkpt>
      <trkpt lat="48.986" lon="-0.47849">
        <ele>43</ele>
        <time>2011-03-05T11:39:10Z</time>
      </trkpt>
      <trkpt lat="48.9861" lon="-0.47852">
        <ele>43</ele>
        <time>2011-03-05T11:39:53Z</time>
      </trkpt>
      <trkpt lat="48.98612" lon="-0.47857">
        <ele>46</ele>
        <time>2011-03-05T11:43:19Z</time>
      </trkpt>
      <trkpt lat="48.98613" lon="-0.47858">
        <ele>46</ele>
        <time>2011-03-05T11:45:51Z</time>
      </trkpt>
      <trkpt lat="48.98622" lon="-0.47862">
        <ele>46</ele>
        <time>2011-03-05T11:48:25Z</time>
      </trkpt>
      <trkpt lat="48.98629" lon="-0.47873">
        <ele>46</ele>
        <time>2011-03-05T11:48:37Z</time>
      </trkpt>
      <trkpt lat="48.98638" lon="-0.47877">
        <ele>46</ele>
        <time>2011-03-05T11:48:45Z</time>
      </trkpt>
      <trkpt lat="48.98648" lon="-0.4788">
        <ele>46</ele>
        <time>2011-03-05T11:48:52Z</time>
      </trkpt>
      <trkpt lat="48.98657" lon="-0.47884">
        <ele>46</ele>
        <time>2011-03-05T11:49:00Z</time>
      </trkpt>
      <trkpt lat="48.98666" lon="-0.47887">
        <ele>46</ele>
        <time>2011-03-05T11:49:09Z</time>
      </trkpt>
      <trkpt lat="48.98676" lon="-0.47892">
        <ele>46</ele>
        <time>2011-03-05T11:49:17Z</time>
      </trkpt>
      <trkpt lat="48.98685" lon="-0.47899">
        <ele>46</ele>
        <time>2011-03-05T11:49:26Z</time>
      </trkpt>
      <trkpt lat="48.98695" lon="-0.47902">
        <ele>46</ele>
        <time>2011-03-05T11:49:38Z</time>
      </trkpt>
      <trkpt lat="48.98703" lon="-0.47908">
        <ele>46</ele>
        <time>2011-03-05T11:49:46Z</time>
      </trkpt>
      <trkpt lat="48.98711" lon="-0.47915">
        <ele>41</ele>
        <time>2011-03-05T11:49:55Z</time>
      </trkpt>
      <trkpt lat="48.9872" lon="-0.47922">
        <ele>41</ele>
        <time>2011-03-05T11:50:03Z</time>
      </trkpt>
      <trkpt lat="48.98727" lon="-0.47931">
        <ele>41</ele>
        <time>2011-03-05T11:50:10Z</time>
      </trkpt>
      <trkpt lat="48.98735" lon="-0.4794">
        <ele>41</ele>
        <time>2011-03-05T11:50:18Z</time>
      </trkpt>
      <trkpt lat="48.98743" lon="-0.47947">
        <ele>41</ele>
        <time>2011-03-05T11:50:27Z</time>
      </trkpt>
      <trkpt lat="48.98753" lon="-0.47953">
        <ele>41</ele>
        <time>2011-03-05T11:50:37Z</time>
      </trkpt>
      <trkpt lat="48.98762" lon="-0.47958">
        <ele>41</ele>
        <time>2011-03-05T11:50:51Z</time>
      </trkpt>
      <trkpt lat="48.98771" lon="-0.47962">
        <ele>41</ele>
        <time>2011-03-05T11:51:00Z</time>
      </trkpt>
      <trkpt lat="48.98778" lon="-0.47971">
        <ele>41</ele>
        <time>2011-03-05T11:51:11Z</time>
      </trkpt>
      <trkpt lat="48.98785" lon="-0.47982">
        <ele>34</ele>
        <time>2011-03-05T11:51:20Z</time>
      </trkpt>
      <trkpt lat="48.98792" lon="-0.47992">
        <ele>34</ele>
        <time>2011-03-05T11:51:29Z</time>
      </trkpt>
      <trkpt lat="48.98796" lon="-0.48005">
        <ele>34</ele>
        <time>2011-03-05T11:51:37Z</time>
      </trkpt>
      <trkpt lat="48.98801" lon="-0.48018">
        <ele>34</ele>
        <time>2011-03-05T11:51:44Z</time>
      </trkpt>
      <trkpt lat="48.98805" lon="-0.48032">
        <ele>34</ele>
        <time>2011-03-05T11:51:52Z</time>
      </trkpt>
      <trkpt lat="48.98811" lon="-0.48044">
        <ele>34</ele>
        <time>2011-03-05T11:52:00Z</time>
      </trkpt>
      <trkpt lat="48.98815" lon="-0.48057">
        <ele>34</ele>
        <time>2011-03-05T11:52:09Z</time>
      </trkpt>
      <trkpt lat="48.98821" lon="-0.48068">
        <ele>34</ele>
        <time>2011-03-05T11:52:16Z</time>
      </trkpt>
      <trkpt lat="48.98826" lon="-0.48081">
        <ele>34</ele>
        <time>2011-03-05T11:52:25Z</time>
      </trkpt>
      <trkpt lat="48.98833" lon="-0.48092">
        <ele>28</ele>
        <time>2011-03-05T11:52:34Z</time>
      </trkpt>
      <trkpt lat="48.98834" lon="-0.48108">
        <ele>28</ele>
        <time>2011-03-05T11:52:42Z</time>
      </trkpt>
      <trkpt lat="48.98844" lon="-0.48115">
        <ele>28</ele>
        <time>2011-03-05T11:52:50Z</time>
      </trkpt>
      <trkpt lat="48.9885" lon="-0.48127">
        <ele>17</ele>
        <time>2011-03-05T11:52:59Z</time>
      </trkpt>
      <trkpt lat="48.98857" lon="-0.48136">
        <ele>17</ele>
        <time>2011-03-05T11:53:06Z</time>
      </trkpt>
      <trkpt lat="48.98864" lon="-0.48146">
        <ele>17</ele>
        <time>2011-03-05T11:53:14Z</time>
      </trkpt>
      <trkpt lat="48.98872" lon="-0.48156">
        <ele>17</ele>
        <time>2011-03-05T11:53:22Z</time>
      </trkpt>
      <trkpt lat="48.98878" lon="-0.48169">
        <ele>17</ele>
        <time>2011-03-05T11:53:31Z</time>
      </trkpt>
      <trkpt lat="48.98885" lon="-0.48178">
        <ele>17</ele>
        <time>2011-03-05T11:53:39Z</time>
      </trkpt>
      <trkpt lat="48.98895" lon="-0.48175">
        <ele>23</ele>
        <time>2011-03-05T11:53:47Z</time>
      </trkpt>
      <trkpt lat="48.98904" lon="-0.48178">
        <ele>23</ele>
        <time>2011-03-05T11:53:55Z</time>
      </trkpt>
      <trkpt lat="48.98914" lon="-0.4818">
        <ele>23</ele>
        <time>2011-03-05T11:54:03Z</time>
      </trkpt>
      <trkpt lat="48.98921" lon="-0.4819">
        <ele>23</ele>
        <time>2011-03-05T11:54:16Z</time>
      </trkpt>
      <trkpt lat="48.98929" lon="-0.48198">
        <ele>18</ele>
        <time>2011-03-05T11:54:23Z</time>
      </trkpt>
      <trkpt lat="48.98938" lon="-0.48205">
        <ele>18</ele>
        <time>2011-03-05T11:54:31Z</time>
      </trkpt>
      <trkpt lat="48.98944" lon="-0.48218">
        <ele>18</ele>
        <time>2011-03-05T11:54:40Z</time>
      </trkpt>
      <trkpt lat="48.98948" lon="-0.48231">
        <ele>18</ele>
        <time>2011-03-05T11:54:49Z</time>
      </trkpt>
      <trkpt lat="48.98954" lon="-0.48243">
        <ele>18</ele>
        <time>2011-03-05T11:54:57Z</time>
      </trkpt>
      <trkpt lat="48.98959" lon="-0.48255">
        <ele>18</ele>
        <time>2011-03-05T11:55:06Z</time>
      </trkpt>
      <trkpt lat="48.98965" lon="-0.48267">
        <ele>25</ele>
        <time>2011-03-05T11:55:16Z</time>
      </trkpt>
      <trkpt lat="48.9897" lon="-0.48279">
        <ele>25</ele>
        <time>2011-03-05T11:55:26Z</time>
      </trkpt>
      <trkpt lat="48.98976" lon="-0.48291">
        <ele>25</ele>
        <time>2011-03-05T11:55:34Z</time>
      </trkpt>
      <trkpt lat="48.98982" lon="-0.48302">
        <ele>25</ele>
        <time>2011-03-05T11:55:43Z</time>
      </trkpt>
      <trkpt lat="48.98982" lon="-0.48317">
        <ele>25</ele>
        <time>2011-03-05T11:55:50Z</time>
      </trkpt>
      <trkpt lat="48.98979" lon="-0.48331">
        <ele>25</ele>
        <time>2011-03-05T11:56:01Z</time>
      </trkpt>
      <trkpt lat="48.98974" lon="-0.48343">
        <ele>25</ele>
        <time>2011-03-05T11:56:15Z</time>
      </trkpt>
      <trkpt lat="48.98976" lon="-0.48343">
        <ele>14</ele>
        <time>2011-03-05T11:59:55Z</time>
      </trkpt>
      <trkpt lat="48.98985" lon="-0.48343">
        <ele>20</ele>
        <time>2011-03-05T12:00:01Z</time>
      </trkpt>
      <trkpt lat="48.98995" lon="-0.48346">
        <ele>20</ele>
        <time>2011-03-05T12:00:09Z</time>
      </trkpt>
      <trkpt lat="48.99004" lon="-0.4835">
        <ele>20</ele>
        <time>2011-03-05T12:00:19Z</time>
      </trkpt>
      <trkpt lat="48.99013" lon="-0.48347">
        <ele>20</ele>
        <time>2011-03-05T12:00:28Z</time>
      </trkpt>
      <trkpt lat="48.99024" lon="-0.48348">
        <ele>20</ele>
        <time>2011-03-05T12:00:36Z</time>
      </trkpt>
      <trkpt lat="48.99033" lon="-0.48346">
        <ele>20</ele>
        <time>2011-03-05T12:00:44Z</time>
      </trkpt>
      <trkpt lat="48.99042" lon="-0.48348">
        <ele>20</ele>
        <time>2011-03-05T12:00:51Z</time>
      </trkpt>
      <trkpt lat="48.99053" lon="-0.48351">
        <ele>20</ele>
        <time>2011-03-05T12:01:00Z</time>
      </trkpt>
      <trkpt lat="48.99063" lon="-0.4835">
        <ele>20</ele>
        <time>2011-03-05T12:01:07Z</time>
      </trkpt>
      <trkpt lat="48.99066" lon="-0.48364">
        <ele>20</ele>
        <time>2011-03-05T12:01:22Z</time>
      </trkpt>
      <trkpt lat="48.99061" lon="-0.48376">
        <ele>20</ele>
        <time>2011-03-05T12:01:31Z</time>
      </trkpt>
      <trkpt lat="48.99066" lon="-0.48389">
        <ele>27</ele>
        <time>2011-03-05T12:01:50Z</time>
      </trkpt>
      <trkpt lat="48.99063" lon="-0.48403">
        <ele>27</ele>
        <time>2011-03-05T12:02:05Z</time>
      </trkpt>
      <trkpt lat="48.99054" lon="-0.4841">
        <ele>27</ele>
        <time>2011-03-05T12:02:15Z</time>
      </trkpt>
      <trkpt lat="48.99046" lon="-0.48418">
        <ele>27</ele>
        <time>2011-03-05T12:02:26Z</time>
      </trkpt>
      <trkpt lat="48.99037" lon="-0.48425">
        <ele>27</ele>
        <time>2011-03-05T12:02:35Z</time>
      </trkpt>
      <trkpt lat="48.99028" lon="-0.48429">
        <ele>27</ele>
        <time>2011-03-05T12:02:46Z</time>
      </trkpt>
      <trkpt lat="48.99019" lon="-0.48435">
        <ele>33</ele>
        <time>2011-03-05T12:02:56Z</time>
      </trkpt>
      <trkpt lat="48.9901" lon="-0.48441">
        <ele>33</ele>
        <time>2011-03-05T12:03:07Z</time>
      </trkpt>
      <trkpt lat="48.99001" lon="-0.48446">
        <ele>33</ele>
        <time>2011-03-05T12:03:16Z</time>
      </trkpt>
      <trkpt lat="48.98993" lon="-0.48454">
        <ele>33</ele>
        <time>2011-03-05T12:03:26Z</time>
      </trkpt>
      <trkpt lat="48.98985" lon="-0.48461">
        <ele>33</ele>
        <time>2011-03-05T12:03:37Z</time>
      </trkpt>
      <trkpt lat="48.98976" lon="-0.48466">
        <ele>33</ele>
        <time>2011-03-05T12:03:46Z</time>
      </trkpt>
      <trkpt lat="48.98968" lon="-0.48477">
        <ele>33</ele>
        <time>2011-03-05T12:03:52Z</time>
      </trkpt>
      <trkpt lat="48.98959" lon="-0.48483">
        <ele>39</ele>
        <time>2011-03-05T12:04:03Z</time>
      </trkpt>
      <trkpt lat="48.9895" lon="-0.48489">
        <ele>39</ele>
        <time>2011-03-05T12:04:15Z</time>
      </trkpt>
      <trkpt lat="48.98943" lon="-0.48498">
        <ele>39</ele>
        <time>2011-03-05T12:04:21Z</time>
      </trkpt>
      <trkpt lat="48.98934" lon="-0.48505">
        <ele>39</ele>
        <time>2011-03-05T12:04:31Z</time>
      </trkpt>
      <trkpt lat="48.98926" lon="-0.48511">
        <ele>39</ele>
        <time>2011-03-05T12:04:42Z</time>
      </trkpt>
      <trkpt lat="48.98918" lon="-0.48521">
        <ele>39</ele>
        <time>2011-03-05T12:04:52Z</time>
      </trkpt>
      <trkpt lat="48.98909" lon="-0.48526">
        <ele>46</ele>
        <time>2011-03-05T12:05:02Z</time>
      </trkpt>
      <trkpt lat="48.98899" lon="-0.48531">
        <ele>46</ele>
        <time>2011-03-05T12:05:17Z</time>
      </trkpt>
      <trkpt lat="48.98892" lon="-0.48539">
        <ele>57</ele>
        <time>2011-03-05T12:05:28Z</time>
      </trkpt>
      <trkpt lat="48.98882" lon="-0.48547">
        <ele>57</ele>
        <time>2011-03-05T12:05:37Z</time>
      </trkpt>
      <trkpt lat="48.98873" lon="-0.48555">
        <ele>57</ele>
        <time>2011-03-05T12:05:44Z</time>
      </trkpt>
      <trkpt lat="48.98864" lon="-0.48559">
        <ele>49</ele>
        <time>2011-03-05T12:05:57Z</time>
      </trkpt>
      <trkpt lat="48.98861" lon="-0.48574">
        <ele>49</ele>
        <time>2011-03-05T12:06:12Z</time>
      </trkpt>
      <trkpt lat="48.98863" lon="-0.48588">
        <ele>58</ele>
        <time>2011-03-05T12:06:22Z</time>
      </trkpt>
      <trkpt lat="48.98857" lon="-0.48599">
        <ele>58</ele>
        <time>2011-03-05T12:06:33Z</time>
      </trkpt>
      <trkpt lat="48.98855" lon="-0.48614">
        <ele>58</ele>
        <time>2011-03-05T12:06:45Z</time>
      </trkpt>
      <trkpt lat="48.98851" lon="-0.48628">
        <ele>58</ele>
        <time>2011-03-05T12:06:59Z</time>
      </trkpt>
      <trkpt lat="48.98847" lon="-0.48642">
        <ele>52</ele>
        <time>2011-03-05T12:07:12Z</time>
      </trkpt>
      <trkpt lat="48.98844" lon="-0.48656">
        <ele>52</ele>
        <time>2011-03-05T12:07:23Z</time>
      </trkpt>
      <trkpt lat="48.98839" lon="-0.48669">
        <ele>52</ele>
        <time>2011-03-05T12:07:41Z</time>
      </trkpt>
      <trkpt lat="48.98835" lon="-0.48682">
        <ele>52</ele>
        <time>2011-03-05T12:07:52Z</time>
      </trkpt>
      <trkpt lat="48.9883" lon="-0.487">
        <ele>52</ele>
        <time>2011-03-05T12:08:08Z</time>
      </trkpt>
      <trkpt lat="48.98824" lon="-0.4871">
        <ele>52</ele>
        <time>2011-03-05T12:08:19Z</time>
      </trkpt>
      <trkpt lat="48.98816" lon="-0.48718">
        <ele>62</ele>
        <time>2011-03-05T12:08:35Z</time>
      </trkpt>
      <trkpt lat="48.98811" lon="-0.48731">
        <ele>69</ele>
        <time>2011-03-05T12:08:48Z</time>
      </trkpt>
      <trkpt lat="48.98803" lon="-0.48738">
        <ele>78</ele>
        <time>2011-03-05T12:09:18Z</time>
      </trkpt>
      <trkpt lat="48.98794" lon="-0.48744">
        <ele>85</ele>
        <time>2011-03-05T12:09:44Z</time>
      </trkpt>
      <trkpt lat="48.98785" lon="-0.48748">
        <ele>77</ele>
        <time>2011-03-05T12:10:02Z</time>
      </trkpt>
      <trkpt lat="48.98778" lon="-0.48756">
        <ele>77</ele>
        <time>2011-03-05T12:10:14Z</time>
      </trkpt>
      <trkpt lat="48.98774" lon="-0.4877">
        <ele>77</ele>
        <time>2011-03-05T12:10:34Z</time>
      </trkpt>
      <trkpt lat="48.98769" lon="-0.48782">
        <ele>77</ele>
        <time>2011-03-05T12:10:47Z</time>
      </trkpt>
      <trkpt lat="48.98765" lon="-0.48795">
        <ele>77</ele>
        <time>2011-03-05T12:11:01Z</time>
      </trkpt>
      <trkpt lat="48.9876" lon="-0.48806">
        <ele>77</ele>
        <time>2011-03-05T12:11:13Z</time>
      </trkpt>
      <trkpt lat="48.98757" lon="-0.4882">
        <ele>77</ele>
        <time>2011-03-05T12:11:30Z</time>
      </trkpt>
      <trkpt lat="48.9875" lon="-0.48828">
        <ele>77</ele>
        <time>2011-03-05T12:11:53Z</time>
      </trkpt>
      <trkpt lat="48.9874" lon="-0.48829">
        <ele>77</ele>
        <time>2011-03-05T12:12:04Z</time>
      </trkpt>
      <trkpt lat="48.98731" lon="-0.48826">
        <ele>77</ele>
        <time>2011-03-05T12:12:15Z</time>
      </trkpt>
      <trkpt lat="48.98721" lon="-0.48823">
        <ele>77</ele>
        <time>2011-03-05T12:12:25Z</time>
      </trkpt>
      <trkpt lat="48.98712" lon="-0.48823">
        <ele>85</ele>
        <time>2011-03-05T12:12:43Z</time>
      </trkpt>
      <trkpt lat="48.98703" lon="-0.48821">
        <ele>85</ele>
        <time>2011-03-05T12:13:07Z</time>
      </trkpt>
      <trkpt lat="48.98692" lon="-0.48823">
        <ele>85</ele>
        <time>2011-03-05T12:13:18Z</time>
      </trkpt>
      <trkpt lat="48.98683" lon="-0.48826">
        <ele>90</ele>
        <time>2011-03-05T12:13:29Z</time>
      </trkpt>
      <trkpt lat="48.98674" lon="-0.4883">
        <ele>90</ele>
        <time>2011-03-05T12:13:40Z</time>
      </trkpt>
      <trkpt lat="48.98666" lon="-0.48839">
        <ele>90</ele>
        <time>2011-03-05T12:13:51Z</time>
      </trkpt>
      <trkpt lat="48.98659" lon="-0.48848">
        <ele>90</ele>
        <time>2011-03-05T12:14:05Z</time>
      </trkpt>
      <trkpt lat="48.98655" lon="-0.48862">
        <ele>98</ele>
        <time>2011-03-05T12:15:30Z</time>
      </trkpt>
      <trkpt lat="48.98649" lon="-0.48872">
        <ele>98</ele>
        <time>2011-03-05T12:15:41Z</time>
      </trkpt>
      <trkpt lat="48.98643" lon="-0.48883">
        <ele>98</ele>
        <time>2011-03-05T12:15:52Z</time>
      </trkpt>
      <trkpt lat="48.98639" lon="-0.48895">
        <ele>98</ele>
        <time>2011-03-05T12:16:06Z</time>
      </trkpt>
      <trkpt lat="48.98634" lon="-0.48908">
        <ele>106</ele>
        <time>2011-03-05T12:16:17Z</time>
      </trkpt>
      <trkpt lat="48.98627" lon="-0.48918">
        <ele>106</ele>
        <time>2011-03-05T12:16:27Z</time>
      </trkpt>
      <trkpt lat="48.98621" lon="-0.48929">
        <ele>106</ele>
        <time>2011-03-05T12:16:39Z</time>
      </trkpt>
      <trkpt lat="48.98616" lon="-0.4894">
        <ele>106</ele>
        <time>2011-03-05T12:16:51Z</time>
      </trkpt>
      <trkpt lat="48.98609" lon="-0.48951">
        <ele>106</ele>
        <time>2011-03-05T12:17:01Z</time>
      </trkpt>
      <trkpt lat="48.98603" lon="-0.48962">
        <ele>106</ele>
        <time>2011-03-05T12:17:12Z</time>
      </trkpt>
      <trkpt lat="48.98597" lon="-0.48973">
        <ele>111</ele>
        <time>2011-03-05T12:17:23Z</time>
      </trkpt>
      <trkpt lat="48.98592" lon="-0.48984">
        <ele>111</ele>
        <time>2011-03-05T12:17:34Z</time>
      </trkpt>
      <trkpt lat="48.98587" lon="-0.48997">
        <ele>111</ele>
        <time>2011-03-05T12:17:44Z</time>
      </trkpt>
      <trkpt lat="48.98581" lon="-0.49009">
        <ele>111</ele>
        <time>2011-03-05T12:17:55Z</time>
      </trkpt>
      <trkpt lat="48.98575" lon="-0.4902">
        <ele>118</ele>
        <time>2011-03-05T12:18:07Z</time>
      </trkpt>
      <trkpt lat="48.98568" lon="-0.4903">
        <ele>118</ele>
        <time>2011-03-05T12:18:18Z</time>
      </trkpt>
      <trkpt lat="48.98561" lon="-0.49039">
        <ele>118</ele>
        <time>2011-03-05T12:18:29Z</time>
      </trkpt>
      <trkpt lat="48.98554" lon="-0.49048">
        <ele>118</ele>
        <time>2011-03-05T12:18:42Z</time>
      </trkpt>
      <trkpt lat="48.98545" lon="-0.49053">
        <ele>118</ele>
        <time>2011-03-05T12:18:53Z</time>
      </trkpt>
      <trkpt lat="48.98536" lon="-0.49058">
        <ele>118</ele>
        <time>2011-03-05T12:19:03Z</time>
      </trkpt>
      <trkpt lat="48.98527" lon="-0.49062">
        <ele>123</ele>
        <time>2011-03-05T12:19:13Z</time>
      </trkpt>
      <trkpt lat="48.98519" lon="-0.49069">
        <ele>123</ele>
        <time>2011-03-05T12:19:22Z</time>
      </trkpt>
      <trkpt lat="48.9851" lon="-0.49077">
        <ele>123</ele>
        <time>2011-03-05T12:19:31Z</time>
      </trkpt>
      <trkpt lat="48.98502" lon="-0.49086">
        <ele>123</ele>
        <time>2011-03-05T12:19:40Z</time>
      </trkpt>
      <trkpt lat="48.98494" lon="-0.49094">
        <ele>123</ele>
        <time>2011-03-05T12:19:50Z</time>
      </trkpt>
      <trkpt lat="48.98486" lon="-0.49103">
        <ele>123</ele>
        <time>2011-03-05T12:19:59Z</time>
      </trkpt>
      <trkpt lat="48.98478" lon="-0.49112">
        <ele>129</ele>
        <time>2011-03-05T12:20:09Z</time>
      </trkpt>
      <trkpt lat="48.9847" lon="-0.49121">
        <ele>129</ele>
        <time>2011-03-05T12:20:19Z</time>
      </trkpt>
      <trkpt lat="48.98463" lon="-0.4913">
        <ele>129</ele>
        <time>2011-03-05T12:20:29Z</time>
      </trkpt>
      <trkpt lat="48.98455" lon="-0.49139">
        <ele>129</ele>
        <time>2011-03-05T12:20:39Z</time>
      </trkpt>
      <trkpt lat="48.98447" lon="-0.49147">
        <ele>129</ele>
        <time>2011-03-05T12:20:48Z</time>
      </trkpt>
      <trkpt lat="48.98439" lon="-0.49157">
        <ele>129</ele>
        <time>2011-03-05T12:20:57Z</time>
      </trkpt>
      <trkpt lat="48.98432" lon="-0.49166">
        <ele>129</ele>
        <time>2011-03-05T12:21:06Z</time>
      </trkpt>
      <trkpt lat="48.98425" lon="-0.49177">
        <ele>129</ele>
        <time>2011-03-05T12:21:15Z</time>
      </trkpt>
      <trkpt lat="48.98418" lon="-0.49186">
        <ele>129</ele>
        <time>2011-03-05T12:21:24Z</time>
      </trkpt>
      <trkpt lat="48.98412" lon="-0.49196">
        <ele>129</ele>
        <time>2011-03-05T12:21:33Z</time>
      </trkpt>
      <trkpt lat="48.98405" lon="-0.49207">
        <ele>129</ele>
        <time>2011-03-05T12:21:42Z</time>
      </trkpt>
      <trkpt lat="48.98399" lon="-0.49217">
        <ele>129</ele>
        <time>2011-03-05T12:21:51Z</time>
      </trkpt>
      <trkpt lat="48.98393" lon="-0.49229">
        <ele>129</ele>
        <time>2011-03-05T12:21:59Z</time>
      </trkpt>
      <trkpt lat="48.98386" lon="-0.4924">
        <ele>129</ele>
        <time>2011-03-05T12:22:08Z</time>
      </trkpt>
      <trkpt lat="48.98383" lon="-0.49255">
        <ele>134</ele>
        <time>2011-03-05T12:22:17Z</time>
      </trkpt>
      <trkpt lat="48.98374" lon="-0.49267">
        <ele>134</ele>
        <time>2011-03-05T12:24:33Z</time>
      </trkpt>
      <trkpt lat="48.98367" lon="-0.49278">
        <ele>134</ele>
        <time>2011-03-05T12:24:43Z</time>
      </trkpt>
      <trkpt lat="48.98361" lon="-0.49289">
        <ele>134</ele>
        <time>2011-03-05T12:24:53Z</time>
      </trkpt>
      <trkpt lat="48.98354" lon="-0.49299">
        <ele>134</ele>
        <time>2011-03-05T12:25:03Z</time>
      </trkpt>
      <trkpt lat="48.98348" lon="-0.4931">
        <ele>129</ele>
        <time>2011-03-05T12:25:12Z</time>
      </trkpt>
      <trkpt lat="48.98342" lon="-0.49322">
        <ele>129</ele>
        <time>2011-03-05T12:25:21Z</time>
      </trkpt>
      <trkpt lat="48.98336" lon="-0.49334">
        <ele>129</ele>
        <time>2011-03-05T12:25:31Z</time>
      </trkpt>
      <trkpt lat="48.98328" lon="-0.49343">
        <ele>129</ele>
        <time>2011-03-05T12:25:40Z</time>
      </trkpt>
      <trkpt lat="48.98321" lon="-0.49353">
        <ele>129</ele>
        <time>2011-03-05T12:25:49Z</time>
      </trkpt>
      <trkpt lat="48.98314" lon="-0.49363">
        <ele>129</ele>
        <time>2011-03-05T12:25:56Z</time>
      </trkpt>
      <trkpt lat="48.98305" lon="-0.4937">
        <ele>129</ele>
        <time>2011-03-05T12:26:06Z</time>
      </trkpt>
      <trkpt lat="48.98298" lon="-0.49379">
        <ele>121</ele>
        <time>2011-03-05T12:26:15Z</time>
      </trkpt>
      <trkpt lat="48.9829" lon="-0.49388">
        <ele>121</ele>
        <time>2011-03-05T12:26:24Z</time>
      </trkpt>
      <trkpt lat="48.98283" lon="-0.49398">
        <ele>121</ele>
        <time>2011-03-05T12:26:32Z</time>
      </trkpt>
      <trkpt lat="48.98277" lon="-0.49408">
        <ele>121</ele>
        <time>2011-03-05T12:26:41Z</time>
      </trkpt>
      <trkpt lat="48.9827" lon="-0.49422">
        <ele>121</ele>
        <time>2011-03-05T12:26:51Z</time>
      </trkpt>
      <trkpt lat="48.98265" lon="-0.49435">
        <ele>128</ele>
        <time>2011-03-05T12:26:58Z</time>
      </trkpt>
      <trkpt lat="48.9826" lon="-0.49447">
        <ele>128</ele>
        <time>2011-03-05T12:27:08Z</time>
      </trkpt>
      <trkpt lat="48.98254" lon="-0.49459">
        <ele>128</ele>
        <time>2011-03-05T12:27:17Z</time>
      </trkpt>
      <trkpt lat="48.9825" lon="-0.49471">
        <ele>128</ele>
        <time>2011-03-05T12:27:25Z</time>
      </trkpt>
      <trkpt lat="48.98245" lon="-0.49485">
        <ele>128</ele>
        <time>2011-03-05T12:27:35Z</time>
      </trkpt>
      <trkpt lat="48.9824" lon="-0.49497">
        <ele>128</ele>
        <time>2011-03-05T12:27:44Z</time>
      </trkpt>
      <trkpt lat="48.98235" lon="-0.49511">
        <ele>128</ele>
        <time>2011-03-05T12:27:53Z</time>
      </trkpt>
      <trkpt lat="48.98229" lon="-0.49523">
        <ele>128</ele>
        <time>2011-03-05T12:28:01Z</time>
      </trkpt>
      <trkpt lat="48.98225" lon="-0.49536">
        <ele>128</ele>
        <time>2011-03-05T12:28:10Z</time>
      </trkpt>
      <trkpt lat="48.98219" lon="-0.49549">
        <ele>128</ele>
        <time>2011-03-05T12:28:19Z</time>
      </trkpt>
      <trkpt lat="48.98215" lon="-0.49563">
        <ele>128</ele>
        <time>2011-03-05T12:28:27Z</time>
      </trkpt>
      <trkpt lat="48.98212" lon="-0.49576">
        <ele>128</ele>
        <time>2011-03-05T12:28:35Z</time>
      </trkpt>
      <trkpt lat="48.98208" lon="-0.4959">
        <ele>128</ele>
        <time>2011-03-05T12:28:42Z</time>
      </trkpt>
      <trkpt lat="48.98205" lon="-0.49603">
        <ele>128</ele>
        <time>2011-03-05T12:28:52Z</time>
      </trkpt>
      <trkpt lat="48.98201" lon="-0.49616">
        <ele>128</ele>
        <time>2011-03-05T12:29:00Z</time>
      </trkpt>
      <trkpt lat="48.98197" lon="-0.49628">
        <ele>128</ele>
        <time>2011-03-05T12:29:09Z</time>
      </trkpt>
      <trkpt lat="48.98193" lon="-0.49642">
        <ele>128</ele>
        <time>2011-03-05T12:29:19Z</time>
      </trkpt>
      <trkpt lat="48.98189" lon="-0.49655">
        <ele>128</ele>
        <time>2011-03-05T12:29:29Z</time>
      </trkpt>
      <trkpt lat="48.98185" lon="-0.49668">
        <ele>128</ele>
        <time>2011-03-05T12:29:38Z</time>
      </trkpt>
      <trkpt lat="48.98182" lon="-0.49681">
        <ele>128</ele>
        <time>2011-03-05T12:29:48Z</time>
      </trkpt>
      <trkpt lat="48.98176" lon="-0.49694">
        <ele>128</ele>
        <time>2011-03-05T12:29:57Z</time>
      </trkpt>
      <trkpt lat="48.98174" lon="-0.49707">
        <ele>121</ele>
        <time>2011-03-05T12:30:06Z</time>
      </trkpt>
      <trkpt lat="48.9817" lon="-0.49721">
        <ele>121</ele>
        <time>2011-03-05T12:30:14Z</time>
      </trkpt>
      <trkpt lat="48.98166" lon="-0.49733">
        <ele>121</ele>
        <time>2011-03-05T12:30:23Z</time>
      </trkpt>
      <trkpt lat="48.98162" lon="-0.49746">
        <ele>121</ele>
        <time>2011-03-05T12:30:30Z</time>
      </trkpt>
      <trkpt lat="48.98157" lon="-0.49759">
        <ele>121</ele>
        <time>2011-03-05T12:30:37Z</time>
      </trkpt>
      <trkpt lat="48.98154" lon="-0.49772">
        <ele>121</ele>
        <time>2011-03-05T12:30:45Z</time>
      </trkpt>
      <trkpt lat="48.9815" lon="-0.49785">
        <ele>121</ele>
        <time>2011-03-05T12:30:53Z</time>
      </trkpt>
      <trkpt lat="48.98146" lon="-0.49799">
        <ele>121</ele>
        <time>2011-03-05T12:31:01Z</time>
      </trkpt>
      <trkpt lat="48.98143" lon="-0.49813">
        <ele>126</ele>
        <time>2011-03-05T12:31:09Z</time>
      </trkpt>
      <trkpt lat="48.98139" lon="-0.49825">
        <ele>126</ele>
        <time>2011-03-05T12:31:17Z</time>
      </trkpt>
      <trkpt lat="48.98139" lon="-0.49825">
        <ele>140</ele>
        <time>2011-03-05T12:55:34Z</time>
      </trkpt>
      <trkpt lat="48.9813" lon="-0.49827">
        <ele>134</ele>
        <time>2011-03-05T12:56:53Z</time>
      </trkpt>
      <trkpt lat="48.98138" lon="-0.49829">
        <ele>125</ele>
        <time>2011-03-05T13:11:59Z</time>
      </trkpt>
      <trkpt lat="48.98133" lon="-0.4984">
        <ele>125</ele>
        <time>2011-03-05T13:12:37Z</time>
      </trkpt>
      <trkpt lat="48.98131" lon="-0.49855">
        <ele>125</ele>
        <time>2011-03-05T13:12:49Z</time>
      </trkpt>
      <trkpt lat="48.98127" lon="-0.49867">
        <ele>125</ele>
        <time>2011-03-05T13:12:57Z</time>
      </trkpt>
      <trkpt lat="48.98122" lon="-0.4988">
        <ele>125</ele>
        <time>2011-03-05T13:13:04Z</time>
      </trkpt>
      <trkpt lat="48.98118" lon="-0.49892">
        <ele>125</ele>
        <time>2011-03-05T13:13:12Z</time>
      </trkpt>
      <trkpt lat="48.98114" lon="-0.49905">
        <ele>130</ele>
        <time>2011-03-05T13:13:21Z</time>
      </trkpt>
      <trkpt lat="48.9811" lon="-0.49919">
        <ele>130</ele>
        <time>2011-03-05T13:13:29Z</time>
      </trkpt>
      <trkpt lat="48.98105" lon="-0.49932">
        <ele>130</ele>
        <time>2011-03-05T13:13:42Z</time>
      </trkpt>
      <trkpt lat="48.98102" lon="-0.49946">
        <ele>130</ele>
        <time>2011-03-05T13:13:50Z</time>
      </trkpt>
      <trkpt lat="48.98096" lon="-0.49959">
        <ele>130</ele>
        <time>2011-03-05T13:13:58Z</time>
      </trkpt>
      <trkpt lat="48.98093" lon="-0.49972">
        <ele>130</ele>
        <time>2011-03-05T13:14:07Z</time>
      </trkpt>
      <trkpt lat="48.98089" lon="-0.49987">
        <ele>130</ele>
        <time>2011-03-05T13:14:16Z</time>
      </trkpt>
      <trkpt lat="48.98085" lon="-0.5">
        <ele>124</ele>
        <time>2011-03-05T13:14:24Z</time>
      </trkpt>
      <trkpt lat="48.9808" lon="-0.50014">
        <ele>124</ele>
        <time>2011-03-05T13:14:32Z</time>
      </trkpt>
      <trkpt lat="48.98077" lon="-0.50027">
        <ele>124</ele>
        <time>2011-03-05T13:14:40Z</time>
      </trkpt>
      <trkpt lat="48.98073" lon="-0.5004">
        <ele>118</ele>
        <time>2011-03-05T13:14:49Z</time>
      </trkpt>
      <trkpt lat="48.98068" lon="-0.50052">
        <ele>118</ele>
        <time>2011-03-05T13:14:57Z</time>
      </trkpt>
      <trkpt lat="48.98065" lon="-0.50066">
        <ele>118</ele>
        <time>2011-03-05T13:15:05Z</time>
      </trkpt>
      <trkpt lat="48.98061" lon="-0.50079">
        <ele>118</ele>
        <time>2011-03-05T13:15:13Z</time>
      </trkpt>
      <trkpt lat="48.98057" lon="-0.50093">
        <ele>124</ele>
        <time>2011-03-05T13:15:22Z</time>
      </trkpt>
      <trkpt lat="48.98053" lon="-0.50106">
        <ele>124</ele>
        <time>2011-03-05T13:15:32Z</time>
      </trkpt>
      <trkpt lat="48.98049" lon="-0.50119">
        <ele>124</ele>
        <time>2011-03-05T13:15:40Z</time>
      </trkpt>
      <trkpt lat="48.98043" lon="-0.50132">
        <ele>124</ele>
        <time>2011-03-05T13:15:49Z</time>
      </trkpt>
      <trkpt lat="48.9804" lon="-0.50146">
        <ele>124</ele>
        <time>2011-03-05T13:15:58Z</time>
      </trkpt>
      <trkpt lat="48.98036" lon="-0.50158">
        <ele>124</ele>
        <time>2011-03-05T13:16:06Z</time>
      </trkpt>
      <trkpt lat="48.98031" lon="-0.50171">
        <ele>124</ele>
        <time>2011-03-05T13:16:13Z</time>
      </trkpt>
      <trkpt lat="48.98027" lon="-0.50184">
        <ele>124</ele>
        <time>2011-03-05T13:16:22Z</time>
      </trkpt>
      <trkpt lat="48.98023" lon="-0.50197">
        <ele>124</ele>
        <time>2011-03-05T13:16:30Z</time>
      </trkpt>
      <trkpt lat="48.98017" lon="-0.50209">
        <ele>124</ele>
        <time>2011-03-05T13:16:39Z</time>
      </trkpt>
      <trkpt lat="48.98012" lon="-0.50222">
        <ele>124</ele>
        <time>2011-03-05T13:16:48Z</time>
      </trkpt>
      <trkpt lat="48.98008" lon="-0.50235">
        <ele>124</ele>
        <time>2011-03-05T13:16:56Z</time>
      </trkpt>
      <trkpt lat="48.98004" lon="-0.50247">
        <ele>124</ele>
        <time>2011-03-05T13:17:05Z</time>
      </trkpt>
      <trkpt lat="48.97997" lon="-0.50259">
        <ele>124</ele>
        <time>2011-03-05T13:17:14Z</time>
      </trkpt>
      <trkpt lat="48.97992" lon="-0.50271">
        <ele>124</ele>
        <time>2011-03-05T13:17:22Z</time>
      </trkpt>
      <trkpt lat="48.97986" lon="-0.50282">
        <ele>124</ele>
        <time>2011-03-05T13:17:35Z</time>
      </trkpt>
      <trkpt lat="48.97978" lon="-0.50291">
        <ele>124</ele>
        <time>2011-03-05T13:17:44Z</time>
      </trkpt>
      <trkpt lat="48.97975" lon="-0.50306">
        <ele>124</ele>
        <time>2011-03-05T13:17:55Z</time>
      </trkpt>
      <trkpt lat="48.97973" lon="-0.5032">
        <ele>118</ele>
        <time>2011-03-05T13:18:04Z</time>
      </trkpt>
      <trkpt lat="48.97973" lon="-0.50334">
        <ele>118</ele>
        <time>2011-03-05T13:18:13Z</time>
      </trkpt>
      <trkpt lat="48.97973" lon="-0.5035">
        <ele>118</ele>
        <time>2011-03-05T13:18:22Z</time>
      </trkpt>
      <trkpt lat="48.97976" lon="-0.50365">
        <ele>118</ele>
        <time>2011-03-05T13:18:31Z</time>
      </trkpt>
      <trkpt lat="48.97976" lon="-0.5038">
        <ele>118</ele>
        <time>2011-03-05T13:18:40Z</time>
      </trkpt>
      <trkpt lat="48.97967" lon="-0.50385">
        <ele>118</ele>
        <time>2011-03-05T13:18:49Z</time>
      </trkpt>
      <trkpt lat="48.97957" lon="-0.50383">
        <ele>118</ele>
        <time>2011-03-05T13:18:58Z</time>
      </trkpt>
      <trkpt lat="48.97947" lon="-0.50381">
        <ele>118</ele>
        <time>2011-03-05T13:19:06Z</time>
      </trkpt>
      <trkpt lat="48.97938" lon="-0.50378">
        <ele>118</ele>
        <time>2011-03-05T13:19:16Z</time>
      </trkpt>
      <trkpt lat="48.97928" lon="-0.50377">
        <ele>118</ele>
        <time>2011-03-05T13:19:49Z</time>
      </trkpt>
      <trkpt lat="48.97918" lon="-0.50377">
        <ele>112</ele>
        <time>2011-03-05T13:19:58Z</time>
      </trkpt>
      <trkpt lat="48.97909" lon="-0.50377">
        <ele>112</ele>
        <time>2011-03-05T13:20:08Z</time>
      </trkpt>
      <trkpt lat="48.979" lon="-0.5038">
        <ele>118</ele>
        <time>2011-03-05T13:20:19Z</time>
      </trkpt>
      <trkpt lat="48.9789" lon="-0.50382">
        <ele>118</ele>
        <time>2011-03-05T13:20:26Z</time>
      </trkpt>
      <trkpt lat="48.97881" lon="-0.50381">
        <ele>118</ele>
        <time>2011-03-05T13:20:35Z</time>
      </trkpt>
      <trkpt lat="48.97871" lon="-0.50387">
        <ele>125</ele>
        <time>2011-03-05T13:20:46Z</time>
      </trkpt>
      <trkpt lat="48.97863" lon="-0.5038">
        <ele>125</ele>
        <time>2011-03-05T13:20:59Z</time>
      </trkpt>
      <trkpt lat="48.97854" lon="-0.50376">
        <ele>125</ele>
        <time>2011-03-05T13:21:09Z</time>
      </trkpt>
      <trkpt lat="48.97845" lon="-0.50371">
        <ele>125</ele>
        <time>2011-03-05T13:21:21Z</time>
      </trkpt>
      <trkpt lat="48.97835" lon="-0.50369">
        <ele>125</ele>
        <time>2011-03-05T13:21:30Z</time>
      </trkpt>
      <trkpt lat="48.97826" lon="-0.50369">
        <ele>125</ele>
        <time>2011-03-05T13:21:38Z</time>
      </trkpt>
      <trkpt lat="48.97816" lon="-0.50366">
        <ele>125</ele>
        <time>2011-03-05T13:21:47Z</time>
      </trkpt>
      <trkpt lat="48.97806" lon="-0.50364">
        <ele>125</ele>
        <time>2011-03-05T13:21:56Z</time>
      </trkpt>
      <trkpt lat="48.97796" lon="-0.50361">
        <ele>125</ele>
        <time>2011-03-05T13:22:05Z</time>
      </trkpt>
      <trkpt lat="48.97787" lon="-0.5036">
        <ele>125</ele>
        <time>2011-03-05T13:22:14Z</time>
      </trkpt>
      <trkpt lat="48.97777" lon="-0.50358">
        <ele>125</ele>
        <time>2011-03-05T13:22:23Z</time>
      </trkpt>
      <trkpt lat="48.97768" lon="-0.50356">
        <ele>125</ele>
        <time>2011-03-05T13:22:33Z</time>
      </trkpt>
      <trkpt lat="48.97758" lon="-0.50354">
        <ele>125</ele>
        <time>2011-03-05T13:22:42Z</time>
      </trkpt>
      <trkpt lat="48.97748" lon="-0.50352">
        <ele>125</ele>
        <time>2011-03-05T13:22:52Z</time>
      </trkpt>
      <trkpt lat="48.97738" lon="-0.50348">
        <ele>125</ele>
        <time>2011-03-05T13:23:00Z</time>
      </trkpt>
      <trkpt lat="48.97729" lon="-0.50346">
        <ele>131</ele>
        <time>2011-03-05T13:23:08Z</time>
      </trkpt>
      <trkpt lat="48.9772" lon="-0.50342">
        <ele>131</ele>
        <time>2011-03-05T13:23:15Z</time>
      </trkpt>
      <trkpt lat="48.9771" lon="-0.50337">
        <ele>131</ele>
        <time>2011-03-05T13:23:23Z</time>
      </trkpt>
      <trkpt lat="48.977" lon="-0.50334">
        <ele>131</ele>
        <time>2011-03-05T13:23:31Z</time>
      </trkpt>
      <trkpt lat="48.9769" lon="-0.50332">
        <ele>131</ele>
        <time>2011-03-05T13:23:39Z</time>
      </trkpt>
      <trkpt lat="48.9768" lon="-0.5033">
        <ele>136</ele>
        <time>2011-03-05T13:23:47Z</time>
      </trkpt>
      <trkpt lat="48.97671" lon="-0.50325">
        <ele>136</ele>
        <time>2011-03-05T13:23:56Z</time>
      </trkpt>
      <trkpt lat="48.97661" lon="-0.50323">
        <ele>136</ele>
        <time>2011-03-05T13:24:04Z</time>
      </trkpt>
      <trkpt lat="48.97652" lon="-0.50318">
        <ele>136</ele>
        <time>2011-03-05T13:24:12Z</time>
      </trkpt>
      <trkpt lat="48.97643" lon="-0.50313">
        <ele>136</ele>
        <time>2011-03-05T13:24:22Z</time>
      </trkpt>
      <trkpt lat="48.97633" lon="-0.50308">
        <ele>136</ele>
        <time>2011-03-05T13:24:30Z</time>
      </trkpt>
      <trkpt lat="48.97625" lon="-0.50303">
        <ele>136</ele>
        <time>2011-03-05T13:24:38Z</time>
      </trkpt>
      <trkpt lat="48.97615" lon="-0.50298">
        <ele>136</ele>
        <time>2011-03-05T13:24:47Z</time>
      </trkpt>
      <trkpt lat="48.97606" lon="-0.50293">
        <ele>136</ele>
        <time>2011-03-05T13:24:56Z</time>
      </trkpt>
      <trkpt lat="48.97597" lon="-0.5029">
        <ele>136</ele>
        <time>2011-03-05T13:25:04Z</time>
      </trkpt>
      <trkpt lat="48.97587" lon="-0.50286">
        <ele>136</ele>
        <time>2011-03-05T13:25:12Z</time>
      </trkpt>
      <trkpt lat="48.97578" lon="-0.50282">
        <ele>136</ele>
        <time>2011-03-05T13:25:20Z</time>
      </trkpt>
      <trkpt lat="48.9757" lon="-0.50277">
        <ele>136</ele>
        <time>2011-03-05T13:25:28Z</time>
      </trkpt>
      <trkpt lat="48.97561" lon="-0.5027">
        <ele>136</ele>
        <time>2011-03-05T13:25:37Z</time>
      </trkpt>
      <trkpt lat="48.97552" lon="-0.50264">
        <ele>136</ele>
        <time>2011-03-05T13:25:45Z</time>
      </trkpt>
      <trkpt lat="48.97544" lon="-0.5026">
        <ele>136</ele>
        <time>2011-03-05T13:25:53Z</time>
      </trkpt>
      <trkpt lat="48.97535" lon="-0.50254">
        <ele>136</ele>
        <time>2011-03-05T13:26:01Z</time>
      </trkpt>
      <trkpt lat="48.97526" lon="-0.50249">
        <ele>136</ele>
        <time>2011-03-05T13:26:09Z</time>
      </trkpt>
      <trkpt lat="48.97516" lon="-0.50244">
        <ele>136</ele>
        <time>2011-03-05T13:26:17Z</time>
      </trkpt>
      <trkpt lat="48.97508" lon="-0.50237">
        <ele>136</ele>
        <time>2011-03-05T13:26:26Z</time>
      </trkpt>
      <trkpt lat="48.97499" lon="-0.50231">
        <ele>130</ele>
        <time>2011-03-05T13:26:35Z</time>
      </trkpt>
      <trkpt lat="48.97489" lon="-0.50226">
        <ele>130</ele>
        <time>2011-03-05T13:26:44Z</time>
      </trkpt>
      <trkpt lat="48.9748" lon="-0.5022">
        <ele>130</ele>
        <time>2011-03-05T13:26:53Z</time>
      </trkpt>
      <trkpt lat="48.9747" lon="-0.50214">
        <ele>130</ele>
        <time>2011-03-05T13:27:02Z</time>
      </trkpt>
      <trkpt lat="48.9746" lon="-0.50214">
        <ele>122</ele>
        <time>2011-03-05T13:27:11Z</time>
      </trkpt>
      <trkpt lat="48.97451" lon="-0.50216">
        <ele>122</ele>
        <time>2011-03-05T13:27:19Z</time>
      </trkpt>
      <trkpt lat="48.97442" lon="-0.50212">
        <ele>122</ele>
        <time>2011-03-05T13:27:29Z</time>
      </trkpt>
      <trkpt lat="48.97433" lon="-0.50208">
        <ele>116</ele>
        <time>2011-03-05T13:27:40Z</time>
      </trkpt>
      <trkpt lat="48.97425" lon="-0.50198">
        <ele>116</ele>
        <time>2011-03-05T13:27:50Z</time>
      </trkpt>
      <trkpt lat="48.97419" lon="-0.50187">
        <ele>116</ele>
        <time>2011-03-05T13:27:59Z</time>
      </trkpt>
      <trkpt lat="48.97412" lon="-0.50179">
        <ele>109</ele>
        <time>2011-03-05T13:28:14Z</time>
      </trkpt>
      <trkpt lat="48.97405" lon="-0.50167">
        <ele>109</ele>
        <time>2011-03-05T13:28:24Z</time>
      </trkpt>
      <trkpt lat="48.97397" lon="-0.5016">
        <ele>109</ele>
        <time>2011-03-05T13:28:34Z</time>
      </trkpt>
      <trkpt lat="48.97393" lon="-0.50174">
        <ele>109</ele>
        <time>2011-03-05T13:28:45Z</time>
      </trkpt>
      <trkpt lat="48.97395" lon="-0.50188">
        <ele>109</ele>
        <time>2011-03-05T13:28:55Z</time>
      </trkpt>
      <trkpt lat="48.97394" lon="-0.50202">
        <ele>109</ele>
        <time>2011-03-05T13:29:02Z</time>
      </trkpt>
      <trkpt lat="48.97392" lon="-0.50216">
        <ele>109</ele>
        <time>2011-03-05T13:29:10Z</time>
      </trkpt>
      <trkpt lat="48.97389" lon="-0.50229">
        <ele>109</ele>
        <time>2011-03-05T13:29:17Z</time>
      </trkpt>
      <trkpt lat="48.97388" lon="-0.50244">
        <ele>109</ele>
        <time>2011-03-05T13:29:25Z</time>
      </trkpt>
      <trkpt lat="48.97383" lon="-0.50257">
        <ele>109</ele>
        <time>2011-03-05T13:29:33Z</time>
      </trkpt>
      <trkpt lat="48.97374" lon="-0.50264">
        <ele>109</ele>
        <time>2011-03-05T13:29:43Z</time>
      </trkpt>
      <trkpt lat="48.97364" lon="-0.50264">
        <ele>109</ele>
        <time>2011-03-05T13:29:50Z</time>
      </trkpt>
      <trkpt lat="48.97354" lon="-0.50263">
        <ele>109</ele>
        <time>2011-03-05T13:29:58Z</time>
      </trkpt>
      <trkpt lat="48.97345" lon="-0.50255">
        <ele>109</ele>
        <time>2011-03-05T13:30:06Z</time>
      </trkpt>
      <trkpt lat="48.97337" lon="-0.50252">
        <ele>109</ele>
        <time>2011-03-05T13:30:15Z</time>
      </trkpt>
      <trkpt lat="48.97328" lon="-0.50243">
        <ele>109</ele>
        <time>2011-03-05T13:30:24Z</time>
      </trkpt>
      <trkpt lat="48.97318" lon="-0.50245">
        <ele>109</ele>
        <time>2011-03-05T13:30:33Z</time>
      </trkpt>
      <trkpt lat="48.97311" lon="-0.50254">
        <ele>109</ele>
        <time>2011-03-05T13:30:41Z</time>
      </trkpt>
      <trkpt lat="48.97304" lon="-0.50264">
        <ele>109</ele>
        <time>2011-03-05T13:30:49Z</time>
      </trkpt>
      <trkpt lat="48.97298" lon="-0.50274">
        <ele>109</ele>
        <time>2011-03-05T13:30:56Z</time>
      </trkpt>
      <trkpt lat="48.97289" lon="-0.50284">
        <ele>109</ele>
        <time>2011-03-05T13:31:05Z</time>
      </trkpt>
      <trkpt lat="48.97283" lon="-0.50294">
        <ele>109</ele>
        <time>2011-03-05T13:31:13Z</time>
      </trkpt>
      <trkpt lat="48.97276" lon="-0.50304">
        <ele>109</ele>
        <time>2011-03-05T13:31:21Z</time>
      </trkpt>
      <trkpt lat="48.97269" lon="-0.50314">
        <ele>109</ele>
        <time>2011-03-05T13:31:29Z</time>
      </trkpt>
      <trkpt lat="48.97263" lon="-0.50325">
        <ele>109</ele>
        <time>2011-03-05T13:31:37Z</time>
      </trkpt>
      <trkpt lat="48.97256" lon="-0.50335">
        <ele>109</ele>
        <time>2011-03-05T13:31:46Z</time>
      </trkpt>
      <trkpt lat="48.9725" lon="-0.50346">
        <ele>114</ele>
        <time>2011-03-05T13:31:55Z</time>
      </trkpt>
      <trkpt lat="48.97244" lon="-0.50359">
        <ele>114</ele>
        <time>2011-03-05T13:32:04Z</time>
      </trkpt>
      <trkpt lat="48.97237" lon="-0.5037">
        <ele>114</ele>
        <time>2011-03-05T13:32:13Z</time>
      </trkpt>
      <trkpt lat="48.9723" lon="-0.50383">
        <ele>114</ele>
        <time>2011-03-05T13:32:22Z</time>
      </trkpt>
      <trkpt lat="48.97224" lon="-0.50393">
        <ele>114</ele>
        <time>2011-03-05T13:32:34Z</time>
      </trkpt>
      <trkpt lat="48.97218" lon="-0.50405">
        <ele>114</ele>
        <time>2011-03-05T13:32:42Z</time>
      </trkpt>
      <trkpt lat="48.97212" lon="-0.50416">
        <ele>119</ele>
        <time>2011-03-05T13:32:51Z</time>
      </trkpt>
      <trkpt lat="48.97207" lon="-0.50427">
        <ele>119</ele>
        <time>2011-03-05T13:33:15Z</time>
      </trkpt>
      <trkpt lat="48.97201" lon="-0.50438">
        <ele>119</ele>
        <time>2011-03-05T13:33:23Z</time>
      </trkpt>
      <trkpt lat="48.97194" lon="-0.50449">
        <ele>119</ele>
        <time>2011-03-05T13:33:31Z</time>
      </trkpt>
      <trkpt lat="48.97187" lon="-0.5046">
        <ele>119</ele>
        <time>2011-03-05T13:33:40Z</time>
      </trkpt>
      <trkpt lat="48.9718" lon="-0.50472">
        <ele>119</ele>
        <time>2011-03-05T13:33:49Z</time>
      </trkpt>
      <trkpt lat="48.97173" lon="-0.50481">
        <ele>119</ele>
        <time>2011-03-05T13:33:57Z</time>
      </trkpt>
      <trkpt lat="48.97166" lon="-0.50491">
        <ele>119</ele>
        <time>2011-03-05T13:34:05Z</time>
      </trkpt>
      <trkpt lat="48.9716" lon="-0.50502">
        <ele>119</ele>
        <time>2011-03-05T13:34:13Z</time>
      </trkpt>
      <trkpt lat="48.97153" lon="-0.50511">
        <ele>119</ele>
        <time>2011-03-05T13:34:21Z</time>
      </trkpt>
      <trkpt lat="48.97147" lon="-0.50522">
        <ele>119</ele>
        <time>2011-03-05T13:34:29Z</time>
      </trkpt>
      <trkpt lat="48.9714" lon="-0.50532">
        <ele>119</ele>
        <time>2011-03-05T13:34:38Z</time>
      </trkpt>
      <trkpt lat="48.97133" lon="-0.50542">
        <ele>119</ele>
        <time>2011-03-05T13:34:46Z</time>
      </trkpt>
      <trkpt lat="48.97126" lon="-0.50552">
        <ele>119</ele>
        <time>2011-03-05T13:34:53Z</time>
      </trkpt>
      <trkpt lat="48.97119" lon="-0.50563">
        <ele>119</ele>
        <time>2011-03-05T13:35:01Z</time>
      </trkpt>
      <trkpt lat="48.97112" lon="-0.50573">
        <ele>119</ele>
        <time>2011-03-05T13:35:09Z</time>
      </trkpt>
      <trkpt lat="48.97105" lon="-0.50582">
        <ele>119</ele>
        <time>2011-03-05T13:35:17Z</time>
      </trkpt>
      <trkpt lat="48.97099" lon="-0.50593">
        <ele>119</ele>
        <time>2011-03-05T13:35:24Z</time>
      </trkpt>
      <trkpt lat="48.97093" lon="-0.50603">
        <ele>119</ele>
        <time>2011-03-05T13:35:32Z</time>
      </trkpt>
      <trkpt lat="48.97087" lon="-0.50614">
        <ele>119</ele>
        <time>2011-03-05T13:35:40Z</time>
      </trkpt>
      <trkpt lat="48.9708" lon="-0.50624">
        <ele>119</ele>
        <time>2011-03-05T13:35:48Z</time>
      </trkpt>
      <trkpt lat="48.97072" lon="-0.50634">
        <ele>119</ele>
        <time>2011-03-05T13:35:56Z</time>
      </trkpt>
      <trkpt lat="48.97064" lon="-0.50643">
        <ele>119</ele>
        <time>2011-03-05T13:36:04Z</time>
      </trkpt>
      <trkpt lat="48.97056" lon="-0.50652">
        <ele>119</ele>
        <time>2011-03-05T13:36:13Z</time>
      </trkpt>
      <trkpt lat="48.97049" lon="-0.50662">
        <ele>119</ele>
        <time>2011-03-05T13:36:22Z</time>
      </trkpt>
      <trkpt lat="48.97041" lon="-0.50672">
        <ele>119</ele>
        <time>2011-03-05T13:36:31Z</time>
      </trkpt>
      <trkpt lat="48.97034" lon="-0.50682">
        <ele>119</ele>
        <time>2011-03-05T13:36:39Z</time>
      </trkpt>
      <trkpt lat="48.97028" lon="-0.50694">
        <ele>119</ele>
        <time>2011-03-05T13:36:47Z</time>
      </trkpt>
      <trkpt lat="48.97032" lon="-0.50707">
        <ele>119</ele>
        <time>2011-03-05T13:36:57Z</time>
      </trkpt>
      <trkpt lat="48.97041" lon="-0.50714">
        <ele>119</ele>
        <time>2011-03-05T13:37:06Z</time>
      </trkpt>
      <trkpt lat="48.97046" lon="-0.50728">
        <ele>119</ele>
        <time>2011-03-05T13:37:15Z</time>
      </trkpt>
      <trkpt lat="48.9704" lon="-0.5074">
        <ele>119</ele>
        <time>2011-03-05T13:37:24Z</time>
      </trkpt>
      <trkpt lat="48.9703" lon="-0.50747">
        <ele>119</ele>
        <time>2011-03-05T13:37:33Z</time>
      </trkpt>
      <trkpt lat="48.97021" lon="-0.50753">
        <ele>119</ele>
        <time>2011-03-05T13:37:43Z</time>
      </trkpt>
      <trkpt lat="48.97013" lon="-0.50759">
        <ele>119</ele>
        <time>2011-03-05T13:37:52Z</time>
      </trkpt>
      <trkpt lat="48.97004" lon="-0.50768">
        <ele>119</ele>
        <time>2011-03-05T13:37:59Z</time>
      </trkpt>
      <trkpt lat="48.96996" lon="-0.50777">
        <ele>119</ele>
        <time>2011-03-05T13:38:07Z</time>
      </trkpt>
      <trkpt lat="48.96988" lon="-0.50786">
        <ele>125</ele>
        <time>2011-03-05T13:38:16Z</time>
      </trkpt>
      <trkpt lat="48.9698" lon="-0.50794">
        <ele>125</ele>
        <time>2011-03-05T13:38:24Z</time>
      </trkpt>
      <trkpt lat="48.96972" lon="-0.50803">
        <ele>125</ele>
        <time>2011-03-05T13:38:32Z</time>
      </trkpt>
      <trkpt lat="48.96965" lon="-0.50811">
        <ele>125</ele>
        <time>2011-03-05T13:38:40Z</time>
      </trkpt>
      <trkpt lat="48.96957" lon="-0.50822">
        <ele>125</ele>
        <time>2011-03-05T13:38:49Z</time>
      </trkpt>
      <trkpt lat="48.96951" lon="-0.50833">
        <ele>125</ele>
        <time>2011-03-05T13:38:57Z</time>
      </trkpt>
      <trkpt lat="48.96946" lon="-0.50846">
        <ele>125</ele>
        <time>2011-03-05T13:39:06Z</time>
      </trkpt>
      <trkpt lat="48.96941" lon="-0.50859">
        <ele>125</ele>
        <time>2011-03-05T13:39:15Z</time>
      </trkpt>
      <trkpt lat="48.96937" lon="-0.50872">
        <ele>125</ele>
        <time>2011-03-05T13:39:23Z</time>
      </trkpt>
      <trkpt lat="48.9693" lon="-0.50883">
        <ele>131</ele>
        <time>2011-03-05T13:39:31Z</time>
      </trkpt>
      <trkpt lat="48.96924" lon="-0.50895">
        <ele>131</ele>
        <time>2011-03-05T13:39:40Z</time>
      </trkpt>
      <trkpt lat="48.9692" lon="-0.50908">
        <ele>131</ele>
        <time>2011-03-05T13:39:49Z</time>
      </trkpt>
      <trkpt lat="48.96918" lon="-0.50922">
        <ele>131</ele>
        <time>2011-03-05T13:40:00Z</time>
      </trkpt>
      <trkpt lat="48.96912" lon="-0.50933">
        <ele>131</ele>
        <time>2011-03-05T13:40:29Z</time>
      </trkpt>
      <trkpt lat="48.9691" lon="-0.50946">
        <ele>131</ele>
        <time>2011-03-05T13:40:54Z</time>
      </trkpt>
      <trkpt lat="48.96904" lon="-0.50958">
        <ele>131</ele>
        <time>2011-03-05T13:41:07Z</time>
      </trkpt>
      <trkpt lat="48.969" lon="-0.5097">
        <ele>131</ele>
        <time>2011-03-05T13:41:19Z</time>
      </trkpt>
      <trkpt lat="48.96894" lon="-0.50982">
        <ele>131</ele>
        <time>2011-03-05T13:41:31Z</time>
      </trkpt>
      <trkpt lat="48.9689" lon="-0.50995">
        <ele>137</ele>
        <time>2011-03-05T13:41:42Z</time>
      </trkpt>
      <trkpt lat="48.96885" lon="-0.51007">
        <ele>137</ele>
        <time>2011-03-05T13:41:53Z</time>
      </trkpt>
      <trkpt lat="48.96881" lon="-0.5102">
        <ele>137</ele>
        <time>2011-03-05T13:42:04Z</time>
      </trkpt>
      <trkpt lat="48.96876" lon="-0.51033">
        <ele>137</ele>
        <time>2011-03-05T13:42:16Z</time>
      </trkpt>
      <trkpt lat="48.96871" lon="-0.51045">
        <ele>142</ele>
        <time>2011-03-05T13:42:28Z</time>
      </trkpt>
      <trkpt lat="48.96866" lon="-0.51058">
        <ele>142</ele>
        <time>2011-03-05T13:42:40Z</time>
      </trkpt>
      <trkpt lat="48.96862" lon="-0.5107">
        <ele>148</ele>
        <time>2011-03-05T13:42:53Z</time>
      </trkpt>
      <trkpt lat="48.96858" lon="-0.51083">
        <ele>148</ele>
        <time>2011-03-05T13:43:04Z</time>
      </trkpt>
      <trkpt lat="48.96852" lon="-0.51094">
        <ele>154</ele>
        <time>2011-03-05T13:43:17Z</time>
      </trkpt>
      <trkpt lat="48.96848" lon="-0.51107">
        <ele>154</ele>
        <time>2011-03-05T13:43:32Z</time>
      </trkpt>
      <trkpt lat="48.96844" lon="-0.5112">
        <ele>163</ele>
        <time>2011-03-05T13:43:46Z</time>
      </trkpt>
      <trkpt lat="48.96839" lon="-0.51131">
        <ele>163</ele>
        <time>2011-03-05T13:43:57Z</time>
      </trkpt>
      <trkpt lat="48.96836" lon="-0.51145">
        <ele>163</ele>
        <time>2011-03-05T13:44:16Z</time>
      </trkpt>
      <trkpt lat="48.96832" lon="-0.51158">
        <ele>170</ele>
        <time>2011-03-05T13:44:37Z</time>
      </trkpt>
      <trkpt lat="48.9683" lon="-0.51173">
        <ele>170</ele>
        <time>2011-03-05T13:44:55Z</time>
      </trkpt>
      <trkpt lat="48.96827" lon="-0.51186">
        <ele>177</ele>
        <time>2011-03-05T13:45:11Z</time>
      </trkpt>
      <trkpt lat="48.96823" lon="-0.512">
        <ele>182</ele>
        <time>2011-03-05T13:45:44Z</time>
      </trkpt>
      <trkpt lat="48.96825" lon="-0.51214">
        <ele>182</ele>
        <time>2011-03-05T13:46:00Z</time>
      </trkpt>
      <trkpt lat="48.9682" lon="-0.51226">
        <ele>188</ele>
        <time>2011-03-05T13:46:22Z</time>
      </trkpt>
      <trkpt lat="48.96815" lon="-0.51238">
        <ele>188</ele>
        <time>2011-03-05T13:46:43Z</time>
      </trkpt>
      <trkpt lat="48.96808" lon="-0.51249">
        <ele>188</ele>
        <time>2011-03-05T13:46:57Z</time>
      </trkpt>
      <trkpt lat="48.96802" lon="-0.51259">
        <ele>188</ele>
        <time>2011-03-05T13:47:18Z</time>
      </trkpt>
      <trkpt lat="48.96792" lon="-0.51258">
        <ele>194</ele>
        <time>2011-03-05T13:47:33Z</time>
      </trkpt>
      <trkpt lat="48.96782" lon="-0.51263">
        <ele>194</ele>
        <time>2011-03-05T13:47:46Z</time>
      </trkpt>
      <trkpt lat="48.96774" lon="-0.5127">
        <ele>203</ele>
        <time>2011-03-05T13:48:34Z</time>
      </trkpt>
      <trkpt lat="48.96774" lon="-0.51256">
        <ele>203</ele>
        <time>2011-03-05T13:48:51Z</time>
      </trkpt>
      <trkpt lat="48.96774" lon="-0.51242">
        <ele>185</ele>
        <time>2011-03-05T13:51:26Z</time>
      </trkpt>
      <trkpt lat="48.96778" lon="-0.51254">
        <ele>203</ele>
        <time>2011-03-05T13:54:14Z</time>
      </trkpt>
      <trkpt lat="48.96786" lon="-0.51262">
        <ele>198</ele>
        <time>2011-03-05T13:54:41Z</time>
      </trkpt>
      <trkpt lat="48.96794" lon="-0.5127">
        <ele>192</ele>
        <time>2011-03-05T13:54:55Z</time>
      </trkpt>
      <trkpt lat="48.96801" lon="-0.51279">
        <ele>185</ele>
        <time>2011-03-05T13:55:10Z</time>
      </trkpt>
      <trkpt lat="48.9681" lon="-0.51288">
        <ele>185</ele>
        <time>2011-03-05T13:55:18Z</time>
      </trkpt>
      <trkpt lat="48.96817" lon="-0.51296">
        <ele>180</ele>
        <time>2011-03-05T13:55:30Z</time>
      </trkpt>
      <trkpt lat="48.96826" lon="-0.513">
        <ele>180</ele>
        <time>2011-03-05T13:55:40Z</time>
      </trkpt>
      <trkpt lat="48.96836" lon="-0.51303">
        <ele>180</ele>
        <time>2011-03-05T13:55:49Z</time>
      </trkpt>
      <trkpt lat="48.96845" lon="-0.51303">
        <ele>180</ele>
        <time>2011-03-05T13:55:59Z</time>
      </trkpt>
      <trkpt lat="48.96853" lon="-0.5131">
        <ele>180</ele>
        <time>2011-03-05T13:56:30Z</time>
      </trkpt>
      <trkpt lat="48.96863" lon="-0.51312">
        <ele>180</ele>
        <time>2011-03-05T13:57:19Z</time>
      </trkpt>
      <trkpt lat="48.96872" lon="-0.51316">
        <ele>185</ele>
        <time>2011-03-05T13:59:05Z</time>
      </trkpt>
      <trkpt lat="48.96877" lon="-0.51329">
        <ele>185</ele>
        <time>2011-03-05T13:59:45Z</time>
      </trkpt>
      <trkpt lat="48.96884" lon="-0.5134">
        <ele>185</ele>
        <time>2011-03-05T13:59:54Z</time>
      </trkpt>
      <trkpt lat="48.96886" lon="-0.51354">
        <ele>185</ele>
        <time>2011-03-05T14:00:01Z</time>
      </trkpt>
      <trkpt lat="48.96892" lon="-0.51367">
        <ele>185</ele>
        <time>2011-03-05T14:00:09Z</time>
      </trkpt>
      <trkpt lat="48.96898" lon="-0.51378">
        <ele>185</ele>
        <time>2011-03-05T14:00:18Z</time>
      </trkpt>
      <trkpt lat="48.96904" lon="-0.51389">
        <ele>185</ele>
        <time>2011-03-05T14:00:25Z</time>
      </trkpt>
      <trkpt lat="48.96908" lon="-0.51403">
        <ele>185</ele>
        <time>2011-03-05T14:00:34Z</time>
      </trkpt>
      <trkpt lat="48.96911" lon="-0.51417">
        <ele>180</ele>
        <time>2011-03-05T14:00:44Z</time>
      </trkpt>
      <trkpt lat="48.96916" lon="-0.51429">
        <ele>180</ele>
        <time>2011-03-05T14:00:51Z</time>
      </trkpt>
      <trkpt lat="48.96922" lon="-0.5144">
        <ele>180</ele>
        <time>2011-03-05T14:01:00Z</time>
      </trkpt>
      <trkpt lat="48.96928" lon="-0.51452">
        <ele>180</ele>
        <time>2011-03-05T14:01:07Z</time>
      </trkpt>
      <trkpt lat="48.96933" lon="-0.51464">
        <ele>180</ele>
        <time>2011-03-05T14:01:15Z</time>
      </trkpt>
      <trkpt lat="48.96938" lon="-0.51476">
        <ele>180</ele>
        <time>2011-03-05T14:01:24Z</time>
      </trkpt>
      <trkpt lat="48.96946" lon="-0.51487">
        <ele>180</ele>
        <time>2011-03-05T14:01:32Z</time>
      </trkpt>
      <trkpt lat="48.96952" lon="-0.51497">
        <ele>180</ele>
        <time>2011-03-05T14:01:40Z</time>
      </trkpt>
      <trkpt lat="48.96959" lon="-0.51507">
        <ele>180</ele>
        <time>2011-03-05T14:01:47Z</time>
      </trkpt>
      <trkpt lat="48.96966" lon="-0.51518">
        <ele>180</ele>
        <time>2011-03-05T14:01:55Z</time>
      </trkpt>
      <trkpt lat="48.96972" lon="-0.51528">
        <ele>180</ele>
        <time>2011-03-05T14:02:04Z</time>
      </trkpt>
      <trkpt lat="48.96979" lon="-0.51538">
        <ele>180</ele>
        <time>2011-03-05T14:02:12Z</time>
      </trkpt>
      <trkpt lat="48.96985" lon="-0.51548">
        <ele>180</ele>
        <time>2011-03-05T14:02:19Z</time>
      </trkpt>
      <trkpt lat="48.96992" lon="-0.51557">
        <ele>180</ele>
        <time>2011-03-05T14:02:27Z</time>
      </trkpt>
      <trkpt lat="48.97" lon="-0.51567">
        <ele>180</ele>
        <time>2011-03-05T14:02:36Z</time>
      </trkpt>
      <trkpt lat="48.97008" lon="-0.51575">
        <ele>180</ele>
        <time>2011-03-05T14:02:45Z</time>
      </trkpt>
      <trkpt lat="48.97015" lon="-0.51583">
        <ele>180</ele>
        <time>2011-03-05T14:02:54Z</time>
      </trkpt>
      <trkpt lat="48.97023" lon="-0.51592">
        <ele>180</ele>
        <time>2011-03-05T14:03:02Z</time>
      </trkpt>
      <trkpt lat="48.97031" lon="-0.51602">
        <ele>180</ele>
        <time>2011-03-05T14:03:11Z</time>
      </trkpt>
      <trkpt lat="48.97039" lon="-0.5161">
        <ele>180</ele>
        <time>2011-03-05T14:03:18Z</time>
      </trkpt>
      <trkpt lat="48.97046" lon="-0.51619">
        <ele>175</ele>
        <time>2011-03-05T14:03:26Z</time>
      </trkpt>
      <trkpt lat="48.97054" lon="-0.51629">
        <ele>175</ele>
        <time>2011-03-05T14:03:34Z</time>
      </trkpt>
      <trkpt lat="48.9706" lon="-0.51639">
        <ele>175</ele>
        <time>2011-03-05T14:03:42Z</time>
      </trkpt>
      <trkpt lat="48.97068" lon="-0.51649">
        <ele>175</ele>
        <time>2011-03-05T14:03:49Z</time>
      </trkpt>
      <trkpt lat="48.97073" lon="-0.5166">
        <ele>175</ele>
        <time>2011-03-05T14:03:58Z</time>
      </trkpt>
      <trkpt lat="48.97079" lon="-0.51673">
        <ele>175</ele>
        <time>2011-03-05T14:04:06Z</time>
      </trkpt>
      <trkpt lat="48.97086" lon="-0.51684">
        <ele>175</ele>
        <time>2011-03-05T14:04:14Z</time>
      </trkpt>
      <trkpt lat="48.97093" lon="-0.51695">
        <ele>175</ele>
        <time>2011-03-05T14:04:22Z</time>
      </trkpt>
      <trkpt lat="48.97099" lon="-0.51706">
        <ele>175</ele>
        <time>2011-03-05T14:04:31Z</time>
      </trkpt>
      <trkpt lat="48.97107" lon="-0.51717">
        <ele>175</ele>
        <time>2011-03-05T14:04:39Z</time>
      </trkpt>
      <trkpt lat="48.97113" lon="-0.5173">
        <ele>175</ele>
        <time>2011-03-05T14:04:47Z</time>
      </trkpt>
      <trkpt lat="48.9712" lon="-0.51739">
        <ele>175</ele>
        <time>2011-03-05T14:04:55Z</time>
      </trkpt>
      <trkpt lat="48.97125" lon="-0.51751">
        <ele>175</ele>
        <time>2011-03-05T14:05:02Z</time>
      </trkpt>
      <trkpt lat="48.97133" lon="-0.51762">
        <ele>175</ele>
        <time>2011-03-05T14:05:08Z</time>
      </trkpt>
      <trkpt lat="48.97138" lon="-0.51774">
        <ele>175</ele>
        <time>2011-03-05T14:05:16Z</time>
      </trkpt>
      <trkpt lat="48.97143" lon="-0.51786">
        <ele>175</ele>
        <time>2011-03-05T14:05:24Z</time>
      </trkpt>
      <trkpt lat="48.9715" lon="-0.51797">
        <ele>175</ele>
        <time>2011-03-05T14:05:30Z</time>
      </trkpt>
      <trkpt lat="48.97155" lon="-0.51809">
        <ele>181</ele>
        <time>2011-03-05T14:05:37Z</time>
      </trkpt>
      <trkpt lat="48.97156" lon="-0.51823">
        <ele>181</ele>
        <time>2011-03-05T14:05:45Z</time>
      </trkpt>
      <trkpt lat="48.97153" lon="-0.51836">
        <ele>181</ele>
        <time>2011-03-05T14:05:53Z</time>
      </trkpt>
      <trkpt lat="48.9715" lon="-0.5185">
        <ele>181</ele>
        <time>2011-03-05T14:06:00Z</time>
      </trkpt>
      <trkpt lat="48.97149" lon="-0.51865">
        <ele>181</ele>
        <time>2011-03-05T14:06:09Z</time>
      </trkpt>
      <trkpt lat="48.97147" lon="-0.51879">
        <ele>181</ele>
        <time>2011-03-05T14:06:17Z</time>
      </trkpt>
      <trkpt lat="48.97147" lon="-0.51893">
        <ele>181</ele>
        <time>2011-03-05T14:06:26Z</time>
      </trkpt>
      <trkpt lat="48.97145" lon="-0.51907">
        <ele>175</ele>
        <time>2011-03-05T14:06:35Z</time>
      </trkpt>
      <trkpt lat="48.97139" lon="-0.51919">
        <ele>175</ele>
        <time>2011-03-05T14:06:43Z</time>
      </trkpt>
      <trkpt lat="48.97132" lon="-0.51929">
        <ele>175</ele>
        <time>2011-03-05T14:06:51Z</time>
      </trkpt>
      <trkpt lat="48.97124" lon="-0.51937">
        <ele>169</ele>
        <time>2011-03-05T14:07:00Z</time>
      </trkpt>
      <trkpt lat="48.97116" lon="-0.51948">
        <ele>169</ele>
        <time>2011-03-05T14:07:09Z</time>
      </trkpt>
      <trkpt lat="48.97109" lon="-0.51958">
        <ele>169</ele>
        <time>2011-03-05T14:07:38Z</time>
      </trkpt>
      <trkpt lat="48.97101" lon="-0.51966">
        <ele>169</ele>
        <time>2011-03-05T14:07:46Z</time>
      </trkpt>
      <trkpt lat="48.97092" lon="-0.51974">
        <ele>169</ele>
        <time>2011-03-05T14:07:54Z</time>
      </trkpt>
      <trkpt lat="48.97084" lon="-0.51981">
        <ele>169</ele>
        <time>2011-03-05T14:08:03Z</time>
      </trkpt>
      <trkpt lat="48.97074" lon="-0.51986">
        <ele>169</ele>
        <time>2011-03-05T14:08:11Z</time>
      </trkpt>
      <trkpt lat="48.97065" lon="-0.51992">
        <ele>169</ele>
        <time>2011-03-05T14:08:19Z</time>
      </trkpt>
      <trkpt lat="48.97056" lon="-0.51997">
        <ele>169</ele>
        <time>2011-03-05T14:08:27Z</time>
      </trkpt>
      <trkpt lat="48.97047" lon="-0.52003">
        <ele>169</ele>
        <time>2011-03-05T14:08:35Z</time>
      </trkpt>
      <trkpt lat="48.97038" lon="-0.52008">
        <ele>169</ele>
        <time>2011-03-05T14:08:44Z</time>
      </trkpt>
      <trkpt lat="48.97029" lon="-0.52013">
        <ele>169</ele>
        <time>2011-03-05T14:08:52Z</time>
      </trkpt>
      <trkpt lat="48.9702" lon="-0.52018">
        <ele>169</ele>
        <time>2011-03-05T14:09:00Z</time>
      </trkpt>
      <trkpt lat="48.97011" lon="-0.52023">
        <ele>169</ele>
        <time>2011-03-05T14:09:08Z</time>
      </trkpt>
      <trkpt lat="48.97002" lon="-0.52028">
        <ele>169</ele>
        <time>2011-03-05T14:09:16Z</time>
      </trkpt>
      <trkpt lat="48.96994" lon="-0.52035">
        <ele>169</ele>
        <time>2011-03-05T14:09:24Z</time>
      </trkpt>
      <trkpt lat="48.96986" lon="-0.52042">
        <ele>169</ele>
        <time>2011-03-05T14:09:32Z</time>
      </trkpt>
      <trkpt lat="48.96978" lon="-0.5205">
        <ele>169</ele>
        <time>2011-03-05T14:09:41Z</time>
      </trkpt>
      <trkpt lat="48.9697" lon="-0.52059">
        <ele>163</ele>
        <time>2011-03-05T14:09:49Z</time>
      </trkpt>
      <trkpt lat="48.96962" lon="-0.52067">
        <ele>163</ele>
        <time>2011-03-05T14:09:57Z</time>
      </trkpt>
      <trkpt lat="48.96953" lon="-0.52074">
        <ele>163</ele>
        <time>2011-03-05T14:10:06Z</time>
      </trkpt>
      <trkpt lat="48.96945" lon="-0.52083">
        <ele>163</ele>
        <time>2011-03-05T14:10:15Z</time>
      </trkpt>
      <trkpt lat="48.96936" lon="-0.5209">
        <ele>163</ele>
        <time>2011-03-05T14:10:22Z</time>
      </trkpt>
      <trkpt lat="48.96928" lon="-0.52097">
        <ele>163</ele>
        <time>2011-03-05T14:10:29Z</time>
      </trkpt>
      <trkpt lat="48.96919" lon="-0.52102">
        <ele>163</ele>
        <time>2011-03-05T14:10:38Z</time>
      </trkpt>
      <trkpt lat="48.96909" lon="-0.52109">
        <ele>163</ele>
        <time>2011-03-05T14:10:46Z</time>
      </trkpt>
      <trkpt lat="48.969" lon="-0.52113">
        <ele>163</ele>
        <time>2011-03-05T14:11:12Z</time>
      </trkpt>
      <trkpt lat="48.96891" lon="-0.52119">
        <ele>158</ele>
        <time>2011-03-05T14:11:23Z</time>
      </trkpt>
      <trkpt lat="48.96882" lon="-0.52123">
        <ele>158</ele>
        <time>2011-03-05T14:11:32Z</time>
      </trkpt>
      <trkpt lat="48.96873" lon="-0.52128">
        <ele>158</ele>
        <time>2011-03-05T14:11:51Z</time>
      </trkpt>
      <trkpt lat="48.96867" lon="-0.5214">
        <ele>158</ele>
        <time>2011-03-05T14:12:05Z</time>
      </trkpt>
      <trkpt lat="48.9686" lon="-0.5215">
        <ele>158</ele>
        <time>2011-03-05T14:12:15Z</time>
      </trkpt>
      <trkpt lat="48.96853" lon="-0.5216">
        <ele>158</ele>
        <time>2011-03-05T14:12:24Z</time>
      </trkpt>
      <trkpt lat="48.96847" lon="-0.5217">
        <ele>158</ele>
        <time>2011-03-05T14:12:32Z</time>
      </trkpt>
      <trkpt lat="48.9684" lon="-0.52179">
        <ele>158</ele>
        <time>2011-03-05T14:12:38Z</time>
      </trkpt>
      <trkpt lat="48.96832" lon="-0.52188">
        <ele>158</ele>
        <time>2011-03-05T14:12:47Z</time>
      </trkpt>
      <trkpt lat="48.96823" lon="-0.52196">
        <ele>158</ele>
        <time>2011-03-05T14:12:56Z</time>
      </trkpt>
      <trkpt lat="48.96814" lon="-0.52203">
        <ele>158</ele>
        <time>2011-03-05T14:13:06Z</time>
      </trkpt>
      <trkpt lat="48.96806" lon="-0.52211">
        <ele>158</ele>
        <time>2011-03-05T14:13:14Z</time>
      </trkpt>
      <trkpt lat="48.96797" lon="-0.52219">
        <ele>158</ele>
        <time>2011-03-05T14:13:21Z</time>
      </trkpt>
      <trkpt lat="48.96788" lon="-0.52226">
        <ele>158</ele>
        <time>2011-03-05T14:13:33Z</time>
      </trkpt>
      <trkpt lat="48.9678" lon="-0.52236">
        <ele>158</ele>
        <time>2011-03-05T14:13:42Z</time>
      </trkpt>
      <trkpt lat="48.96771" lon="-0.52242">
        <ele>158</ele>
        <time>2011-03-05T14:13:50Z</time>
      </trkpt>
      <trkpt lat="48.96762" lon="-0.52248">
        <ele>158</ele>
        <time>2011-03-05T14:14:00Z</time>
      </trkpt>
      <trkpt lat="48.96753" lon="-0.52254">
        <ele>158</ele>
        <time>2011-03-05T14:14:10Z</time>
      </trkpt>
      <trkpt lat="48.96745" lon="-0.5226">
        <ele>158</ele>
        <time>2011-03-05T14:14:27Z</time>
      </trkpt>
      <trkpt lat="48.96736" lon="-0.52264">
        <ele>158</ele>
        <time>2011-03-05T14:14:37Z</time>
      </trkpt>
      <trkpt lat="48.96726" lon="-0.52269">
        <ele>158</ele>
        <time>2011-03-05T14:14:45Z</time>
      </trkpt>
      <trkpt lat="48.96717" lon="-0.52273">
        <ele>158</ele>
        <time>2011-03-05T14:14:55Z</time>
      </trkpt>
      <trkpt lat="48.96709" lon="-0.52281">
        <ele>158</ele>
        <time>2011-03-05T14:15:08Z</time>
      </trkpt>
      <trkpt lat="48.96699" lon="-0.5228">
        <ele>158</ele>
        <time>2011-03-05T14:15:26Z</time>
      </trkpt>
      <trkpt lat="48.96703" lon="-0.52268">
        <ele>151</ele>
        <time>2011-03-05T14:15:39Z</time>
      </trkpt>
      <trkpt lat="48.96695" lon="-0.52261">
        <ele>151</ele>
        <time>2011-03-05T14:15:49Z</time>
      </trkpt>
      <trkpt lat="48.96688" lon="-0.52271">
        <ele>151</ele>
        <time>2011-03-05T14:17:37Z</time>
      </trkpt>
      <trkpt lat="48.96687" lon="-0.52286">
        <ele>151</ele>
        <time>2011-03-05T14:17:46Z</time>
      </trkpt>
      <trkpt lat="48.96688" lon="-0.52295">
        <ele>136</ele>
        <time>2011-03-05T14:21:47Z</time>
      </trkpt>
      <trkpt lat="48.96682" lon="-0.52304">
        <ele>149</ele>
        <time>2011-03-05T14:22:04Z</time>
      </trkpt>
      <trkpt lat="48.96675" lon="-0.52314">
        <ele>149</ele>
        <time>2011-03-05T14:22:14Z</time>
      </trkpt>
      <trkpt lat="48.9667" lon="-0.52326">
        <ele>149</ele>
        <time>2011-03-05T14:22:23Z</time>
      </trkpt>
      <trkpt lat="48.96664" lon="-0.52338">
        <ele>149</ele>
        <time>2011-03-05T14:22:36Z</time>
      </trkpt>
      <trkpt lat="48.96656" lon="-0.52348">
        <ele>149</ele>
        <time>2011-03-05T14:22:45Z</time>
      </trkpt>
      <trkpt lat="48.9665" lon="-0.52357">
        <ele>149</ele>
        <time>2011-03-05T14:22:56Z</time>
      </trkpt>
      <trkpt lat="48.96646" lon="-0.52371">
        <ele>159</ele>
        <time>2011-03-05T14:23:08Z</time>
      </trkpt>
      <trkpt lat="48.96641" lon="-0.52384">
        <ele>159</ele>
        <time>2011-03-05T14:23:19Z</time>
      </trkpt>
      <trkpt lat="48.96634" lon="-0.52393">
        <ele>159</ele>
        <time>2011-03-05T14:23:29Z</time>
      </trkpt>
      <trkpt lat="48.96632" lon="-0.52407">
        <ele>159</ele>
        <time>2011-03-05T14:23:39Z</time>
      </trkpt>
      <trkpt lat="48.96627" lon="-0.52419">
        <ele>159</ele>
        <time>2011-03-05T14:23:50Z</time>
      </trkpt>
      <trkpt lat="48.96622" lon="-0.52432">
        <ele>159</ele>
        <time>2011-03-05T14:24:01Z</time>
      </trkpt>
      <trkpt lat="48.96617" lon="-0.52446">
        <ele>159</ele>
        <time>2011-03-05T14:24:12Z</time>
      </trkpt>
      <trkpt lat="48.96613" lon="-0.5246">
        <ele>159</ele>
        <time>2011-03-05T14:24:23Z</time>
      </trkpt>
      <trkpt lat="48.96609" lon="-0.52473">
        <ele>159</ele>
        <time>2011-03-05T14:24:33Z</time>
      </trkpt>
      <trkpt lat="48.96603" lon="-0.52485">
        <ele>159</ele>
        <time>2011-03-05T14:24:43Z</time>
      </trkpt>
      <trkpt lat="48.96597" lon="-0.52497">
        <ele>165</ele>
        <time>2011-03-05T14:24:56Z</time>
      </trkpt>
      <trkpt lat="48.96592" lon="-0.52508">
        <ele>165</ele>
        <time>2011-03-05T14:25:07Z</time>
      </trkpt>
      <trkpt lat="48.96587" lon="-0.5252">
        <ele>165</ele>
        <time>2011-03-05T14:25:19Z</time>
      </trkpt>
      <trkpt lat="48.96581" lon="-0.52531">
        <ele>165</ele>
        <time>2011-03-05T14:25:32Z</time>
      </trkpt>
      <trkpt lat="48.96575" lon="-0.52543">
        <ele>170</ele>
        <time>2011-03-05T14:25:44Z</time>
      </trkpt>
      <trkpt lat="48.96571" lon="-0.52555">
        <ele>175</ele>
        <time>2011-03-05T14:25:55Z</time>
      </trkpt>
      <trkpt lat="48.96565" lon="-0.52568">
        <ele>175</ele>
        <time>2011-03-05T14:26:07Z</time>
      </trkpt>
      <trkpt lat="48.96561" lon="-0.52581">
        <ele>175</ele>
        <time>2011-03-05T14:26:20Z</time>
      </trkpt>
      <trkpt lat="48.96556" lon="-0.52594">
        <ele>175</ele>
        <time>2011-03-05T14:26:32Z</time>
      </trkpt>
      <trkpt lat="48.96552" lon="-0.52607">
        <ele>181</ele>
        <time>2011-03-05T14:26:43Z</time>
      </trkpt>
      <trkpt lat="48.96551" lon="-0.52622">
        <ele>181</ele>
        <time>2011-03-05T14:26:55Z</time>
      </trkpt>
      <trkpt lat="48.96549" lon="-0.52636">
        <ele>181</ele>
        <time>2011-03-05T14:27:07Z</time>
      </trkpt>
      <trkpt lat="48.96547" lon="-0.52649">
        <ele>181</ele>
        <time>2011-03-05T14:27:17Z</time>
      </trkpt>
      <trkpt lat="48.96546" lon="-0.52664">
        <ele>181</ele>
        <time>2011-03-05T14:27:26Z</time>
      </trkpt>
      <trkpt lat="48.96542" lon="-0.52678">
        <ele>181</ele>
        <time>2011-03-05T14:27:37Z</time>
      </trkpt>
      <trkpt lat="48.96541" lon="-0.52693">
        <ele>181</ele>
        <time>2011-03-05T14:27:47Z</time>
      </trkpt>
      <trkpt lat="48.96539" lon="-0.52708">
        <ele>181</ele>
        <time>2011-03-05T14:27:56Z</time>
      </trkpt>
      <trkpt lat="48.96538" lon="-0.52723">
        <ele>181</ele>
        <time>2011-03-05T14:28:05Z</time>
      </trkpt>
      <trkpt lat="48.96539" lon="-0.52737">
        <ele>181</ele>
        <time>2011-03-05T14:28:14Z</time>
      </trkpt>
      <trkpt lat="48.96537" lon="-0.52752">
        <ele>181</ele>
        <time>2011-03-05T14:28:22Z</time>
      </trkpt>
      <trkpt lat="48.96538" lon="-0.52766">
        <ele>186</ele>
        <time>2011-03-05T14:28:31Z</time>
      </trkpt>
      <trkpt lat="48.96535" lon="-0.5278">
        <ele>186</ele>
        <time>2011-03-05T14:28:41Z</time>
      </trkpt>
      <trkpt lat="48.96531" lon="-0.52793">
        <ele>186</ele>
        <time>2011-03-05T14:28:50Z</time>
      </trkpt>
      <trkpt lat="48.96528" lon="-0.52807">
        <ele>186</ele>
        <time>2011-03-05T14:29:33Z</time>
      </trkpt>
      <trkpt lat="48.9652" lon="-0.52816">
        <ele>186</ele>
        <time>2011-03-05T14:30:16Z</time>
      </trkpt>
      <trkpt lat="48.96515" lon="-0.52828">
        <ele>186</ele>
        <time>2011-03-05T14:30:26Z</time>
      </trkpt>
      <trkpt lat="48.96509" lon="-0.5284">
        <ele>186</ele>
        <time>2011-03-05T14:30:36Z</time>
      </trkpt>
      <trkpt lat="48.96505" lon="-0.52853">
        <ele>193</ele>
        <time>2011-03-05T14:30:46Z</time>
      </trkpt>
      <trkpt lat="48.965" lon="-0.52866">
        <ele>193</ele>
        <time>2011-03-05T14:30:54Z</time>
      </trkpt>
      <trkpt lat="48.96494" lon="-0.52877">
        <ele>193</ele>
        <time>2011-03-05T14:31:03Z</time>
      </trkpt>
      <trkpt lat="48.96487" lon="-0.52887">
        <ele>193</ele>
        <time>2011-03-05T14:31:10Z</time>
      </trkpt>
      <trkpt lat="48.96481" lon="-0.52897">
        <ele>187</ele>
        <time>2011-03-05T14:31:27Z</time>
      </trkpt>
      <trkpt lat="48.96477" lon="-0.52911">
        <ele>187</ele>
        <time>2011-03-05T14:31:37Z</time>
      </trkpt>
      <trkpt lat="48.96467" lon="-0.52911">
        <ele>187</ele>
        <time>2011-03-05T14:31:48Z</time>
      </trkpt>
      <trkpt lat="48.96458" lon="-0.52905">
        <ele>187</ele>
        <time>2011-03-05T14:31:59Z</time>
      </trkpt>
      <trkpt lat="48.96448" lon="-0.52899">
        <ele>176</ele>
        <time>2011-03-05T14:32:07Z</time>
      </trkpt>
      <trkpt lat="48.96441" lon="-0.5289">
        <ele>176</ele>
        <time>2011-03-05T14:32:18Z</time>
      </trkpt>
      <trkpt lat="48.96434" lon="-0.52881">
        <ele>185</ele>
        <time>2011-03-05T14:32:25Z</time>
      </trkpt>
      <trkpt lat="48.96427" lon="-0.52871">
        <ele>185</ele>
        <time>2011-03-05T14:32:33Z</time>
      </trkpt>
      <trkpt lat="48.96422" lon="-0.52857">
        <ele>190</ele>
        <time>2011-03-05T14:32:41Z</time>
      </trkpt>
      <trkpt lat="48.96419" lon="-0.52843">
        <ele>190</ele>
        <time>2011-03-05T14:32:50Z</time>
      </trkpt>
      <trkpt lat="48.96416" lon="-0.5283">
        <ele>199</ele>
        <time>2011-03-05T14:32:59Z</time>
      </trkpt>
      <trkpt lat="48.96409" lon="-0.52813">
        <ele>199</ele>
        <time>2011-03-05T14:33:11Z</time>
      </trkpt>
      <trkpt lat="48.96403" lon="-0.52796">
        <ele>199</ele>
        <time>2011-03-05T14:33:29Z</time>
      </trkpt>
      <trkpt lat="48.96396" lon="-0.52785">
        <ele>199</ele>
        <time>2011-03-05T14:33:42Z</time>
      </trkpt>
      <trkpt lat="48.96392" lon="-0.52772">
        <ele>199</ele>
        <time>2011-03-05T14:33:50Z</time>
      </trkpt>
      <trkpt lat="48.96386" lon="-0.52762">
        <ele>199</ele>
        <time>2011-03-05T14:33:59Z</time>
      </trkpt>
      <trkpt lat="48.96384" lon="-0.52747">
        <ele>207</ele>
        <time>2011-03-05T14:34:09Z</time>
      </trkpt>
      <trkpt lat="48.96376" lon="-0.52738">
        <ele>207</ele>
        <time>2011-03-05T14:34:16Z</time>
      </trkpt>
      <trkpt lat="48.96372" lon="-0.52724">
        <ele>207</ele>
        <time>2011-03-05T14:34:27Z</time>
      </trkpt>
      <trkpt lat="48.9637" lon="-0.52709">
        <ele>207</ele>
        <time>2011-03-05T14:34:37Z</time>
      </trkpt>
      <trkpt lat="48.96364" lon="-0.52698">
        <ele>207</ele>
        <time>2011-03-05T14:34:46Z</time>
      </trkpt>
      <trkpt lat="48.96361" lon="-0.52684">
        <ele>202</ele>
        <time>2011-03-05T14:34:53Z</time>
      </trkpt>
      <trkpt lat="48.96357" lon="-0.52672">
        <ele>202</ele>
        <time>2011-03-05T14:35:06Z</time>
      </trkpt>
      <trkpt lat="48.96351" lon="-0.52661">
        <ele>202</ele>
        <time>2011-03-05T14:35:18Z</time>
      </trkpt>
      <trkpt lat="48.96348" lon="-0.52648">
        <ele>210</ele>
        <time>2011-03-05T14:35:26Z</time>
      </trkpt>
      <trkpt lat="48.96343" lon="-0.52634">
        <ele>210</ele>
        <time>2011-03-05T14:35:35Z</time>
      </trkpt>
      <trkpt lat="48.96334" lon="-0.52626">
        <ele>210</ele>
        <time>2011-03-05T14:35:44Z</time>
      </trkpt>
      <trkpt lat="48.96328" lon="-0.52615">
        <ele>210</ele>
        <time>2011-03-05T14:35:58Z</time>
      </trkpt>
      <trkpt lat="48.96321" lon="-0.52604">
        <ele>210</ele>
        <time>2011-03-05T14:36:05Z</time>
      </trkpt>
      <trkpt lat="48.96318" lon="-0.5259">
        <ele>210</ele>
        <time>2011-03-05T14:36:15Z</time>
      </trkpt>
      <trkpt lat="48.9631" lon="-0.52581">
        <ele>210</ele>
        <time>2011-03-05T14:36:25Z</time>
      </trkpt>
      <trkpt lat="48.96303" lon="-0.52589">
        <ele>210</ele>
        <time>2011-03-05T14:36:33Z</time>
      </trkpt>
      <trkpt lat="48.96297" lon="-0.52578">
        <ele>210</ele>
        <time>2011-03-05T14:36:40Z</time>
      </trkpt>
      <trkpt lat="48.96293" lon="-0.52565">
        <ele>210</ele>
        <time>2011-03-05T14:36:49Z</time>
      </trkpt>
      <trkpt lat="48.96292" lon="-0.5255">
        <ele>210</ele>
        <time>2011-03-05T14:36:55Z</time>
      </trkpt>
      <trkpt lat="48.96287" lon="-0.52536">
        <ele>210</ele>
        <time>2011-03-05T14:37:03Z</time>
      </trkpt>
      <trkpt lat="48.96284" lon="-0.52523">
        <ele>210</ele>
        <time>2011-03-05T14:37:12Z</time>
      </trkpt>
      <trkpt lat="48.96281" lon="-0.52509">
        <ele>217</ele>
        <time>2011-03-05T14:37:25Z</time>
      </trkpt>
      <trkpt lat="48.96273" lon="-0.52504">
        <ele>210</ele>
        <time>2011-03-05T14:37:34Z</time>
      </trkpt>
      <trkpt lat="48.96264" lon="-0.52511">
        <ele>201</ele>
        <time>2011-03-05T14:37:44Z</time>
      </trkpt>
      <trkpt lat="48.96257" lon="-0.52502">
        <ele>201</ele>
        <time>2011-03-05T14:38:00Z</time>
      </trkpt>
      <trkpt lat="48.96252" lon="-0.52489">
        <ele>201</ele>
        <time>2011-03-05T14:38:07Z</time>
      </trkpt>
      <trkpt lat="48.96248" lon="-0.52474">
        <ele>201</ele>
        <time>2011-03-05T14:38:18Z</time>
      </trkpt>
      <trkpt lat="48.9624" lon="-0.52463">
        <ele>212</ele>
        <time>2011-03-05T14:38:28Z</time>
      </trkpt>
      <trkpt lat="48.96234" lon="-0.52452">
        <ele>212</ele>
        <time>2011-03-05T14:38:41Z</time>
      </trkpt>
      <trkpt lat="48.96229" lon="-0.52437">
        <ele>212</ele>
        <time>2011-03-05T14:38:53Z</time>
      </trkpt>
      <trkpt lat="48.96225" lon="-0.52424">
        <ele>212</ele>
        <time>2011-03-05T14:39:03Z</time>
      </trkpt>
      <trkpt lat="48.96219" lon="-0.52413">
        <ele>212</ele>
        <time>2011-03-05T14:39:11Z</time>
      </trkpt>
      <trkpt lat="48.96216" lon="-0.524">
        <ele>212</ele>
        <time>2011-03-05T14:39:18Z</time>
      </trkpt>
      <trkpt lat="48.96216" lon="-0.52385">
        <ele>212</ele>
        <time>2011-03-05T14:39:30Z</time>
      </trkpt>
      <trkpt lat="48.96211" lon="-0.52374">
        <ele>212</ele>
        <time>2011-03-05T14:39:41Z</time>
      </trkpt>
      <trkpt lat="48.96205" lon="-0.52364">
        <ele>212</ele>
        <time>2011-03-05T14:39:49Z</time>
      </trkpt>
      <trkpt lat="48.962" lon="-0.52348">
        <ele>212</ele>
        <time>2011-03-05T14:39:57Z</time>
      </trkpt>
      <trkpt lat="48.96194" lon="-0.52336">
        <ele>212</ele>
        <time>2011-03-05T14:40:09Z</time>
      </trkpt>
      <trkpt lat="48.96189" lon="-0.52322">
        <ele>212</ele>
        <time>2011-03-05T14:40:17Z</time>
      </trkpt>
      <trkpt lat="48.96184" lon="-0.52309">
        <ele>212</ele>
        <time>2011-03-05T14:40:26Z</time>
      </trkpt>
      <trkpt lat="48.96178" lon="-0.52296">
        <ele>212</ele>
        <time>2011-03-05T14:40:43Z</time>
      </trkpt>
      <trkpt lat="48.96174" lon="-0.52283">
        <ele>212</ele>
        <time>2011-03-05T14:40:50Z</time>
      </trkpt>
      <trkpt lat="48.96172" lon="-0.52269">
        <ele>218</ele>
        <time>2011-03-05T14:40:59Z</time>
      </trkpt>
      <trkpt lat="48.96169" lon="-0.52253">
        <ele>218</ele>
        <time>2011-03-05T14:41:08Z</time>
      </trkpt>
      <trkpt lat="48.96161" lon="-0.52242">
        <ele>218</ele>
        <time>2011-03-05T14:41:19Z</time>
      </trkpt>
      <trkpt lat="48.96156" lon="-0.52229">
        <ele>218</ele>
        <time>2011-03-05T14:41:25Z</time>
      </trkpt>
      <trkpt lat="48.9615" lon="-0.52216">
        <ele>218</ele>
        <time>2011-03-05T14:41:37Z</time>
      </trkpt>
      <trkpt lat="48.96144" lon="-0.52204">
        <ele>218</ele>
        <time>2011-03-05T14:41:46Z</time>
      </trkpt>
      <trkpt lat="48.96138" lon="-0.52192">
        <ele>218</ele>
        <time>2011-03-05T14:41:53Z</time>
      </trkpt>
      <trkpt lat="48.96133" lon="-0.52178">
        <ele>218</ele>
        <time>2011-03-05T14:42:02Z</time>
      </trkpt>
      <trkpt lat="48.96126" lon="-0.52166">
        <ele>218</ele>
        <time>2011-03-05T14:42:10Z</time>
      </trkpt>
      <trkpt lat="48.96122" lon="-0.52154">
        <ele>218</ele>
        <time>2011-03-05T14:42:20Z</time>
      </trkpt>
      <trkpt lat="48.96116" lon="-0.52139">
        <ele>210</ele>
        <time>2011-03-05T14:42:32Z</time>
      </trkpt>
      <trkpt lat="48.9611" lon="-0.52129">
        <ele>210</ele>
        <time>2011-03-05T14:42:36Z</time>
      </trkpt>
      <trkpt lat="48.96106" lon="-0.52111">
        <ele>210</ele>
        <time>2011-03-05T14:42:46Z</time>
      </trkpt>
      <trkpt lat="48.96098" lon="-0.52104">
        <ele>204</ele>
        <time>2011-03-05T14:42:56Z</time>
      </trkpt>
      <trkpt lat="48.96091" lon="-0.52092">
        <ele>204</ele>
        <time>2011-03-05T14:43:05Z</time>
      </trkpt>
      <trkpt lat="48.96085" lon="-0.52082">
        <ele>211</ele>
        <time>2011-03-05T14:43:16Z</time>
      </trkpt>
      <trkpt lat="48.9608" lon="-0.52065">
        <ele>211</ele>
        <time>2011-03-05T14:43:27Z</time>
      </trkpt>
      <trkpt lat="48.96072" lon="-0.52054">
        <ele>211</ele>
        <time>2011-03-05T14:43:39Z</time>
      </trkpt>
      <trkpt lat="48.96064" lon="-0.52046">
        <ele>211</ele>
        <time>2011-03-05T14:43:44Z</time>
      </trkpt>
      <trkpt lat="48.96056" lon="-0.52033">
        <ele>211</ele>
        <time>2011-03-05T14:43:57Z</time>
      </trkpt>
      <trkpt lat="48.96056" lon="-0.52019">
        <ele>211</ele>
        <time>2011-03-05T14:44:04Z</time>
      </trkpt>
      <trkpt lat="48.96057" lon="-0.52004">
        <ele>211</ele>
        <time>2011-03-05T14:44:13Z</time>
      </trkpt>
      <trkpt lat="48.96063" lon="-0.51992">
        <ele>204</ele>
        <time>2011-03-05T14:44:21Z</time>
      </trkpt>
      <trkpt lat="48.96059" lon="-0.51976">
        <ele>204</ele>
        <time>2011-03-05T14:44:32Z</time>
      </trkpt>
      <trkpt lat="48.96053" lon="-0.51963">
        <ele>204</ele>
        <time>2011-03-05T14:44:40Z</time>
      </trkpt>
      <trkpt lat="48.96046" lon="-0.51952">
        <ele>198</ele>
        <time>2011-03-05T14:44:49Z</time>
      </trkpt>
      <trkpt lat="48.96041" lon="-0.51941">
        <ele>198</ele>
        <time>2011-03-05T14:44:58Z</time>
      </trkpt>
      <trkpt lat="48.96035" lon="-0.51927">
        <ele>198</ele>
        <time>2011-03-05T14:45:05Z</time>
      </trkpt>
      <trkpt lat="48.9603" lon="-0.51915">
        <ele>198</ele>
        <time>2011-03-05T14:45:11Z</time>
      </trkpt>
      <trkpt lat="48.96025" lon="-0.51902">
        <ele>198</ele>
        <time>2011-03-05T14:45:19Z</time>
      </trkpt>
      <trkpt lat="48.96021" lon="-0.51889">
        <ele>198</ele>
        <time>2011-03-05T14:45:27Z</time>
      </trkpt>
      <trkpt lat="48.96014" lon="-0.51879">
        <ele>198</ele>
        <time>2011-03-05T14:45:36Z</time>
      </trkpt>
      <trkpt lat="48.96009" lon="-0.51864">
        <ele>198</ele>
        <time>2011-03-05T14:45:44Z</time>
      </trkpt>
      <trkpt lat="48.96006" lon="-0.51851">
        <ele>198</ele>
        <time>2011-03-05T14:45:53Z</time>
      </trkpt>
      <trkpt lat="48.96001" lon="-0.51836">
        <ele>198</ele>
        <time>2011-03-05T14:46:02Z</time>
      </trkpt>
      <trkpt lat="48.95996" lon="-0.51824">
        <ele>198</ele>
        <time>2011-03-05T14:46:09Z</time>
      </trkpt>
      <trkpt lat="48.9599" lon="-0.51812">
        <ele>198</ele>
        <time>2011-03-05T14:46:17Z</time>
      </trkpt>
      <trkpt lat="48.95988" lon="-0.51799">
        <ele>198</ele>
        <time>2011-03-05T14:46:25Z</time>
      </trkpt>
      <trkpt lat="48.9598" lon="-0.51791">
        <ele>198</ele>
        <time>2011-03-05T14:46:33Z</time>
      </trkpt>
      <trkpt lat="48.95971" lon="-0.51781">
        <ele>198</ele>
        <time>2011-03-05T14:46:41Z</time>
      </trkpt>
      <trkpt lat="48.95963" lon="-0.51774">
        <ele>198</ele>
        <time>2011-03-05T14:46:49Z</time>
      </trkpt>
      <trkpt lat="48.95956" lon="-0.51765">
        <ele>198</ele>
        <time>2011-03-05T14:46:57Z</time>
      </trkpt>
      <trkpt lat="48.95948" lon="-0.51756">
        <ele>198</ele>
        <time>2011-03-05T14:47:06Z</time>
      </trkpt>
      <trkpt lat="48.95941" lon="-0.51747">
        <ele>198</ele>
        <time>2011-03-05T14:47:14Z</time>
      </trkpt>
      <trkpt lat="48.95933" lon="-0.51736">
        <ele>198</ele>
        <time>2011-03-05T14:47:22Z</time>
      </trkpt>
      <trkpt lat="48.95926" lon="-0.51726">
        <ele>198</ele>
        <time>2011-03-05T14:47:31Z</time>
      </trkpt>
      <trkpt lat="48.95918" lon="-0.51717">
        <ele>198</ele>
        <time>2011-03-05T14:47:39Z</time>
      </trkpt>
      <trkpt lat="48.95912" lon="-0.51706">
        <ele>198</ele>
        <time>2011-03-05T14:47:47Z</time>
      </trkpt>
      <trkpt lat="48.95906" lon="-0.51695">
        <ele>198</ele>
        <time>2011-03-05T14:47:55Z</time>
      </trkpt>
      <trkpt lat="48.95901" lon="-0.51683">
        <ele>198</ele>
        <time>2011-03-05T14:48:03Z</time>
      </trkpt>
      <trkpt lat="48.95896" lon="-0.5167">
        <ele>198</ele>
        <time>2011-03-05T14:48:11Z</time>
      </trkpt>
      <trkpt lat="48.95891" lon="-0.51659">
        <ele>198</ele>
        <time>2011-03-05T14:49:27Z</time>
      </trkpt>
      <trkpt lat="48.95888" lon="-0.51644">
        <ele>198</ele>
        <time>2011-03-05T14:49:36Z</time>
      </trkpt>
      <trkpt lat="48.95885" lon="-0.51631">
        <ele>198</ele>
        <time>2011-03-05T14:49:44Z</time>
      </trkpt>
      <trkpt lat="48.95882" lon="-0.51617">
        <ele>198</ele>
        <time>2011-03-05T14:49:53Z</time>
      </trkpt>
      <trkpt lat="48.9588" lon="-0.51604">
        <ele>198</ele>
        <time>2011-03-05T14:50:20Z</time>
      </trkpt>
      <trkpt lat="48.95876" lon="-0.5159">
        <ele>198</ele>
        <time>2011-03-05T14:50:29Z</time>
      </trkpt>
      <trkpt lat="48.9587" lon="-0.51579">
        <ele>198</ele>
        <time>2011-03-05T14:50:37Z</time>
      </trkpt>
      <trkpt lat="48.95864" lon="-0.51567">
        <ele>193</ele>
        <time>2011-03-05T14:50:46Z</time>
      </trkpt>
      <trkpt lat="48.95858" lon="-0.51556">
        <ele>193</ele>
        <time>2011-03-05T14:50:54Z</time>
      </trkpt>
      <trkpt lat="48.95851" lon="-0.51547">
        <ele>193</ele>
        <time>2011-03-05T14:51:02Z</time>
      </trkpt>
      <trkpt lat="48.95843" lon="-0.51537">
        <ele>193</ele>
        <time>2011-03-05T14:51:11Z</time>
      </trkpt>
      <trkpt lat="48.95835" lon="-0.51529">
        <ele>186</ele>
        <time>2011-03-05T14:51:19Z</time>
      </trkpt>
      <trkpt lat="48.95826" lon="-0.51523">
        <ele>186</ele>
        <time>2011-03-05T14:51:29Z</time>
      </trkpt>
      <trkpt lat="48.95817" lon="-0.51517">
        <ele>186</ele>
        <time>2011-03-05T14:51:38Z</time>
      </trkpt>
      <trkpt lat="48.95807" lon="-0.51513">
        <ele>186</ele>
        <time>2011-03-05T14:51:48Z</time>
      </trkpt>
      <trkpt lat="48.95798" lon="-0.51508">
        <ele>186</ele>
        <time>2011-03-05T14:51:58Z</time>
      </trkpt>
      <trkpt lat="48.95789" lon="-0.51501">
        <ele>186</ele>
        <time>2011-03-05T14:52:06Z</time>
      </trkpt>
      <trkpt lat="48.9578" lon="-0.51495">
        <ele>180</ele>
        <time>2011-03-05T14:52:15Z</time>
      </trkpt>
      <trkpt lat="48.9577" lon="-0.51493">
        <ele>180</ele>
        <time>2011-03-05T14:52:27Z</time>
      </trkpt>
      <trkpt lat="48.9576" lon="-0.51491">
        <ele>175</ele>
        <time>2011-03-05T14:52:36Z</time>
      </trkpt>
      <trkpt lat="48.9575" lon="-0.5149">
        <ele>175</ele>
        <time>2011-03-05T14:52:46Z</time>
      </trkpt>
      <trkpt lat="48.95741" lon="-0.51486">
        <ele>175</ele>
        <time>2011-03-05T14:52:54Z</time>
      </trkpt>
      <trkpt lat="48.95732" lon="-0.51486">
        <ele>169</ele>
        <time>2011-03-05T14:53:03Z</time>
      </trkpt>
      <trkpt lat="48.95722" lon="-0.51482">
        <ele>169</ele>
        <time>2011-03-05T14:53:12Z</time>
      </trkpt>
      <trkpt lat="48.95713" lon="-0.51478">
        <ele>164</ele>
        <time>2011-03-05T14:53:20Z</time>
      </trkpt>
      <trkpt lat="48.95704" lon="-0.51473">
        <ele>164</ele>
        <time>2011-03-05T14:53:29Z</time>
      </trkpt>
      <trkpt lat="48.95695" lon="-0.51467">
        <ele>164</ele>
        <time>2011-03-05T14:53:38Z</time>
      </trkpt>
      <trkpt lat="48.95686" lon="-0.51461">
        <ele>164</ele>
        <time>2011-03-05T14:53:48Z</time>
      </trkpt>
      <trkpt lat="48.95677" lon="-0.51454">
        <ele>164</ele>
        <time>2011-03-05T14:53:56Z</time>
      </trkpt>
      <trkpt lat="48.95669" lon="-0.51447">
        <ele>164</ele>
        <time>2011-03-05T14:54:03Z</time>
      </trkpt>
      <trkpt lat="48.9566" lon="-0.51441">
        <ele>158</ele>
        <time>2011-03-05T14:54:12Z</time>
      </trkpt>
      <trkpt lat="48.95652" lon="-0.51432">
        <ele>153</ele>
        <time>2011-03-05T14:54:22Z</time>
      </trkpt>
      <trkpt lat="48.95643" lon="-0.51426">
        <ele>153</ele>
        <time>2011-03-05T14:54:31Z</time>
      </trkpt>
      <trkpt lat="48.95634" lon="-0.51421">
        <ele>153</ele>
        <time>2011-03-05T14:54:40Z</time>
      </trkpt>
      <trkpt lat="48.95625" lon="-0.51417">
        <ele>153</ele>
        <time>2011-03-05T14:54:50Z</time>
      </trkpt>
      <trkpt lat="48.95615" lon="-0.51411">
        <ele>153</ele>
        <time>2011-03-05T14:54:58Z</time>
      </trkpt>
      <trkpt lat="48.95606" lon="-0.51405">
        <ele>153</ele>
        <time>2011-03-05T14:55:07Z</time>
      </trkpt>
      <trkpt lat="48.95597" lon="-0.51402">
        <ele>146</ele>
        <time>2011-03-05T14:55:15Z</time>
      </trkpt>
      <trkpt lat="48.95588" lon="-0.51397">
        <ele>146</ele>
        <time>2011-03-05T14:55:23Z</time>
      </trkpt>
      <trkpt lat="48.95578" lon="-0.51394">
        <ele>146</ele>
        <time>2011-03-05T14:55:38Z</time>
      </trkpt>
      <trkpt lat="48.95569" lon="-0.51388">
        <ele>146</ele>
        <time>2011-03-05T14:55:46Z</time>
      </trkpt>
      <trkpt lat="48.95559" lon="-0.51385">
        <ele>146</ele>
        <time>2011-03-05T14:55:55Z</time>
      </trkpt>
      <trkpt lat="48.9555" lon="-0.51383">
        <ele>146</ele>
        <time>2011-03-05T14:56:03Z</time>
      </trkpt>
      <trkpt lat="48.95541" lon="-0.51378">
        <ele>146</ele>
        <time>2011-03-05T14:56:11Z</time>
      </trkpt>
      <trkpt lat="48.9553" lon="-0.51375">
        <ele>146</ele>
        <time>2011-03-05T14:56:21Z</time>
      </trkpt>
      <trkpt lat="48.95521" lon="-0.51371">
        <ele>138</ele>
        <time>2011-03-05T14:56:29Z</time>
      </trkpt>
      <trkpt lat="48.95512" lon="-0.51363">
        <ele>138</ele>
        <time>2011-03-05T14:56:38Z</time>
      </trkpt>
      <trkpt lat="48.95505" lon="-0.51353">
        <ele>138</ele>
        <time>2011-03-05T14:56:46Z</time>
      </trkpt>
      <trkpt lat="48.95497" lon="-0.51343">
        <ele>138</ele>
        <time>2011-03-05T14:56:55Z</time>
      </trkpt>
      <trkpt lat="48.95492" lon="-0.51332">
        <ele>138</ele>
        <time>2011-03-05T14:57:03Z</time>
      </trkpt>
      <trkpt lat="48.95486" lon="-0.5132">
        <ele>138</ele>
        <time>2011-03-05T14:57:11Z</time>
      </trkpt>
      <trkpt lat="48.95481" lon="-0.51308">
        <ele>138</ele>
        <time>2011-03-05T14:57:19Z</time>
      </trkpt>
      <trkpt lat="48.95475" lon="-0.51297">
        <ele>138</ele>
        <time>2011-03-05T14:57:28Z</time>
      </trkpt>
      <trkpt lat="48.95469" lon="-0.51286">
        <ele>133</ele>
        <time>2011-03-05T14:57:36Z</time>
      </trkpt>
      <trkpt lat="48.95463" lon="-0.51275">
        <ele>133</ele>
        <time>2011-03-05T14:57:44Z</time>
      </trkpt>
      <trkpt lat="48.95456" lon="-0.51263">
        <ele>133</ele>
        <time>2011-03-05T14:57:53Z</time>
      </trkpt>
      <trkpt lat="48.9545" lon="-0.51252">
        <ele>128</ele>
        <time>2011-03-05T14:58:00Z</time>
      </trkpt>
      <trkpt lat="48.95445" lon="-0.51238">
        <ele>128</ele>
        <time>2011-03-05T14:58:09Z</time>
      </trkpt>
      <trkpt lat="48.95439" lon="-0.51227">
        <ele>128</ele>
        <time>2011-03-05T14:58:17Z</time>
      </trkpt>
      <trkpt lat="48.95434" lon="-0.51216">
        <ele>128</ele>
        <time>2011-03-05T14:58:26Z</time>
      </trkpt>
      <trkpt lat="48.95428" lon="-0.51204">
        <ele>128</ele>
        <time>2011-03-05T14:58:34Z</time>
      </trkpt>
      <trkpt lat="48.95422" lon="-0.51192">
        <ele>122</ele>
        <time>2011-03-05T14:58:43Z</time>
      </trkpt>
      <trkpt lat="48.95414" lon="-0.51186">
        <ele>122</ele>
        <time>2011-03-05T14:58:50Z</time>
      </trkpt>
      <trkpt lat="48.95406" lon="-0.51177">
        <ele>122</ele>
        <time>2011-03-05T14:58:59Z</time>
      </trkpt>
      <trkpt lat="48.95399" lon="-0.51168">
        <ele>122</ele>
        <time>2011-03-05T14:59:08Z</time>
      </trkpt>
      <trkpt lat="48.95391" lon="-0.51159">
        <ele>122</ele>
        <time>2011-03-05T14:59:16Z</time>
      </trkpt>
      <trkpt lat="48.95383" lon="-0.51149">
        <ele>122</ele>
        <time>2011-03-05T14:59:25Z</time>
      </trkpt>
      <trkpt lat="48.95376" lon="-0.51139">
        <ele>122</ele>
        <time>2011-03-05T14:59:34Z</time>
      </trkpt>
      <trkpt lat="48.95368" lon="-0.51129">
        <ele>116</ele>
        <time>2011-03-05T14:59:44Z</time>
      </trkpt>
      <trkpt lat="48.9536" lon="-0.51121">
        <ele>116</ele>
        <time>2011-03-05T14:59:52Z</time>
      </trkpt>
      <trkpt lat="48.95353" lon="-0.51113">
        <ele>116</ele>
        <time>2011-03-05T15:00:01Z</time>
      </trkpt>
      <trkpt lat="48.95344" lon="-0.51107">
        <ele>116</ele>
        <time>2011-03-05T15:00:13Z</time>
      </trkpt>
      <trkpt lat="48.95337" lon="-0.51098">
        <ele>116</ele>
        <time>2011-03-05T15:00:21Z</time>
      </trkpt>
      <trkpt lat="48.95328" lon="-0.51091">
        <ele>116</ele>
        <time>2011-03-05T15:00:30Z</time>
      </trkpt>
      <trkpt lat="48.9532" lon="-0.51084">
        <ele>110</ele>
        <time>2011-03-05T15:00:38Z</time>
      </trkpt>
      <trkpt lat="48.95312" lon="-0.51077">
        <ele>110</ele>
        <time>2011-03-05T15:00:46Z</time>
      </trkpt>
      <trkpt lat="48.95303" lon="-0.51073">
        <ele>110</ele>
        <time>2011-03-05T15:00:54Z</time>
      </trkpt>
      <trkpt lat="48.95294" lon="-0.51069">
        <ele>104</ele>
        <time>2011-03-05T15:01:02Z</time>
      </trkpt>
      <trkpt lat="48.95284" lon="-0.51066">
        <ele>104</ele>
        <time>2011-03-05T15:01:10Z</time>
      </trkpt>
      <trkpt lat="48.95274" lon="-0.51061">
        <ele>104</ele>
        <time>2011-03-05T15:01:19Z</time>
      </trkpt>
      <trkpt lat="48.95265" lon="-0.51058">
        <ele>104</ele>
        <time>2011-03-05T15:01:28Z</time>
      </trkpt>
      <trkpt lat="48.95256" lon="-0.51052">
        <ele>104</ele>
        <time>2011-03-05T15:01:36Z</time>
      </trkpt>
      <trkpt lat="48.95246" lon="-0.51048">
        <ele>97</ele>
        <time>2011-03-05T15:01:44Z</time>
      </trkpt>
      <trkpt lat="48.95237" lon="-0.51044">
        <ele>97</ele>
        <time>2011-03-05T15:01:52Z</time>
      </trkpt>
      <trkpt lat="48.95229" lon="-0.51038">
        <ele>97</ele>
        <time>2011-03-05T15:02:01Z</time>
      </trkpt>
      <trkpt lat="48.95221" lon="-0.51032">
        <ele>89</ele>
        <time>2011-03-05T15:02:11Z</time>
      </trkpt>
      <trkpt lat="48.95214" lon="-0.51041">
        <ele>101</ele>
        <time>2011-03-05T15:02:30Z</time>
      </trkpt>
      <trkpt lat="48.95205" lon="-0.51034">
        <ele>101</ele>
        <time>2011-03-05T15:02:42Z</time>
      </trkpt>
      <trkpt lat="48.95195" lon="-0.51029">
        <ele>101</ele>
        <time>2011-03-05T15:02:52Z</time>
      </trkpt>
      <trkpt lat="48.95187" lon="-0.51023">
        <ele>92</ele>
        <time>2011-03-05T15:03:02Z</time>
      </trkpt>
      <trkpt lat="48.95178" lon="-0.51019">
        <ele>87</ele>
        <time>2011-03-05T15:03:12Z</time>
      </trkpt>
      <trkpt lat="48.95169" lon="-0.51013">
        <ele>87</ele>
        <time>2011-03-05T15:03:20Z</time>
      </trkpt>
      <trkpt lat="48.9516" lon="-0.51007">
        <ele>87</ele>
        <time>2011-03-05T15:03:28Z</time>
      </trkpt>
      <trkpt lat="48.95155" lon="-0.50995">
        <ele>87</ele>
        <time>2011-03-05T15:03:36Z</time>
      </trkpt>
      <trkpt lat="48.95147" lon="-0.50985">
        <ele>87</ele>
        <time>2011-03-05T15:03:44Z</time>
      </trkpt>
      <trkpt lat="48.95141" lon="-0.50973">
        <ele>87</ele>
        <time>2011-03-05T15:03:52Z</time>
      </trkpt>
      <trkpt lat="48.95134" lon="-0.50962">
        <ele>87</ele>
        <time>2011-03-05T15:04:00Z</time>
      </trkpt>
      <trkpt lat="48.95126" lon="-0.50955">
        <ele>87</ele>
        <time>2011-03-05T15:04:09Z</time>
      </trkpt>
      <trkpt lat="48.9512" lon="-0.50943">
        <ele>87</ele>
        <time>2011-03-05T15:04:19Z</time>
      </trkpt>
      <trkpt lat="48.95117" lon="-0.50929">
        <ele>78</ele>
        <time>2011-03-05T15:04:27Z</time>
      </trkpt>
      <trkpt lat="48.95114" lon="-0.50916">
        <ele>78</ele>
        <time>2011-03-05T15:04:35Z</time>
      </trkpt>
      <trkpt lat="48.9511" lon="-0.50902">
        <ele>78</ele>
        <time>2011-03-05T15:04:44Z</time>
      </trkpt>
      <trkpt lat="48.95105" lon="-0.5089">
        <ele>72</ele>
        <time>2011-03-05T15:04:55Z</time>
      </trkpt>
      <trkpt lat="48.95098" lon="-0.5088">
        <ele>72</ele>
        <time>2011-03-05T15:05:04Z</time>
      </trkpt>
      <trkpt lat="48.95088" lon="-0.5088">
        <ele>72</ele>
        <time>2011-03-05T15:05:13Z</time>
      </trkpt>
      <trkpt lat="48.95078" lon="-0.50882">
        <ele>72</ele>
        <time>2011-03-05T15:05:21Z</time>
      </trkpt>
      <trkpt lat="48.95069" lon="-0.50882">
        <ele>72</ele>
        <time>2011-03-05T15:05:29Z</time>
      </trkpt>
      <trkpt lat="48.95059" lon="-0.50879">
        <ele>65</ele>
        <time>2011-03-05T15:05:37Z</time>
      </trkpt>
      <trkpt lat="48.9505" lon="-0.50878">
        <ele>65</ele>
        <time>2011-03-05T15:05:45Z</time>
      </trkpt>
      <trkpt lat="48.95041" lon="-0.50882">
        <ele>65</ele>
        <time>2011-03-05T15:05:53Z</time>
      </trkpt>
      <trkpt lat="48.95031" lon="-0.50883">
        <ele>65</ele>
        <time>2011-03-05T15:06:01Z</time>
      </trkpt>
      <trkpt lat="48.95021" lon="-0.50883">
        <ele>58</ele>
        <time>2011-03-05T15:06:09Z</time>
      </trkpt>
      <trkpt lat="48.95012" lon="-0.50885">
        <ele>58</ele>
        <time>2011-03-05T15:06:17Z</time>
      </trkpt>
      <trkpt lat="48.95003" lon="-0.50887">
        <ele>58</ele>
        <time>2011-03-05T15:06:25Z</time>
      </trkpt>
      <trkpt lat="48.94994" lon="-0.50883">
        <ele>58</ele>
        <time>2011-03-05T15:06:31Z</time>
      </trkpt>
      <trkpt lat="48.94984" lon="-0.50882">
        <ele>58</ele>
        <time>2011-03-05T15:06:40Z</time>
      </trkpt>
      <trkpt lat="48.94974" lon="-0.50881">
        <ele>58</ele>
        <time>2011-03-05T15:06:48Z</time>
      </trkpt>
      <trkpt lat="48.94965" lon="-0.50883">
        <ele>58</ele>
        <time>2011-03-05T15:07:02Z</time>
      </trkpt>
      <trkpt lat="48.94955" lon="-0.5088">
        <ele>58</ele>
        <time>2011-03-05T15:07:09Z</time>
      </trkpt>
      <trkpt lat="48.94946" lon="-0.50881">
        <ele>58</ele>
        <time>2011-03-05T15:07:16Z</time>
      </trkpt>
      <trkpt lat="48.94937" lon="-0.50875">
        <ele>58</ele>
        <time>2011-03-05T15:07:24Z</time>
      </trkpt>
      <trkpt lat="48.94928" lon="-0.50866">
        <ele>49</ele>
        <time>2011-03-05T15:07:34Z</time>
      </trkpt>
      <trkpt lat="48.94921" lon="-0.50856">
        <ele>42</ele>
        <time>2011-03-05T15:07:43Z</time>
      </trkpt>
      <trkpt lat="48.94915" lon="-0.50845">
        <ele>42</ele>
        <time>2011-03-05T15:07:51Z</time>
      </trkpt>
      <trkpt lat="48.94909" lon="-0.50834">
        <ele>37</ele>
        <time>2011-03-05T15:07:59Z</time>
      </trkpt>
      <trkpt lat="48.94905" lon="-0.5082">
        <ele>37</ele>
        <time>2011-03-05T15:08:08Z</time>
      </trkpt>
      <trkpt lat="48.94904" lon="-0.50806">
        <ele>37</ele>
        <time>2011-03-05T15:08:20Z</time>
      </trkpt>
      <trkpt lat="48.949" lon="-0.50793">
        <ele>37</ele>
        <time>2011-03-05T15:08:28Z</time>
      </trkpt>
      <trkpt lat="48.94896" lon="-0.50781">
        <ele>37</ele>
        <time>2011-03-05T15:08:37Z</time>
      </trkpt>
      <trkpt lat="48.9489" lon="-0.50769">
        <ele>37</ele>
        <time>2011-03-05T15:08:45Z</time>
      </trkpt>
      <trkpt lat="48.94885" lon="-0.50758">
        <ele>37</ele>
        <time>2011-03-05T15:08:54Z</time>
      </trkpt>
      <trkpt lat="48.94878" lon="-0.50747">
        <ele>37</ele>
        <time>2011-03-05T15:09:01Z</time>
      </trkpt>
      <trkpt lat="48.94874" lon="-0.50734">
        <ele>37</ele>
        <time>2011-03-05T15:09:08Z</time>
      </trkpt>
      <trkpt lat="48.94868" lon="-0.50722">
        <ele>37</ele>
        <time>2011-03-05T15:09:18Z</time>
      </trkpt>
      <trkpt lat="48.94859" lon="-0.50708">
        <ele>44</ele>
        <time>2011-03-05T15:09:30Z</time>
      </trkpt>
      <trkpt lat="48.94855" lon="-0.50694">
        <ele>44</ele>
        <time>2011-03-05T15:09:38Z</time>
      </trkpt>
      <trkpt lat="48.94846" lon="-0.50687">
        <ele>44</ele>
        <time>2011-03-05T15:09:48Z</time>
      </trkpt>
      <trkpt lat="48.94839" lon="-0.50678">
        <ele>44</ele>
        <time>2011-03-05T15:09:56Z</time>
      </trkpt>
      <trkpt lat="48.94832" lon="-0.50667">
        <ele>44</ele>
        <time>2011-03-05T15:10:04Z</time>
      </trkpt>
      <trkpt lat="48.94826" lon="-0.50657">
        <ele>44</ele>
        <time>2011-03-05T15:10:12Z</time>
      </trkpt>
      <trkpt lat="48.94822" lon="-0.50643">
        <ele>38</ele>
        <time>2011-03-05T15:10:18Z</time>
      </trkpt>
      <trkpt lat="48.94814" lon="-0.50633">
        <ele>38</ele>
        <time>2011-03-05T15:10:26Z</time>
      </trkpt>
      <trkpt lat="48.94807" lon="-0.50621">
        <ele>38</ele>
        <time>2011-03-05T15:10:38Z</time>
      </trkpt>
      <trkpt lat="48.94798" lon="-0.50613">
        <ele>38</ele>
        <time>2011-03-05T15:10:48Z</time>
      </trkpt>
      <trkpt lat="48.94791" lon="-0.50604">
        <ele>38</ele>
        <time>2011-03-05T15:10:56Z</time>
      </trkpt>
      <trkpt lat="48.94781" lon="-0.50601">
        <ele>38</ele>
        <time>2011-03-05T15:11:27Z</time>
      </trkpt>
      <trkpt lat="48.94772" lon="-0.50596">
        <ele>38</ele>
        <time>2011-03-05T15:11:37Z</time>
      </trkpt>
      <trkpt lat="48.94762" lon="-0.50595">
        <ele>38</ele>
        <time>2011-03-05T15:11:48Z</time>
      </trkpt>
      <trkpt lat="48.94752" lon="-0.50594">
        <ele>38</ele>
        <time>2011-03-05T15:11:57Z</time>
      </trkpt>
      <trkpt lat="48.94742" lon="-0.50596">
        <ele>38</ele>
        <time>2011-03-05T15:12:04Z</time>
      </trkpt>
      <trkpt lat="48.94732" lon="-0.50599">
        <ele>38</ele>
        <time>2011-03-05T15:12:13Z</time>
      </trkpt>
      <trkpt lat="48.94723" lon="-0.50602">
        <ele>38</ele>
        <time>2011-03-05T15:12:23Z</time>
      </trkpt>
      <trkpt lat="48.94714" lon="-0.50606">
        <ele>29</ele>
        <time>2011-03-05T15:12:32Z</time>
      </trkpt>
      <trkpt lat="48.94705" lon="-0.50611">
        <ele>29</ele>
        <time>2011-03-05T15:12:38Z</time>
      </trkpt>
      <trkpt lat="48.94695" lon="-0.50612">
        <ele>23</ele>
        <time>2011-03-05T15:12:47Z</time>
      </trkpt>
      <trkpt lat="48.94685" lon="-0.50617">
        <ele>23</ele>
        <time>2011-03-05T15:12:56Z</time>
      </trkpt>
      <trkpt lat="48.94676" lon="-0.50622">
        <ele>23</ele>
        <time>2011-03-05T15:13:03Z</time>
      </trkpt>
      <trkpt lat="48.94667" lon="-0.50621">
        <ele>23</ele>
        <time>2011-03-05T15:13:13Z</time>
      </trkpt>
      <trkpt lat="48.94658" lon="-0.50627">
        <ele>23</ele>
        <time>2011-03-05T15:13:21Z</time>
      </trkpt>
      <trkpt lat="48.94648" lon="-0.50627">
        <ele>29</ele>
        <time>2011-03-05T15:13:32Z</time>
      </trkpt>
      <trkpt lat="48.9464" lon="-0.5062">
        <ele>29</ele>
        <time>2011-03-05T15:13:42Z</time>
      </trkpt>
      <trkpt lat="48.94631" lon="-0.50615">
        <ele>29</ele>
        <time>2011-03-05T15:13:52Z</time>
      </trkpt>
      <trkpt lat="48.94623" lon="-0.50608">
        <ele>29</ele>
        <time>2011-03-05T15:14:00Z</time>
      </trkpt>
      <trkpt lat="48.94613" lon="-0.50601">
        <ele>29</ele>
        <time>2011-03-05T15:14:07Z</time>
      </trkpt>
      <trkpt lat="48.94604" lon="-0.50602">
        <ele>35</ele>
        <time>2011-03-05T15:14:15Z</time>
      </trkpt>
      <trkpt lat="48.94594" lon="-0.50599">
        <ele>35</ele>
        <time>2011-03-05T15:14:23Z</time>
      </trkpt>
      <trkpt lat="48.94585" lon="-0.50605">
        <ele>35</ele>
        <time>2011-03-05T15:14:30Z</time>
      </trkpt>
      <trkpt lat="48.94576" lon="-0.50607">
        <ele>35</ele>
        <time>2011-03-05T15:14:40Z</time>
      </trkpt>
      <trkpt lat="48.94566" lon="-0.50609">
        <ele>35</ele>
        <time>2011-03-05T15:14:49Z</time>
      </trkpt>
      <trkpt lat="48.94558" lon="-0.50616">
        <ele>28</ele>
        <time>2011-03-05T15:14:58Z</time>
      </trkpt>
      <trkpt lat="48.9455" lon="-0.50625">
        <ele>28</ele>
        <time>2011-03-05T15:15:10Z</time>
      </trkpt>
      <trkpt lat="48.94543" lon="-0.50634">
        <ele>28</ele>
        <time>2011-03-05T15:15:17Z</time>
      </trkpt>
      <trkpt lat="48.94536" lon="-0.50645">
        <ele>34</ele>
        <time>2011-03-05T15:15:26Z</time>
      </trkpt>
      <trkpt lat="48.94529" lon="-0.50656">
        <ele>34</ele>
        <time>2011-03-05T15:15:37Z</time>
      </trkpt>
      <trkpt lat="48.94523" lon="-0.50667">
        <ele>34</ele>
        <time>2011-03-05T15:15:45Z</time>
      </trkpt>
      <trkpt lat="48.94516" lon="-0.50679">
        <ele>34</ele>
        <time>2011-03-05T15:15:54Z</time>
      </trkpt>
      <trkpt lat="48.94512" lon="-0.50691">
        <ele>34</ele>
        <time>2011-03-05T15:16:04Z</time>
      </trkpt>
      <trkpt lat="48.94507" lon="-0.50704">
        <ele>34</ele>
        <time>2011-03-05T15:16:10Z</time>
      </trkpt>
      <trkpt lat="48.94501" lon="-0.50717">
        <ele>34</ele>
        <time>2011-03-05T15:16:19Z</time>
      </trkpt>
      <trkpt lat="48.94499" lon="-0.50731">
        <ele>34</ele>
        <time>2011-03-05T15:16:28Z</time>
      </trkpt>
      <trkpt lat="48.94495" lon="-0.50745">
        <ele>34</ele>
        <time>2011-03-05T15:16:37Z</time>
      </trkpt>
      <trkpt lat="48.94492" lon="-0.50758">
        <ele>34</ele>
        <time>2011-03-05T15:16:45Z</time>
      </trkpt>
      <trkpt lat="48.94488" lon="-0.50773">
        <ele>34</ele>
        <time>2011-03-05T15:16:53Z</time>
      </trkpt>
      <trkpt lat="48.94482" lon="-0.50785">
        <ele>34</ele>
        <time>2011-03-05T15:17:01Z</time>
      </trkpt>
      <trkpt lat="48.94478" lon="-0.50798">
        <ele>41</ele>
        <time>2011-03-05T15:17:07Z</time>
      </trkpt>
      <trkpt lat="48.94471" lon="-0.50809">
        <ele>41</ele>
        <time>2011-03-05T15:17:17Z</time>
      </trkpt>
      <trkpt lat="48.94462" lon="-0.50812">
        <ele>29</ele>
        <time>2011-03-05T15:17:27Z</time>
      </trkpt>
      <trkpt lat="48.94453" lon="-0.50811">
        <ele>29</ele>
        <time>2011-03-05T15:17:35Z</time>
      </trkpt>
      <trkpt lat="48.94443" lon="-0.50809">
        <ele>29</ele>
        <time>2011-03-05T15:17:46Z</time>
      </trkpt>
      <trkpt lat="48.94432" lon="-0.50808">
        <ele>37</ele>
        <time>2011-03-05T15:17:53Z</time>
      </trkpt>
      <trkpt lat="48.94422" lon="-0.50808">
        <ele>37</ele>
        <time>2011-03-05T15:18:01Z</time>
      </trkpt>
      <trkpt lat="48.94413" lon="-0.50807">
        <ele>37</ele>
        <time>2011-03-05T15:18:08Z</time>
      </trkpt>
      <trkpt lat="48.94403" lon="-0.50808">
        <ele>37</ele>
        <time>2011-03-05T15:18:16Z</time>
      </trkpt>
      <trkpt lat="48.94394" lon="-0.50814">
        <ele>43</ele>
        <time>2011-03-05T15:18:23Z</time>
      </trkpt>
      <trkpt lat="48.94383" lon="-0.50816">
        <ele>43</ele>
        <time>2011-03-05T15:18:34Z</time>
      </trkpt>
      <trkpt lat="48.94376" lon="-0.50825">
        <ele>43</ele>
        <time>2011-03-05T15:18:41Z</time>
      </trkpt>
      <trkpt lat="48.94365" lon="-0.5083">
        <ele>43</ele>
        <time>2011-03-05T15:18:48Z</time>
      </trkpt>
      <trkpt lat="48.94356" lon="-0.50834">
        <ele>43</ele>
        <time>2011-03-05T15:18:55Z</time>
      </trkpt>
      <trkpt lat="48.94346" lon="-0.50837">
        <ele>43</ele>
        <time>2011-03-05T15:19:02Z</time>
      </trkpt>
      <trkpt lat="48.94336" lon="-0.50843">
        <ele>43</ele>
        <time>2011-03-05T15:19:09Z</time>
      </trkpt>
      <trkpt lat="48.94326" lon="-0.50848">
        <ele>43</ele>
        <time>2011-03-05T15:19:18Z</time>
      </trkpt>
      <trkpt lat="48.94317" lon="-0.50855">
        <ele>36</ele>
        <time>2011-03-05T15:19:29Z</time>
      </trkpt>
      <trkpt lat="48.94308" lon="-0.50858">
        <ele>36</ele>
        <time>2011-03-05T15:19:37Z</time>
      </trkpt>
      <trkpt lat="48.94297" lon="-0.50867">
        <ele>36</ele>
        <time>2011-03-05T15:19:45Z</time>
      </trkpt>
      <trkpt lat="48.94288" lon="-0.50873">
        <ele>36</ele>
        <time>2011-03-05T15:19:53Z</time>
      </trkpt>
      <trkpt lat="48.94279" lon="-0.50877">
        <ele>29</ele>
        <time>2011-03-05T15:20:02Z</time>
      </trkpt>
      <trkpt lat="48.9427" lon="-0.50885">
        <ele>29</ele>
        <time>2011-03-05T15:20:11Z</time>
      </trkpt>
      <trkpt lat="48.94261" lon="-0.50892">
        <ele>29</ele>
        <time>2011-03-05T15:20:20Z</time>
      </trkpt>
      <trkpt lat="48.94252" lon="-0.50899">
        <ele>23</ele>
        <time>2011-03-05T15:20:29Z</time>
      </trkpt>
      <trkpt lat="48.94242" lon="-0.50908">
        <ele>23</ele>
        <time>2011-03-05T15:20:37Z</time>
      </trkpt>
      <trkpt lat="48.94234" lon="-0.50916">
        <ele>23</ele>
        <time>2011-03-05T15:20:44Z</time>
      </trkpt>
      <trkpt lat="48.94225" lon="-0.50924">
        <ele>23</ele>
        <time>2011-03-05T15:20:52Z</time>
      </trkpt>
      <trkpt lat="48.94217" lon="-0.5093">
        <ele>30</ele>
        <time>2011-03-05T15:21:00Z</time>
      </trkpt>
      <trkpt lat="48.9421" lon="-0.5094">
        <ele>38</ele>
        <time>2011-03-05T15:21:07Z</time>
      </trkpt>
      <trkpt lat="48.942" lon="-0.50944">
        <ele>47</ele>
        <time>2011-03-05T15:21:16Z</time>
      </trkpt>
      <trkpt lat="48.94191" lon="-0.50945">
        <ele>47</ele>
        <time>2011-03-05T15:21:23Z</time>
      </trkpt>
      <trkpt lat="48.94181" lon="-0.50947">
        <ele>38</ele>
        <time>2011-03-05T15:21:30Z</time>
      </trkpt>
      <trkpt lat="48.94172" lon="-0.5095">
        <ele>38</ele>
        <time>2011-03-05T15:21:39Z</time>
      </trkpt>
      <trkpt lat="48.94161" lon="-0.50951">
        <ele>31</ele>
        <time>2011-03-05T15:21:49Z</time>
      </trkpt>
      <trkpt lat="48.94152" lon="-0.50952">
        <ele>31</ele>
        <time>2011-03-05T15:21:57Z</time>
      </trkpt>
      <trkpt lat="48.94142" lon="-0.50952">
        <ele>26</ele>
        <time>2011-03-05T15:22:06Z</time>
      </trkpt>
      <trkpt lat="48.94132" lon="-0.50957">
        <ele>26</ele>
        <time>2011-03-05T15:22:14Z</time>
      </trkpt>
      <trkpt lat="48.94124" lon="-0.50964">
        <ele>34</ele>
        <time>2011-03-05T15:22:22Z</time>
      </trkpt>
      <trkpt lat="48.94117" lon="-0.50974">
        <ele>40</ele>
        <time>2011-03-05T15:22:28Z</time>
      </trkpt>
      <trkpt lat="48.9411" lon="-0.50984">
        <ele>40</ele>
        <time>2011-03-05T15:22:34Z</time>
      </trkpt>
      <trkpt lat="48.94101" lon="-0.50984">
        <ele>48</ele>
        <time>2011-03-05T15:22:42Z</time>
      </trkpt>
      <trkpt lat="48.94091" lon="-0.50987">
        <ele>48</ele>
        <time>2011-03-05T15:22:51Z</time>
      </trkpt>
      <trkpt lat="48.94081" lon="-0.50985">
        <ele>42</ele>
        <time>2011-03-05T15:23:02Z</time>
      </trkpt>
      <trkpt lat="48.94071" lon="-0.50982">
        <ele>42</ele>
        <time>2011-03-05T15:23:10Z</time>
      </trkpt>
      <trkpt lat="48.94062" lon="-0.5098">
        <ele>42</ele>
        <time>2011-03-05T15:23:18Z</time>
      </trkpt>
      <trkpt lat="48.94052" lon="-0.50979">
        <ele>32</ele>
        <time>2011-03-05T15:23:25Z</time>
      </trkpt>
      <trkpt lat="48.94043" lon="-0.50983">
        <ele>32</ele>
        <time>2011-03-05T15:23:33Z</time>
      </trkpt>
      <trkpt lat="48.94033" lon="-0.50988">
        <ele>25</ele>
        <time>2011-03-05T15:23:43Z</time>
      </trkpt>
      <trkpt lat="48.94026" lon="-0.50996">
        <ele>25</ele>
        <time>2011-03-05T15:23:51Z</time>
      </trkpt>
      <trkpt lat="48.94017" lon="-0.5101">
        <ele>32</ele>
        <time>2011-03-05T15:23:59Z</time>
      </trkpt>
      <trkpt lat="48.94011" lon="-0.51023">
        <ele>39</ele>
        <time>2011-03-05T15:24:04Z</time>
      </trkpt>
      <trkpt lat="48.94003" lon="-0.5103">
        <ele>49</ele>
        <time>2011-03-05T15:24:11Z</time>
      </trkpt>
      <trkpt lat="48.93992" lon="-0.51032">
        <ele>40</ele>
        <time>2011-03-05T15:24:20Z</time>
      </trkpt>
      <trkpt lat="48.93987" lon="-0.51044">
        <ele>40</ele>
        <time>2011-03-05T15:24:29Z</time>
      </trkpt>
      <trkpt lat="48.9398" lon="-0.51054">
        <ele>40</ele>
        <time>2011-03-05T15:24:38Z</time>
      </trkpt>
      <trkpt lat="48.93973" lon="-0.51065">
        <ele>40</ele>
        <time>2011-03-05T15:24:45Z</time>
      </trkpt>
      <trkpt lat="48.93968" lon="-0.51078">
        <ele>40</ele>
        <time>2011-03-05T15:24:54Z</time>
      </trkpt>
      <trkpt lat="48.9396" lon="-0.51087">
        <ele>40</ele>
        <time>2011-03-05T15:25:03Z</time>
      </trkpt>
      <trkpt lat="48.93952" lon="-0.51093">
        <ele>40</ele>
        <time>2011-03-05T15:25:13Z</time>
      </trkpt>
      <trkpt lat="48.93943" lon="-0.51102">
        <ele>40</ele>
        <time>2011-03-05T15:25:26Z</time>
      </trkpt>
      <trkpt lat="48.93936" lon="-0.51112">
        <ele>46</ele>
        <time>2011-03-05T15:25:32Z</time>
      </trkpt>
      <trkpt lat="48.93928" lon="-0.5112">
        <ele>46</ele>
        <time>2011-03-05T15:25:41Z</time>
      </trkpt>
      <trkpt lat="48.93921" lon="-0.5113">
        <ele>46</ele>
        <time>2011-03-05T15:25:47Z</time>
      </trkpt>
      <trkpt lat="48.93913" lon="-0.51139">
        <ele>37</ele>
        <time>2011-03-05T15:25:57Z</time>
      </trkpt>
      <trkpt lat="48.93904" lon="-0.51147">
        <ele>37</ele>
        <time>2011-03-05T15:26:07Z</time>
      </trkpt>
      <trkpt lat="48.93897" lon="-0.51156">
        <ele>37</ele>
        <time>2011-03-05T15:26:15Z</time>
      </trkpt>
      <trkpt lat="48.93891" lon="-0.51167">
        <ele>37</ele>
        <time>2011-03-05T15:26:24Z</time>
      </trkpt>
      <trkpt lat="48.93884" lon="-0.51181">
        <ele>37</ele>
        <time>2011-03-05T15:26:34Z</time>
      </trkpt>
      <trkpt lat="48.93878" lon="-0.51191">
        <ele>37</ele>
        <time>2011-03-05T15:26:42Z</time>
      </trkpt>
      <trkpt lat="48.93871" lon="-0.51203">
        <ele>37</ele>
        <time>2011-03-05T15:26:52Z</time>
      </trkpt>
      <trkpt lat="48.93865" lon="-0.51215">
        <ele>37</ele>
        <time>2011-03-05T15:27:01Z</time>
      </trkpt>
      <trkpt lat="48.93855" lon="-0.51222">
        <ele>37</ele>
        <time>2011-03-05T15:27:10Z</time>
      </trkpt>
      <trkpt lat="48.93851" lon="-0.51235">
        <ele>37</ele>
        <time>2011-03-05T15:27:17Z</time>
      </trkpt>
      <trkpt lat="48.93847" lon="-0.51247">
        <ele>37</ele>
        <time>2011-03-05T15:27:28Z</time>
      </trkpt>
      <trkpt lat="48.93841" lon="-0.51258">
        <ele>37</ele>
        <time>2011-03-05T15:27:37Z</time>
      </trkpt>
      <trkpt lat="48.93834" lon="-0.51268">
        <ele>29</ele>
        <time>2011-03-05T15:27:45Z</time>
      </trkpt>
      <trkpt lat="48.9383" lon="-0.51281">
        <ele>29</ele>
        <time>2011-03-05T15:27:54Z</time>
      </trkpt>
      <trkpt lat="48.93823" lon="-0.5129">
        <ele>29</ele>
        <time>2011-03-05T15:28:01Z</time>
      </trkpt>
      <trkpt lat="48.93814" lon="-0.51297">
        <ele>29</ele>
        <time>2011-03-05T15:28:10Z</time>
      </trkpt>
      <trkpt lat="48.93805" lon="-0.51306">
        <ele>29</ele>
        <time>2011-03-05T15:28:20Z</time>
      </trkpt>
      <trkpt lat="48.938" lon="-0.51322">
        <ele>40</ele>
        <time>2011-03-05T15:28:40Z</time>
      </trkpt>
      <trkpt lat="48.93794" lon="-0.51332">
        <ele>34</ele>
        <time>2011-03-05T15:28:49Z</time>
      </trkpt>
      <trkpt lat="48.93787" lon="-0.51342">
        <ele>27</ele>
        <time>2011-03-05T15:29:03Z</time>
      </trkpt>
      <trkpt lat="48.93778" lon="-0.51349">
        <ele>33</ele>
        <time>2011-03-05T15:29:12Z</time>
      </trkpt>
      <trkpt lat="48.93772" lon="-0.5136">
        <ele>33</ele>
        <time>2011-03-05T15:29:21Z</time>
      </trkpt>
      <trkpt lat="48.93762" lon="-0.51362">
        <ele>26</ele>
        <time>2011-03-05T15:29:31Z</time>
      </trkpt>
      <trkpt lat="48.93753" lon="-0.51368">
        <ele>26</ele>
        <time>2011-03-05T15:29:40Z</time>
      </trkpt>
      <trkpt lat="48.93744" lon="-0.51369">
        <ele>26</ele>
        <time>2011-03-05T15:29:50Z</time>
      </trkpt>
      <trkpt lat="48.93734" lon="-0.51375">
        <ele>26</ele>
        <time>2011-03-05T15:30:00Z</time>
      </trkpt>
      <trkpt lat="48.93724" lon="-0.51382">
        <ele>32</ele>
        <time>2011-03-05T15:30:12Z</time>
      </trkpt>
      <trkpt lat="48.93715" lon="-0.51385">
        <ele>32</ele>
        <time>2011-03-05T15:30:20Z</time>
      </trkpt>
      <trkpt lat="48.93706" lon="-0.51392">
        <ele>32</ele>
        <time>2011-03-05T15:30:29Z</time>
      </trkpt>
      <trkpt lat="48.93697" lon="-0.51398">
        <ele>32</ele>
        <time>2011-03-05T15:30:40Z</time>
      </trkpt>
      <trkpt lat="48.93688" lon="-0.51404">
        <ele>40</ele>
        <time>2011-03-05T15:30:49Z</time>
      </trkpt>
      <trkpt lat="48.93679" lon="-0.51412">
        <ele>40</ele>
        <time>2011-03-05T15:31:02Z</time>
      </trkpt>
      <trkpt lat="48.93669" lon="-0.51419">
        <ele>35</ele>
        <time>2011-03-05T15:31:09Z</time>
      </trkpt>
      <trkpt lat="48.9366" lon="-0.51424">
        <ele>35</ele>
        <time>2011-03-05T15:31:17Z</time>
      </trkpt>
      <trkpt lat="48.9365" lon="-0.51426">
        <ele>35</ele>
        <time>2011-03-05T15:31:25Z</time>
      </trkpt>
      <trkpt lat="48.93626" lon="-0.51423">
        <ele>32</ele>
        <time>2011-03-05T15:45:44Z</time>
      </trkpt>
      <trkpt lat="48.93617" lon="-0.51418">
        <ele>32</ele>
        <time>2011-03-05T15:45:53Z</time>
      </trkpt>
      <trkpt lat="48.93608" lon="-0.5141">
        <ele>39</ele>
        <time>2011-03-05T15:46:01Z</time>
      </trkpt>
      <trkpt lat="48.93599" lon="-0.51401">
        <ele>39</ele>
        <time>2011-03-05T15:46:09Z</time>
      </trkpt>
      <trkpt lat="48.93592" lon="-0.51392">
        <ele>39</ele>
        <time>2011-03-05T15:46:17Z</time>
      </trkpt>
      <trkpt lat="48.93584" lon="-0.51383">
        <ele>39</ele>
        <time>2011-03-05T15:46:27Z</time>
      </trkpt>
      <trkpt lat="48.93574" lon="-0.51384">
        <ele>39</ele>
        <time>2011-03-05T15:46:32Z</time>
      </trkpt>
      <trkpt lat="48.93565" lon="-0.5138">
        <ele>39</ele>
        <time>2011-03-05T15:46:41Z</time>
      </trkpt>
      <trkpt lat="48.93555" lon="-0.51378">
        <ele>39</ele>
        <time>2011-03-05T15:46:50Z</time>
      </trkpt>
      <trkpt lat="48.93544" lon="-0.51379">
        <ele>39</ele>
        <time>2011-03-05T15:46:59Z</time>
      </trkpt>
      <trkpt lat="48.93535" lon="-0.5138">
        <ele>33</ele>
        <time>2011-03-05T15:47:06Z</time>
      </trkpt>
      <trkpt lat="48.93529" lon="-0.51368">
        <ele>43</ele>
        <time>2011-03-05T15:47:16Z</time>
      </trkpt>
      <trkpt lat="48.9352" lon="-0.51364">
        <ele>54</ele>
        <time>2011-03-05T15:47:23Z</time>
      </trkpt>
      <trkpt lat="48.93511" lon="-0.51358">
        <ele>48</ele>
        <time>2011-03-05T15:48:08Z</time>
      </trkpt>
      <trkpt lat="48.93502" lon="-0.51357">
        <ele>48</ele>
        <time>2011-03-05T15:48:13Z</time>
      </trkpt>
      <trkpt lat="48.93493" lon="-0.51363">
        <ele>48</ele>
        <time>2011-03-05T15:48:18Z</time>
      </trkpt>
      <trkpt lat="48.93483" lon="-0.51365">
        <ele>48</ele>
        <time>2011-03-05T15:48:23Z</time>
      </trkpt>
      <trkpt lat="48.93473" lon="-0.51367">
        <ele>48</ele>
        <time>2011-03-05T15:48:33Z</time>
      </trkpt>
      <trkpt lat="48.93465" lon="-0.51359">
        <ele>53</ele>
        <time>2011-03-05T15:48:40Z</time>
      </trkpt>
      <trkpt lat="48.93455" lon="-0.51359">
        <ele>60</ele>
        <time>2011-03-05T15:48:46Z</time>
      </trkpt>
      <trkpt lat="48.93444" lon="-0.51359">
        <ele>60</ele>
        <time>2011-03-05T15:48:55Z</time>
      </trkpt>
      <trkpt lat="48.93436" lon="-0.51356">
        <ele>60</ele>
        <time>2011-03-05T15:49:04Z</time>
      </trkpt>
      <trkpt lat="48.93426" lon="-0.51353">
        <ele>60</ele>
        <time>2011-03-05T15:49:12Z</time>
      </trkpt>
      <trkpt lat="48.93414" lon="-0.51358">
        <ele>60</ele>
        <time>2011-03-05T15:49:21Z</time>
      </trkpt>
      <trkpt lat="48.93404" lon="-0.51365">
        <ele>54</ele>
        <time>2011-03-05T15:49:27Z</time>
      </trkpt>
      <trkpt lat="48.93395" lon="-0.51357">
        <ele>54</ele>
        <time>2011-03-05T15:49:33Z</time>
      </trkpt>
      <trkpt lat="48.93388" lon="-0.51352">
        <ele>35</ele>
        <time>2011-03-05T15:51:25Z</time>
      </trkpt>
      <trkpt lat="48.93377" lon="-0.51349">
        <ele>35</ele>
        <time>2011-03-05T15:51:30Z</time>
      </trkpt>
      <trkpt lat="48.93367" lon="-0.51344">
        <ele>35</ele>
        <time>2011-03-05T15:51:38Z</time>
      </trkpt>
      <trkpt lat="48.93358" lon="-0.51337">
        <ele>35</ele>
        <time>2011-03-05T15:51:46Z</time>
      </trkpt>
      <trkpt lat="48.9335" lon="-0.5133">
        <ele>30</ele>
        <time>2011-03-05T15:51:59Z</time>
      </trkpt>
      <trkpt lat="48.9334" lon="-0.5133">
        <ele>30</ele>
        <time>2011-03-05T15:52:05Z</time>
      </trkpt>
      <trkpt lat="48.93333" lon="-0.51319">
        <ele>43</ele>
        <time>2011-03-05T15:52:15Z</time>
      </trkpt>
      <trkpt lat="48.93325" lon="-0.51307">
        <ele>49</ele>
        <time>2011-03-05T15:52:23Z</time>
      </trkpt>
      <trkpt lat="48.93316" lon="-0.513">
        <ele>49</ele>
        <time>2011-03-05T15:52:29Z</time>
      </trkpt>
      <trkpt lat="48.93307" lon="-0.513">
        <ele>61</ele>
        <time>2011-03-05T15:52:39Z</time>
      </trkpt>
      <trkpt lat="48.93298" lon="-0.51308">
        <ele>61</ele>
        <time>2011-03-05T15:52:45Z</time>
      </trkpt>
      <trkpt lat="48.93289" lon="-0.51314">
        <ele>47</ele>
        <time>2011-03-05T15:52:51Z</time>
      </trkpt>
      <trkpt lat="48.9328" lon="-0.51318">
        <ele>30</ele>
        <time>2011-03-05T15:52:59Z</time>
      </trkpt>
      <trkpt lat="48.93272" lon="-0.51323">
        <ele>18</ele>
        <time>2011-03-05T15:53:07Z</time>
      </trkpt>
      <trkpt lat="48.93263" lon="-0.51318">
        <ele>18</ele>
        <time>2011-03-05T15:53:12Z</time>
      </trkpt>
      <trkpt lat="48.93253" lon="-0.51318">
        <ele>18</ele>
        <time>2011-03-05T15:53:18Z</time>
      </trkpt>
      <trkpt lat="48.93244" lon="-0.51319">
        <ele>18</ele>
        <time>2011-03-05T15:53:25Z</time>
      </trkpt>
      <trkpt lat="48.93234" lon="-0.51321">
        <ele>18</ele>
        <time>2011-03-05T15:53:31Z</time>
      </trkpt>
      <trkpt lat="48.93225" lon="-0.51313">
        <ele>23</ele>
        <time>2011-03-05T15:53:39Z</time>
      </trkpt>
      <trkpt lat="48.93217" lon="-0.51305">
        <ele>33</ele>
        <time>2011-03-05T15:53:48Z</time>
      </trkpt>
      <trkpt lat="48.93207" lon="-0.513">
        <ele>33</ele>
        <time>2011-03-05T15:53:56Z</time>
      </trkpt>
      <trkpt lat="48.93196" lon="-0.51298">
        <ele>23</ele>
        <time>2011-03-05T15:54:04Z</time>
      </trkpt>
      <trkpt lat="48.93185" lon="-0.51299">
        <ele>23</ele>
        <time>2011-03-05T15:54:10Z</time>
      </trkpt>
      <trkpt lat="48.93174" lon="-0.51298">
        <ele>15</ele>
        <time>2011-03-05T15:54:16Z</time>
      </trkpt>
      <trkpt lat="48.93166" lon="-0.51289">
        <ele>15</ele>
        <time>2011-03-05T15:54:22Z</time>
      </trkpt>
      <trkpt lat="48.93159" lon="-0.51276">
        <ele>24</ele>
        <time>2011-03-05T15:54:29Z</time>
      </trkpt>
      <trkpt lat="48.93151" lon="-0.51268">
        <ele>35</ele>
        <time>2011-03-05T15:54:40Z</time>
      </trkpt>
      <trkpt lat="48.93143" lon="-0.51262">
        <ele>44</ele>
        <time>2011-03-05T15:54:45Z</time>
      </trkpt>
      <trkpt lat="48.93134" lon="-0.51259">
        <ele>44</ele>
        <time>2011-03-05T15:54:52Z</time>
      </trkpt>
      <trkpt lat="48.93124" lon="-0.51257">
        <ele>50</ele>
        <time>2011-03-05T15:54:58Z</time>
      </trkpt>
      <trkpt lat="48.93115" lon="-0.51253">
        <ele>50</ele>
        <time>2011-03-05T15:55:04Z</time>
      </trkpt>
      <trkpt lat="48.93105" lon="-0.51253">
        <ele>41</ele>
        <time>2011-03-05T15:55:14Z</time>
      </trkpt>
      <trkpt lat="48.93096" lon="-0.51249">
        <ele>41</ele>
        <time>2011-03-05T15:55:21Z</time>
      </trkpt>
      <trkpt lat="48.93088" lon="-0.51239">
        <ele>47</ele>
        <time>2011-03-05T15:55:28Z</time>
      </trkpt>
      <trkpt lat="48.93078" lon="-0.51235">
        <ele>47</ele>
        <time>2011-03-05T15:55:38Z</time>
      </trkpt>
      <trkpt lat="48.93067" lon="-0.51234">
        <ele>47</ele>
        <time>2011-03-05T15:55:45Z</time>
      </trkpt>
      <trkpt lat="48.93061" lon="-0.51222">
        <ele>38</ele>
        <time>2011-03-05T15:55:51Z</time>
      </trkpt>
      <trkpt lat="48.93051" lon="-0.51221">
        <ele>50</ele>
        <time>2011-03-05T15:56:06Z</time>
      </trkpt>
      <trkpt lat="48.9304" lon="-0.5122">
        <ele>50</ele>
        <time>2011-03-05T15:56:31Z</time>
      </trkpt>
      <trkpt lat="48.9303" lon="-0.5122">
        <ele>50</ele>
        <time>2011-03-05T15:56:52Z</time>
      </trkpt>
      <trkpt lat="48.93021" lon="-0.51215">
        <ele>50</ele>
        <time>2011-03-05T15:57:00Z</time>
      </trkpt>
      <trkpt lat="48.93011" lon="-0.51209">
        <ele>50</ele>
        <time>2011-03-05T15:57:09Z</time>
      </trkpt>
      <trkpt lat="48.93002" lon="-0.51212">
        <ele>50</ele>
        <time>2011-03-05T15:57:18Z</time>
      </trkpt>
      <trkpt lat="48.92992" lon="-0.51214">
        <ele>50</ele>
        <time>2011-03-05T15:57:26Z</time>
      </trkpt>
      <trkpt lat="48.92983" lon="-0.51216">
        <ele>42</ele>
        <time>2011-03-05T15:57:37Z</time>
      </trkpt>
      <trkpt lat="48.92973" lon="-0.5122">
        <ele>35</ele>
        <time>2011-03-05T15:57:47Z</time>
      </trkpt>
      <trkpt lat="48.92965" lon="-0.51227">
        <ele>43</ele>
        <time>2011-03-05T15:57:59Z</time>
      </trkpt>
      <trkpt lat="48.92954" lon="-0.51232">
        <ele>43</ele>
        <time>2011-03-05T15:58:07Z</time>
      </trkpt>
      <trkpt lat="48.92945" lon="-0.51239">
        <ele>43</ele>
        <time>2011-03-05T15:58:11Z</time>
      </trkpt>
      <trkpt lat="48.92935" lon="-0.51237">
        <ele>43</ele>
        <time>2011-03-05T15:58:21Z</time>
      </trkpt>
      <trkpt lat="48.92926" lon="-0.5124">
        <ele>43</ele>
        <time>2011-03-05T15:58:28Z</time>
      </trkpt>
      <trkpt lat="48.92916" lon="-0.51238">
        <ele>43</ele>
        <time>2011-03-05T15:58:41Z</time>
      </trkpt>
      <trkpt lat="48.92907" lon="-0.51233">
        <ele>43</ele>
        <time>2011-03-05T15:58:51Z</time>
      </trkpt>
      <trkpt lat="48.92898" lon="-0.51233">
        <ele>43</ele>
        <time>2011-03-05T15:58:58Z</time>
      </trkpt>
      <trkpt lat="48.92886" lon="-0.51232">
        <ele>37</ele>
        <time>2011-03-05T15:59:08Z</time>
      </trkpt>
      <trkpt lat="48.92876" lon="-0.51229">
        <ele>37</ele>
        <time>2011-03-05T15:59:14Z</time>
      </trkpt>
      <trkpt lat="48.92868" lon="-0.51223">
        <ele>44</ele>
        <time>2011-03-05T15:59:22Z</time>
      </trkpt>
      <trkpt lat="48.92858" lon="-0.51221">
        <ele>44</ele>
        <time>2011-03-05T15:59:30Z</time>
      </trkpt>
      <trkpt lat="48.92849" lon="-0.51224">
        <ele>44</ele>
        <time>2011-03-05T15:59:42Z</time>
      </trkpt>
      <trkpt lat="48.92843" lon="-0.51219">
        <ele>40</ele>
        <time>2011-03-05T16:00:35Z</time>
      </trkpt>
      <trkpt lat="48.92834" lon="-0.51221">
        <ele>40</ele>
        <time>2011-03-05T16:00:48Z</time>
      </trkpt>
      <trkpt lat="48.92824" lon="-0.51223">
        <ele>40</ele>
        <time>2011-03-05T16:00:54Z</time>
      </trkpt>
      <trkpt lat="48.92815" lon="-0.51227">
        <ele>40</ele>
        <time>2011-03-05T16:01:02Z</time>
      </trkpt>
      <trkpt lat="48.92804" lon="-0.51228">
        <ele>40</ele>
        <time>2011-03-05T16:01:12Z</time>
      </trkpt>
      <trkpt lat="48.92795" lon="-0.51231">
        <ele>40</ele>
        <time>2011-03-05T16:01:21Z</time>
      </trkpt>
      <trkpt lat="48.92784" lon="-0.51234">
        <ele>40</ele>
        <time>2011-03-05T16:01:28Z</time>
      </trkpt>
      <trkpt lat="48.92776" lon="-0.51237">
        <ele>40</ele>
        <time>2011-03-05T16:01:37Z</time>
      </trkpt>
      <trkpt lat="48.92766" lon="-0.51243">
        <ele>40</ele>
        <time>2011-03-05T16:01:44Z</time>
      </trkpt>
      <trkpt lat="48.92756" lon="-0.51246">
        <ele>40</ele>
        <time>2011-03-05T16:01:52Z</time>
      </trkpt>
      <trkpt lat="48.92747" lon="-0.5125">
        <ele>40</ele>
        <time>2011-03-05T16:01:59Z</time>
      </trkpt>
      <trkpt lat="48.92738" lon="-0.51254">
        <ele>40</ele>
        <time>2011-03-05T16:02:10Z</time>
      </trkpt>
      <trkpt lat="48.92729" lon="-0.51259">
        <ele>40</ele>
        <time>2011-03-05T16:02:18Z</time>
      </trkpt>
      <trkpt lat="48.9272" lon="-0.51262">
        <ele>40</ele>
        <time>2011-03-05T16:02:26Z</time>
      </trkpt>
      <trkpt lat="48.92711" lon="-0.51266">
        <ele>40</ele>
        <time>2011-03-05T16:02:34Z</time>
      </trkpt>
      <trkpt lat="48.92702" lon="-0.5127">
        <ele>40</ele>
        <time>2011-03-05T16:02:44Z</time>
      </trkpt>
      <trkpt lat="48.92692" lon="-0.51274">
        <ele>40</ele>
        <time>2011-03-05T16:02:52Z</time>
      </trkpt>
      <trkpt lat="48.92683" lon="-0.51279">
        <ele>40</ele>
        <time>2011-03-05T16:03:00Z</time>
      </trkpt>
      <trkpt lat="48.92673" lon="-0.51283">
        <ele>40</ele>
        <time>2011-03-05T16:03:07Z</time>
      </trkpt>
      <trkpt lat="48.92664" lon="-0.51287">
        <ele>45</ele>
        <time>2011-03-05T16:03:14Z</time>
      </trkpt>
      <trkpt lat="48.92655" lon="-0.51288">
        <ele>45</ele>
        <time>2011-03-05T16:03:22Z</time>
      </trkpt>
      <trkpt lat="48.92645" lon="-0.51293">
        <ele>45</ele>
        <time>2011-03-05T16:03:29Z</time>
      </trkpt>
      <trkpt lat="48.92635" lon="-0.51296">
        <ele>51</ele>
        <time>2011-03-05T16:03:39Z</time>
      </trkpt>
      <trkpt lat="48.92626" lon="-0.51301">
        <ele>51</ele>
        <time>2011-03-05T16:03:47Z</time>
      </trkpt>
      <trkpt lat="48.92616" lon="-0.51306">
        <ele>51</ele>
        <time>2011-03-05T16:03:58Z</time>
      </trkpt>
      <trkpt lat="48.92607" lon="-0.51312">
        <ele>51</ele>
        <time>2011-03-05T16:04:05Z</time>
      </trkpt>
      <trkpt lat="48.92598" lon="-0.51316">
        <ele>51</ele>
        <time>2011-03-05T16:04:10Z</time>
      </trkpt>
      <trkpt lat="48.92588" lon="-0.51321">
        <ele>51</ele>
        <time>2011-03-05T16:04:16Z</time>
      </trkpt>
      <trkpt lat="48.92578" lon="-0.5132">
        <ele>58</ele>
        <time>2011-03-05T16:04:23Z</time>
      </trkpt>
      <trkpt lat="48.92568" lon="-0.51322">
        <ele>58</ele>
        <time>2011-03-05T16:04:31Z</time>
      </trkpt>
      <trkpt lat="48.92559" lon="-0.51324">
        <ele>58</ele>
        <time>2011-03-05T16:04:39Z</time>
      </trkpt>
      <trkpt lat="48.92549" lon="-0.51324">
        <ele>58</ele>
        <time>2011-03-05T16:04:47Z</time>
      </trkpt>
      <trkpt lat="48.92538" lon="-0.51324">
        <ele>58</ele>
        <time>2011-03-05T16:04:57Z</time>
      </trkpt>
      <trkpt lat="48.92528" lon="-0.51325">
        <ele>49</ele>
        <time>2011-03-05T16:05:05Z</time>
      </trkpt>
      <trkpt lat="48.9252" lon="-0.51317">
        <ele>49</ele>
        <time>2011-03-05T16:05:16Z</time>
      </trkpt>
      <trkpt lat="48.92513" lon="-0.51308">
        <ele>49</ele>
        <time>2011-03-05T16:05:28Z</time>
      </trkpt>
      <trkpt lat="48.92505" lon="-0.513">
        <ele>44</ele>
        <time>2011-03-05T16:05:36Z</time>
      </trkpt>
      <trkpt lat="48.92499" lon="-0.51288">
        <ele>50</ele>
        <time>2011-03-05T16:05:41Z</time>
      </trkpt>
      <trkpt lat="48.92493" lon="-0.51278">
        <ele>50</ele>
        <time>2011-03-05T16:05:50Z</time>
      </trkpt>
      <trkpt lat="48.92487" lon="-0.51266">
        <ele>42</ele>
        <time>2011-03-05T16:06:00Z</time>
      </trkpt>
      <trkpt lat="48.92483" lon="-0.51252">
        <ele>42</ele>
        <time>2011-03-05T16:06:08Z</time>
      </trkpt>
      <trkpt lat="48.92482" lon="-0.51237">
        <ele>36</ele>
        <time>2011-03-05T16:06:18Z</time>
      </trkpt>
      <trkpt lat="48.9248" lon="-0.51222">
        <ele>36</ele>
        <time>2011-03-05T16:06:26Z</time>
      </trkpt>
      <trkpt lat="48.9248" lon="-0.51208">
        <ele>36</ele>
        <time>2011-03-05T16:06:33Z</time>
      </trkpt>
      <trkpt lat="48.92482" lon="-0.51193">
        <ele>36</ele>
        <time>2011-03-05T16:06:41Z</time>
      </trkpt>
      <trkpt lat="48.92484" lon="-0.5118">
        <ele>36</ele>
        <time>2011-03-05T16:06:49Z</time>
      </trkpt>
      <trkpt lat="48.92484" lon="-0.51164">
        <ele>36</ele>
        <time>2011-03-05T16:06:58Z</time>
      </trkpt>
      <trkpt lat="48.92483" lon="-0.51149">
        <ele>36</ele>
        <time>2011-03-05T16:07:06Z</time>
      </trkpt>
      <trkpt lat="48.9248" lon="-0.51133">
        <ele>36</ele>
        <time>2011-03-05T16:07:14Z</time>
      </trkpt>
      <trkpt lat="48.92477" lon="-0.51119">
        <ele>36</ele>
        <time>2011-03-05T16:07:21Z</time>
      </trkpt>
      <trkpt lat="48.92474" lon="-0.51104">
        <ele>36</ele>
        <time>2011-03-05T16:07:30Z</time>
      </trkpt>
      <trkpt lat="48.9247" lon="-0.51091">
        <ele>36</ele>
        <time>2011-03-05T16:07:38Z</time>
      </trkpt>
      <trkpt lat="48.92465" lon="-0.51077">
        <ele>36</ele>
        <time>2011-03-05T16:07:46Z</time>
      </trkpt>
      <trkpt lat="48.9246" lon="-0.51065">
        <ele>36</ele>
        <time>2011-03-05T16:07:55Z</time>
      </trkpt>
      <trkpt lat="48.92456" lon="-0.51052">
        <ele>36</ele>
        <time>2011-03-05T16:08:03Z</time>
      </trkpt>
      <trkpt lat="48.92451" lon="-0.51039">
        <ele>36</ele>
        <time>2011-03-05T16:08:11Z</time>
      </trkpt>
      <trkpt lat="48.92446" lon="-0.51026">
        <ele>41</ele>
        <time>2011-03-05T16:08:17Z</time>
      </trkpt>
      <trkpt lat="48.92443" lon="-0.51013">
        <ele>41</ele>
        <time>2011-03-05T16:08:24Z</time>
      </trkpt>
      <trkpt lat="48.92441" lon="-0.50997">
        <ele>41</ele>
        <time>2011-03-05T16:08:33Z</time>
      </trkpt>
      <trkpt lat="48.92441" lon="-0.50982">
        <ele>49</ele>
        <time>2011-03-05T16:08:40Z</time>
      </trkpt>
      <trkpt lat="48.9244" lon="-0.50967">
        <ele>49</ele>
        <time>2011-03-05T16:08:47Z</time>
      </trkpt>
      <trkpt lat="48.92441" lon="-0.50952">
        <ele>49</ele>
        <time>2011-03-05T16:08:55Z</time>
      </trkpt>
      <trkpt lat="48.92439" lon="-0.50937">
        <ele>49</ele>
        <time>2011-03-05T16:09:04Z</time>
      </trkpt>
      <trkpt lat="48.92439" lon="-0.50922">
        <ele>49</ele>
        <time>2011-03-05T16:09:12Z</time>
      </trkpt>
      <trkpt lat="48.92439" lon="-0.50907">
        <ele>49</ele>
        <time>2011-03-05T16:09:19Z</time>
      </trkpt>
      <trkpt lat="48.92438" lon="-0.50891">
        <ele>49</ele>
        <time>2011-03-05T16:09:27Z</time>
      </trkpt>
      <trkpt lat="48.92438" lon="-0.50876">
        <ele>49</ele>
        <time>2011-03-05T16:09:37Z</time>
      </trkpt>
      <trkpt lat="48.92438" lon="-0.5086">
        <ele>49</ele>
        <time>2011-03-05T16:09:46Z</time>
      </trkpt>
      <trkpt lat="48.92436" lon="-0.50846">
        <ele>49</ele>
        <time>2011-03-05T16:09:53Z</time>
      </trkpt>
      <trkpt lat="48.92437" lon="-0.50829">
        <ele>49</ele>
        <time>2011-03-05T16:10:03Z</time>
      </trkpt>
      <trkpt lat="48.92436" lon="-0.50815">
        <ele>49</ele>
        <time>2011-03-05T16:10:12Z</time>
      </trkpt>
      <trkpt lat="48.92433" lon="-0.50802">
        <ele>43</ele>
        <time>2011-03-05T16:10:21Z</time>
      </trkpt>
      <trkpt lat="48.92431" lon="-0.50788">
        <ele>43</ele>
        <time>2011-03-05T16:10:29Z</time>
      </trkpt>
      <trkpt lat="48.92431" lon="-0.50774">
        <ele>43</ele>
        <time>2011-03-05T16:10:35Z</time>
      </trkpt>
      <trkpt lat="48.92428" lon="-0.5076">
        <ele>43</ele>
        <time>2011-03-05T16:10:42Z</time>
      </trkpt>
      <trkpt lat="48.92423" lon="-0.50746">
        <ele>49</ele>
        <time>2011-03-05T16:10:51Z</time>
      </trkpt>
      <trkpt lat="48.92422" lon="-0.50732">
        <ele>49</ele>
        <time>2011-03-05T16:10:58Z</time>
      </trkpt>
      <trkpt lat="48.92417" lon="-0.50719">
        <ele>49</ele>
        <time>2011-03-05T16:11:07Z</time>
      </trkpt>
      <trkpt lat="48.9241" lon="-0.50708">
        <ele>49</ele>
        <time>2011-03-05T16:11:16Z</time>
      </trkpt>
      <trkpt lat="48.92407" lon="-0.50694">
        <ele>42</ele>
        <time>2011-03-05T16:11:26Z</time>
      </trkpt>
      <trkpt lat="48.92403" lon="-0.50681">
        <ele>42</ele>
        <time>2011-03-05T16:11:35Z</time>
      </trkpt>
      <trkpt lat="48.92398" lon="-0.50669">
        <ele>42</ele>
        <time>2011-03-05T16:11:41Z</time>
      </trkpt>
      <trkpt lat="48.92392" lon="-0.50656">
        <ele>42</ele>
        <time>2011-03-05T16:11:49Z</time>
      </trkpt>
      <trkpt lat="48.92386" lon="-0.50645">
        <ele>42</ele>
        <time>2011-03-05T16:11:57Z</time>
      </trkpt>
      <trkpt lat="48.92379" lon="-0.50636">
        <ele>42</ele>
        <time>2011-03-05T16:12:05Z</time>
      </trkpt>
      <trkpt lat="48.92372" lon="-0.50625">
        <ele>42</ele>
        <time>2011-03-05T16:12:13Z</time>
      </trkpt>
      <trkpt lat="48.92364" lon="-0.50617">
        <ele>42</ele>
        <time>2011-03-05T16:12:21Z</time>
      </trkpt>
      <trkpt lat="48.92356" lon="-0.50609">
        <ele>42</ele>
        <time>2011-03-05T16:12:29Z</time>
      </trkpt>
      <trkpt lat="48.92347" lon="-0.50601">
        <ele>42</ele>
        <time>2011-03-05T16:12:38Z</time>
      </trkpt>
      <trkpt lat="48.92338" lon="-0.50597">
        <ele>42</ele>
        <time>2011-03-05T16:12:47Z</time>
      </trkpt>
      <trkpt lat="48.92329" lon="-0.5059">
        <ele>42</ele>
        <time>2011-03-05T16:12:54Z</time>
      </trkpt>
      <trkpt lat="48.92322" lon="-0.50581">
        <ele>42</ele>
        <time>2011-03-05T16:13:01Z</time>
      </trkpt>
      <trkpt lat="48.92314" lon="-0.50571">
        <ele>42</ele>
        <time>2011-03-05T16:13:08Z</time>
      </trkpt>
      <trkpt lat="48.92306" lon="-0.50561">
        <ele>42</ele>
        <time>2011-03-05T16:13:18Z</time>
      </trkpt>
      <trkpt lat="48.92297" lon="-0.50553">
        <ele>42</ele>
        <time>2011-03-05T16:13:27Z</time>
      </trkpt>
      <trkpt lat="48.9229" lon="-0.50544">
        <ele>42</ele>
        <time>2011-03-05T16:13:35Z</time>
      </trkpt>
      <trkpt lat="48.92283" lon="-0.50534">
        <ele>42</ele>
        <time>2011-03-05T16:13:42Z</time>
      </trkpt>
      <trkpt lat="48.92284" lon="-0.5052">
        <ele>42</ele>
        <time>2011-03-05T16:13:53Z</time>
      </trkpt>
      <trkpt lat="48.92286" lon="-0.50504">
        <ele>42</ele>
        <time>2011-03-05T16:14:01Z</time>
      </trkpt>
      <trkpt lat="48.9229" lon="-0.5049">
        <ele>42</ele>
        <time>2011-03-05T16:14:09Z</time>
      </trkpt>
      <trkpt lat="48.92294" lon="-0.50475">
        <ele>42</ele>
        <time>2011-03-05T16:14:18Z</time>
      </trkpt>
      <trkpt lat="48.92296" lon="-0.50459">
        <ele>42</ele>
        <time>2011-03-05T16:14:26Z</time>
      </trkpt>
      <trkpt lat="48.92299" lon="-0.50445">
        <ele>42</ele>
        <time>2011-03-05T16:14:36Z</time>
      </trkpt>
      <trkpt lat="48.92297" lon="-0.50431">
        <ele>42</ele>
        <time>2011-03-05T16:14:43Z</time>
      </trkpt>
      <trkpt lat="48.92295" lon="-0.50417">
        <ele>42</ele>
        <time>2011-03-05T16:14:49Z</time>
      </trkpt>
      <trkpt lat="48.9229" lon="-0.50405">
        <ele>42</ele>
        <time>2011-03-05T16:14:59Z</time>
      </trkpt>
      <trkpt lat="48.92288" lon="-0.5039">
        <ele>42</ele>
        <time>2011-03-05T16:15:06Z</time>
      </trkpt>
      <trkpt lat="48.92287" lon="-0.50374">
        <ele>42</ele>
        <time>2011-03-05T16:15:14Z</time>
      </trkpt>
      <trkpt lat="48.92283" lon="-0.5036">
        <ele>42</ele>
        <time>2011-03-05T16:15:24Z</time>
      </trkpt>
      <trkpt lat="48.92281" lon="-0.50346">
        <ele>42</ele>
        <time>2011-03-05T16:15:32Z</time>
      </trkpt>
      <trkpt lat="48.92278" lon="-0.50333">
        <ele>42</ele>
        <time>2011-03-05T16:15:39Z</time>
      </trkpt>
      <trkpt lat="48.92277" lon="-0.50318">
        <ele>42</ele>
        <time>2011-03-05T16:15:47Z</time>
      </trkpt>
      <trkpt lat="48.92275" lon="-0.50303">
        <ele>42</ele>
        <time>2011-03-05T16:15:55Z</time>
      </trkpt>
      <trkpt lat="48.92276" lon="-0.50289">
        <ele>42</ele>
        <time>2011-03-05T16:16:04Z</time>
      </trkpt>
      <trkpt lat="48.92277" lon="-0.50273">
        <ele>42</ele>
        <time>2011-03-05T16:16:12Z</time>
      </trkpt>
      <trkpt lat="48.92277" lon="-0.50259">
        <ele>42</ele>
        <time>2011-03-05T16:16:20Z</time>
      </trkpt>
      <trkpt lat="48.92277" lon="-0.50245">
        <ele>42</ele>
        <time>2011-03-05T16:16:29Z</time>
      </trkpt>
      <trkpt lat="48.92277" lon="-0.5023">
        <ele>42</ele>
        <time>2011-03-05T16:16:36Z</time>
      </trkpt>
      <trkpt lat="48.92275" lon="-0.50215">
        <ele>42</ele>
        <time>2011-03-05T16:16:44Z</time>
      </trkpt>
      <trkpt lat="48.92274" lon="-0.50201">
        <ele>42</ele>
        <time>2011-03-05T16:16:52Z</time>
      </trkpt>
      <trkpt lat="48.92274" lon="-0.50185">
        <ele>42</ele>
        <time>2011-03-05T16:17:03Z</time>
      </trkpt>
      <trkpt lat="48.92275" lon="-0.50169">
        <ele>42</ele>
        <time>2011-03-05T16:17:11Z</time>
      </trkpt>
      <trkpt lat="48.92279" lon="-0.50157">
        <ele>42</ele>
        <time>2011-03-05T16:17:19Z</time>
      </trkpt>
      <trkpt lat="48.92285" lon="-0.50144">
        <ele>42</ele>
        <time>2011-03-05T16:17:27Z</time>
      </trkpt>
      <trkpt lat="48.92293" lon="-0.50135">
        <ele>42</ele>
        <time>2011-03-05T16:17:36Z</time>
      </trkpt>
      <trkpt lat="48.92299" lon="-0.50124">
        <ele>42</ele>
        <time>2011-03-05T16:17:44Z</time>
      </trkpt>
      <trkpt lat="48.92307" lon="-0.50114">
        <ele>37</ele>
        <time>2011-03-05T16:17:52Z</time>
      </trkpt>
      <trkpt lat="48.9231" lon="-0.501">
        <ele>37</ele>
        <time>2011-03-05T16:18:03Z</time>
      </trkpt>
      <trkpt lat="48.92314" lon="-0.50086">
        <ele>46</ele>
        <time>2011-03-05T16:18:12Z</time>
      </trkpt>
      <trkpt lat="48.92316" lon="-0.50072">
        <ele>46</ele>
        <time>2011-03-05T16:18:20Z</time>
      </trkpt>
      <trkpt lat="48.92316" lon="-0.50058">
        <ele>46</ele>
        <time>2011-03-05T16:18:28Z</time>
      </trkpt>
      <trkpt lat="48.92316" lon="-0.50042">
        <ele>41</ele>
        <time>2011-03-05T16:18:37Z</time>
      </trkpt>
      <trkpt lat="48.92313" lon="-0.50028">
        <ele>41</ele>
        <time>2011-03-05T16:18:45Z</time>
      </trkpt>
      <trkpt lat="48.92316" lon="-0.50015">
        <ele>41</ele>
        <time>2011-03-05T16:18:53Z</time>
      </trkpt>
      <trkpt lat="48.9232" lon="-0.5">
        <ele>41</ele>
        <time>2011-03-05T16:19:02Z</time>
      </trkpt>
      <trkpt lat="48.92324" lon="-0.49987">
        <ele>41</ele>
        <time>2011-03-05T16:19:10Z</time>
      </trkpt>
      <trkpt lat="48.92329" lon="-0.49974">
        <ele>46</ele>
        <time>2011-03-05T16:19:17Z</time>
      </trkpt>
      <trkpt lat="48.92331" lon="-0.4996">
        <ele>46</ele>
        <time>2011-03-05T16:19:28Z</time>
      </trkpt>
      <trkpt lat="48.92333" lon="-0.49945">
        <ele>46</ele>
        <time>2011-03-05T16:19:36Z</time>
      </trkpt>
      <trkpt lat="48.92339" lon="-0.49933">
        <ele>46</ele>
        <time>2011-03-05T16:19:45Z</time>
      </trkpt>
      <trkpt lat="48.92341" lon="-0.49919">
        <ele>46</ele>
        <time>2011-03-05T16:19:52Z</time>
      </trkpt>
      <trkpt lat="48.92349" lon="-0.4991">
        <ele>40</ele>
        <time>2011-03-05T16:20:03Z</time>
      </trkpt>
      <trkpt lat="48.92352" lon="-0.49894">
        <ele>40</ele>
        <time>2011-03-05T16:20:21Z</time>
      </trkpt>
      <trkpt lat="48.92354" lon="-0.49881">
        <ele>40</ele>
        <time>2011-03-05T16:20:28Z</time>
      </trkpt>
      <trkpt lat="48.92358" lon="-0.49867">
        <ele>40</ele>
        <time>2011-03-05T16:20:37Z</time>
      </trkpt>
      <trkpt lat="48.92358" lon="-0.49853">
        <ele>40</ele>
        <time>2011-03-05T16:20:45Z</time>
      </trkpt>
      <trkpt lat="48.92363" lon="-0.49839">
        <ele>40</ele>
        <time>2011-03-05T16:20:53Z</time>
      </trkpt>
      <trkpt lat="48.92368" lon="-0.49827">
        <ele>40</ele>
        <time>2011-03-05T16:21:01Z</time>
      </trkpt>
      <trkpt lat="48.9237" lon="-0.49813">
        <ele>48</ele>
        <time>2011-03-05T16:21:09Z</time>
      </trkpt>
      <trkpt lat="48.92374" lon="-0.49799">
        <ele>48</ele>
        <time>2011-03-05T16:21:17Z</time>
      </trkpt>
      <trkpt lat="48.92376" lon="-0.49785">
        <ele>57</ele>
        <time>2011-03-05T16:21:24Z</time>
      </trkpt>
      <trkpt lat="48.92378" lon="-0.49771">
        <ele>57</ele>
        <time>2011-03-05T16:21:34Z</time>
      </trkpt>
      <trkpt lat="48.9238" lon="-0.49757">
        <ele>45</ele>
        <time>2011-03-05T16:21:44Z</time>
      </trkpt>
      <trkpt lat="48.92382" lon="-0.49742">
        <ele>45</ele>
        <time>2011-03-05T16:21:52Z</time>
      </trkpt>
      <trkpt lat="48.92384" lon="-0.49727">
        <ele>45</ele>
        <time>2011-03-05T16:22:02Z</time>
      </trkpt>
      <trkpt lat="48.92387" lon="-0.49713">
        <ele>45</ele>
        <time>2011-03-05T16:22:10Z</time>
      </trkpt>
      <trkpt lat="48.92388" lon="-0.49698">
        <ele>45</ele>
        <time>2011-03-05T16:22:18Z</time>
      </trkpt>
      <trkpt lat="48.92394" lon="-0.49686">
        <ele>51</ele>
        <time>2011-03-05T16:22:26Z</time>
      </trkpt>
      <trkpt lat="48.92403" lon="-0.4968">
        <ele>51</ele>
        <time>2011-03-05T16:22:34Z</time>
      </trkpt>
      <trkpt lat="48.92411" lon="-0.49673">
        <ele>51</ele>
        <time>2011-03-05T16:22:41Z</time>
      </trkpt>
      <trkpt lat="48.92417" lon="-0.49663">
        <ele>51</ele>
        <time>2011-03-05T16:22:48Z</time>
      </trkpt>
      <trkpt lat="48.92426" lon="-0.49654">
        <ele>51</ele>
        <time>2011-03-05T16:22:56Z</time>
      </trkpt>
      <trkpt lat="48.92433" lon="-0.49645">
        <ele>51</ele>
        <time>2011-03-05T16:23:04Z</time>
      </trkpt>
      <trkpt lat="48.92441" lon="-0.49635">
        <ele>51</ele>
        <time>2011-03-05T16:23:12Z</time>
      </trkpt>
      <trkpt lat="48.92445" lon="-0.49622">
        <ele>51</ele>
        <time>2011-03-05T16:23:20Z</time>
      </trkpt>
      <trkpt lat="48.92451" lon="-0.49609">
        <ele>51</ele>
        <time>2011-03-05T16:23:34Z</time>
      </trkpt>
      <trkpt lat="48.92447" lon="-0.49595">
        <ele>51</ele>
        <time>2011-03-05T16:24:23Z</time>
      </trkpt>
      <trkpt lat="48.92441" lon="-0.49584">
        <ele>45</ele>
        <time>2011-03-05T16:24:32Z</time>
      </trkpt>
      <trkpt lat="48.92439" lon="-0.49571">
        <ele>45</ele>
        <time>2011-03-05T16:24:41Z</time>
      </trkpt>
      <trkpt lat="48.92436" lon="-0.49557">
        <ele>45</ele>
        <time>2011-03-05T16:24:50Z</time>
      </trkpt>
      <trkpt lat="48.92432" lon="-0.49543">
        <ele>45</ele>
        <time>2011-03-05T16:25:00Z</time>
      </trkpt>
      <trkpt lat="48.92429" lon="-0.49529">
        <ele>45</ele>
        <time>2011-03-05T16:25:08Z</time>
      </trkpt>
      <trkpt lat="48.92426" lon="-0.49514">
        <ele>45</ele>
        <time>2011-03-05T16:25:17Z</time>
      </trkpt>
      <trkpt lat="48.92422" lon="-0.495">
        <ele>45</ele>
        <time>2011-03-05T16:25:26Z</time>
      </trkpt>
      <trkpt lat="48.92419" lon="-0.49486">
        <ele>45</ele>
        <time>2011-03-05T16:25:35Z</time>
      </trkpt>
      <trkpt lat="48.92416" lon="-0.49472">
        <ele>45</ele>
        <time>2011-03-05T16:25:43Z</time>
      </trkpt>
      <trkpt lat="48.92413" lon="-0.49457">
        <ele>45</ele>
        <time>2011-03-05T16:25:53Z</time>
      </trkpt>
      <trkpt lat="48.9241" lon="-0.49443">
        <ele>45</ele>
        <time>2011-03-05T16:26:02Z</time>
      </trkpt>
      <trkpt lat="48.92406" lon="-0.49429">
        <ele>52</ele>
        <time>2011-03-05T16:26:10Z</time>
      </trkpt>
      <trkpt lat="48.92399" lon="-0.49418">
        <ele>52</ele>
        <time>2011-03-05T16:26:19Z</time>
      </trkpt>
      <trkpt lat="48.92393" lon="-0.49406">
        <ele>52</ele>
        <time>2011-03-05T16:26:27Z</time>
      </trkpt>
      <trkpt lat="48.92388" lon="-0.49393">
        <ele>52</ele>
        <time>2011-03-05T16:26:37Z</time>
      </trkpt>
      <trkpt lat="48.92381" lon="-0.49381">
        <ele>52</ele>
        <time>2011-03-05T16:26:46Z</time>
      </trkpt>
      <trkpt lat="48.92375" lon="-0.49371">
        <ele>52</ele>
        <time>2011-03-05T16:26:54Z</time>
      </trkpt>
      <trkpt lat="48.92368" lon="-0.49362">
        <ele>52</ele>
        <time>2011-03-05T16:27:02Z</time>
      </trkpt>
      <trkpt lat="48.92361" lon="-0.49352">
        <ele>52</ele>
        <time>2011-03-05T16:27:11Z</time>
      </trkpt>
      <trkpt lat="48.92352" lon="-0.49345">
        <ele>52</ele>
        <time>2011-03-05T16:27:19Z</time>
      </trkpt>
      <trkpt lat="48.92343" lon="-0.49335">
        <ele>52</ele>
        <time>2011-03-05T16:27:28Z</time>
      </trkpt>
      <trkpt lat="48.92336" lon="-0.49325">
        <ele>52</ele>
        <time>2011-03-05T16:27:37Z</time>
      </trkpt>
      <trkpt lat="48.9233" lon="-0.49313">
        <ele>52</ele>
        <time>2011-03-05T16:27:47Z</time>
      </trkpt>
      <trkpt lat="48.92323" lon="-0.49304">
        <ele>52</ele>
        <time>2011-03-05T16:27:55Z</time>
      </trkpt>
      <trkpt lat="48.92315" lon="-0.49294">
        <ele>52</ele>
        <time>2011-03-05T16:28:04Z</time>
      </trkpt>
      <trkpt lat="48.92307" lon="-0.49285">
        <ele>52</ele>
        <time>2011-03-05T16:28:13Z</time>
      </trkpt>
      <trkpt lat="48.92299" lon="-0.49278">
        <ele>52</ele>
        <time>2011-03-05T16:28:24Z</time>
      </trkpt>
      <trkpt lat="48.9229" lon="-0.49271">
        <ele>52</ele>
        <time>2011-03-05T16:28:33Z</time>
      </trkpt>
      <trkpt lat="48.92281" lon="-0.49265">
        <ele>52</ele>
        <time>2011-03-05T16:28:42Z</time>
      </trkpt>
      <trkpt lat="48.92274" lon="-0.49257">
        <ele>52</ele>
        <time>2011-03-05T16:28:50Z</time>
      </trkpt>
      <trkpt lat="48.92266" lon="-0.49249">
        <ele>52</ele>
        <time>2011-03-05T16:28:58Z</time>
      </trkpt>
      <trkpt lat="48.92258" lon="-0.49239">
        <ele>52</ele>
        <time>2011-03-05T16:29:07Z</time>
      </trkpt>
      <trkpt lat="48.92251" lon="-0.49229">
        <ele>52</ele>
        <time>2011-03-05T16:29:15Z</time>
      </trkpt>
      <trkpt lat="48.92245" lon="-0.49218">
        <ele>52</ele>
        <time>2011-03-05T16:29:23Z</time>
      </trkpt>
      <trkpt lat="48.92239" lon="-0.49207">
        <ele>52</ele>
        <time>2011-03-05T16:29:32Z</time>
      </trkpt>
      <trkpt lat="48.92233" lon="-0.49195">
        <ele>52</ele>
        <time>2011-03-05T16:29:41Z</time>
      </trkpt>
      <trkpt lat="48.92226" lon="-0.49185">
        <ele>52</ele>
        <time>2011-03-05T16:29:50Z</time>
      </trkpt>
      <trkpt lat="48.9222" lon="-0.49174">
        <ele>58</ele>
        <time>2011-03-05T16:29:57Z</time>
      </trkpt>
      <trkpt lat="48.92214" lon="-0.49162">
        <ele>58</ele>
        <time>2011-03-05T16:30:07Z</time>
      </trkpt>
      <trkpt lat="48.92207" lon="-0.49152">
        <ele>58</ele>
        <time>2011-03-05T16:30:16Z</time>
      </trkpt>
      <trkpt lat="48.92201" lon="-0.49141">
        <ele>58</ele>
        <time>2011-03-05T16:30:24Z</time>
      </trkpt>
      <trkpt lat="48.92196" lon="-0.4913">
        <ele>58</ele>
        <time>2011-03-05T16:30:32Z</time>
      </trkpt>
      <trkpt lat="48.92191" lon="-0.49118">
        <ele>58</ele>
        <time>2011-03-05T16:30:41Z</time>
      </trkpt>
      <trkpt lat="48.92185" lon="-0.49105">
        <ele>58</ele>
        <time>2011-03-05T16:30:51Z</time>
      </trkpt>
      <trkpt lat="48.92179" lon="-0.49095">
        <ele>58</ele>
        <time>2011-03-05T16:30:59Z</time>
      </trkpt>
      <trkpt lat="48.92172" lon="-0.49086">
        <ele>58</ele>
        <time>2011-03-05T16:31:07Z</time>
      </trkpt>
      <trkpt lat="48.92165" lon="-0.49074">
        <ele>58</ele>
        <time>2011-03-05T16:31:16Z</time>
      </trkpt>
      <trkpt lat="48.92159" lon="-0.49062">
        <ele>58</ele>
        <time>2011-03-05T16:31:25Z</time>
      </trkpt>
      <trkpt lat="48.92152" lon="-0.4905">
        <ele>58</ele>
        <time>2011-03-05T16:31:35Z</time>
      </trkpt>
      <trkpt lat="48.92147" lon="-0.49038">
        <ele>64</ele>
        <time>2011-03-05T16:31:44Z</time>
      </trkpt>
      <trkpt lat="48.92141" lon="-0.49026">
        <ele>64</ele>
        <time>2011-03-05T16:31:53Z</time>
      </trkpt>
      <trkpt lat="48.92134" lon="-0.49015">
        <ele>64</ele>
        <time>2011-03-05T16:32:02Z</time>
      </trkpt>
      <trkpt lat="48.92128" lon="-0.49004">
        <ele>64</ele>
        <time>2011-03-05T16:32:10Z</time>
      </trkpt>
      <trkpt lat="48.92121" lon="-0.48993">
        <ele>64</ele>
        <time>2011-03-05T16:32:20Z</time>
      </trkpt>
      <trkpt lat="48.92115" lon="-0.48983">
        <ele>64</ele>
        <time>2011-03-05T16:32:27Z</time>
      </trkpt>
      <trkpt lat="48.92107" lon="-0.48974">
        <ele>64</ele>
        <time>2011-03-05T16:32:35Z</time>
      </trkpt>
      <trkpt lat="48.921" lon="-0.48966">
        <ele>64</ele>
        <time>2011-03-05T16:32:43Z</time>
      </trkpt>
      <trkpt lat="48.92092" lon="-0.48957">
        <ele>64</ele>
        <time>2011-03-05T16:32:52Z</time>
      </trkpt>
      <trkpt lat="48.92084" lon="-0.4895">
        <ele>64</ele>
        <time>2011-03-05T16:33:01Z</time>
      </trkpt>
      <trkpt lat="48.92075" lon="-0.48941">
        <ele>64</ele>
        <time>2011-03-05T16:33:10Z</time>
      </trkpt>
      <trkpt lat="48.92068" lon="-0.48933">
        <ele>64</ele>
        <time>2011-03-05T16:33:19Z</time>
      </trkpt>
      <trkpt lat="48.92059" lon="-0.48925">
        <ele>64</ele>
        <time>2011-03-05T16:33:28Z</time>
      </trkpt>
      <trkpt lat="48.9205" lon="-0.48919">
        <ele>64</ele>
        <time>2011-03-05T16:33:36Z</time>
      </trkpt>
      <trkpt lat="48.92043" lon="-0.48911">
        <ele>64</ele>
        <time>2011-03-05T16:33:45Z</time>
      </trkpt>
      <trkpt lat="48.92035" lon="-0.48903">
        <ele>64</ele>
        <time>2011-03-05T16:33:53Z</time>
      </trkpt>
      <trkpt lat="48.92027" lon="-0.48894">
        <ele>64</ele>
        <time>2011-03-05T16:34:02Z</time>
      </trkpt>
      <trkpt lat="48.92018" lon="-0.48886">
        <ele>64</ele>
        <time>2011-03-05T16:34:10Z</time>
      </trkpt>
      <trkpt lat="48.9201" lon="-0.48878">
        <ele>64</ele>
        <time>2011-03-05T16:34:19Z</time>
      </trkpt>
      <trkpt lat="48.92003" lon="-0.4887">
        <ele>64</ele>
        <time>2011-03-05T16:34:27Z</time>
      </trkpt>
      <trkpt lat="48.91995" lon="-0.48862">
        <ele>64</ele>
        <time>2011-03-05T16:34:35Z</time>
      </trkpt>
      <trkpt lat="48.91987" lon="-0.48855">
        <ele>64</ele>
        <time>2011-03-05T16:34:45Z</time>
      </trkpt>
      <trkpt lat="48.91978" lon="-0.48847">
        <ele>64</ele>
        <time>2011-03-05T16:34:53Z</time>
      </trkpt>
      <trkpt lat="48.9197" lon="-0.48841">
        <ele>64</ele>
        <time>2011-03-05T16:35:01Z</time>
      </trkpt>
      <trkpt lat="48.91962" lon="-0.48832">
        <ele>64</ele>
        <time>2011-03-05T16:35:09Z</time>
      </trkpt>
      <trkpt lat="48.91952" lon="-0.48823">
        <ele>64</ele>
        <time>2011-03-05T16:35:16Z</time>
      </trkpt>
      <trkpt lat="48.91944" lon="-0.48815">
        <ele>64</ele>
        <time>2011-03-05T16:35:24Z</time>
      </trkpt>
      <trkpt lat="48.91936" lon="-0.48806">
        <ele>64</ele>
        <time>2011-03-05T16:35:33Z</time>
      </trkpt>
      <trkpt lat="48.91928" lon="-0.488">
        <ele>64</ele>
        <time>2011-03-05T16:35:40Z</time>
      </trkpt>
      <trkpt lat="48.9192" lon="-0.48792">
        <ele>64</ele>
        <time>2011-03-05T16:35:49Z</time>
      </trkpt>
      <trkpt lat="48.91912" lon="-0.48783">
        <ele>64</ele>
        <time>2011-03-05T16:35:57Z</time>
      </trkpt>
      <trkpt lat="48.91904" lon="-0.48776">
        <ele>64</ele>
        <time>2011-03-05T16:36:05Z</time>
      </trkpt>
      <trkpt lat="48.91895" lon="-0.48768">
        <ele>64</ele>
        <time>2011-03-05T16:36:13Z</time>
      </trkpt>
      <trkpt lat="48.91888" lon="-0.48759">
        <ele>64</ele>
        <time>2011-03-05T16:36:21Z</time>
      </trkpt>
      <trkpt lat="48.91879" lon="-0.48752">
        <ele>64</ele>
        <time>2011-03-05T16:36:29Z</time>
      </trkpt>
      <trkpt lat="48.91872" lon="-0.48744">
        <ele>64</ele>
        <time>2011-03-05T16:36:37Z</time>
      </trkpt>
      <trkpt lat="48.91864" lon="-0.48735">
        <ele>64</ele>
        <time>2011-03-05T16:36:45Z</time>
      </trkpt>
      <trkpt lat="48.91857" lon="-0.48726">
        <ele>64</ele>
        <time>2011-03-05T16:36:55Z</time>
      </trkpt>
      <trkpt lat="48.91847" lon="-0.4872">
        <ele>64</ele>
        <time>2011-03-05T16:37:04Z</time>
      </trkpt>
      <trkpt lat="48.91837" lon="-0.48714">
        <ele>64</ele>
        <time>2011-03-05T16:37:13Z</time>
      </trkpt>
      <trkpt lat="48.91829" lon="-0.48706">
        <ele>64</ele>
        <time>2011-03-05T16:37:22Z</time>
      </trkpt>
      <trkpt lat="48.9182" lon="-0.487">
        <ele>64</ele>
        <time>2011-03-05T16:37:30Z</time>
      </trkpt>
      <trkpt lat="48.91812" lon="-0.48691">
        <ele>58</ele>
        <time>2011-03-05T16:37:39Z</time>
      </trkpt>
      <trkpt lat="48.91804" lon="-0.48683">
        <ele>58</ele>
        <time>2011-03-05T16:37:47Z</time>
      </trkpt>
      <trkpt lat="48.91794" lon="-0.4868">
        <ele>58</ele>
        <time>2011-03-05T16:37:56Z</time>
      </trkpt>
      <trkpt lat="48.91786" lon="-0.48673">
        <ele>58</ele>
        <time>2011-03-05T16:38:05Z</time>
      </trkpt>
      <trkpt lat="48.91778" lon="-0.48666">
        <ele>58</ele>
        <time>2011-03-05T16:38:14Z</time>
      </trkpt>
      <trkpt lat="48.91768" lon="-0.48666">
        <ele>58</ele>
        <time>2011-03-05T16:38:21Z</time>
      </trkpt>
      <trkpt lat="48.91759" lon="-0.48662">
        <ele>58</ele>
        <time>2011-03-05T16:38:29Z</time>
      </trkpt>
      <trkpt lat="48.9175" lon="-0.48658">
        <ele>58</ele>
        <time>2011-03-05T16:38:37Z</time>
      </trkpt>
      <trkpt lat="48.91741" lon="-0.48652">
        <ele>58</ele>
        <time>2011-03-05T16:38:48Z</time>
      </trkpt>
      <trkpt lat="48.91732" lon="-0.48647">
        <ele>58</ele>
        <time>2011-03-05T16:38:55Z</time>
      </trkpt>
      <trkpt lat="48.91722" lon="-0.48647">
        <ele>53</ele>
        <time>2011-03-05T16:39:11Z</time>
      </trkpt>
      <trkpt lat="48.91714" lon="-0.48641">
        <ele>53</ele>
        <time>2011-03-05T16:39:21Z</time>
      </trkpt>
      <trkpt lat="48.91706" lon="-0.48635">
        <ele>53</ele>
        <time>2011-03-05T16:39:29Z</time>
      </trkpt>
      <trkpt lat="48.91701" lon="-0.48621">
        <ele>53</ele>
        <time>2011-03-05T16:39:39Z</time>
      </trkpt>
      <trkpt lat="48.91696" lon="-0.48609">
        <ele>53</ele>
        <time>2011-03-05T16:39:47Z</time>
      </trkpt>
      <trkpt lat="48.9169" lon="-0.48598">
        <ele>45</ele>
        <time>2011-03-05T16:39:55Z</time>
      </trkpt>
      <trkpt lat="48.91686" lon="-0.48583">
        <ele>45</ele>
        <time>2011-03-05T16:40:03Z</time>
      </trkpt>
      <trkpt lat="48.9168" lon="-0.48571">
        <ele>45</ele>
        <time>2011-03-05T16:40:10Z</time>
      </trkpt>
      <trkpt lat="48.91674" lon="-0.48561">
        <ele>45</ele>
        <time>2011-03-05T16:40:18Z</time>
      </trkpt>
      <trkpt lat="48.91669" lon="-0.48549">
        <ele>45</ele>
        <time>2011-03-05T16:40:27Z</time>
      </trkpt>
      <trkpt lat="48.91664" lon="-0.48536">
        <ele>45</ele>
        <time>2011-03-05T16:40:34Z</time>
      </trkpt>
      <trkpt lat="48.91657" lon="-0.48528">
        <ele>51</ele>
        <time>2011-03-05T16:41:41Z</time>
      </trkpt>
      <trkpt lat="48.91653" lon="-0.48515">
        <ele>51</ele>
        <time>2011-03-05T16:41:50Z</time>
      </trkpt>
      <trkpt lat="48.91645" lon="-0.48507">
        <ele>51</ele>
        <time>2011-03-05T16:41:57Z</time>
      </trkpt>
      <trkpt lat="48.91641" lon="-0.48495">
        <ele>43</ele>
        <time>2011-03-05T16:42:07Z</time>
      </trkpt>
      <trkpt lat="48.91632" lon="-0.48487">
        <ele>43</ele>
        <time>2011-03-05T16:42:16Z</time>
      </trkpt>
      <trkpt lat="48.91624" lon="-0.4848">
        <ele>43</ele>
        <time>2011-03-05T16:42:23Z</time>
      </trkpt>
      <trkpt lat="48.91614" lon="-0.48473">
        <ele>43</ele>
        <time>2011-03-05T16:42:32Z</time>
      </trkpt>
      <trkpt lat="48.91617" lon="-0.4846">
        <ele>43</ele>
        <time>2011-03-05T16:42:43Z</time>
      </trkpt>
      <trkpt lat="48.91622" lon="-0.48446">
        <ele>43</ele>
        <time>2011-03-05T16:42:52Z</time>
      </trkpt>
      <trkpt lat="48.91627" lon="-0.48434">
        <ele>52</ele>
        <time>2011-03-05T16:42:58Z</time>
      </trkpt>
      <trkpt lat="48.91629" lon="-0.48419">
        <ele>52</ele>
        <time>2011-03-05T16:43:04Z</time>
      </trkpt>
      <trkpt lat="48.91629" lon="-0.48405">
        <ele>52</ele>
        <time>2011-03-05T16:43:12Z</time>
      </trkpt>
      <trkpt lat="48.91628" lon="-0.4839">
        <ele>52</ele>
        <time>2011-03-05T16:43:21Z</time>
      </trkpt>
      <trkpt lat="48.91626" lon="-0.48374">
        <ele>52</ele>
        <time>2011-03-05T16:43:31Z</time>
      </trkpt>
      <trkpt lat="48.91627" lon="-0.48359">
        <ele>52</ele>
        <time>2011-03-05T16:43:45Z</time>
      </trkpt>
      <trkpt lat="48.91629" lon="-0.48345">
        <ele>52</ele>
        <time>2011-03-05T16:43:54Z</time>
      </trkpt>
      <trkpt lat="48.9163" lon="-0.4833">
        <ele>59</ele>
        <time>2011-03-05T16:44:04Z</time>
      </trkpt>
      <trkpt lat="48.91635" lon="-0.48319">
        <ele>66</ele>
        <time>2011-03-05T16:44:16Z</time>
      </trkpt>
      <trkpt lat="48.91642" lon="-0.48306">
        <ele>66</ele>
        <time>2011-03-05T16:44:24Z</time>
      </trkpt>
      <trkpt lat="48.91648" lon="-0.48294">
        <ele>66</ele>
        <time>2011-03-05T16:44:34Z</time>
      </trkpt>
      <trkpt lat="48.91646" lon="-0.48281">
        <ele>66</ele>
        <time>2011-03-05T16:44:44Z</time>
      </trkpt>
      <trkpt lat="48.91654" lon="-0.48273">
        <ele>66</ele>
        <time>2011-03-05T16:45:02Z</time>
      </trkpt>
      <trkpt lat="48.91659" lon="-0.48259">
        <ele>66</ele>
        <time>2011-03-05T16:45:13Z</time>
      </trkpt>
      <trkpt lat="48.91661" lon="-0.48246">
        <ele>59</ele>
        <time>2011-03-05T16:45:27Z</time>
      </trkpt>
      <trkpt lat="48.91656" lon="-0.48234">
        <ele>59</ele>
        <time>2011-03-05T16:45:37Z</time>
      </trkpt>
      <trkpt lat="48.91652" lon="-0.4822">
        <ele>66</ele>
        <time>2011-03-05T16:45:48Z</time>
      </trkpt>
      <trkpt lat="48.91646" lon="-0.48209">
        <ele>66</ele>
        <time>2011-03-05T16:45:55Z</time>
      </trkpt>
      <trkpt lat="48.91643" lon="-0.48196">
        <ele>61</ele>
        <time>2011-03-05T16:46:08Z</time>
      </trkpt>
      <trkpt lat="48.91637" lon="-0.48183">
        <ele>66</ele>
        <time>2011-03-05T16:46:25Z</time>
      </trkpt>
      <trkpt lat="48.91632" lon="-0.48167">
        <ele>66</ele>
        <time>2011-03-05T16:46:33Z</time>
      </trkpt>
      <trkpt lat="48.91632" lon="-0.48151">
        <ele>66</ele>
        <time>2011-03-05T16:46:38Z</time>
      </trkpt>
      <trkpt lat="48.91631" lon="-0.48136">
        <ele>57</ele>
        <time>2011-03-05T16:46:43Z</time>
      </trkpt>
      <trkpt lat="48.91628" lon="-0.48121">
        <ele>76</ele>
        <time>2011-03-05T16:49:33Z</time>
      </trkpt>
      <trkpt lat="48.91619" lon="-0.48117">
        <ele>76</ele>
        <time>2011-03-05T16:49:43Z</time>
      </trkpt>
      <trkpt lat="48.91611" lon="-0.48111">
        <ele>76</ele>
        <time>2011-03-05T16:49:54Z</time>
      </trkpt>
      <trkpt lat="48.91601" lon="-0.48108">
        <ele>76</ele>
        <time>2011-03-05T16:50:04Z</time>
      </trkpt>
      <trkpt lat="48.91581" lon="-0.47959">
        <ele>69</ele>
        <time>2011-03-06T08:33:11Z</time>
      </trkpt>
      <trkpt lat="48.91579" lon="-0.47944">
        <ele>76</ele>
        <time>2011-03-06T08:33:17Z</time>
      </trkpt>
      <trkpt lat="48.91576" lon="-0.4793">
        <ele>76</ele>
        <time>2011-03-06T08:33:25Z</time>
      </trkpt>
      <trkpt lat="48.91572" lon="-0.47915">
        <ele>76</ele>
        <time>2011-03-06T08:33:33Z</time>
      </trkpt>
      <trkpt lat="48.91572" lon="-0.47915">
        <ele>77</ele>
        <time>2011-03-06T08:34:18Z</time>
      </trkpt>
      <trkpt lat="48.91579" lon="-0.47905">
        <ele>66</ele>
        <time>2011-03-06T08:34:28Z</time>
      </trkpt>
      <trkpt lat="48.91589" lon="-0.47899">
        <ele>66</ele>
        <time>2011-03-06T08:34:37Z</time>
      </trkpt>
      <trkpt lat="48.91598" lon="-0.47896">
        <ele>66</ele>
        <time>2011-03-06T08:34:43Z</time>
      </trkpt>
      <trkpt lat="48.91606" lon="-0.47887">
        <ele>66</ele>
        <time>2011-03-06T08:34:53Z</time>
      </trkpt>
      <trkpt lat="48.91616" lon="-0.47887">
        <ele>66</ele>
        <time>2011-03-06T08:35:01Z</time>
      </trkpt>
      <trkpt lat="48.91623" lon="-0.47878">
        <ele>72</ele>
        <time>2011-03-06T08:35:07Z</time>
      </trkpt>
      <trkpt lat="48.91628" lon="-0.47864">
        <ele>72</ele>
        <time>2011-03-06T08:35:13Z</time>
      </trkpt>
      <trkpt lat="48.91635" lon="-0.47853">
        <ele>79</ele>
        <time>2011-03-06T08:35:21Z</time>
      </trkpt>
      <trkpt lat="48.91644" lon="-0.47846">
        <ele>88</ele>
        <time>2011-03-06T08:35:28Z</time>
      </trkpt>
      <trkpt lat="48.9165" lon="-0.47834">
        <ele>74</ele>
        <time>2011-03-06T08:35:40Z</time>
      </trkpt>
      <trkpt lat="48.91653" lon="-0.47821">
        <ele>74</ele>
        <time>2011-03-06T08:35:48Z</time>
      </trkpt>
      <trkpt lat="48.91654" lon="-0.47806">
        <ele>68</ele>
        <time>2011-03-06T08:35:57Z</time>
      </trkpt>
      <trkpt lat="48.91659" lon="-0.47791">
        <ele>68</ele>
        <time>2011-03-06T08:36:05Z</time>
      </trkpt>
      <trkpt lat="48.91657" lon="-0.47777">
        <ele>61</ele>
        <time>2011-03-06T08:36:21Z</time>
      </trkpt>
      <trkpt lat="48.91653" lon="-0.47763">
        <ele>56</ele>
        <time>2011-03-06T08:36:32Z</time>
      </trkpt>
      <trkpt lat="48.91648" lon="-0.47752">
        <ele>56</ele>
        <time>2011-03-06T08:36:41Z</time>
      </trkpt>
      <trkpt lat="48.91643" lon="-0.47739">
        <ele>56</ele>
        <time>2011-03-06T08:36:50Z</time>
      </trkpt>
      <trkpt lat="48.91644" lon="-0.47725">
        <ele>56</ele>
        <time>2011-03-06T08:37:02Z</time>
      </trkpt>
      <trkpt lat="48.91644" lon="-0.4771">
        <ele>56</ele>
        <time>2011-03-06T08:37:11Z</time>
      </trkpt>
      <trkpt lat="48.91644" lon="-0.47696">
        <ele>56</ele>
        <time>2011-03-06T08:37:41Z</time>
      </trkpt>
      <trkpt lat="48.91642" lon="-0.47682">
        <ele>51</ele>
        <time>2011-03-06T08:37:51Z</time>
      </trkpt>
      <trkpt lat="48.91638" lon="-0.47669">
        <ele>51</ele>
        <time>2011-03-06T08:38:00Z</time>
      </trkpt>
      <trkpt lat="48.91641" lon="-0.47656">
        <ele>46</ele>
        <time>2011-03-06T08:38:17Z</time>
      </trkpt>
      <trkpt lat="48.91637" lon="-0.4764">
        <ele>53</ele>
        <time>2011-03-06T08:38:27Z</time>
      </trkpt>
      <trkpt lat="48.91645" lon="-0.47631">
        <ele>53</ele>
        <time>2011-03-06T08:38:37Z</time>
      </trkpt>
      <trkpt lat="48.91651" lon="-0.4762">
        <ele>43</ele>
        <time>2011-03-06T08:38:46Z</time>
      </trkpt>
      <trkpt lat="48.91645" lon="-0.47609">
        <ele>43</ele>
        <time>2011-03-06T08:38:52Z</time>
      </trkpt>
      <trkpt lat="48.91647" lon="-0.47595">
        <ele>43</ele>
        <time>2011-03-06T08:39:00Z</time>
      </trkpt>
      <trkpt lat="48.91649" lon="-0.47578">
        <ele>43</ele>
        <time>2011-03-06T08:39:27Z</time>
      </trkpt>
      <trkpt lat="48.91651" lon="-0.47563">
        <ele>36</ele>
        <time>2011-03-06T08:39:35Z</time>
      </trkpt>
      <trkpt lat="48.91652" lon="-0.47549">
        <ele>44</ele>
        <time>2011-03-06T08:39:58Z</time>
      </trkpt>
      <trkpt lat="48.91655" lon="-0.47534">
        <ele>44</ele>
        <time>2011-03-06T08:40:07Z</time>
      </trkpt>
      <trkpt lat="48.91656" lon="-0.47519">
        <ele>44</ele>
        <time>2011-03-06T08:40:15Z</time>
      </trkpt>
      <trkpt lat="48.91657" lon="-0.47504">
        <ele>44</ele>
        <time>2011-03-06T08:40:25Z</time>
      </trkpt>
      <trkpt lat="48.91657" lon="-0.47489">
        <ele>44</ele>
        <time>2011-03-06T08:40:34Z</time>
      </trkpt>
      <trkpt lat="48.91659" lon="-0.47474">
        <ele>44</ele>
        <time>2011-03-06T08:40:43Z</time>
      </trkpt>
      <trkpt lat="48.91659" lon="-0.47457">
        <ele>44</ele>
        <time>2011-03-06T08:40:51Z</time>
      </trkpt>
      <trkpt lat="48.9166" lon="-0.47443">
        <ele>44</ele>
        <time>2011-03-06T08:40:59Z</time>
      </trkpt>
      <trkpt lat="48.91663" lon="-0.47428">
        <ele>44</ele>
        <time>2011-03-06T08:41:07Z</time>
      </trkpt>
      <trkpt lat="48.91664" lon="-0.47411">
        <ele>37</ele>
        <time>2011-03-06T08:41:17Z</time>
      </trkpt>
      <trkpt lat="48.91666" lon="-0.47396">
        <ele>37</ele>
        <time>2011-03-06T08:41:24Z</time>
      </trkpt>
      <trkpt lat="48.91669" lon="-0.47381">
        <ele>37</ele>
        <time>2011-03-06T08:41:33Z</time>
      </trkpt>
      <trkpt lat="48.91673" lon="-0.47366">
        <ele>37</ele>
        <time>2011-03-06T08:41:44Z</time>
      </trkpt>
      <trkpt lat="48.91676" lon="-0.47353">
        <ele>37</ele>
        <time>2011-03-06T08:42:14Z</time>
      </trkpt>
      <trkpt lat="48.91681" lon="-0.47341">
        <ele>37</ele>
        <time>2011-03-06T08:42:43Z</time>
      </trkpt>
      <trkpt lat="48.91684" lon="-0.47328">
        <ele>43</ele>
        <time>2011-03-06T08:42:49Z</time>
      </trkpt>
      <trkpt lat="48.91683" lon="-0.47313">
        <ele>43</ele>
        <time>2011-03-06T08:42:57Z</time>
      </trkpt>
      <trkpt lat="48.91692" lon="-0.473">
        <ele>37</ele>
        <time>2011-03-06T08:43:16Z</time>
      </trkpt>
      <trkpt lat="48.91698" lon="-0.4729">
        <ele>37</ele>
        <time>2011-03-06T08:43:23Z</time>
      </trkpt>
      <trkpt lat="48.91698" lon="-0.47275">
        <ele>37</ele>
        <time>2011-03-06T08:43:31Z</time>
      </trkpt>
      <trkpt lat="48.91706" lon="-0.47266">
        <ele>37</ele>
        <time>2011-03-06T08:43:38Z</time>
      </trkpt>
      <trkpt lat="48.9171" lon="-0.47252">
        <ele>44</ele>
        <time>2011-03-06T08:43:47Z</time>
      </trkpt>
      <trkpt lat="48.91715" lon="-0.4724">
        <ele>44</ele>
        <time>2011-03-06T08:43:56Z</time>
      </trkpt>
      <trkpt lat="48.91715" lon="-0.47224">
        <ele>44</ele>
        <time>2011-03-06T08:44:05Z</time>
      </trkpt>
      <trkpt lat="48.91718" lon="-0.4721">
        <ele>44</ele>
        <time>2011-03-06T08:44:12Z</time>
      </trkpt>
      <trkpt lat="48.91722" lon="-0.47196">
        <ele>44</ele>
        <time>2011-03-06T08:44:23Z</time>
      </trkpt>
      <trkpt lat="48.91718" lon="-0.47183">
        <ele>44</ele>
        <time>2011-03-06T08:44:29Z</time>
      </trkpt>
      <trkpt lat="48.91718" lon="-0.47168">
        <ele>44</ele>
        <time>2011-03-06T08:44:37Z</time>
      </trkpt>
      <trkpt lat="48.91724" lon="-0.47154">
        <ele>44</ele>
        <time>2011-03-06T08:45:14Z</time>
      </trkpt>
      <trkpt lat="48.91729" lon="-0.4714">
        <ele>37</ele>
        <time>2011-03-06T08:45:22Z</time>
      </trkpt>
      <trkpt lat="48.91734" lon="-0.47127">
        <ele>37</ele>
        <time>2011-03-06T08:45:30Z</time>
      </trkpt>
      <trkpt lat="48.91739" lon="-0.47115">
        <ele>42</ele>
        <time>2011-03-06T08:45:38Z</time>
      </trkpt>
      <trkpt lat="48.91749" lon="-0.47102">
        <ele>42</ele>
        <time>2011-03-06T08:45:49Z</time>
      </trkpt>
      <trkpt lat="48.91757" lon="-0.47097">
        <ele>42</ele>
        <time>2011-03-06T08:46:11Z</time>
      </trkpt>
      <trkpt lat="48.91759" lon="-0.47083">
        <ele>49</ele>
        <time>2011-03-06T08:46:42Z</time>
      </trkpt>
      <trkpt lat="48.91764" lon="-0.4707">
        <ele>44</ele>
        <time>2011-03-06T08:46:52Z</time>
      </trkpt>
      <trkpt lat="48.91764" lon="-0.47056">
        <ele>44</ele>
        <time>2011-03-06T08:47:02Z</time>
      </trkpt>
      <trkpt lat="48.91773" lon="-0.47051">
        <ele>44</ele>
        <time>2011-03-06T08:47:09Z</time>
      </trkpt>
      <trkpt lat="48.9178" lon="-0.4704">
        <ele>50</ele>
        <time>2011-03-06T08:47:18Z</time>
      </trkpt>
      <trkpt lat="48.9179" lon="-0.47038">
        <ele>50</ele>
        <time>2011-03-06T08:47:28Z</time>
      </trkpt>
      <trkpt lat="48.91799" lon="-0.47035">
        <ele>62</ele>
        <time>2011-03-06T08:47:37Z</time>
      </trkpt>
      <trkpt lat="48.91809" lon="-0.47029">
        <ele>62</ele>
        <time>2011-03-06T08:47:45Z</time>
      </trkpt>
      <trkpt lat="48.91816" lon="-0.47018">
        <ele>62</ele>
        <time>2011-03-06T08:48:03Z</time>
      </trkpt>
      <trkpt lat="48.91824" lon="-0.47003">
        <ele>62</ele>
        <time>2011-03-06T08:48:16Z</time>
      </trkpt>
      <trkpt lat="48.9183" lon="-0.46992">
        <ele>62</ele>
        <time>2011-03-06T08:48:30Z</time>
      </trkpt>
      <trkpt lat="48.91839" lon="-0.46987">
        <ele>69</ele>
        <time>2011-03-06T08:48:37Z</time>
      </trkpt>
      <trkpt lat="48.91848" lon="-0.46991">
        <ele>69</ele>
        <time>2011-03-06T08:48:44Z</time>
      </trkpt>
      <trkpt lat="48.91861" lon="-0.46993">
        <ele>75</ele>
        <time>2011-03-06T08:48:58Z</time>
      </trkpt>
      <trkpt lat="48.91871" lon="-0.46995">
        <ele>75</ele>
        <time>2011-03-06T08:49:09Z</time>
      </trkpt>
      <trkpt lat="48.91882" lon="-0.46996">
        <ele>75</ele>
        <time>2011-03-06T08:49:18Z</time>
      </trkpt>
      <trkpt lat="48.91892" lon="-0.47001">
        <ele>83</ele>
        <time>2011-03-06T08:49:28Z</time>
      </trkpt>
      <trkpt lat="48.91901" lon="-0.47002">
        <ele>83</ele>
        <time>2011-03-06T08:49:34Z</time>
      </trkpt>
      <trkpt lat="48.91911" lon="-0.47002">
        <ele>83</ele>
        <time>2011-03-06T08:49:47Z</time>
      </trkpt>
      <trkpt lat="48.9192" lon="-0.46996">
        <ele>88</ele>
        <time>2011-03-06T08:49:54Z</time>
      </trkpt>
      <trkpt lat="48.9193" lon="-0.46994">
        <ele>88</ele>
        <time>2011-03-06T08:50:02Z</time>
      </trkpt>
      <trkpt lat="48.91939" lon="-0.46994">
        <ele>79</ele>
        <time>2011-03-06T08:50:12Z</time>
      </trkpt>
      <trkpt lat="48.91949" lon="-0.47">
        <ele>79</ele>
        <time>2011-03-06T08:50:17Z</time>
      </trkpt>
      <trkpt lat="48.91958" lon="-0.46997">
        <ele>88</ele>
        <time>2011-03-06T08:50:27Z</time>
      </trkpt>
      <trkpt lat="48.91967" lon="-0.47001">
        <ele>88</ele>
        <time>2011-03-06T08:50:32Z</time>
      </trkpt>
      <trkpt lat="48.91978" lon="-0.47005">
        <ele>79</ele>
        <time>2011-03-06T08:50:42Z</time>
      </trkpt>
      <trkpt lat="48.91988" lon="-0.47005">
        <ele>79</ele>
        <time>2011-03-06T08:50:54Z</time>
      </trkpt>
      <trkpt lat="48.91996" lon="-0.46999">
        <ele>79</ele>
        <time>2011-03-06T08:51:01Z</time>
      </trkpt>
      <trkpt lat="48.92006" lon="-0.47">
        <ele>79</ele>
        <time>2011-03-06T08:51:07Z</time>
      </trkpt>
      <trkpt lat="48.92016" lon="-0.47002">
        <ele>79</ele>
        <time>2011-03-06T08:51:19Z</time>
      </trkpt>
      <trkpt lat="48.92026" lon="-0.46999">
        <ele>86</ele>
        <time>2011-03-06T08:51:31Z</time>
      </trkpt>
      <trkpt lat="48.92036" lon="-0.47003">
        <ele>86</ele>
        <time>2011-03-06T08:51:42Z</time>
      </trkpt>
      <trkpt lat="48.92045" lon="-0.46997">
        <ele>86</ele>
        <time>2011-03-06T08:51:50Z</time>
      </trkpt>
      <trkpt lat="48.92055" lon="-0.46995">
        <ele>97</ele>
        <time>2011-03-06T08:51:57Z</time>
      </trkpt>
      <trkpt lat="48.92065" lon="-0.46992">
        <ele>97</ele>
        <time>2011-03-06T08:52:09Z</time>
      </trkpt>
      <trkpt lat="48.92074" lon="-0.46987">
        <ele>97</ele>
        <time>2011-03-06T08:52:15Z</time>
      </trkpt>
      <trkpt lat="48.92086" lon="-0.46987">
        <ele>97</ele>
        <time>2011-03-06T08:52:23Z</time>
      </trkpt>
      <trkpt lat="48.92096" lon="-0.46982">
        <ele>87</ele>
        <time>2011-03-06T08:52:32Z</time>
      </trkpt>
      <trkpt lat="48.92107" lon="-0.46985">
        <ele>95</ele>
        <time>2011-03-06T08:52:46Z</time>
      </trkpt>
      <trkpt lat="48.92116" lon="-0.46986">
        <ele>95</ele>
        <time>2011-03-06T08:52:54Z</time>
      </trkpt>
      <trkpt lat="48.92127" lon="-0.46985">
        <ele>101</ele>
        <time>2011-03-06T08:53:01Z</time>
      </trkpt>
      <trkpt lat="48.92136" lon="-0.4698">
        <ele>101</ele>
        <time>2011-03-06T08:53:12Z</time>
      </trkpt>
      <trkpt lat="48.92146" lon="-0.46976">
        <ele>114</ele>
        <time>2011-03-06T08:53:24Z</time>
      </trkpt>
      <trkpt lat="48.92155" lon="-0.46974">
        <ele>114</ele>
        <time>2011-03-06T08:53:33Z</time>
      </trkpt>
      <trkpt lat="48.92165" lon="-0.46972">
        <ele>114</ele>
        <time>2011-03-06T08:53:41Z</time>
      </trkpt>
      <trkpt lat="48.92171" lon="-0.46958">
        <ele>106</ele>
        <time>2011-03-06T08:53:50Z</time>
      </trkpt>
      <trkpt lat="48.92181" lon="-0.46959">
        <ele>106</ele>
        <time>2011-03-06T08:53:55Z</time>
      </trkpt>
      <trkpt lat="48.9219" lon="-0.4696">
        <ele>106</ele>
        <time>2011-03-06T08:54:03Z</time>
      </trkpt>
      <trkpt lat="48.92199" lon="-0.46956">
        <ele>100</ele>
        <time>2011-03-06T08:54:13Z</time>
      </trkpt>
      <trkpt lat="48.92209" lon="-0.4695">
        <ele>100</ele>
        <time>2011-03-06T08:54:18Z</time>
      </trkpt>
      <trkpt lat="48.92218" lon="-0.46959">
        <ele>100</ele>
        <time>2011-03-06T08:54:26Z</time>
      </trkpt>
      <trkpt lat="48.92227" lon="-0.4695">
        <ele>100</ele>
        <time>2011-03-06T08:54:36Z</time>
      </trkpt>
      <trkpt lat="48.92238" lon="-0.46942">
        <ele>91</ele>
        <time>2011-03-06T08:54:45Z</time>
      </trkpt>
      <trkpt lat="48.92247" lon="-0.46937">
        <ele>91</ele>
        <time>2011-03-06T08:54:52Z</time>
      </trkpt>
      <trkpt lat="48.92257" lon="-0.46938">
        <ele>91</ele>
        <time>2011-03-06T08:55:01Z</time>
      </trkpt>
      <trkpt lat="48.92264" lon="-0.46926">
        <ele>91</ele>
        <time>2011-03-06T08:55:10Z</time>
      </trkpt>
      <trkpt lat="48.92272" lon="-0.46923">
        <ele>86</ele>
        <time>2011-03-06T08:55:19Z</time>
      </trkpt>
      <trkpt lat="48.92283" lon="-0.46919">
        <ele>86</ele>
        <time>2011-03-06T08:55:26Z</time>
      </trkpt>
      <trkpt lat="48.92292" lon="-0.46924">
        <ele>94</ele>
        <time>2011-03-06T08:55:31Z</time>
      </trkpt>
      <trkpt lat="48.92297" lon="-0.46909">
        <ele>94</ele>
        <time>2011-03-06T08:55:40Z</time>
      </trkpt>
      <trkpt lat="48.92307" lon="-0.46911">
        <ele>94</ele>
        <time>2011-03-06T08:55:47Z</time>
      </trkpt>
      <trkpt lat="48.92317" lon="-0.46909">
        <ele>94</ele>
        <time>2011-03-06T08:55:53Z</time>
      </trkpt>
      <trkpt lat="48.92325" lon="-0.46915">
        <ele>94</ele>
        <time>2011-03-06T08:56:05Z</time>
      </trkpt>
      <trkpt lat="48.92334" lon="-0.46919">
        <ele>94</ele>
        <time>2011-03-06T08:56:19Z</time>
      </trkpt>
      <trkpt lat="48.92343" lon="-0.46915">
        <ele>87</ele>
        <time>2011-03-06T08:56:29Z</time>
      </trkpt>
      <trkpt lat="48.92353" lon="-0.46912">
        <ele>87</ele>
        <time>2011-03-06T08:56:40Z</time>
      </trkpt>
      <trkpt lat="48.92362" lon="-0.46909">
        <ele>95</ele>
        <time>2011-03-06T08:56:55Z</time>
      </trkpt>
      <trkpt lat="48.92373" lon="-0.4691">
        <ele>101</ele>
        <time>2011-03-06T08:57:09Z</time>
      </trkpt>
      <trkpt lat="48.92382" lon="-0.46904">
        <ele>101</ele>
        <time>2011-03-06T08:57:15Z</time>
      </trkpt>
      <trkpt lat="48.9239" lon="-0.4691">
        <ele>101</ele>
        <time>2011-03-06T08:57:26Z</time>
      </trkpt>
      <trkpt lat="48.92399" lon="-0.46903">
        <ele>101</ele>
        <time>2011-03-06T08:57:31Z</time>
      </trkpt>
      <trkpt lat="48.92408" lon="-0.46898">
        <ele>101</ele>
        <time>2011-03-06T08:57:43Z</time>
      </trkpt>
      <trkpt lat="48.92417" lon="-0.46899">
        <ele>101</ele>
        <time>2011-03-06T08:57:58Z</time>
      </trkpt>
      <trkpt lat="48.92428" lon="-0.46894">
        <ele>101</ele>
        <time>2011-03-06T08:58:07Z</time>
      </trkpt>
      <trkpt lat="48.92438" lon="-0.46892">
        <ele>101</ele>
        <time>2011-03-06T08:58:12Z</time>
      </trkpt>
      <trkpt lat="48.92448" lon="-0.46892">
        <ele>101</ele>
        <time>2011-03-06T08:58:22Z</time>
      </trkpt>
      <trkpt lat="48.92459" lon="-0.46888">
        <ele>101</ele>
        <time>2011-03-06T08:58:32Z</time>
      </trkpt>
      <trkpt lat="48.92468" lon="-0.46885">
        <ele>107</ele>
        <time>2011-03-06T08:58:40Z</time>
      </trkpt>
      <trkpt lat="48.92475" lon="-0.46875">
        <ele>107</ele>
        <time>2011-03-06T08:58:46Z</time>
      </trkpt>
      <trkpt lat="48.92484" lon="-0.46871">
        <ele>107</ele>
        <time>2011-03-06T08:58:59Z</time>
      </trkpt>
      <trkpt lat="48.92493" lon="-0.46871">
        <ele>107</ele>
        <time>2011-03-06T08:59:08Z</time>
      </trkpt>
      <trkpt lat="48.92503" lon="-0.46871">
        <ele>107</ele>
        <time>2011-03-06T08:59:18Z</time>
      </trkpt>
      <trkpt lat="48.92512" lon="-0.46862">
        <ele>100</ele>
        <time>2011-03-06T08:59:22Z</time>
      </trkpt>
      <trkpt lat="48.9252" lon="-0.46854">
        <ele>92</ele>
        <time>2011-03-06T08:59:31Z</time>
      </trkpt>
      <trkpt lat="48.92531" lon="-0.46856">
        <ele>102</ele>
        <time>2011-03-06T08:59:48Z</time>
      </trkpt>
      <trkpt lat="48.92541" lon="-0.46853">
        <ele>102</ele>
        <time>2011-03-06T09:00:00Z</time>
      </trkpt>
      <trkpt lat="48.92551" lon="-0.46857">
        <ele>102</ele>
        <time>2011-03-06T09:00:09Z</time>
      </trkpt>
      <trkpt lat="48.92564" lon="-0.46855">
        <ele>102</ele>
        <time>2011-03-06T09:00:17Z</time>
      </trkpt>
      <trkpt lat="48.92574" lon="-0.46851">
        <ele>102</ele>
        <time>2011-03-06T09:00:22Z</time>
      </trkpt>
      <trkpt lat="48.92582" lon="-0.46857">
        <ele>102</ele>
        <time>2011-03-06T09:00:36Z</time>
      </trkpt>
      <trkpt lat="48.92591" lon="-0.46853">
        <ele>102</ele>
        <time>2011-03-06T09:00:47Z</time>
      </trkpt>
      <trkpt lat="48.926" lon="-0.46859">
        <ele>102</ele>
        <time>2011-03-06T09:00:54Z</time>
      </trkpt>
      <trkpt lat="48.92609" lon="-0.46856">
        <ele>102</ele>
        <time>2011-03-06T09:01:03Z</time>
      </trkpt>
      <trkpt lat="48.9262" lon="-0.46863">
        <ele>94</ele>
        <time>2011-03-06T09:01:11Z</time>
      </trkpt>
      <trkpt lat="48.9263" lon="-0.46869">
        <ele>104</ele>
        <time>2011-03-06T09:01:21Z</time>
      </trkpt>
      <trkpt lat="48.92634" lon="-0.46881">
        <ele>112</ele>
        <time>2011-03-06T09:01:30Z</time>
      </trkpt>
      <trkpt lat="48.92644" lon="-0.46885">
        <ele>112</ele>
        <time>2011-03-06T09:01:40Z</time>
      </trkpt>
      <trkpt lat="48.92651" lon="-0.46895">
        <ele>118</ele>
        <time>2011-03-06T09:01:51Z</time>
      </trkpt>
      <trkpt lat="48.9266" lon="-0.46888">
        <ele>118</ele>
        <time>2011-03-06T09:01:57Z</time>
      </trkpt>
      <trkpt lat="48.9267" lon="-0.46886">
        <ele>118</ele>
        <time>2011-03-06T09:02:06Z</time>
      </trkpt>
      <trkpt lat="48.92675" lon="-0.46901">
        <ele>118</ele>
        <time>2011-03-06T09:02:14Z</time>
      </trkpt>
      <trkpt lat="48.92685" lon="-0.46906">
        <ele>118</ele>
        <time>2011-03-06T09:02:23Z</time>
      </trkpt>
      <trkpt lat="48.92695" lon="-0.46907">
        <ele>111</ele>
        <time>2011-03-06T09:02:29Z</time>
      </trkpt>
      <trkpt lat="48.92705" lon="-0.46907">
        <ele>111</ele>
        <time>2011-03-06T09:02:41Z</time>
      </trkpt>
      <trkpt lat="48.92697" lon="-0.46917">
        <ele>120</ele>
        <time>2011-03-06T09:03:08Z</time>
      </trkpt>
      <trkpt lat="48.92707" lon="-0.46915">
        <ele>120</ele>
        <time>2011-03-06T09:03:23Z</time>
      </trkpt>
      <trkpt lat="48.92717" lon="-0.46911">
        <ele>120</ele>
        <time>2011-03-06T09:03:27Z</time>
      </trkpt>
      <trkpt lat="48.92735" lon="-0.46924">
        <ele>107</ele>
        <time>2011-03-06T09:03:44Z</time>
      </trkpt>
      <trkpt lat="48.92744" lon="-0.46923">
        <ele>107</ele>
        <time>2011-03-06T09:03:47Z</time>
      </trkpt>
      <trkpt lat="48.9275" lon="-0.46934">
        <ele>107</ele>
        <time>2011-03-06T09:03:50Z</time>
      </trkpt>
      <trkpt lat="48.92747" lon="-0.46948">
        <ele>119</ele>
        <time>2011-03-06T09:03:59Z</time>
      </trkpt>
      <trkpt lat="48.92757" lon="-0.46951">
        <ele>113</ele>
        <time>2011-03-06T09:04:07Z</time>
      </trkpt>
      <trkpt lat="48.92767" lon="-0.46952">
        <ele>105</ele>
        <time>2011-03-06T09:04:13Z</time>
      </trkpt>
      <trkpt lat="48.9278" lon="-0.46961">
        <ele>105</ele>
        <time>2011-03-06T09:04:21Z</time>
      </trkpt>
      <trkpt lat="48.92783" lon="-0.46977">
        <ele>105</ele>
        <time>2011-03-06T09:04:31Z</time>
      </trkpt>
      <trkpt lat="48.9279" lon="-0.46987">
        <ele>105</ele>
        <time>2011-03-06T09:04:40Z</time>
      </trkpt>
      <trkpt lat="48.928" lon="-0.46992">
        <ele>105</ele>
        <time>2011-03-06T09:04:46Z</time>
      </trkpt>
      <trkpt lat="48.92812" lon="-0.46994">
        <ele>105</ele>
        <time>2011-03-06T09:04:52Z</time>
      </trkpt>
      <trkpt lat="48.9282" lon="-0.47">
        <ele>112</ele>
        <time>2011-03-06T09:04:58Z</time>
      </trkpt>
      <trkpt lat="48.92828" lon="-0.4701">
        <ele>124</ele>
        <time>2011-03-06T09:05:08Z</time>
      </trkpt>
      <trkpt lat="48.92837" lon="-0.47014">
        <ele>109</ele>
        <time>2011-03-06T09:05:25Z</time>
      </trkpt>
      <trkpt lat="48.92843" lon="-0.47026">
        <ele>109</ele>
        <time>2011-03-06T09:05:37Z</time>
      </trkpt>
      <trkpt lat="48.92844" lon="-0.4704">
        <ele>119</ele>
        <time>2011-03-06T09:05:50Z</time>
      </trkpt>
      <trkpt lat="48.92848" lon="-0.47055">
        <ele>119</ele>
        <time>2011-03-06T09:05:58Z</time>
      </trkpt>
      <trkpt lat="48.92859" lon="-0.47056">
        <ele>119</ele>
        <time>2011-03-06T09:06:08Z</time>
      </trkpt>
      <trkpt lat="48.92863" lon="-0.47069">
        <ele>114</ele>
        <time>2011-03-06T09:06:19Z</time>
      </trkpt>
      <trkpt lat="48.92867" lon="-0.47082">
        <ele>114</ele>
        <time>2011-03-06T09:06:30Z</time>
      </trkpt>
      <trkpt lat="48.92876" lon="-0.47091">
        <ele>114</ele>
        <time>2011-03-06T09:06:38Z</time>
      </trkpt>
      <trkpt lat="48.92884" lon="-0.47098">
        <ele>114</ele>
        <time>2011-03-06T09:06:49Z</time>
      </trkpt>
      <trkpt lat="48.9289" lon="-0.47109">
        <ele>114</ele>
        <time>2011-03-06T09:06:56Z</time>
      </trkpt>
      <trkpt lat="48.92896" lon="-0.4712">
        <ele>114</ele>
        <time>2011-03-06T09:07:15Z</time>
      </trkpt>
      <trkpt lat="48.92902" lon="-0.47132">
        <ele>114</ele>
        <time>2011-03-06T09:07:23Z</time>
      </trkpt>
      <trkpt lat="48.92908" lon="-0.47145">
        <ele>114</ele>
        <time>2011-03-06T09:07:37Z</time>
      </trkpt>
      <trkpt lat="48.92914" lon="-0.47157">
        <ele>126</ele>
        <time>2011-03-06T09:07:50Z</time>
      </trkpt>
      <trkpt lat="48.92923" lon="-0.47157">
        <ele>119</ele>
        <time>2011-03-06T09:07:56Z</time>
      </trkpt>
      <trkpt lat="48.92914" lon="-0.47159">
        <ele>119</ele>
        <time>2011-03-06T09:08:13Z</time>
      </trkpt>
      <trkpt lat="48.92924" lon="-0.47157">
        <ele>119</ele>
        <time>2011-03-06T09:08:35Z</time>
      </trkpt>
      <trkpt lat="48.92935" lon="-0.47164">
        <ele>114</ele>
        <time>2011-03-06T09:08:48Z</time>
      </trkpt>
      <trkpt lat="48.92944" lon="-0.47171">
        <ele>114</ele>
        <time>2011-03-06T09:08:55Z</time>
      </trkpt>
      <trkpt lat="48.9295" lon="-0.47186">
        <ele>114</ele>
        <time>2011-03-06T09:09:06Z</time>
      </trkpt>
      <trkpt lat="48.92949" lon="-0.47201">
        <ele>123</ele>
        <time>2011-03-06T09:09:12Z</time>
      </trkpt>
      <trkpt lat="48.92948" lon="-0.47216">
        <ele>123</ele>
        <time>2011-03-06T09:09:20Z</time>
      </trkpt>
      <trkpt lat="48.92944" lon="-0.47231">
        <ele>123</ele>
        <time>2011-03-06T09:09:29Z</time>
      </trkpt>
      <trkpt lat="48.92951" lon="-0.47242">
        <ele>123</ele>
        <time>2011-03-06T09:09:40Z</time>
      </trkpt>
      <trkpt lat="48.92956" lon="-0.47256">
        <ele>123</ele>
        <time>2011-03-06T09:09:51Z</time>
      </trkpt>
      <trkpt lat="48.9296" lon="-0.4727">
        <ele>123</ele>
        <time>2011-03-06T09:10:00Z</time>
      </trkpt>
      <trkpt lat="48.92965" lon="-0.47283">
        <ele>123</ele>
        <time>2011-03-06T09:10:10Z</time>
      </trkpt>
      <trkpt lat="48.92975" lon="-0.47284">
        <ele>117</ele>
        <time>2011-03-06T09:10:21Z</time>
      </trkpt>
      <trkpt lat="48.92974" lon="-0.473">
        <ele>117</ele>
        <time>2011-03-06T09:10:31Z</time>
      </trkpt>
      <trkpt lat="48.9298" lon="-0.4731">
        <ele>123</ele>
        <time>2011-03-06T09:10:44Z</time>
      </trkpt>
      <trkpt lat="48.9298" lon="-0.47324">
        <ele>131</ele>
        <time>2011-03-06T09:10:52Z</time>
      </trkpt>
      <trkpt lat="48.92972" lon="-0.47317">
        <ele>137</ele>
        <time>2011-03-06T09:11:04Z</time>
      </trkpt>
      <trkpt lat="48.92963" lon="-0.47313">
        <ele>137</ele>
        <time>2011-03-06T09:11:42Z</time>
      </trkpt>
      <trkpt lat="48.92972" lon="-0.47306">
        <ele>125</ele>
        <time>2011-03-06T09:12:11Z</time>
      </trkpt>
      <trkpt lat="48.92977" lon="-0.4732">
        <ele>125</ele>
        <time>2011-03-06T09:12:26Z</time>
      </trkpt>
      <trkpt lat="48.92977" lon="-0.47335">
        <ele>125</ele>
        <time>2011-03-06T09:12:39Z</time>
      </trkpt>
      <trkpt lat="48.9298" lon="-0.47349">
        <ele>125</ele>
        <time>2011-03-06T09:12:52Z</time>
      </trkpt>
      <trkpt lat="48.92982" lon="-0.47363">
        <ele>130</ele>
        <time>2011-03-06T09:13:00Z</time>
      </trkpt>
      <trkpt lat="48.92986" lon="-0.47348">
        <ele>130</ele>
        <time>2011-03-06T09:13:24Z</time>
      </trkpt>
      <trkpt lat="48.92979" lon="-0.47357">
        <ele>136</ele>
        <time>2011-03-06T09:13:58Z</time>
      </trkpt>
      <trkpt lat="48.9297" lon="-0.47362">
        <ele>148</ele>
        <time>2011-03-06T09:14:08Z</time>
      </trkpt>
      <trkpt lat="48.92979" lon="-0.47363">
        <ele>137</ele>
        <time>2011-03-06T09:14:43Z</time>
      </trkpt>
      <trkpt lat="48.92973" lon="-0.47374">
        <ele>147</ele>
        <time>2011-03-06T09:14:55Z</time>
      </trkpt>
      <trkpt lat="48.92975" lon="-0.47387">
        <ele>155</ele>
        <time>2011-03-06T09:15:19Z</time>
      </trkpt>
      <trkpt lat="48.92983" lon="-0.47396">
        <ele>155</ele>
        <time>2011-03-06T09:15:30Z</time>
      </trkpt>
      <trkpt lat="48.92982" lon="-0.4741">
        <ele>155</ele>
        <time>2011-03-06T09:15:38Z</time>
      </trkpt>
      <trkpt lat="48.92986" lon="-0.47427">
        <ele>155</ele>
        <time>2011-03-06T09:15:50Z</time>
      </trkpt>
      <trkpt lat="48.9299" lon="-0.47439">
        <ele>155</ele>
        <time>2011-03-06T09:16:01Z</time>
      </trkpt>
      <trkpt lat="48.92986" lon="-0.47452">
        <ele>155</ele>
        <time>2011-03-06T09:16:06Z</time>
      </trkpt>
      <trkpt lat="48.92996" lon="-0.47457">
        <ele>155</ele>
        <time>2011-03-06T09:16:13Z</time>
      </trkpt>
      <trkpt lat="48.9299" lon="-0.47469">
        <ele>155</ele>
        <time>2011-03-06T09:16:25Z</time>
      </trkpt>
      <trkpt lat="48.92985" lon="-0.47483">
        <ele>161</ele>
        <time>2011-03-06T09:16:37Z</time>
      </trkpt>
      <trkpt lat="48.92987" lon="-0.47498">
        <ele>161</ele>
        <time>2011-03-06T09:16:51Z</time>
      </trkpt>
      <trkpt lat="48.92986" lon="-0.47514">
        <ele>161</ele>
        <time>2011-03-06T09:17:09Z</time>
      </trkpt>
      <trkpt lat="48.92988" lon="-0.47529">
        <ele>149</ele>
        <time>2011-03-06T09:17:29Z</time>
      </trkpt>
      <trkpt lat="48.92983" lon="-0.47542">
        <ele>149</ele>
        <time>2011-03-06T09:17:38Z</time>
      </trkpt>
      <trkpt lat="48.92985" lon="-0.47556">
        <ele>149</ele>
        <time>2011-03-06T09:17:52Z</time>
      </trkpt>
      <trkpt lat="48.92987" lon="-0.47572">
        <ele>154</ele>
        <time>2011-03-06T09:18:07Z</time>
      </trkpt>
      <trkpt lat="48.92987" lon="-0.47588">
        <ele>154</ele>
        <time>2011-03-06T09:18:18Z</time>
      </trkpt>
      <trkpt lat="48.92986" lon="-0.47604">
        <ele>154</ele>
        <time>2011-03-06T09:18:30Z</time>
      </trkpt>
      <trkpt lat="48.92983" lon="-0.47617">
        <ele>154</ele>
        <time>2011-03-06T09:18:41Z</time>
      </trkpt>
      <trkpt lat="48.92976" lon="-0.47626">
        <ele>163</ele>
        <time>2011-03-06T09:18:54Z</time>
      </trkpt>
      <trkpt lat="48.9297" lon="-0.47637">
        <ele>163</ele>
        <time>2011-03-06T09:19:27Z</time>
      </trkpt>
      <trkpt lat="48.92964" lon="-0.47648">
        <ele>170</ele>
        <time>2011-03-06T09:19:43Z</time>
      </trkpt>
      <trkpt lat="48.92966" lon="-0.47651">
        <ele>162</ele>
        <time>2011-03-06T09:20:43Z</time>
      </trkpt>
      <trkpt lat="48.92964" lon="-0.4765">
        <ele>171</ele>
        <time>2011-03-06T09:21:30Z</time>
      </trkpt>
      <trkpt lat="48.92969" lon="-0.47638">
        <ele>164</ele>
        <time>2011-03-06T09:23:46Z</time>
      </trkpt>
      <trkpt lat="48.92972" lon="-0.47624">
        <ele>164</ele>
        <time>2011-03-06T09:24:10Z</time>
      </trkpt>
      <trkpt lat="48.92979" lon="-0.47613">
        <ele>164</ele>
        <time>2011-03-06T09:24:24Z</time>
      </trkpt>
      <trkpt lat="48.92988" lon="-0.47619">
        <ele>156</ele>
        <time>2011-03-06T09:24:36Z</time>
      </trkpt>
      <trkpt lat="48.92998" lon="-0.4761">
        <ele>156</ele>
        <time>2011-03-06T09:24:56Z</time>
      </trkpt>
      <trkpt lat="48.93001" lon="-0.47596">
        <ele>150</ele>
        <time>2011-03-06T09:25:07Z</time>
      </trkpt>
      <trkpt lat="48.9301" lon="-0.47592">
        <ele>150</ele>
        <time>2011-03-06T09:25:14Z</time>
      </trkpt>
      <trkpt lat="48.93017" lon="-0.47581">
        <ele>160</ele>
        <time>2011-03-06T09:25:30Z</time>
      </trkpt>
      <trkpt lat="48.93027" lon="-0.47574">
        <ele>153</ele>
        <time>2011-03-06T09:25:43Z</time>
      </trkpt>
      <trkpt lat="48.93034" lon="-0.47565">
        <ele>153</ele>
        <time>2011-03-06T09:25:55Z</time>
      </trkpt>
      <trkpt lat="48.93031" lon="-0.47551">
        <ele>153</ele>
        <time>2011-03-06T09:26:19Z</time>
      </trkpt>
      <trkpt lat="48.93035" lon="-0.47538">
        <ele>166</ele>
        <time>2011-03-06T09:26:37Z</time>
      </trkpt>
      <trkpt lat="48.9304" lon="-0.47526">
        <ele>166</ele>
        <time>2011-03-06T09:26:53Z</time>
      </trkpt>
      <trkpt lat="48.93048" lon="-0.47519">
        <ele>166</ele>
        <time>2011-03-06T09:27:07Z</time>
      </trkpt>
      <trkpt lat="48.93057" lon="-0.47509">
        <ele>166</ele>
        <time>2011-03-06T09:27:27Z</time>
      </trkpt>
      <trkpt lat="48.9306" lon="-0.47496">
        <ele>166</ele>
        <time>2011-03-06T09:27:42Z</time>
      </trkpt>
      <trkpt lat="48.9307" lon="-0.47494">
        <ele>175</ele>
        <time>2011-03-06T09:28:00Z</time>
      </trkpt>
      <trkpt lat="48.93076" lon="-0.47483">
        <ele>175</ele>
        <time>2011-03-06T09:28:12Z</time>
      </trkpt>
      <trkpt lat="48.93086" lon="-0.47484">
        <ele>175</ele>
        <time>2011-03-06T09:28:23Z</time>
      </trkpt>
      <trkpt lat="48.93096" lon="-0.4748">
        <ele>175</ele>
        <time>2011-03-06T09:28:31Z</time>
      </trkpt>
      <trkpt lat="48.93104" lon="-0.47471">
        <ele>175</ele>
        <time>2011-03-06T09:28:47Z</time>
      </trkpt>
      <trkpt lat="48.93111" lon="-0.47462">
        <ele>175</ele>
        <time>2011-03-06T09:29:05Z</time>
      </trkpt>
      <trkpt lat="48.93118" lon="-0.47454">
        <ele>185</ele>
        <time>2011-03-06T09:29:27Z</time>
      </trkpt>
      <trkpt lat="48.93122" lon="-0.4744">
        <ele>193</ele>
        <time>2011-03-06T09:29:51Z</time>
      </trkpt>
      <trkpt lat="48.93124" lon="-0.47427">
        <ele>193</ele>
        <time>2011-03-06T09:30:05Z</time>
      </trkpt>
      <trkpt lat="48.93125" lon="-0.47412">
        <ele>193</ele>
        <time>2011-03-06T09:30:17Z</time>
      </trkpt>
      <trkpt lat="48.93131" lon="-0.47401">
        <ele>193</ele>
        <time>2011-03-06T09:30:32Z</time>
      </trkpt>
      <trkpt lat="48.93131" lon="-0.47387">
        <ele>193</ele>
        <time>2011-03-06T09:31:08Z</time>
      </trkpt>
      <trkpt lat="48.93125" lon="-0.47375">
        <ele>193</ele>
        <time>2011-03-06T09:31:19Z</time>
      </trkpt>
      <trkpt lat="48.93119" lon="-0.47366">
        <ele>198</ele>
        <time>2011-03-06T09:31:33Z</time>
      </trkpt>
      <trkpt lat="48.9311" lon="-0.47357">
        <ele>198</ele>
        <time>2011-03-06T09:31:42Z</time>
      </trkpt>
      <trkpt lat="48.93103" lon="-0.47348">
        <ele>198</ele>
        <time>2011-03-06T09:31:50Z</time>
      </trkpt>
      <trkpt lat="48.93095" lon="-0.47339">
        <ele>198</ele>
        <time>2011-03-06T09:32:01Z</time>
      </trkpt>
      <trkpt lat="48.93088" lon="-0.47329">
        <ele>198</ele>
        <time>2011-03-06T09:32:10Z</time>
      </trkpt>
      <trkpt lat="48.93081" lon="-0.47319">
        <ele>198</ele>
        <time>2011-03-06T09:32:23Z</time>
      </trkpt>
      <trkpt lat="48.93077" lon="-0.47306">
        <ele>198</ele>
        <time>2011-03-06T09:32:33Z</time>
      </trkpt>
      <trkpt lat="48.93071" lon="-0.47295">
        <ele>207</ele>
        <time>2011-03-06T09:32:45Z</time>
      </trkpt>
      <trkpt lat="48.93069" lon="-0.4728">
        <ele>207</ele>
        <time>2011-03-06T09:32:54Z</time>
      </trkpt>
      <trkpt lat="48.93068" lon="-0.47266">
        <ele>207</ele>
        <time>2011-03-06T09:33:07Z</time>
      </trkpt>
      <trkpt lat="48.93069" lon="-0.47251">
        <ele>214</ele>
        <time>2011-03-06T09:33:19Z</time>
      </trkpt>
      <trkpt lat="48.93071" lon="-0.47236">
        <ele>214</ele>
        <time>2011-03-06T09:33:30Z</time>
      </trkpt>
      <trkpt lat="48.9307" lon="-0.47222">
        <ele>214</ele>
        <time>2011-03-06T09:33:40Z</time>
      </trkpt>
      <trkpt lat="48.9307" lon="-0.47207">
        <ele>214</ele>
        <time>2011-03-06T09:33:51Z</time>
      </trkpt>
      <trkpt lat="48.93071" lon="-0.47192">
        <ele>214</ele>
        <time>2011-03-06T09:34:01Z</time>
      </trkpt>
      <trkpt lat="48.93071" lon="-0.47178">
        <ele>214</ele>
        <time>2011-03-06T09:34:10Z</time>
      </trkpt>
      <trkpt lat="48.93071" lon="-0.47163">
        <ele>214</ele>
        <time>2011-03-06T09:34:21Z</time>
      </trkpt>
      <trkpt lat="48.9307" lon="-0.47149">
        <ele>214</ele>
        <time>2011-03-06T09:34:31Z</time>
      </trkpt>
      <trkpt lat="48.93072" lon="-0.47135">
        <ele>214</ele>
        <time>2011-03-06T09:34:39Z</time>
      </trkpt>
      <trkpt lat="48.93071" lon="-0.47119">
        <ele>219</ele>
        <time>2011-03-06T09:34:48Z</time>
      </trkpt>
      <trkpt lat="48.9307" lon="-0.47105">
        <ele>219</ele>
        <time>2011-03-06T09:34:59Z</time>
      </trkpt>
      <trkpt lat="48.9307" lon="-0.47091">
        <ele>219</ele>
        <time>2011-03-06T09:35:10Z</time>
      </trkpt>
      <trkpt lat="48.93069" lon="-0.47075">
        <ele>219</ele>
        <time>2011-03-06T09:35:20Z</time>
      </trkpt>
      <trkpt lat="48.93064" lon="-0.47062">
        <ele>219</ele>
        <time>2011-03-06T09:35:30Z</time>
      </trkpt>
      <trkpt lat="48.93058" lon="-0.47051">
        <ele>219</ele>
        <time>2011-03-06T09:35:40Z</time>
      </trkpt>
      <trkpt lat="48.9305" lon="-0.47041">
        <ele>219</ele>
        <time>2011-03-06T09:35:51Z</time>
      </trkpt>
      <trkpt lat="48.93044" lon="-0.4703">
        <ele>219</ele>
        <time>2011-03-06T09:36:02Z</time>
      </trkpt>
      <trkpt lat="48.93037" lon="-0.47021">
        <ele>219</ele>
        <time>2011-03-06T09:36:10Z</time>
      </trkpt>
      <trkpt lat="48.93028" lon="-0.47014">
        <ele>219</ele>
        <time>2011-03-06T09:36:19Z</time>
      </trkpt>
      <trkpt lat="48.93018" lon="-0.47011">
        <ele>219</ele>
        <time>2011-03-06T09:36:28Z</time>
      </trkpt>
      <trkpt lat="48.9301" lon="-0.47003">
        <ele>219</ele>
        <time>2011-03-06T09:36:39Z</time>
      </trkpt>
      <trkpt lat="48.93002" lon="-0.46996">
        <ele>219</ele>
        <time>2011-03-06T09:36:48Z</time>
      </trkpt>
      <trkpt lat="48.92993" lon="-0.46991">
        <ele>219</ele>
        <time>2011-03-06T09:36:59Z</time>
      </trkpt>
      <trkpt lat="48.92984" lon="-0.46987">
        <ele>219</ele>
        <time>2011-03-06T09:37:18Z</time>
      </trkpt>
      <trkpt lat="48.92974" lon="-0.46988">
        <ele>219</ele>
        <time>2011-03-06T09:37:32Z</time>
      </trkpt>
      <trkpt lat="48.92966" lon="-0.46995">
        <ele>219</ele>
        <time>2011-03-06T09:37:44Z</time>
      </trkpt>
      <trkpt lat="48.92958" lon="-0.47001">
        <ele>219</ele>
        <time>2011-03-06T09:38:00Z</time>
      </trkpt>
      <trkpt lat="48.9295" lon="-0.4701">
        <ele>219</ele>
        <time>2011-03-06T09:38:26Z</time>
      </trkpt>
      <trkpt lat="48.92941" lon="-0.47014">
        <ele>219</ele>
        <time>2011-03-06T09:38:44Z</time>
      </trkpt>
      <trkpt lat="48.92948" lon="-0.47005">
        <ele>211</ele>
        <time>2011-03-06T09:41:20Z</time>
      </trkpt>
      <trkpt lat="48.92957" lon="-0.47002">
        <ele>211</ele>
        <time>2011-03-06T09:41:36Z</time>
      </trkpt>
      <trkpt lat="48.92967" lon="-0.46995">
        <ele>218</ele>
        <time>2011-03-06T09:41:49Z</time>
      </trkpt>
      <trkpt lat="48.92974" lon="-0.46987">
        <ele>218</ele>
        <time>2011-03-06T09:42:00Z</time>
      </trkpt>
      <trkpt lat="48.92984" lon="-0.46988">
        <ele>218</ele>
        <time>2011-03-06T09:42:12Z</time>
      </trkpt>
      <trkpt lat="48.92993" lon="-0.46991">
        <ele>218</ele>
        <time>2011-03-06T09:42:24Z</time>
      </trkpt>
      <trkpt lat="48.92996" lon="-0.46977">
        <ele>218</ele>
        <time>2011-03-06T09:42:37Z</time>
      </trkpt>
      <trkpt lat="48.92992" lon="-0.46964">
        <ele>218</ele>
        <time>2011-03-06T09:42:48Z</time>
      </trkpt>
      <trkpt lat="48.92986" lon="-0.46952">
        <ele>218</ele>
        <time>2011-03-06T09:42:57Z</time>
      </trkpt>
      <trkpt lat="48.92982" lon="-0.4694">
        <ele>218</ele>
        <time>2011-03-06T09:43:05Z</time>
      </trkpt>
      <trkpt lat="48.92979" lon="-0.46926">
        <ele>218</ele>
        <time>2011-03-06T09:43:15Z</time>
      </trkpt>
      <trkpt lat="48.92975" lon="-0.46914">
        <ele>218</ele>
        <time>2011-03-06T09:43:23Z</time>
      </trkpt>
      <trkpt lat="48.92972" lon="-0.469">
        <ele>218</ele>
        <time>2011-03-06T09:43:32Z</time>
      </trkpt>
      <trkpt lat="48.92967" lon="-0.46886">
        <ele>218</ele>
        <time>2011-03-06T09:43:41Z</time>
      </trkpt>
      <trkpt lat="48.92963" lon="-0.46873">
        <ele>218</ele>
        <time>2011-03-06T09:43:49Z</time>
      </trkpt>
      <trkpt lat="48.92958" lon="-0.46861">
        <ele>218</ele>
        <time>2011-03-06T09:43:57Z</time>
      </trkpt>
      <trkpt lat="48.92954" lon="-0.46847">
        <ele>225</ele>
        <time>2011-03-06T09:44:06Z</time>
      </trkpt>
      <trkpt lat="48.9295" lon="-0.46833">
        <ele>225</ele>
        <time>2011-03-06T09:44:14Z</time>
      </trkpt>
      <trkpt lat="48.92945" lon="-0.4682">
        <ele>225</ele>
        <time>2011-03-06T09:44:25Z</time>
      </trkpt>
      <trkpt lat="48.9294" lon="-0.46807">
        <ele>225</ele>
        <time>2011-03-06T09:44:33Z</time>
      </trkpt>
      <trkpt lat="48.92936" lon="-0.46793">
        <ele>225</ele>
        <time>2011-03-06T09:44:42Z</time>
      </trkpt>
      <trkpt lat="48.92932" lon="-0.4678">
        <ele>225</ele>
        <time>2011-03-06T09:44:50Z</time>
      </trkpt>
      <trkpt lat="48.92929" lon="-0.46765">
        <ele>225</ele>
        <time>2011-03-06T09:44:59Z</time>
      </trkpt>
      <trkpt lat="48.92925" lon="-0.46752">
        <ele>225</ele>
        <time>2011-03-06T09:45:07Z</time>
      </trkpt>
      <trkpt lat="48.9292" lon="-0.46739">
        <ele>225</ele>
        <time>2011-03-06T09:45:13Z</time>
      </trkpt>
      <trkpt lat="48.92914" lon="-0.46729">
        <ele>225</ele>
        <time>2011-03-06T09:45:20Z</time>
      </trkpt>
      <trkpt lat="48.92907" lon="-0.46717">
        <ele>225</ele>
        <time>2011-03-06T09:45:28Z</time>
      </trkpt>
      <trkpt lat="48.92898" lon="-0.46709">
        <ele>225</ele>
        <time>2011-03-06T09:45:38Z</time>
      </trkpt>
      <trkpt lat="48.92889" lon="-0.46702">
        <ele>225</ele>
        <time>2011-03-06T09:45:46Z</time>
      </trkpt>
      <trkpt lat="48.92879" lon="-0.46696">
        <ele>225</ele>
        <time>2011-03-06T09:45:56Z</time>
      </trkpt>
      <trkpt lat="48.9287" lon="-0.46693">
        <ele>225</ele>
        <time>2011-03-06T09:46:04Z</time>
      </trkpt>
      <trkpt lat="48.9286" lon="-0.46691">
        <ele>225</ele>
        <time>2011-03-06T09:46:12Z</time>
      </trkpt>
      <trkpt lat="48.92851" lon="-0.46689">
        <ele>225</ele>
        <time>2011-03-06T09:46:20Z</time>
      </trkpt>
      <trkpt lat="48.92841" lon="-0.46686">
        <ele>225</ele>
        <time>2011-03-06T09:46:29Z</time>
      </trkpt>
      <trkpt lat="48.92832" lon="-0.46684">
        <ele>218</ele>
        <time>2011-03-06T09:46:39Z</time>
      </trkpt>
      <trkpt lat="48.92822" lon="-0.46684">
        <ele>218</ele>
        <time>2011-03-06T09:46:47Z</time>
      </trkpt>
      <trkpt lat="48.92813" lon="-0.46681">
        <ele>218</ele>
        <time>2011-03-06T09:46:55Z</time>
      </trkpt>
      <trkpt lat="48.92803" lon="-0.4668">
        <ele>218</ele>
        <time>2011-03-06T09:47:04Z</time>
      </trkpt>
      <trkpt lat="48.92793" lon="-0.46679">
        <ele>218</ele>
        <time>2011-03-06T09:47:11Z</time>
      </trkpt>
      <trkpt lat="48.92783" lon="-0.46678">
        <ele>218</ele>
        <time>2011-03-06T09:47:19Z</time>
      </trkpt>
      <trkpt lat="48.92774" lon="-0.46679">
        <ele>218</ele>
        <time>2011-03-06T09:47:26Z</time>
      </trkpt>
      <trkpt lat="48.92764" lon="-0.46682">
        <ele>218</ele>
        <time>2011-03-06T09:47:35Z</time>
      </trkpt>
      <trkpt lat="48.92754" lon="-0.46681">
        <ele>218</ele>
        <time>2011-03-06T09:47:44Z</time>
      </trkpt>
      <trkpt lat="48.92744" lon="-0.46682">
        <ele>218</ele>
        <time>2011-03-06T09:47:53Z</time>
      </trkpt>
      <trkpt lat="48.92735" lon="-0.4668">
        <ele>218</ele>
        <time>2011-03-06T09:48:18Z</time>
      </trkpt>
      <trkpt lat="48.92725" lon="-0.46677">
        <ele>218</ele>
        <time>2011-03-06T09:48:32Z</time>
      </trkpt>
      <trkpt lat="48.92715" lon="-0.46673">
        <ele>218</ele>
        <time>2011-03-06T09:48:41Z</time>
      </trkpt>
      <trkpt lat="48.92706" lon="-0.46668">
        <ele>218</ele>
        <time>2011-03-06T09:48:49Z</time>
      </trkpt>
      <trkpt lat="48.92697" lon="-0.46663">
        <ele>218</ele>
        <time>2011-03-06T09:48:58Z</time>
      </trkpt>
      <trkpt lat="48.92687" lon="-0.46659">
        <ele>218</ele>
        <time>2011-03-06T09:49:06Z</time>
      </trkpt>
      <trkpt lat="48.92679" lon="-0.46653">
        <ele>218</ele>
        <time>2011-03-06T09:49:14Z</time>
      </trkpt>
      <trkpt lat="48.92668" lon="-0.4665">
        <ele>218</ele>
        <time>2011-03-06T09:49:23Z</time>
      </trkpt>
      <trkpt lat="48.92659" lon="-0.46645">
        <ele>218</ele>
        <time>2011-03-06T09:49:31Z</time>
      </trkpt>
      <trkpt lat="48.9265" lon="-0.46641">
        <ele>218</ele>
        <time>2011-03-06T09:49:39Z</time>
      </trkpt>
      <trkpt lat="48.92641" lon="-0.46637">
        <ele>218</ele>
        <time>2011-03-06T09:49:47Z</time>
      </trkpt>
      <trkpt lat="48.92632" lon="-0.46633">
        <ele>224</ele>
        <time>2011-03-06T09:49:59Z</time>
      </trkpt>
      <trkpt lat="48.92622" lon="-0.46632">
        <ele>224</ele>
        <time>2011-03-06T09:50:10Z</time>
      </trkpt>
      <trkpt lat="48.92614" lon="-0.46625">
        <ele>224</ele>
        <time>2011-03-06T09:50:48Z</time>
      </trkpt>
      <trkpt lat="48.92605" lon="-0.46617">
        <ele>224</ele>
        <time>2011-03-06T09:50:58Z</time>
      </trkpt>
      <trkpt lat="48.92597" lon="-0.46608">
        <ele>224</ele>
        <time>2011-03-06T09:51:08Z</time>
      </trkpt>
      <trkpt lat="48.92589" lon="-0.466">
        <ele>218</ele>
        <time>2011-03-06T09:51:17Z</time>
      </trkpt>
      <trkpt lat="48.92582" lon="-0.4659">
        <ele>218</ele>
        <time>2011-03-06T09:51:26Z</time>
      </trkpt>
      <trkpt lat="48.92576" lon="-0.4658">
        <ele>218</ele>
        <time>2011-03-06T09:51:35Z</time>
      </trkpt>
      <trkpt lat="48.92571" lon="-0.46568">
        <ele>218</ele>
        <time>2011-03-06T09:51:43Z</time>
      </trkpt>
      <trkpt lat="48.92565" lon="-0.46554">
        <ele>218</ele>
        <time>2011-03-06T09:51:52Z</time>
      </trkpt>
      <trkpt lat="48.92562" lon="-0.46541">
        <ele>218</ele>
        <time>2011-03-06T09:52:01Z</time>
      </trkpt>
      <trkpt lat="48.92558" lon="-0.46527">
        <ele>218</ele>
        <time>2011-03-06T09:52:11Z</time>
      </trkpt>
      <trkpt lat="48.92555" lon="-0.46514">
        <ele>225</ele>
        <time>2011-03-06T09:52:21Z</time>
      </trkpt>
      <trkpt lat="48.92554" lon="-0.465">
        <ele>225</ele>
        <time>2011-03-06T09:52:31Z</time>
      </trkpt>
      <trkpt lat="48.92552" lon="-0.46485">
        <ele>225</ele>
        <time>2011-03-06T09:52:41Z</time>
      </trkpt>
      <trkpt lat="48.92554" lon="-0.46471">
        <ele>225</ele>
        <time>2011-03-06T09:52:52Z</time>
      </trkpt>
      <trkpt lat="48.92553" lon="-0.46456">
        <ele>225</ele>
        <time>2011-03-06T09:53:01Z</time>
      </trkpt>
      <trkpt lat="48.92555" lon="-0.4644">
        <ele>225</ele>
        <time>2011-03-06T09:53:12Z</time>
      </trkpt>
      <trkpt lat="48.92555" lon="-0.46425">
        <ele>230</ele>
        <time>2011-03-06T09:53:23Z</time>
      </trkpt>
      <trkpt lat="48.92554" lon="-0.46411">
        <ele>230</ele>
        <time>2011-03-06T09:53:48Z</time>
      </trkpt>
      <trkpt lat="48.92552" lon="-0.46394">
        <ele>230</ele>
        <time>2011-03-06T09:53:57Z</time>
      </trkpt>
      <trkpt lat="48.92548" lon="-0.46382">
        <ele>230</ele>
        <time>2011-03-06T09:54:07Z</time>
      </trkpt>
      <trkpt lat="48.92542" lon="-0.4637">
        <ele>230</ele>
        <time>2011-03-06T09:54:16Z</time>
      </trkpt>
      <trkpt lat="48.92534" lon="-0.46362">
        <ele>230</ele>
        <time>2011-03-06T09:54:24Z</time>
      </trkpt>
      <trkpt lat="48.92525" lon="-0.46354">
        <ele>230</ele>
        <time>2011-03-06T09:54:34Z</time>
      </trkpt>
      <trkpt lat="48.92516" lon="-0.46347">
        <ele>230</ele>
        <time>2011-03-06T09:54:45Z</time>
      </trkpt>
      <trkpt lat="48.92507" lon="-0.46341">
        <ele>230</ele>
        <time>2011-03-06T09:54:55Z</time>
      </trkpt>
      <trkpt lat="48.92498" lon="-0.46338">
        <ele>230</ele>
        <time>2011-03-06T09:55:04Z</time>
      </trkpt>
      <trkpt lat="48.92489" lon="-0.46335">
        <ele>230</ele>
        <time>2011-03-06T09:55:11Z</time>
      </trkpt>
      <trkpt lat="48.9248" lon="-0.46332">
        <ele>230</ele>
        <time>2011-03-06T09:55:19Z</time>
      </trkpt>
      <trkpt lat="48.9247" lon="-0.46328">
        <ele>230</ele>
        <time>2011-03-06T09:55:27Z</time>
      </trkpt>
      <trkpt lat="48.92461" lon="-0.46324">
        <ele>236</ele>
        <time>2011-03-06T09:55:35Z</time>
      </trkpt>
      <trkpt lat="48.92452" lon="-0.46321">
        <ele>236</ele>
        <time>2011-03-06T09:55:44Z</time>
      </trkpt>
      <trkpt lat="48.92442" lon="-0.46319">
        <ele>236</ele>
        <time>2011-03-06T09:55:53Z</time>
      </trkpt>
      <trkpt lat="48.92432" lon="-0.46316">
        <ele>236</ele>
        <time>2011-03-06T09:56:03Z</time>
      </trkpt>
      <trkpt lat="48.92423" lon="-0.46314">
        <ele>236</ele>
        <time>2011-03-06T09:56:16Z</time>
      </trkpt>
      <trkpt lat="48.92417" lon="-0.46302">
        <ele>241</ele>
        <time>2011-03-06T09:56:44Z</time>
      </trkpt>
      <trkpt lat="48.92415" lon="-0.46288">
        <ele>241</ele>
        <time>2011-03-06T09:56:55Z</time>
      </trkpt>
      <trkpt lat="48.92411" lon="-0.46274">
        <ele>241</ele>
        <time>2011-03-06T09:57:06Z</time>
      </trkpt>
      <trkpt lat="48.92408" lon="-0.46261">
        <ele>241</ele>
        <time>2011-03-06T09:57:16Z</time>
      </trkpt>
      <trkpt lat="48.92404" lon="-0.46247">
        <ele>247</ele>
        <time>2011-03-06T09:57:27Z</time>
      </trkpt>
      <trkpt lat="48.92402" lon="-0.46233">
        <ele>247</ele>
        <time>2011-03-06T09:57:40Z</time>
      </trkpt>
      <trkpt lat="48.924" lon="-0.46219">
        <ele>247</ele>
        <time>2011-03-06T09:57:51Z</time>
      </trkpt>
      <trkpt lat="48.92397" lon="-0.46206">
        <ele>247</ele>
        <time>2011-03-06T09:58:00Z</time>
      </trkpt>
      <trkpt lat="48.92397" lon="-0.46191">
        <ele>247</ele>
        <time>2011-03-06T09:58:11Z</time>
      </trkpt>
      <trkpt lat="48.92396" lon="-0.46176">
        <ele>247</ele>
        <time>2011-03-06T09:58:21Z</time>
      </trkpt>
      <trkpt lat="48.92394" lon="-0.46162">
        <ele>253</ele>
        <time>2011-03-06T09:58:30Z</time>
      </trkpt>
      <trkpt lat="48.92392" lon="-0.46147">
        <ele>253</ele>
        <time>2011-03-06T09:58:39Z</time>
      </trkpt>
      <trkpt lat="48.92391" lon="-0.46132">
        <ele>253</ele>
        <time>2011-03-06T09:58:49Z</time>
      </trkpt>
      <trkpt lat="48.92389" lon="-0.46118">
        <ele>253</ele>
        <time>2011-03-06T09:58:58Z</time>
      </trkpt>
      <trkpt lat="48.92387" lon="-0.46102">
        <ele>253</ele>
        <time>2011-03-06T09:59:08Z</time>
      </trkpt>
      <trkpt lat="48.92385" lon="-0.46086">
        <ele>253</ele>
        <time>2011-03-06T09:59:17Z</time>
      </trkpt>
      <trkpt lat="48.9238" lon="-0.46072">
        <ele>253</ele>
        <time>2011-03-06T09:59:27Z</time>
      </trkpt>
      <trkpt lat="48.92376" lon="-0.46059">
        <ele>253</ele>
        <time>2011-03-06T09:59:35Z</time>
      </trkpt>
      <trkpt lat="48.9237" lon="-0.46049">
        <ele>253</ele>
        <time>2011-03-06T10:00:20Z</time>
      </trkpt>
      <trkpt lat="48.92361" lon="-0.46049">
        <ele>253</ele>
        <time>2011-03-06T10:00:34Z</time>
      </trkpt>
      <trkpt lat="48.92351" lon="-0.46051">
        <ele>253</ele>
        <time>2011-03-06T10:00:44Z</time>
      </trkpt>
      <trkpt lat="48.92343" lon="-0.4606">
        <ele>253</ele>
        <time>2011-03-06T10:01:05Z</time>
      </trkpt>
      <trkpt lat="48.92343" lon="-0.46075">
        <ele>253</ele>
        <time>2011-03-06T10:01:17Z</time>
      </trkpt>
      <trkpt lat="48.92345" lon="-0.46089">
        <ele>253</ele>
        <time>2011-03-06T10:01:28Z</time>
      </trkpt>
      <trkpt lat="48.92347" lon="-0.46102">
        <ele>253</ele>
        <time>2011-03-06T10:01:40Z</time>
      </trkpt>
      <trkpt lat="48.9235" lon="-0.46116">
        <ele>253</ele>
        <time>2011-03-06T10:01:54Z</time>
      </trkpt>
      <trkpt lat="48.92353" lon="-0.46129">
        <ele>253</ele>
        <time>2011-03-06T10:02:04Z</time>
      </trkpt>
      <trkpt lat="48.92355" lon="-0.46143">
        <ele>253</ele>
        <time>2011-03-06T10:02:17Z</time>
      </trkpt>
      <trkpt lat="48.92357" lon="-0.46157">
        <ele>253</ele>
        <time>2011-03-06T10:02:34Z</time>
      </trkpt>
      <trkpt lat="48.92362" lon="-0.46168">
        <ele>253</ele>
        <time>2011-03-06T10:04:10Z</time>
      </trkpt>
      <trkpt lat="48.92365" lon="-0.46182">
        <ele>253</ele>
        <time>2011-03-06T10:04:38Z</time>
      </trkpt>
      <trkpt lat="48.92373" lon="-0.46191">
        <ele>253</ele>
        <time>2011-03-06T10:04:56Z</time>
      </trkpt>
      <trkpt lat="48.92364" lon="-0.46191">
        <ele>253</ele>
        <time>2011-03-06T10:05:18Z</time>
      </trkpt>
      <trkpt lat="48.92354" lon="-0.46193">
        <ele>253</ele>
        <time>2011-03-06T10:05:28Z</time>
      </trkpt>
      <trkpt lat="48.92345" lon="-0.462">
        <ele>253</ele>
        <time>2011-03-06T10:05:38Z</time>
      </trkpt>
      <trkpt lat="48.92336" lon="-0.46196">
        <ele>247</ele>
        <time>2011-03-06T10:05:49Z</time>
      </trkpt>
      <trkpt lat="48.92329" lon="-0.46206">
        <ele>247</ele>
        <time>2011-03-06T10:06:01Z</time>
      </trkpt>
      <trkpt lat="48.92328" lon="-0.4622">
        <ele>247</ele>
        <time>2011-03-06T10:06:11Z</time>
      </trkpt>
      <trkpt lat="48.92332" lon="-0.46233">
        <ele>247</ele>
        <time>2011-03-06T10:06:19Z</time>
      </trkpt>
      <trkpt lat="48.92323" lon="-0.46234">
        <ele>242</ele>
        <time>2011-03-06T10:06:38Z</time>
      </trkpt>
      <trkpt lat="48.92317" lon="-0.46221">
        <ele>242</ele>
        <time>2011-03-06T10:06:47Z</time>
      </trkpt>
      <trkpt lat="48.92312" lon="-0.46209">
        <ele>242</ele>
        <time>2011-03-06T10:06:56Z</time>
      </trkpt>
      <trkpt lat="48.92309" lon="-0.46196">
        <ele>242</ele>
        <time>2011-03-06T10:07:04Z</time>
      </trkpt>
      <trkpt lat="48.92306" lon="-0.46182">
        <ele>242</ele>
        <time>2011-03-06T10:07:13Z</time>
      </trkpt>
      <trkpt lat="48.92304" lon="-0.46167">
        <ele>242</ele>
        <time>2011-03-06T10:07:23Z</time>
      </trkpt>
      <trkpt lat="48.92302" lon="-0.46152">
        <ele>242</ele>
        <time>2011-03-06T10:07:31Z</time>
      </trkpt>
      <trkpt lat="48.92299" lon="-0.46138">
        <ele>242</ele>
        <time>2011-03-06T10:07:40Z</time>
      </trkpt>
      <trkpt lat="48.92297" lon="-0.46124">
        <ele>247</ele>
        <time>2011-03-06T10:07:48Z</time>
      </trkpt>
      <trkpt lat="48.92294" lon="-0.4611">
        <ele>247</ele>
        <time>2011-03-06T10:07:56Z</time>
      </trkpt>
      <trkpt lat="48.92293" lon="-0.46095">
        <ele>247</ele>
        <time>2011-03-06T10:08:06Z</time>
      </trkpt>
      <trkpt lat="48.92293" lon="-0.46081">
        <ele>247</ele>
        <time>2011-03-06T10:08:15Z</time>
      </trkpt>
      <trkpt lat="48.92291" lon="-0.46066">
        <ele>247</ele>
        <time>2011-03-06T10:08:23Z</time>
      </trkpt>
      <trkpt lat="48.92289" lon="-0.46051">
        <ele>247</ele>
        <time>2011-03-06T10:08:32Z</time>
      </trkpt>
      <trkpt lat="48.92288" lon="-0.46037">
        <ele>247</ele>
        <time>2011-03-06T10:08:40Z</time>
      </trkpt>
      <trkpt lat="48.92287" lon="-0.46023">
        <ele>247</ele>
        <time>2011-03-06T10:08:48Z</time>
      </trkpt>
      <trkpt lat="48.92287" lon="-0.46007">
        <ele>247</ele>
        <time>2011-03-06T10:08:56Z</time>
      </trkpt>
      <trkpt lat="48.92288" lon="-0.45993">
        <ele>247</ele>
        <time>2011-03-06T10:09:04Z</time>
      </trkpt>
      <trkpt lat="48.92289" lon="-0.45977">
        <ele>247</ele>
        <time>2011-03-06T10:09:13Z</time>
      </trkpt>
      <trkpt lat="48.9229" lon="-0.45962">
        <ele>247</ele>
        <time>2011-03-06T10:09:21Z</time>
      </trkpt>
      <trkpt lat="48.92293" lon="-0.45948">
        <ele>247</ele>
        <time>2011-03-06T10:09:29Z</time>
      </trkpt>
      <trkpt lat="48.92293" lon="-0.45934">
        <ele>247</ele>
        <time>2011-03-06T10:09:37Z</time>
      </trkpt>
      <trkpt lat="48.92294" lon="-0.45918">
        <ele>247</ele>
        <time>2011-03-06T10:09:45Z</time>
      </trkpt>
      <trkpt lat="48.92295" lon="-0.45904">
        <ele>247</ele>
        <time>2011-03-06T10:09:52Z</time>
      </trkpt>
      <trkpt lat="48.92294" lon="-0.4589">
        <ele>247</ele>
        <time>2011-03-06T10:09:59Z</time>
      </trkpt>
      <trkpt lat="48.92294" lon="-0.45874">
        <ele>247</ele>
        <time>2011-03-06T10:10:06Z</time>
      </trkpt>
      <trkpt lat="48.92293" lon="-0.4586">
        <ele>247</ele>
        <time>2011-03-06T10:10:13Z</time>
      </trkpt>
      <trkpt lat="48.92292" lon="-0.45846">
        <ele>247</ele>
        <time>2011-03-06T10:10:20Z</time>
      </trkpt>
      <trkpt lat="48.92291" lon="-0.45831">
        <ele>247</ele>
        <time>2011-03-06T10:10:27Z</time>
      </trkpt>
      <trkpt lat="48.92291" lon="-0.45816">
        <ele>247</ele>
        <time>2011-03-06T10:10:35Z</time>
      </trkpt>
      <trkpt lat="48.92291" lon="-0.45801">
        <ele>247</ele>
        <time>2011-03-06T10:10:43Z</time>
      </trkpt>
      <trkpt lat="48.9229" lon="-0.45784">
        <ele>247</ele>
        <time>2011-03-06T10:10:51Z</time>
      </trkpt>
      <trkpt lat="48.92289" lon="-0.45769">
        <ele>247</ele>
        <time>2011-03-06T10:10:59Z</time>
      </trkpt>
      <trkpt lat="48.92288" lon="-0.45754">
        <ele>247</ele>
        <time>2011-03-06T10:11:07Z</time>
      </trkpt>
      <trkpt lat="48.92287" lon="-0.45738">
        <ele>247</ele>
        <time>2011-03-06T10:11:15Z</time>
      </trkpt>
      <trkpt lat="48.92285" lon="-0.45723">
        <ele>247</ele>
        <time>2011-03-06T10:11:23Z</time>
      </trkpt>
      <trkpt lat="48.92282" lon="-0.45708">
        <ele>247</ele>
        <time>2011-03-06T10:11:31Z</time>
      </trkpt>
      <trkpt lat="48.9228" lon="-0.45693">
        <ele>247</ele>
        <time>2011-03-06T10:11:39Z</time>
      </trkpt>
      <trkpt lat="48.92278" lon="-0.45678">
        <ele>242</ele>
        <time>2011-03-06T10:11:47Z</time>
      </trkpt>
      <trkpt lat="48.92275" lon="-0.45664">
        <ele>242</ele>
        <time>2011-03-06T10:11:54Z</time>
      </trkpt>
      <trkpt lat="48.92273" lon="-0.45651">
        <ele>242</ele>
        <time>2011-03-06T10:12:01Z</time>
      </trkpt>
      <trkpt lat="48.92271" lon="-0.45635">
        <ele>242</ele>
        <time>2011-03-06T10:12:10Z</time>
      </trkpt>
      <trkpt lat="48.92269" lon="-0.45621">
        <ele>242</ele>
        <time>2011-03-06T10:12:18Z</time>
      </trkpt>
      <trkpt lat="48.92267" lon="-0.45607">
        <ele>242</ele>
        <time>2011-03-06T10:12:26Z</time>
      </trkpt>
      <trkpt lat="48.92264" lon="-0.45593">
        <ele>242</ele>
        <time>2011-03-06T10:12:33Z</time>
      </trkpt>
      <trkpt lat="48.92261" lon="-0.45579">
        <ele>242</ele>
        <time>2011-03-06T10:12:42Z</time>
      </trkpt>
      <trkpt lat="48.92256" lon="-0.45566">
        <ele>242</ele>
        <time>2011-03-06T10:13:00Z</time>
      </trkpt>
      <trkpt lat="48.92259" lon="-0.45553">
        <ele>242</ele>
        <time>2011-03-06T10:13:08Z</time>
      </trkpt>
      <trkpt lat="48.92267" lon="-0.45543">
        <ele>242</ele>
        <time>2011-03-06T10:13:17Z</time>
      </trkpt>
      <trkpt lat="48.92275" lon="-0.45535">
        <ele>242</ele>
        <time>2011-03-06T10:13:26Z</time>
      </trkpt>
      <trkpt lat="48.92283" lon="-0.45527">
        <ele>242</ele>
        <time>2011-03-06T10:13:35Z</time>
      </trkpt>
      <trkpt lat="48.92292" lon="-0.45519">
        <ele>242</ele>
        <time>2011-03-06T10:13:44Z</time>
      </trkpt>
      <trkpt lat="48.923" lon="-0.45511">
        <ele>242</ele>
        <time>2011-03-06T10:13:53Z</time>
      </trkpt>
      <trkpt lat="48.92309" lon="-0.45504">
        <ele>242</ele>
        <time>2011-03-06T10:14:02Z</time>
      </trkpt>
      <trkpt lat="48.92317" lon="-0.45496">
        <ele>242</ele>
        <time>2011-03-06T10:14:17Z</time>
      </trkpt>
      <trkpt lat="48.92313" lon="-0.45483">
        <ele>242</ele>
        <time>2011-03-06T10:15:38Z</time>
      </trkpt>
      <trkpt lat="48.92307" lon="-0.45472">
        <ele>242</ele>
        <time>2011-03-06T10:15:47Z</time>
      </trkpt>
      <trkpt lat="48.92301" lon="-0.45462">
        <ele>242</ele>
        <time>2011-03-06T10:15:56Z</time>
      </trkpt>
      <trkpt lat="48.92294" lon="-0.45452">
        <ele>242</ele>
        <time>2011-03-06T10:16:05Z</time>
      </trkpt>
      <trkpt lat="48.92287" lon="-0.45442">
        <ele>242</ele>
        <time>2011-03-06T10:16:13Z</time>
      </trkpt>
      <trkpt lat="48.92281" lon="-0.45431">
        <ele>242</ele>
        <time>2011-03-06T10:16:22Z</time>
      </trkpt>
      <trkpt lat="48.92274" lon="-0.45422">
        <ele>242</ele>
        <time>2011-03-06T10:16:31Z</time>
      </trkpt>
      <trkpt lat="48.92265" lon="-0.45414">
        <ele>242</ele>
        <time>2011-03-06T10:16:40Z</time>
      </trkpt>
      <trkpt lat="48.92258" lon="-0.45404">
        <ele>242</ele>
        <time>2011-03-06T10:16:49Z</time>
      </trkpt>
      <trkpt lat="48.92252" lon="-0.45395">
        <ele>242</ele>
        <time>2011-03-06T10:16:57Z</time>
      </trkpt>
      <trkpt lat="48.92245" lon="-0.45385">
        <ele>242</ele>
        <time>2011-03-06T10:17:05Z</time>
      </trkpt>
      <trkpt lat="48.92238" lon="-0.45374">
        <ele>242</ele>
        <time>2011-03-06T10:17:14Z</time>
      </trkpt>
      <trkpt lat="48.92232" lon="-0.45361">
        <ele>242</ele>
        <time>2011-03-06T10:17:23Z</time>
      </trkpt>
      <trkpt lat="48.92226" lon="-0.45349">
        <ele>242</ele>
        <time>2011-03-06T10:17:32Z</time>
      </trkpt>
      <trkpt lat="48.9222" lon="-0.45338">
        <ele>242</ele>
        <time>2011-03-06T10:17:40Z</time>
      </trkpt>
      <trkpt lat="48.92214" lon="-0.45328">
        <ele>242</ele>
        <time>2011-03-06T10:17:48Z</time>
      </trkpt>
      <trkpt lat="48.92209" lon="-0.45316">
        <ele>242</ele>
        <time>2011-03-06T10:17:55Z</time>
      </trkpt>
      <trkpt lat="48.92203" lon="-0.45303">
        <ele>242</ele>
        <time>2011-03-06T10:18:04Z</time>
      </trkpt>
      <trkpt lat="48.92198" lon="-0.4529">
        <ele>242</ele>
        <time>2011-03-06T10:18:12Z</time>
      </trkpt>
      <trkpt lat="48.92194" lon="-0.45278">
        <ele>242</ele>
        <time>2011-03-06T10:18:20Z</time>
      </trkpt>
      <trkpt lat="48.92189" lon="-0.45264">
        <ele>242</ele>
        <time>2011-03-06T10:18:29Z</time>
      </trkpt>
      <trkpt lat="48.92185" lon="-0.45251">
        <ele>242</ele>
        <time>2011-03-06T10:18:37Z</time>
      </trkpt>
      <trkpt lat="48.92182" lon="-0.45237">
        <ele>242</ele>
        <time>2011-03-06T10:18:46Z</time>
      </trkpt>
      <trkpt lat="48.92178" lon="-0.45222">
        <ele>242</ele>
        <time>2011-03-06T10:18:54Z</time>
      </trkpt>
      <trkpt lat="48.92176" lon="-0.45208">
        <ele>242</ele>
        <time>2011-03-06T10:19:03Z</time>
      </trkpt>
      <trkpt lat="48.92173" lon="-0.45194">
        <ele>242</ele>
        <time>2011-03-06T10:19:11Z</time>
      </trkpt>
      <trkpt lat="48.9217" lon="-0.45181">
        <ele>242</ele>
        <time>2011-03-06T10:19:20Z</time>
      </trkpt>
      <trkpt lat="48.92167" lon="-0.45167">
        <ele>242</ele>
        <time>2011-03-06T10:19:28Z</time>
      </trkpt>
      <trkpt lat="48.92165" lon="-0.45154">
        <ele>242</ele>
        <time>2011-03-06T10:19:36Z</time>
      </trkpt>
      <trkpt lat="48.92162" lon="-0.45139">
        <ele>242</ele>
        <time>2011-03-06T10:19:45Z</time>
      </trkpt>
      <trkpt lat="48.92159" lon="-0.45125">
        <ele>242</ele>
        <time>2011-03-06T10:19:54Z</time>
      </trkpt>
      <trkpt lat="48.92156" lon="-0.45112">
        <ele>242</ele>
        <time>2011-03-06T10:20:02Z</time>
      </trkpt>
      <trkpt lat="48.92154" lon="-0.45098">
        <ele>242</ele>
        <time>2011-03-06T10:20:10Z</time>
      </trkpt>
      <trkpt lat="48.92152" lon="-0.45085">
        <ele>242</ele>
        <time>2011-03-06T10:20:18Z</time>
      </trkpt>
      <trkpt lat="48.92149" lon="-0.45069">
        <ele>242</ele>
        <time>2011-03-06T10:20:27Z</time>
      </trkpt>
      <trkpt lat="48.92147" lon="-0.45055">
        <ele>242</ele>
        <time>2011-03-06T10:20:35Z</time>
      </trkpt>
      <trkpt lat="48.92145" lon="-0.4504">
        <ele>242</ele>
        <time>2011-03-06T10:20:44Z</time>
      </trkpt>
      <trkpt lat="48.92143" lon="-0.45025">
        <ele>242</ele>
        <time>2011-03-06T10:20:53Z</time>
      </trkpt>
      <trkpt lat="48.92142" lon="-0.45009">
        <ele>247</ele>
        <time>2011-03-06T10:21:02Z</time>
      </trkpt>
      <trkpt lat="48.92139" lon="-0.44995">
        <ele>247</ele>
        <time>2011-03-06T10:21:10Z</time>
      </trkpt>
      <trkpt lat="48.92137" lon="-0.4498">
        <ele>247</ele>
        <time>2011-03-06T10:21:19Z</time>
      </trkpt>
      <trkpt lat="48.92136" lon="-0.44964">
        <ele>247</ele>
        <time>2011-03-06T10:21:28Z</time>
      </trkpt>
      <trkpt lat="48.92133" lon="-0.44951">
        <ele>247</ele>
        <time>2011-03-06T10:21:35Z</time>
      </trkpt>
      <trkpt lat="48.92132" lon="-0.44936">
        <ele>247</ele>
        <time>2011-03-06T10:21:43Z</time>
      </trkpt>
      <trkpt lat="48.9213" lon="-0.44921">
        <ele>247</ele>
        <time>2011-03-06T10:21:52Z</time>
      </trkpt>
      <trkpt lat="48.92128" lon="-0.44907">
        <ele>247</ele>
        <time>2011-03-06T10:22:01Z</time>
      </trkpt>
      <trkpt lat="48.92126" lon="-0.44892">
        <ele>247</ele>
        <time>2011-03-06T10:22:09Z</time>
      </trkpt>
      <trkpt lat="48.92124" lon="-0.44878">
        <ele>247</ele>
        <time>2011-03-06T10:22:17Z</time>
      </trkpt>
      <trkpt lat="48.92123" lon="-0.44863">
        <ele>247</ele>
        <time>2011-03-06T10:22:25Z</time>
      </trkpt>
      <trkpt lat="48.92122" lon="-0.44848">
        <ele>247</ele>
        <time>2011-03-06T10:22:34Z</time>
      </trkpt>
      <trkpt lat="48.92117" lon="-0.44835">
        <ele>247</ele>
        <time>2011-03-06T10:23:03Z</time>
      </trkpt>
      <trkpt lat="48.92115" lon="-0.44821">
        <ele>247</ele>
        <time>2011-03-06T10:23:11Z</time>
      </trkpt>
      <trkpt lat="48.92111" lon="-0.44807">
        <ele>247</ele>
        <time>2011-03-06T10:23:19Z</time>
      </trkpt>
      <trkpt lat="48.92108" lon="-0.44794">
        <ele>247</ele>
        <time>2011-03-06T10:23:27Z</time>
      </trkpt>
      <trkpt lat="48.92106" lon="-0.4478">
        <ele>247</ele>
        <time>2011-03-06T10:23:34Z</time>
      </trkpt>
      <trkpt lat="48.92103" lon="-0.44767">
        <ele>247</ele>
        <time>2011-03-06T10:23:42Z</time>
      </trkpt>
      <trkpt lat="48.92101" lon="-0.44751">
        <ele>247</ele>
        <time>2011-03-06T10:23:50Z</time>
      </trkpt>
      <trkpt lat="48.92099" lon="-0.44736">
        <ele>247</ele>
        <time>2011-03-06T10:23:58Z</time>
      </trkpt>
      <trkpt lat="48.92098" lon="-0.44721">
        <ele>247</ele>
        <time>2011-03-06T10:24:06Z</time>
      </trkpt>
      <trkpt lat="48.92098" lon="-0.44707">
        <ele>247</ele>
        <time>2011-03-06T10:24:14Z</time>
      </trkpt>
      <trkpt lat="48.92098" lon="-0.44692">
        <ele>247</ele>
        <time>2011-03-06T10:24:22Z</time>
      </trkpt>
      <trkpt lat="48.92098" lon="-0.44677">
        <ele>247</ele>
        <time>2011-03-06T10:24:31Z</time>
      </trkpt>
      <trkpt lat="48.92097" lon="-0.44662">
        <ele>247</ele>
        <time>2011-03-06T10:24:39Z</time>
      </trkpt>
      <trkpt lat="48.92096" lon="-0.44647">
        <ele>247</ele>
        <time>2011-03-06T10:24:48Z</time>
      </trkpt>
      <trkpt lat="48.92095" lon="-0.44632">
        <ele>247</ele>
        <time>2011-03-06T10:24:57Z</time>
      </trkpt>
      <trkpt lat="48.92094" lon="-0.44618">
        <ele>247</ele>
        <time>2011-03-06T10:25:06Z</time>
      </trkpt>
      <trkpt lat="48.92091" lon="-0.44603">
        <ele>247</ele>
        <time>2011-03-06T10:25:15Z</time>
      </trkpt>
      <trkpt lat="48.92088" lon="-0.4459">
        <ele>247</ele>
        <time>2011-03-06T10:25:23Z</time>
      </trkpt>
      <trkpt lat="48.92087" lon="-0.44575">
        <ele>247</ele>
        <time>2011-03-06T10:25:31Z</time>
      </trkpt>
      <trkpt lat="48.92093" lon="-0.44565">
        <ele>247</ele>
        <time>2011-03-06T10:25:39Z</time>
      </trkpt>
      <trkpt lat="48.921" lon="-0.44555">
        <ele>247</ele>
        <time>2011-03-06T10:25:47Z</time>
      </trkpt>
      <trkpt lat="48.92108" lon="-0.44547">
        <ele>247</ele>
        <time>2011-03-06T10:25:55Z</time>
      </trkpt>
      <trkpt lat="48.92116" lon="-0.44538">
        <ele>247</ele>
        <time>2011-03-06T10:26:04Z</time>
      </trkpt>
      <trkpt lat="48.92123" lon="-0.44527">
        <ele>247</ele>
        <time>2011-03-06T10:26:12Z</time>
      </trkpt>
      <trkpt lat="48.92131" lon="-0.44518">
        <ele>247</ele>
        <time>2011-03-06T10:26:20Z</time>
      </trkpt>
      <trkpt lat="48.92139" lon="-0.44511">
        <ele>247</ele>
        <time>2011-03-06T10:26:28Z</time>
      </trkpt>
      <trkpt lat="48.92147" lon="-0.44502">
        <ele>247</ele>
        <time>2011-03-06T10:26:36Z</time>
      </trkpt>
      <trkpt lat="48.92155" lon="-0.44492">
        <ele>247</ele>
        <time>2011-03-06T10:26:44Z</time>
      </trkpt>
      <trkpt lat="48.92162" lon="-0.44482">
        <ele>247</ele>
        <time>2011-03-06T10:26:52Z</time>
      </trkpt>
      <trkpt lat="48.92169" lon="-0.44471">
        <ele>247</ele>
        <time>2011-03-06T10:27:01Z</time>
      </trkpt>
      <trkpt lat="48.92177" lon="-0.44463">
        <ele>247</ele>
        <time>2011-03-06T10:27:09Z</time>
      </trkpt>
      <trkpt lat="48.92185" lon="-0.44455">
        <ele>247</ele>
        <time>2011-03-06T10:27:17Z</time>
      </trkpt>
      <trkpt lat="48.92192" lon="-0.44446">
        <ele>252</ele>
        <time>2011-03-06T10:27:25Z</time>
      </trkpt>
      <trkpt lat="48.922" lon="-0.44437">
        <ele>252</ele>
        <time>2011-03-06T10:27:33Z</time>
      </trkpt>
      <trkpt lat="48.92209" lon="-0.44429">
        <ele>252</ele>
        <time>2011-03-06T10:27:42Z</time>
      </trkpt>
      <trkpt lat="48.92215" lon="-0.44419">
        <ele>252</ele>
        <time>2011-03-06T10:27:50Z</time>
      </trkpt>
      <trkpt lat="48.92222" lon="-0.4441">
        <ele>252</ele>
        <time>2011-03-06T10:27:58Z</time>
      </trkpt>
      <trkpt lat="48.92231" lon="-0.44402">
        <ele>252</ele>
        <time>2011-03-06T10:28:07Z</time>
      </trkpt>
      <trkpt lat="48.92239" lon="-0.44394">
        <ele>252</ele>
        <time>2011-03-06T10:28:15Z</time>
      </trkpt>
      <trkpt lat="48.92248" lon="-0.44389">
        <ele>252</ele>
        <time>2011-03-06T10:28:24Z</time>
      </trkpt>
      <trkpt lat="48.92257" lon="-0.44384">
        <ele>252</ele>
        <time>2011-03-06T10:28:32Z</time>
      </trkpt>
      <trkpt lat="48.92267" lon="-0.44381">
        <ele>245</ele>
        <time>2011-03-06T10:28:46Z</time>
      </trkpt>
      <trkpt lat="48.92277" lon="-0.44377">
        <ele>245</ele>
        <time>2011-03-06T10:29:01Z</time>
      </trkpt>
      <trkpt lat="48.92287" lon="-0.44377">
        <ele>245</ele>
        <time>2011-03-06T10:29:10Z</time>
      </trkpt>
      <trkpt lat="48.92297" lon="-0.44372">
        <ele>245</ele>
        <time>2011-03-06T10:29:21Z</time>
      </trkpt>
      <trkpt lat="48.92307" lon="-0.44371">
        <ele>245</ele>
        <time>2011-03-06T10:29:35Z</time>
      </trkpt>
      <trkpt lat="48.92316" lon="-0.4437">
        <ele>245</ele>
        <time>2011-03-06T10:29:46Z</time>
      </trkpt>
      <trkpt lat="48.92325" lon="-0.44366">
        <ele>245</ele>
        <time>2011-03-06T10:30:04Z</time>
      </trkpt>
      <trkpt lat="48.92374" lon="-0.44362">
        <ele>245</ele>
        <time>2011-03-06T10:32:46Z</time>
      </trkpt>
      <trkpt lat="48.92382" lon="-0.4437">
        <ele>245</ele>
        <time>2011-03-06T10:34:27Z</time>
      </trkpt>
      <trkpt lat="48.9239" lon="-0.44363">
        <ele>245</ele>
        <time>2011-03-06T10:34:52Z</time>
      </trkpt>
      <trkpt lat="48.924" lon="-0.44363">
        <ele>245</ele>
        <time>2011-03-06T10:35:02Z</time>
      </trkpt>
      <trkpt lat="48.9241" lon="-0.44364">
        <ele>245</ele>
        <time>2011-03-06T10:35:11Z</time>
      </trkpt>
      <trkpt lat="48.92419" lon="-0.44365">
        <ele>245</ele>
        <time>2011-03-06T10:35:20Z</time>
      </trkpt>
      <trkpt lat="48.92429" lon="-0.44369">
        <ele>245</ele>
        <time>2011-03-06T10:35:29Z</time>
      </trkpt>
      <trkpt lat="48.92436" lon="-0.4438">
        <ele>245</ele>
        <time>2011-03-06T10:35:39Z</time>
      </trkpt>
      <trkpt lat="48.92445" lon="-0.44382">
        <ele>245</ele>
        <time>2011-03-06T10:35:46Z</time>
      </trkpt>
      <trkpt lat="48.92454" lon="-0.44379">
        <ele>245</ele>
        <time>2011-03-06T10:35:58Z</time>
      </trkpt>
      <trkpt lat="48.9246" lon="-0.44389">
        <ele>245</ele>
        <time>2011-03-06T10:36:32Z</time>
      </trkpt>
      <trkpt lat="48.9246" lon="-0.44404">
        <ele>245</ele>
        <time>2011-03-06T10:36:49Z</time>
      </trkpt>
      <trkpt lat="48.92467" lon="-0.44415">
        <ele>245</ele>
        <time>2011-03-06T10:37:04Z</time>
      </trkpt>
      <trkpt lat="48.92476" lon="-0.4442">
        <ele>240</ele>
        <time>2011-03-06T10:37:55Z</time>
      </trkpt>
      <trkpt lat="48.92483" lon="-0.44429">
        <ele>240</ele>
        <time>2011-03-06T10:38:23Z</time>
      </trkpt>
      <trkpt lat="48.92491" lon="-0.44436">
        <ele>240</ele>
        <time>2011-03-06T10:38:46Z</time>
      </trkpt>
      <trkpt lat="48.92498" lon="-0.44446">
        <ele>240</ele>
        <time>2011-03-06T10:38:58Z</time>
      </trkpt>
      <trkpt lat="48.92503" lon="-0.44459">
        <ele>234</ele>
        <time>2011-03-06T10:39:10Z</time>
      </trkpt>
      <trkpt lat="48.9251" lon="-0.44468">
        <ele>234</ele>
        <time>2011-03-06T10:39:20Z</time>
      </trkpt>
      <trkpt lat="48.92519" lon="-0.44472">
        <ele>234</ele>
        <time>2011-03-06T10:39:28Z</time>
      </trkpt>
      <trkpt lat="48.92528" lon="-0.44476">
        <ele>234</ele>
        <time>2011-03-06T10:39:36Z</time>
      </trkpt>
      <trkpt lat="48.92536" lon="-0.44482">
        <ele>229</ele>
        <time>2011-03-06T10:39:43Z</time>
      </trkpt>
      <trkpt lat="48.92545" lon="-0.44487">
        <ele>229</ele>
        <time>2011-03-06T10:39:50Z</time>
      </trkpt>
      <trkpt lat="48.92554" lon="-0.44493">
        <ele>229</ele>
        <time>2011-03-06T10:39:57Z</time>
      </trkpt>
      <trkpt lat="48.92563" lon="-0.44499">
        <ele>229</ele>
        <time>2011-03-06T10:40:04Z</time>
      </trkpt>
      <trkpt lat="48.92571" lon="-0.44506">
        <ele>229</ele>
        <time>2011-03-06T10:40:11Z</time>
      </trkpt>
      <trkpt lat="48.92577" lon="-0.44517">
        <ele>229</ele>
        <time>2011-03-06T10:40:24Z</time>
      </trkpt>
      <trkpt lat="48.92584" lon="-0.44528">
        <ele>229</ele>
        <time>2011-03-06T10:40:34Z</time>
      </trkpt>
      <trkpt lat="48.9259" lon="-0.44539">
        <ele>229</ele>
        <time>2011-03-06T10:40:43Z</time>
      </trkpt>
      <trkpt lat="48.92594" lon="-0.44551">
        <ele>229</ele>
        <time>2011-03-06T10:41:00Z</time>
      </trkpt>
      <trkpt lat="48.926" lon="-0.44561">
        <ele>229</ele>
        <time>2011-03-06T10:41:09Z</time>
      </trkpt>
      <trkpt lat="48.92608" lon="-0.44572">
        <ele>229</ele>
        <time>2011-03-06T10:41:19Z</time>
      </trkpt>
      <trkpt lat="48.92616" lon="-0.44579">
        <ele>229</ele>
        <time>2011-03-06T10:41:34Z</time>
      </trkpt>
      <trkpt lat="48.92625" lon="-0.44582">
        <ele>229</ele>
        <time>2011-03-06T10:41:46Z</time>
      </trkpt>
      <trkpt lat="48.92634" lon="-0.44589">
        <ele>229</ele>
        <time>2011-03-06T10:41:56Z</time>
      </trkpt>
      <trkpt lat="48.92642" lon="-0.44595">
        <ele>229</ele>
        <time>2011-03-06T10:42:05Z</time>
      </trkpt>
      <trkpt lat="48.92651" lon="-0.44599">
        <ele>229</ele>
        <time>2011-03-06T10:42:13Z</time>
      </trkpt>
      <trkpt lat="48.9266" lon="-0.44603">
        <ele>229</ele>
        <time>2011-03-06T10:42:21Z</time>
      </trkpt>
      <trkpt lat="48.92669" lon="-0.44602">
        <ele>229</ele>
        <time>2011-03-06T10:42:30Z</time>
      </trkpt>
      <trkpt lat="48.92679" lon="-0.44606">
        <ele>229</ele>
        <time>2011-03-06T10:42:38Z</time>
      </trkpt>
      <trkpt lat="48.92687" lon="-0.44609">
        <ele>224</ele>
        <time>2011-03-06T10:42:46Z</time>
      </trkpt>
      <trkpt lat="48.92697" lon="-0.44616">
        <ele>224</ele>
        <time>2011-03-06T10:42:53Z</time>
      </trkpt>
      <trkpt lat="48.92705" lon="-0.44623">
        <ele>224</ele>
        <time>2011-03-06T10:43:00Z</time>
      </trkpt>
      <trkpt lat="48.92713" lon="-0.4463">
        <ele>224</ele>
        <time>2011-03-06T10:43:10Z</time>
      </trkpt>
      <trkpt lat="48.92722" lon="-0.44637">
        <ele>224</ele>
        <time>2011-03-06T10:43:18Z</time>
      </trkpt>
      <trkpt lat="48.92731" lon="-0.44642">
        <ele>224</ele>
        <time>2011-03-06T10:43:26Z</time>
      </trkpt>
      <trkpt lat="48.9274" lon="-0.4465">
        <ele>224</ele>
        <time>2011-03-06T10:43:35Z</time>
      </trkpt>
      <trkpt lat="48.92747" lon="-0.44659">
        <ele>224</ele>
        <time>2011-03-06T10:43:44Z</time>
      </trkpt>
      <trkpt lat="48.92754" lon="-0.44667">
        <ele>224</ele>
        <time>2011-03-06T10:43:51Z</time>
      </trkpt>
      <trkpt lat="48.92762" lon="-0.44678">
        <ele>224</ele>
        <time>2011-03-06T10:44:00Z</time>
      </trkpt>
      <trkpt lat="48.92769" lon="-0.44688">
        <ele>224</ele>
        <time>2011-03-06T10:44:08Z</time>
      </trkpt>
      <trkpt lat="48.92776" lon="-0.44697">
        <ele>224</ele>
        <time>2011-03-06T10:44:16Z</time>
      </trkpt>
      <trkpt lat="48.92784" lon="-0.44703">
        <ele>224</ele>
        <time>2011-03-06T10:44:23Z</time>
      </trkpt>
      <trkpt lat="48.92793" lon="-0.44709">
        <ele>224</ele>
        <time>2011-03-06T10:44:31Z</time>
      </trkpt>
      <trkpt lat="48.92802" lon="-0.44715">
        <ele>224</ele>
        <time>2011-03-06T10:44:39Z</time>
      </trkpt>
      <trkpt lat="48.92811" lon="-0.4472">
        <ele>224</ele>
        <time>2011-03-06T10:44:46Z</time>
      </trkpt>
      <trkpt lat="48.92818" lon="-0.44728">
        <ele>224</ele>
        <time>2011-03-06T10:44:54Z</time>
      </trkpt>
      <trkpt lat="48.92827" lon="-0.44733">
        <ele>224</ele>
        <time>2011-03-06T10:45:02Z</time>
      </trkpt>
      <trkpt lat="48.92835" lon="-0.44742">
        <ele>224</ele>
        <time>2011-03-06T10:45:14Z</time>
      </trkpt>
      <trkpt lat="48.92844" lon="-0.44747">
        <ele>224</ele>
        <time>2011-03-06T10:45:22Z</time>
      </trkpt>
      <trkpt lat="48.92851" lon="-0.44756">
        <ele>224</ele>
        <time>2011-03-06T10:45:30Z</time>
      </trkpt>
      <trkpt lat="48.9286" lon="-0.44761">
        <ele>224</ele>
        <time>2011-03-06T10:45:37Z</time>
      </trkpt>
      <trkpt lat="48.9287" lon="-0.44768">
        <ele>224</ele>
        <time>2011-03-06T10:45:45Z</time>
      </trkpt>
      <trkpt lat="48.92878" lon="-0.44775">
        <ele>224</ele>
        <time>2011-03-06T10:45:53Z</time>
      </trkpt>
      <trkpt lat="48.92886" lon="-0.44783">
        <ele>224</ele>
        <time>2011-03-06T10:46:01Z</time>
      </trkpt>
      <trkpt lat="48.92893" lon="-0.44792">
        <ele>224</ele>
        <time>2011-03-06T10:46:09Z</time>
      </trkpt>
      <trkpt lat="48.92902" lon="-0.44801">
        <ele>224</ele>
        <time>2011-03-06T10:46:18Z</time>
      </trkpt>
      <trkpt lat="48.92911" lon="-0.4481">
        <ele>230</ele>
        <time>2011-03-06T10:46:26Z</time>
      </trkpt>
      <trkpt lat="48.92918" lon="-0.44818">
        <ele>230</ele>
        <time>2011-03-06T10:46:34Z</time>
      </trkpt>
      <trkpt lat="48.92925" lon="-0.44827">
        <ele>230</ele>
        <time>2011-03-06T10:46:42Z</time>
      </trkpt>
      <trkpt lat="48.92934" lon="-0.44836">
        <ele>230</ele>
        <time>2011-03-06T10:46:50Z</time>
      </trkpt>
      <trkpt lat="48.9294" lon="-0.44847">
        <ele>230</ele>
        <time>2011-03-06T10:46:58Z</time>
      </trkpt>
      <trkpt lat="48.92948" lon="-0.44856">
        <ele>230</ele>
        <time>2011-03-06T10:47:06Z</time>
      </trkpt>
      <trkpt lat="48.92956" lon="-0.44865">
        <ele>230</ele>
        <time>2011-03-06T10:47:13Z</time>
      </trkpt>
      <trkpt lat="48.92963" lon="-0.44874">
        <ele>230</ele>
        <time>2011-03-06T10:47:21Z</time>
      </trkpt>
      <trkpt lat="48.92971" lon="-0.44883">
        <ele>230</ele>
        <time>2011-03-06T10:47:28Z</time>
      </trkpt>
      <trkpt lat="48.92977" lon="-0.44892">
        <ele>230</ele>
        <time>2011-03-06T10:47:36Z</time>
      </trkpt>
      <trkpt lat="48.92985" lon="-0.44901">
        <ele>230</ele>
        <time>2011-03-06T10:47:44Z</time>
      </trkpt>
      <trkpt lat="48.92993" lon="-0.44908">
        <ele>230</ele>
        <time>2011-03-06T10:47:53Z</time>
      </trkpt>
      <trkpt lat="48.93002" lon="-0.44912">
        <ele>230</ele>
        <time>2011-03-06T10:48:01Z</time>
      </trkpt>
      <trkpt lat="48.93009" lon="-0.44921">
        <ele>230</ele>
        <time>2011-03-06T10:48:09Z</time>
      </trkpt>
      <trkpt lat="48.93018" lon="-0.44928">
        <ele>230</ele>
        <time>2011-03-06T10:48:17Z</time>
      </trkpt>
      <trkpt lat="48.93025" lon="-0.44939">
        <ele>230</ele>
        <time>2011-03-06T10:48:25Z</time>
      </trkpt>
      <trkpt lat="48.93031" lon="-0.44949">
        <ele>230</ele>
        <time>2011-03-06T10:48:32Z</time>
      </trkpt>
      <trkpt lat="48.93039" lon="-0.44958">
        <ele>230</ele>
        <time>2011-03-06T10:48:40Z</time>
      </trkpt>
      <trkpt lat="48.93047" lon="-0.44968">
        <ele>230</ele>
        <time>2011-03-06T10:48:49Z</time>
      </trkpt>
      <trkpt lat="48.93054" lon="-0.44978">
        <ele>230</ele>
        <time>2011-03-06T10:48:57Z</time>
      </trkpt>
      <trkpt lat="48.93063" lon="-0.44984">
        <ele>230</ele>
        <time>2011-03-06T10:49:05Z</time>
      </trkpt>
      <trkpt lat="48.93072" lon="-0.44989">
        <ele>230</ele>
        <time>2011-03-06T10:49:13Z</time>
      </trkpt>
      <trkpt lat="48.93081" lon="-0.44993">
        <ele>230</ele>
        <time>2011-03-06T10:49:22Z</time>
      </trkpt>
      <trkpt lat="48.9309" lon="-0.44997">
        <ele>230</ele>
        <time>2011-03-06T10:49:30Z</time>
      </trkpt>
      <trkpt lat="48.93099" lon="-0.45001">
        <ele>230</ele>
        <time>2011-03-06T10:49:38Z</time>
      </trkpt>
      <trkpt lat="48.93108" lon="-0.45009">
        <ele>230</ele>
        <time>2011-03-06T10:49:46Z</time>
      </trkpt>
      <trkpt lat="48.93114" lon="-0.45019">
        <ele>230</ele>
        <time>2011-03-06T10:49:54Z</time>
      </trkpt>
      <trkpt lat="48.93121" lon="-0.4503">
        <ele>230</ele>
        <time>2011-03-06T10:50:02Z</time>
      </trkpt>
      <trkpt lat="48.93128" lon="-0.4504">
        <ele>230</ele>
        <time>2011-03-06T10:50:10Z</time>
      </trkpt>
      <trkpt lat="48.93137" lon="-0.4505">
        <ele>230</ele>
        <time>2011-03-06T10:50:19Z</time>
      </trkpt>
      <trkpt lat="48.93144" lon="-0.45058">
        <ele>236</ele>
        <time>2011-03-06T10:50:26Z</time>
      </trkpt>
      <trkpt lat="48.93151" lon="-0.45068">
        <ele>236</ele>
        <time>2011-03-06T10:50:34Z</time>
      </trkpt>
      <trkpt lat="48.93157" lon="-0.45078">
        <ele>236</ele>
        <time>2011-03-06T10:50:42Z</time>
      </trkpt>
      <trkpt lat="48.93166" lon="-0.45088">
        <ele>236</ele>
        <time>2011-03-06T10:50:51Z</time>
      </trkpt>
      <trkpt lat="48.93173" lon="-0.45097">
        <ele>236</ele>
        <time>2011-03-06T10:50:59Z</time>
      </trkpt>
      <trkpt lat="48.9318" lon="-0.45107">
        <ele>236</ele>
        <time>2011-03-06T10:51:07Z</time>
      </trkpt>
      <trkpt lat="48.93188" lon="-0.45116">
        <ele>236</ele>
        <time>2011-03-06T10:51:14Z</time>
      </trkpt>
      <trkpt lat="48.93195" lon="-0.45126">
        <ele>236</ele>
        <time>2011-03-06T10:51:22Z</time>
      </trkpt>
      <trkpt lat="48.93202" lon="-0.45135">
        <ele>236</ele>
        <time>2011-03-06T10:51:29Z</time>
      </trkpt>
      <trkpt lat="48.93208" lon="-0.45145">
        <ele>236</ele>
        <time>2011-03-06T10:51:37Z</time>
      </trkpt>
      <trkpt lat="48.93215" lon="-0.45155">
        <ele>236</ele>
        <time>2011-03-06T10:51:45Z</time>
      </trkpt>
      <trkpt lat="48.93222" lon="-0.45165">
        <ele>236</ele>
        <time>2011-03-06T10:51:53Z</time>
      </trkpt>
      <trkpt lat="48.9323" lon="-0.45173">
        <ele>236</ele>
        <time>2011-03-06T10:52:01Z</time>
      </trkpt>
      <trkpt lat="48.93238" lon="-0.45179">
        <ele>236</ele>
        <time>2011-03-06T10:52:10Z</time>
      </trkpt>
      <trkpt lat="48.93247" lon="-0.45185">
        <ele>236</ele>
        <time>2011-03-06T10:52:18Z</time>
      </trkpt>
      <trkpt lat="48.93255" lon="-0.45192">
        <ele>236</ele>
        <time>2011-03-06T10:52:26Z</time>
      </trkpt>
      <trkpt lat="48.93264" lon="-0.45197">
        <ele>236</ele>
        <time>2011-03-06T10:52:35Z</time>
      </trkpt>
      <trkpt lat="48.93273" lon="-0.45203">
        <ele>230</ele>
        <time>2011-03-06T10:52:44Z</time>
      </trkpt>
      <trkpt lat="48.93282" lon="-0.4521">
        <ele>230</ele>
        <time>2011-03-06T10:52:52Z</time>
      </trkpt>
      <trkpt lat="48.93291" lon="-0.45215">
        <ele>230</ele>
        <time>2011-03-06T10:53:01Z</time>
      </trkpt>
      <trkpt lat="48.933" lon="-0.4522">
        <ele>230</ele>
        <time>2011-03-06T10:53:09Z</time>
      </trkpt>
      <trkpt lat="48.93309" lon="-0.45221">
        <ele>236</ele>
        <time>2011-03-06T10:53:17Z</time>
      </trkpt>
      <trkpt lat="48.93319" lon="-0.45219">
        <ele>236</ele>
        <time>2011-03-06T10:53:27Z</time>
      </trkpt>
      <trkpt lat="48.93328" lon="-0.45215">
        <ele>236</ele>
        <time>2011-03-06T10:53:35Z</time>
      </trkpt>
      <trkpt lat="48.93337" lon="-0.4521">
        <ele>236</ele>
        <time>2011-03-06T10:53:43Z</time>
      </trkpt>
      <trkpt lat="48.93346" lon="-0.45206">
        <ele>236</ele>
        <time>2011-03-06T10:53:52Z</time>
      </trkpt>
      <trkpt lat="48.93355" lon="-0.45201">
        <ele>236</ele>
        <time>2011-03-06T10:54:00Z</time>
      </trkpt>
      <trkpt lat="48.93362" lon="-0.45191">
        <ele>236</ele>
        <time>2011-03-06T10:54:26Z</time>
      </trkpt>
      <trkpt lat="48.9337" lon="-0.45184">
        <ele>236</ele>
        <time>2011-03-06T10:54:34Z</time>
      </trkpt>
      <trkpt lat="48.9338" lon="-0.45182">
        <ele>236</ele>
        <time>2011-03-06T10:54:43Z</time>
      </trkpt>
      <trkpt lat="48.93389" lon="-0.45178">
        <ele>236</ele>
        <time>2011-03-06T10:54:50Z</time>
      </trkpt>
      <trkpt lat="48.93399" lon="-0.45173">
        <ele>236</ele>
        <time>2011-03-06T10:54:59Z</time>
      </trkpt>
      <trkpt lat="48.93408" lon="-0.45168">
        <ele>236</ele>
        <time>2011-03-06T10:55:06Z</time>
      </trkpt>
      <trkpt lat="48.93417" lon="-0.45165">
        <ele>227</ele>
        <time>2011-03-06T10:55:14Z</time>
      </trkpt>
      <trkpt lat="48.93427" lon="-0.45164">
        <ele>227</ele>
        <time>2011-03-06T10:55:22Z</time>
      </trkpt>
      <trkpt lat="48.93436" lon="-0.45162">
        <ele>227</ele>
        <time>2011-03-06T10:55:30Z</time>
      </trkpt>
      <trkpt lat="48.93446" lon="-0.4516">
        <ele>227</ele>
        <time>2011-03-06T10:55:37Z</time>
      </trkpt>
      <trkpt lat="48.93455" lon="-0.45157">
        <ele>227</ele>
        <time>2011-03-06T10:55:45Z</time>
      </trkpt>
      <trkpt lat="48.93465" lon="-0.45156">
        <ele>227</ele>
        <time>2011-03-06T10:55:52Z</time>
      </trkpt>
      <trkpt lat="48.93475" lon="-0.45156">
        <ele>221</ele>
        <time>2011-03-06T10:56:00Z</time>
      </trkpt>
      <trkpt lat="48.93484" lon="-0.45155">
        <ele>221</ele>
        <time>2011-03-06T10:56:08Z</time>
      </trkpt>
      <trkpt lat="48.93494" lon="-0.45155">
        <ele>221</ele>
        <time>2011-03-06T10:56:16Z</time>
      </trkpt>
      <trkpt lat="48.93504" lon="-0.45155">
        <ele>221</ele>
        <time>2011-03-06T10:56:25Z</time>
      </trkpt>
      <trkpt lat="48.93514" lon="-0.45155">
        <ele>221</ele>
        <time>2011-03-06T10:56:34Z</time>
      </trkpt>
      <trkpt lat="48.93524" lon="-0.45153">
        <ele>221</ele>
        <time>2011-03-06T10:56:43Z</time>
      </trkpt>
      <trkpt lat="48.93533" lon="-0.45153">
        <ele>221</ele>
        <time>2011-03-06T10:56:51Z</time>
      </trkpt>
      <trkpt lat="48.93543" lon="-0.45152">
        <ele>215</ele>
        <time>2011-03-06T10:56:59Z</time>
      </trkpt>
      <trkpt lat="48.93552" lon="-0.4515">
        <ele>215</ele>
        <time>2011-03-06T10:57:07Z</time>
      </trkpt>
      <trkpt lat="48.93562" lon="-0.45149">
        <ele>215</ele>
        <time>2011-03-06T10:57:16Z</time>
      </trkpt>
      <trkpt lat="48.93572" lon="-0.45147">
        <ele>215</ele>
        <time>2011-03-06T10:57:25Z</time>
      </trkpt>
      <trkpt lat="48.93582" lon="-0.45144">
        <ele>215</ele>
        <time>2011-03-06T10:57:34Z</time>
      </trkpt>
      <trkpt lat="48.93591" lon="-0.45142">
        <ele>215</ele>
        <time>2011-03-06T10:57:43Z</time>
      </trkpt>
      <trkpt lat="48.93601" lon="-0.45138">
        <ele>210</ele>
        <time>2011-03-06T10:57:52Z</time>
      </trkpt>
      <trkpt lat="48.9361" lon="-0.45133">
        <ele>210</ele>
        <time>2011-03-06T10:58:01Z</time>
      </trkpt>
      <trkpt lat="48.9362" lon="-0.45131">
        <ele>210</ele>
        <time>2011-03-06T10:58:10Z</time>
      </trkpt>
      <trkpt lat="48.93628" lon="-0.45127">
        <ele>210</ele>
        <time>2011-03-06T10:58:19Z</time>
      </trkpt>
      <trkpt lat="48.93637" lon="-0.45118">
        <ele>210</ele>
        <time>2011-03-06T10:58:28Z</time>
      </trkpt>
      <trkpt lat="48.93644" lon="-0.45109">
        <ele>210</ele>
        <time>2011-03-06T10:58:37Z</time>
      </trkpt>
      <trkpt lat="48.93647" lon="-0.45095">
        <ele>210</ele>
        <time>2011-03-06T10:58:44Z</time>
      </trkpt>
      <trkpt lat="48.93654" lon="-0.45084">
        <ele>210</ele>
        <time>2011-03-06T10:58:53Z</time>
      </trkpt>
      <trkpt lat="48.93663" lon="-0.45077">
        <ele>202</ele>
        <time>2011-03-06T10:59:03Z</time>
      </trkpt>
      <trkpt lat="48.93672" lon="-0.45071">
        <ele>202</ele>
        <time>2011-03-06T10:59:12Z</time>
      </trkpt>
      <trkpt lat="48.93679" lon="-0.45063">
        <ele>202</ele>
        <time>2011-03-06T10:59:22Z</time>
      </trkpt>
      <trkpt lat="48.93688" lon="-0.45056">
        <ele>197</ele>
        <time>2011-03-06T10:59:30Z</time>
      </trkpt>
      <trkpt lat="48.93696" lon="-0.4505">
        <ele>197</ele>
        <time>2011-03-06T10:59:39Z</time>
      </trkpt>
      <trkpt lat="48.93705" lon="-0.45042">
        <ele>197</ele>
        <time>2011-03-06T10:59:48Z</time>
      </trkpt>
      <trkpt lat="48.93711" lon="-0.45033">
        <ele>197</ele>
        <time>2011-03-06T10:59:56Z</time>
      </trkpt>
      <trkpt lat="48.9372" lon="-0.45025">
        <ele>190</ele>
        <time>2011-03-06T11:00:07Z</time>
      </trkpt>
      <trkpt lat="48.93728" lon="-0.45016">
        <ele>190</ele>
        <time>2011-03-06T11:00:16Z</time>
      </trkpt>
      <trkpt lat="48.93734" lon="-0.45007">
        <ele>190</ele>
        <time>2011-03-06T11:00:23Z</time>
      </trkpt>
      <trkpt lat="48.93743" lon="-0.4501">
        <ele>190</ele>
        <time>2011-03-06T11:00:38Z</time>
      </trkpt>
      <trkpt lat="48.93742" lon="-0.45025">
        <ele>190</ele>
        <time>2011-03-06T11:00:47Z</time>
      </trkpt>
      <trkpt lat="48.93738" lon="-0.45038">
        <ele>185</ele>
        <time>2011-03-06T11:00:58Z</time>
      </trkpt>
      <trkpt lat="48.93746" lon="-0.45047">
        <ele>185</ele>
        <time>2011-03-06T11:01:13Z</time>
      </trkpt>
      <trkpt lat="48.93751" lon="-0.4506">
        <ele>178</ele>
        <time>2011-03-06T11:01:23Z</time>
      </trkpt>
      <trkpt lat="48.93756" lon="-0.45072">
        <ele>178</ele>
        <time>2011-03-06T11:01:35Z</time>
      </trkpt>
      <trkpt lat="48.93763" lon="-0.45084">
        <ele>178</ele>
        <time>2011-03-06T11:01:43Z</time>
      </trkpt>
      <trkpt lat="48.93769" lon="-0.45095">
        <ele>178</ele>
        <time>2011-03-06T11:01:52Z</time>
      </trkpt>
      <trkpt lat="48.93778" lon="-0.45096">
        <ele>178</ele>
        <time>2011-03-06T11:02:06Z</time>
      </trkpt>
      <trkpt lat="48.93788" lon="-0.45099">
        <ele>178</ele>
        <time>2011-03-06T11:02:19Z</time>
      </trkpt>
      <trkpt lat="48.93797" lon="-0.45099">
        <ele>167</ele>
        <time>2011-03-06T11:02:30Z</time>
      </trkpt>
      <trkpt lat="48.93807" lon="-0.45101">
        <ele>167</ele>
        <time>2011-03-06T11:02:39Z</time>
      </trkpt>
      <trkpt lat="48.93816" lon="-0.45109">
        <ele>174</ele>
        <time>2011-03-06T11:02:47Z</time>
      </trkpt>
      <trkpt lat="48.93822" lon="-0.4512">
        <ele>174</ele>
        <time>2011-03-06T11:02:56Z</time>
      </trkpt>
      <trkpt lat="48.93826" lon="-0.45134">
        <ele>174</ele>
        <time>2011-03-06T11:03:05Z</time>
      </trkpt>
      <trkpt lat="48.93833" lon="-0.45144">
        <ele>174</ele>
        <time>2011-03-06T11:03:13Z</time>
      </trkpt>
      <trkpt lat="48.93837" lon="-0.45157">
        <ele>167</ele>
        <time>2011-03-06T11:03:24Z</time>
      </trkpt>
      <trkpt lat="48.93844" lon="-0.45167">
        <ele>167</ele>
        <time>2011-03-06T11:03:33Z</time>
      </trkpt>
      <trkpt lat="48.93849" lon="-0.4518">
        <ele>167</ele>
        <time>2011-03-06T11:03:41Z</time>
      </trkpt>
      <trkpt lat="48.93853" lon="-0.45192">
        <ele>167</ele>
        <time>2011-03-06T11:03:50Z</time>
      </trkpt>
      <trkpt lat="48.93859" lon="-0.45206">
        <ele>162</ele>
        <time>2011-03-06T11:04:00Z</time>
      </trkpt>
      <trkpt lat="48.93861" lon="-0.4522">
        <ele>162</ele>
        <time>2011-03-06T11:04:08Z</time>
      </trkpt>
      <trkpt lat="48.9386" lon="-0.45236">
        <ele>162</ele>
        <time>2011-03-06T11:04:19Z</time>
      </trkpt>
      <trkpt lat="48.93863" lon="-0.45249">
        <ele>162</ele>
        <time>2011-03-06T11:04:29Z</time>
      </trkpt>
      <trkpt lat="48.93865" lon="-0.45263">
        <ele>174</ele>
        <time>2011-03-06T11:04:38Z</time>
      </trkpt>
      <trkpt lat="48.93865" lon="-0.45263">
        <ele>175</ele>
        <time>2011-03-06T11:06:01Z</time>
      </trkpt>
      <trkpt lat="48.93869" lon="-0.45277">
        <ele>168</ele>
        <time>2011-03-06T11:06:09Z</time>
      </trkpt>
      <trkpt lat="48.93874" lon="-0.4529">
        <ele>168</ele>
        <time>2011-03-06T11:06:16Z</time>
      </trkpt>
      <trkpt lat="48.93879" lon="-0.45304">
        <ele>168</ele>
        <time>2011-03-06T11:06:23Z</time>
      </trkpt>
      <trkpt lat="48.93884" lon="-0.45318">
        <ele>168</ele>
        <time>2011-03-06T11:06:31Z</time>
      </trkpt>
      <trkpt lat="48.9389" lon="-0.45332">
        <ele>168</ele>
        <time>2011-03-06T11:06:38Z</time>
      </trkpt>
      <trkpt lat="48.93895" lon="-0.45345">
        <ele>168</ele>
        <time>2011-03-06T11:06:46Z</time>
      </trkpt>
      <trkpt lat="48.93901" lon="-0.45358">
        <ele>168</ele>
        <time>2011-03-06T11:06:53Z</time>
      </trkpt>
      <trkpt lat="48.93905" lon="-0.45372">
        <ele>168</ele>
        <time>2011-03-06T11:07:01Z</time>
      </trkpt>
      <trkpt lat="48.9391" lon="-0.45385">
        <ele>168</ele>
        <time>2011-03-06T11:07:09Z</time>
      </trkpt>
      <trkpt lat="48.93914" lon="-0.45397">
        <ele>168</ele>
        <time>2011-03-06T11:07:24Z</time>
      </trkpt>
      <trkpt lat="48.9392" lon="-0.4541">
        <ele>162</ele>
        <time>2011-03-06T11:07:33Z</time>
      </trkpt>
      <trkpt lat="48.93925" lon="-0.45422">
        <ele>162</ele>
        <time>2011-03-06T11:07:40Z</time>
      </trkpt>
      <trkpt lat="48.93931" lon="-0.45432">
        <ele>162</ele>
        <time>2011-03-06T11:07:47Z</time>
      </trkpt>
      <trkpt lat="48.93937" lon="-0.45446">
        <ele>162</ele>
        <time>2011-03-06T11:07:54Z</time>
      </trkpt>
      <trkpt lat="48.93943" lon="-0.45457">
        <ele>162</ele>
        <time>2011-03-06T11:08:01Z</time>
      </trkpt>
      <trkpt lat="48.93949" lon="-0.45468">
        <ele>162</ele>
        <time>2011-03-06T11:08:08Z</time>
      </trkpt>
      <trkpt lat="48.93955" lon="-0.4548">
        <ele>162</ele>
        <time>2011-03-06T11:08:16Z</time>
      </trkpt>
      <trkpt lat="48.93962" lon="-0.4549">
        <ele>162</ele>
        <time>2011-03-06T11:08:23Z</time>
      </trkpt>
      <trkpt lat="48.93968" lon="-0.45502">
        <ele>162</ele>
        <time>2011-03-06T11:08:31Z</time>
      </trkpt>
      <trkpt lat="48.93974" lon="-0.45515">
        <ele>162</ele>
        <time>2011-03-06T11:08:40Z</time>
      </trkpt>
      <trkpt lat="48.9398" lon="-0.45526">
        <ele>155</ele>
        <time>2011-03-06T11:08:49Z</time>
      </trkpt>
      <trkpt lat="48.93986" lon="-0.45537">
        <ele>155</ele>
        <time>2011-03-06T11:08:57Z</time>
      </trkpt>
      <trkpt lat="48.93992" lon="-0.45548">
        <ele>155</ele>
        <time>2011-03-06T11:09:05Z</time>
      </trkpt>
      <trkpt lat="48.93999" lon="-0.45559">
        <ele>149</ele>
        <time>2011-03-06T11:09:13Z</time>
      </trkpt>
      <trkpt lat="48.94006" lon="-0.45568">
        <ele>149</ele>
        <time>2011-03-06T11:09:19Z</time>
      </trkpt>
      <trkpt lat="48.94012" lon="-0.4558">
        <ele>149</ele>
        <time>2011-03-06T11:09:27Z</time>
      </trkpt>
      <trkpt lat="48.94017" lon="-0.45592">
        <ele>149</ele>
        <time>2011-03-06T11:09:37Z</time>
      </trkpt>
      <trkpt lat="48.94023" lon="-0.45604">
        <ele>139</ele>
        <time>2011-03-06T11:09:47Z</time>
      </trkpt>
      <trkpt lat="48.9403" lon="-0.45615">
        <ele>139</ele>
        <time>2011-03-06T11:09:55Z</time>
      </trkpt>
      <trkpt lat="48.94037" lon="-0.45626">
        <ele>139</ele>
        <time>2011-03-06T11:10:03Z</time>
      </trkpt>
      <trkpt lat="48.94045" lon="-0.45637">
        <ele>139</ele>
        <time>2011-03-06T11:10:11Z</time>
      </trkpt>
      <trkpt lat="48.9405" lon="-0.45648">
        <ele>139</ele>
        <time>2011-03-06T11:10:19Z</time>
      </trkpt>
      <trkpt lat="48.94057" lon="-0.45658">
        <ele>139</ele>
        <time>2011-03-06T11:10:26Z</time>
      </trkpt>
      <trkpt lat="48.94063" lon="-0.4567">
        <ele>139</ele>
        <time>2011-03-06T11:10:35Z</time>
      </trkpt>
      <trkpt lat="48.94069" lon="-0.4566">
        <ele>139</ele>
        <time>2011-03-06T11:10:53Z</time>
      </trkpt>
      <trkpt lat="48.94067" lon="-0.45646">
        <ele>139</ele>
        <time>2011-03-06T11:11:04Z</time>
      </trkpt>
      <trkpt lat="48.94063" lon="-0.45633">
        <ele>139</ele>
        <time>2011-03-06T11:11:13Z</time>
      </trkpt>
      <trkpt lat="48.94059" lon="-0.45619">
        <ele>134</ele>
        <time>2011-03-06T11:11:20Z</time>
      </trkpt>
      <trkpt lat="48.94057" lon="-0.45606">
        <ele>134</ele>
        <time>2011-03-06T11:11:30Z</time>
      </trkpt>
      <trkpt lat="48.94054" lon="-0.45592">
        <ele>134</ele>
        <time>2011-03-06T11:11:38Z</time>
      </trkpt>
      <trkpt lat="48.94052" lon="-0.45578">
        <ele>134</ele>
        <time>2011-03-06T11:11:44Z</time>
      </trkpt>
      <trkpt lat="48.9405" lon="-0.45563">
        <ele>134</ele>
        <time>2011-03-06T11:11:53Z</time>
      </trkpt>
      <trkpt lat="48.94047" lon="-0.45548">
        <ele>134</ele>
        <time>2011-03-06T11:12:02Z</time>
      </trkpt>
      <trkpt lat="48.94045" lon="-0.45533">
        <ele>134</ele>
        <time>2011-03-06T11:12:12Z</time>
      </trkpt>
      <trkpt lat="48.94043" lon="-0.45517">
        <ele>134</ele>
        <time>2011-03-06T11:12:22Z</time>
      </trkpt>
      <trkpt lat="48.9404" lon="-0.45502">
        <ele>134</ele>
        <time>2011-03-06T11:12:29Z</time>
      </trkpt>
      <trkpt lat="48.94037" lon="-0.45488">
        <ele>134</ele>
        <time>2011-03-06T11:12:40Z</time>
      </trkpt>
      <trkpt lat="48.94033" lon="-0.45474">
        <ele>125</ele>
        <time>2011-03-06T11:12:51Z</time>
      </trkpt>
      <trkpt lat="48.9403" lon="-0.45458">
        <ele>125</ele>
        <time>2011-03-06T11:12:58Z</time>
      </trkpt>
      <trkpt lat="48.94026" lon="-0.45444">
        <ele>113</ele>
        <time>2011-03-06T11:13:08Z</time>
      </trkpt>
      <trkpt lat="48.94026" lon="-0.4543">
        <ele>113</ele>
        <time>2011-03-06T11:13:16Z</time>
      </trkpt>
      <trkpt lat="48.94027" lon="-0.45414">
        <ele>113</ele>
        <time>2011-03-06T11:13:25Z</time>
      </trkpt>
      <trkpt lat="48.94035" lon="-0.45422">
        <ele>113</ele>
        <time>2011-03-06T11:13:47Z</time>
      </trkpt>
      <trkpt lat="48.94039" lon="-0.45436">
        <ele>104</ele>
        <time>2011-03-06T11:13:55Z</time>
      </trkpt>
      <trkpt lat="48.94043" lon="-0.45449">
        <ele>104</ele>
        <time>2011-03-06T11:14:05Z</time>
      </trkpt>
      <trkpt lat="48.94047" lon="-0.45462">
        <ele>104</ele>
        <time>2011-03-06T11:14:16Z</time>
      </trkpt>
      <trkpt lat="48.94053" lon="-0.45474">
        <ele>104</ele>
        <time>2011-03-06T11:14:25Z</time>
      </trkpt>
      <trkpt lat="48.94058" lon="-0.45487">
        <ele>104</ele>
        <time>2011-03-06T11:14:32Z</time>
      </trkpt>
      <trkpt lat="48.94065" lon="-0.45498">
        <ele>104</ele>
        <time>2011-03-06T11:14:39Z</time>
      </trkpt>
      <trkpt lat="48.94069" lon="-0.45511">
        <ele>104</ele>
        <time>2011-03-06T11:14:47Z</time>
      </trkpt>
      <trkpt lat="48.94076" lon="-0.4552">
        <ele>104</ele>
        <time>2011-03-06T11:14:54Z</time>
      </trkpt>
      <trkpt lat="48.94081" lon="-0.45534">
        <ele>104</ele>
        <time>2011-03-06T11:15:05Z</time>
      </trkpt>
      <trkpt lat="48.94089" lon="-0.45544">
        <ele>104</ele>
        <time>2011-03-06T11:15:12Z</time>
      </trkpt>
      <trkpt lat="48.94095" lon="-0.45555">
        <ele>104</ele>
        <time>2011-03-06T11:15:19Z</time>
      </trkpt>
      <trkpt lat="48.94101" lon="-0.45567">
        <ele>104</ele>
        <time>2011-03-06T11:15:26Z</time>
      </trkpt>
      <trkpt lat="48.94108" lon="-0.45576">
        <ele>104</ele>
        <time>2011-03-06T11:15:34Z</time>
      </trkpt>
      <trkpt lat="48.94115" lon="-0.45587">
        <ele>104</ele>
        <time>2011-03-06T11:15:42Z</time>
      </trkpt>
      <trkpt lat="48.94121" lon="-0.45598">
        <ele>104</ele>
        <time>2011-03-06T11:15:50Z</time>
      </trkpt>
      <trkpt lat="48.94123" lon="-0.45611">
        <ele>95</ele>
        <time>2011-03-06T11:15:59Z</time>
      </trkpt>
      <trkpt lat="48.94129" lon="-0.45623">
        <ele>95</ele>
        <time>2011-03-06T11:16:08Z</time>
      </trkpt>
      <trkpt lat="48.94136" lon="-0.45635">
        <ele>95</ele>
        <time>2011-03-06T11:16:15Z</time>
      </trkpt>
      <trkpt lat="48.94143" lon="-0.45648">
        <ele>95</ele>
        <time>2011-03-06T11:16:23Z</time>
      </trkpt>
      <trkpt lat="48.9415" lon="-0.45661">
        <ele>95</ele>
        <time>2011-03-06T11:16:32Z</time>
      </trkpt>
      <trkpt lat="48.94156" lon="-0.45672">
        <ele>95</ele>
        <time>2011-03-06T11:16:40Z</time>
      </trkpt>
      <trkpt lat="48.94162" lon="-0.45686">
        <ele>95</ele>
        <time>2011-03-06T11:16:47Z</time>
      </trkpt>
      <trkpt lat="48.94165" lon="-0.45699">
        <ele>95</ele>
        <time>2011-03-06T11:16:55Z</time>
      </trkpt>
      <trkpt lat="48.94171" lon="-0.45711">
        <ele>95</ele>
        <time>2011-03-06T11:17:04Z</time>
      </trkpt>
      <trkpt lat="48.94178" lon="-0.45723">
        <ele>95</ele>
        <time>2011-03-06T11:17:13Z</time>
      </trkpt>
      <trkpt lat="48.94185" lon="-0.45734">
        <ele>95</ele>
        <time>2011-03-06T11:17:20Z</time>
      </trkpt>
      <trkpt lat="48.94193" lon="-0.45743">
        <ele>104</ele>
        <time>2011-03-06T11:17:29Z</time>
      </trkpt>
      <trkpt lat="48.94197" lon="-0.45756">
        <ele>88</ele>
        <time>2011-03-06T11:17:41Z</time>
      </trkpt>
      <trkpt lat="48.94201" lon="-0.45769">
        <ele>88</ele>
        <time>2011-03-06T11:17:49Z</time>
      </trkpt>
      <trkpt lat="48.94206" lon="-0.45783">
        <ele>88</ele>
        <time>2011-03-06T11:17:58Z</time>
      </trkpt>
      <trkpt lat="48.94208" lon="-0.45798">
        <ele>88</ele>
        <time>2011-03-06T11:18:09Z</time>
      </trkpt>
      <trkpt lat="48.94214" lon="-0.4581">
        <ele>88</ele>
        <time>2011-03-06T11:18:15Z</time>
      </trkpt>
      <trkpt lat="48.94215" lon="-0.45824">
        <ele>88</ele>
        <time>2011-03-06T11:18:28Z</time>
      </trkpt>
      <trkpt lat="48.94219" lon="-0.45837">
        <ele>96</ele>
        <time>2011-03-06T11:18:38Z</time>
      </trkpt>
      <trkpt lat="48.94221" lon="-0.45851">
        <ele>96</ele>
        <time>2011-03-06T11:18:48Z</time>
      </trkpt>
      <trkpt lat="48.94226" lon="-0.45863">
        <ele>96</ele>
        <time>2011-03-06T11:18:57Z</time>
      </trkpt>
      <trkpt lat="48.94229" lon="-0.45876">
        <ele>96</ele>
        <time>2011-03-06T11:19:05Z</time>
      </trkpt>
      <trkpt lat="48.94233" lon="-0.45889">
        <ele>96</ele>
        <time>2011-03-06T11:19:12Z</time>
      </trkpt>
      <trkpt lat="48.94234" lon="-0.45904">
        <ele>96</ele>
        <time>2011-03-06T11:19:21Z</time>
      </trkpt>
      <trkpt lat="48.94232" lon="-0.45919">
        <ele>96</ele>
        <time>2011-03-06T11:19:29Z</time>
      </trkpt>
      <trkpt lat="48.9423" lon="-0.45934">
        <ele>102</ele>
        <time>2011-03-06T11:19:40Z</time>
      </trkpt>
      <trkpt lat="48.94226" lon="-0.45947">
        <ele>102</ele>
        <time>2011-03-06T11:19:49Z</time>
      </trkpt>
      <trkpt lat="48.94221" lon="-0.4596">
        <ele>102</ele>
        <time>2011-03-06T11:19:58Z</time>
      </trkpt>
      <trkpt lat="48.94216" lon="-0.45971">
        <ele>102</ele>
        <time>2011-03-06T11:20:06Z</time>
      </trkpt>
      <trkpt lat="48.94215" lon="-0.45986">
        <ele>102</ele>
        <time>2011-03-06T11:20:15Z</time>
      </trkpt>
      <trkpt lat="48.94212" lon="-0.46">
        <ele>97</ele>
        <time>2011-03-06T11:20:24Z</time>
      </trkpt>
      <trkpt lat="48.9421" lon="-0.46016">
        <ele>97</ele>
        <time>2011-03-06T11:20:34Z</time>
      </trkpt>
      <trkpt lat="48.94205" lon="-0.46029">
        <ele>97</ele>
        <time>2011-03-06T11:20:43Z</time>
      </trkpt>
      <trkpt lat="48.94205" lon="-0.46043">
        <ele>97</ele>
        <time>2011-03-06T11:20:52Z</time>
      </trkpt>
      <trkpt lat="48.94202" lon="-0.46058">
        <ele>102</ele>
        <time>2011-03-06T11:21:02Z</time>
      </trkpt>
      <trkpt lat="48.94198" lon="-0.46072">
        <ele>96</ele>
        <time>2011-03-06T11:21:11Z</time>
      </trkpt>
      <trkpt lat="48.94193" lon="-0.46085">
        <ele>90</ele>
        <time>2011-03-06T11:21:20Z</time>
      </trkpt>
      <trkpt lat="48.9419" lon="-0.46099">
        <ele>90</ele>
        <time>2011-03-06T11:21:29Z</time>
      </trkpt>
      <trkpt lat="48.94187" lon="-0.46112">
        <ele>90</ele>
        <time>2011-03-06T11:21:38Z</time>
      </trkpt>
      <trkpt lat="48.94184" lon="-0.46127">
        <ele>84</ele>
        <time>2011-03-06T11:21:47Z</time>
      </trkpt>
      <trkpt lat="48.94182" lon="-0.4614">
        <ele>84</ele>
        <time>2011-03-06T11:21:57Z</time>
      </trkpt>
      <trkpt lat="48.94181" lon="-0.46155">
        <ele>84</ele>
        <time>2011-03-06T11:22:05Z</time>
      </trkpt>
      <trkpt lat="48.9418" lon="-0.4617">
        <ele>84</ele>
        <time>2011-03-06T11:22:14Z</time>
      </trkpt>
      <trkpt lat="48.94179" lon="-0.46184">
        <ele>84</ele>
        <time>2011-03-06T11:22:23Z</time>
      </trkpt>
      <trkpt lat="48.94178" lon="-0.462">
        <ele>84</ele>
        <time>2011-03-06T11:22:32Z</time>
      </trkpt>
      <trkpt lat="48.94174" lon="-0.46214">
        <ele>84</ele>
        <time>2011-03-06T11:22:40Z</time>
      </trkpt>
      <trkpt lat="48.94172" lon="-0.46229">
        <ele>84</ele>
        <time>2011-03-06T11:22:50Z</time>
      </trkpt>
      <trkpt lat="48.94169" lon="-0.46244">
        <ele>84</ele>
        <time>2011-03-06T11:22:58Z</time>
      </trkpt>
      <trkpt lat="48.94166" lon="-0.46257">
        <ele>84</ele>
        <time>2011-03-06T11:23:11Z</time>
      </trkpt>
      <trkpt lat="48.94158" lon="-0.46264">
        <ele>84</ele>
        <time>2011-03-06T11:23:25Z</time>
      </trkpt>
      <trkpt lat="48.9415" lon="-0.46272">
        <ele>84</ele>
        <time>2011-03-06T11:24:06Z</time>
      </trkpt>
      <trkpt lat="48.94144" lon="-0.46284">
        <ele>90</ele>
        <time>2011-03-06T11:24:14Z</time>
      </trkpt>
      <trkpt lat="48.94147" lon="-0.46298">
        <ele>90</ele>
        <time>2011-03-06T11:24:32Z</time>
      </trkpt>
      <trkpt lat="48.9415" lon="-0.46312">
        <ele>90</ele>
        <time>2011-03-06T11:24:45Z</time>
      </trkpt>
      <trkpt lat="48.94153" lon="-0.46332">
        <ele>90</ele>
        <time>2011-03-06T11:25:34Z</time>
      </trkpt>
      <trkpt lat="48.9415" lon="-0.46346">
        <ele>90</ele>
        <time>2011-03-06T11:25:45Z</time>
      </trkpt>
      <trkpt lat="48.9415" lon="-0.4636">
        <ele>90</ele>
        <time>2011-03-06T11:25:55Z</time>
      </trkpt>
      <trkpt lat="48.94147" lon="-0.46378">
        <ele>90</ele>
        <time>2011-03-06T11:26:06Z</time>
      </trkpt>
      <trkpt lat="48.94145" lon="-0.46392">
        <ele>83</ele>
        <time>2011-03-06T11:26:13Z</time>
      </trkpt>
      <trkpt lat="48.94139" lon="-0.46404">
        <ele>83</ele>
        <time>2011-03-06T11:26:24Z</time>
      </trkpt>
      <trkpt lat="48.94142" lon="-0.46418">
        <ele>83</ele>
        <time>2011-03-06T11:26:34Z</time>
      </trkpt>
      <trkpt lat="48.94149" lon="-0.46429">
        <ele>90</ele>
        <time>2011-03-06T11:26:42Z</time>
      </trkpt>
      <trkpt lat="48.94154" lon="-0.46444">
        <ele>90</ele>
        <time>2011-03-06T11:26:51Z</time>
      </trkpt>
      <trkpt lat="48.94158" lon="-0.46456">
        <ele>90</ele>
        <time>2011-03-06T11:26:59Z</time>
      </trkpt>
      <trkpt lat="48.94166" lon="-0.46465">
        <ele>90</ele>
        <time>2011-03-06T11:27:06Z</time>
      </trkpt>
      <trkpt lat="48.94175" lon="-0.46472">
        <ele>90</ele>
        <time>2011-03-06T11:27:17Z</time>
      </trkpt>
      <trkpt lat="48.94184" lon="-0.46475">
        <ele>84</ele>
        <time>2011-03-06T11:27:29Z</time>
      </trkpt>
      <trkpt lat="48.94194" lon="-0.46473">
        <ele>84</ele>
        <time>2011-03-06T11:27:40Z</time>
      </trkpt>
      <trkpt lat="48.94204" lon="-0.46471">
        <ele>84</ele>
        <time>2011-03-06T11:27:52Z</time>
      </trkpt>
      <trkpt lat="48.94213" lon="-0.46471">
        <ele>84</ele>
        <time>2011-03-06T11:28:07Z</time>
      </trkpt>
      <trkpt lat="48.94222" lon="-0.46465">
        <ele>84</ele>
        <time>2011-03-06T11:28:23Z</time>
      </trkpt>
      <trkpt lat="48.9423" lon="-0.46456">
        <ele>77</ele>
        <time>2011-03-06T11:28:36Z</time>
      </trkpt>
      <trkpt lat="48.94233" lon="-0.46442">
        <ele>77</ele>
        <time>2011-03-06T11:28:55Z</time>
      </trkpt>
      <trkpt lat="48.94237" lon="-0.46431">
        <ele>84</ele>
        <time>2011-03-06T11:31:09Z</time>
      </trkpt>
      <trkpt lat="48.94245" lon="-0.46423">
        <ele>84</ele>
        <time>2011-03-06T11:31:22Z</time>
      </trkpt>
      <trkpt lat="48.94253" lon="-0.46417">
        <ele>84</ele>
        <time>2011-03-06T11:31:31Z</time>
      </trkpt>
      <trkpt lat="48.94262" lon="-0.4642">
        <ele>84</ele>
        <time>2011-03-06T11:31:42Z</time>
      </trkpt>
      <trkpt lat="48.94272" lon="-0.46426">
        <ele>84</ele>
        <time>2011-03-06T11:31:51Z</time>
      </trkpt>
      <trkpt lat="48.94282" lon="-0.46432">
        <ele>84</ele>
        <time>2011-03-06T11:32:03Z</time>
      </trkpt>
      <trkpt lat="48.9429" lon="-0.4644">
        <ele>84</ele>
        <time>2011-03-06T11:32:14Z</time>
      </trkpt>
      <trkpt lat="48.94297" lon="-0.46449">
        <ele>84</ele>
        <time>2011-03-06T11:32:28Z</time>
      </trkpt>
      <trkpt lat="48.94306" lon="-0.46453">
        <ele>90</ele>
        <time>2011-03-06T11:32:36Z</time>
      </trkpt>
      <trkpt lat="48.94315" lon="-0.46463">
        <ele>90</ele>
        <time>2011-03-06T11:32:49Z</time>
      </trkpt>
      <trkpt lat="48.94324" lon="-0.46466">
        <ele>90</ele>
        <time>2011-03-06T11:32:58Z</time>
      </trkpt>
      <trkpt lat="48.94332" lon="-0.46477">
        <ele>97</ele>
        <time>2011-03-06T11:33:22Z</time>
      </trkpt>
      <trkpt lat="48.9434" lon="-0.46483">
        <ele>97</ele>
        <time>2011-03-06T11:33:40Z</time>
      </trkpt>
      <trkpt lat="48.94348" lon="-0.4649">
        <ele>97</ele>
        <time>2011-03-06T11:33:52Z</time>
      </trkpt>
      <trkpt lat="48.94356" lon="-0.46497">
        <ele>97</ele>
        <time>2011-03-06T11:34:02Z</time>
      </trkpt>
      <trkpt lat="48.94365" lon="-0.46502">
        <ele>97</ele>
        <time>2011-03-06T11:34:18Z</time>
      </trkpt>
      <trkpt lat="48.94375" lon="-0.46505">
        <ele>97</ele>
        <time>2011-03-06T11:34:32Z</time>
      </trkpt>
      <trkpt lat="48.94384" lon="-0.46504">
        <ele>97</ele>
        <time>2011-03-06T11:34:48Z</time>
      </trkpt>
      <trkpt lat="48.94394" lon="-0.46503">
        <ele>97</ele>
        <time>2011-03-06T11:35:00Z</time>
      </trkpt>
      <trkpt lat="48.94403" lon="-0.465">
        <ele>103</ele>
        <time>2011-03-06T11:35:11Z</time>
      </trkpt>
      <trkpt lat="48.94412" lon="-0.465">
        <ele>103</ele>
        <time>2011-03-06T11:35:25Z</time>
      </trkpt>
      <trkpt lat="48.94421" lon="-0.46498">
        <ele>103</ele>
        <time>2011-03-06T11:35:41Z</time>
      </trkpt>
      <trkpt lat="48.94431" lon="-0.46496">
        <ele>103</ele>
        <time>2011-03-06T11:35:54Z</time>
      </trkpt>
      <trkpt lat="48.94441" lon="-0.46499">
        <ele>103</ele>
        <time>2011-03-06T11:36:04Z</time>
      </trkpt>
      <trkpt lat="48.94442" lon="-0.46499">
        <ele>112</ele>
        <time>2011-03-06T12:08:53Z</time>
      </trkpt>
      <trkpt lat="48.94451" lon="-0.46501">
        <ele>112</ele>
        <time>2011-03-06T12:11:47Z</time>
      </trkpt>
      <trkpt lat="48.9446" lon="-0.46505">
        <ele>112</ele>
        <time>2011-03-06T12:12:00Z</time>
      </trkpt>
      <trkpt lat="48.94469" lon="-0.46509">
        <ele>112</ele>
        <time>2011-03-06T12:12:14Z</time>
      </trkpt>
      <trkpt lat="48.94479" lon="-0.46512">
        <ele>117</ele>
        <time>2011-03-06T12:12:24Z</time>
      </trkpt>
      <trkpt lat="48.9449" lon="-0.46515">
        <ele>117</ele>
        <time>2011-03-06T12:12:34Z</time>
      </trkpt>
      <trkpt lat="48.94499" lon="-0.46519">
        <ele>117</ele>
        <time>2011-03-06T12:12:44Z</time>
      </trkpt>
      <trkpt lat="48.94508" lon="-0.46524">
        <ele>117</ele>
        <time>2011-03-06T12:12:53Z</time>
      </trkpt>
      <trkpt lat="48.94517" lon="-0.46527">
        <ele>124</ele>
        <time>2011-03-06T12:13:02Z</time>
      </trkpt>
      <trkpt lat="48.94526" lon="-0.46531">
        <ele>124</ele>
        <time>2011-03-06T12:13:12Z</time>
      </trkpt>
      <trkpt lat="48.94536" lon="-0.46535">
        <ele>124</ele>
        <time>2011-03-06T12:13:21Z</time>
      </trkpt>
      <trkpt lat="48.94546" lon="-0.46537">
        <ele>124</ele>
        <time>2011-03-06T12:13:31Z</time>
      </trkpt>
      <trkpt lat="48.94556" lon="-0.46539">
        <ele>124</ele>
        <time>2011-03-06T12:13:40Z</time>
      </trkpt>
      <trkpt lat="48.94566" lon="-0.4654">
        <ele>124</ele>
        <time>2011-03-06T12:13:49Z</time>
      </trkpt>
      <trkpt lat="48.94575" lon="-0.4654">
        <ele>124</ele>
        <time>2011-03-06T12:13:57Z</time>
      </trkpt>
      <trkpt lat="48.94585" lon="-0.46542">
        <ele>124</ele>
        <time>2011-03-06T12:14:06Z</time>
      </trkpt>
      <trkpt lat="48.94594" lon="-0.46542">
        <ele>124</ele>
        <time>2011-03-06T12:14:15Z</time>
      </trkpt>
      <trkpt lat="48.94604" lon="-0.46539">
        <ele>124</ele>
        <time>2011-03-06T12:14:24Z</time>
      </trkpt>
      <trkpt lat="48.94613" lon="-0.46535">
        <ele>124</ele>
        <time>2011-03-06T12:14:33Z</time>
      </trkpt>
      <trkpt lat="48.94622" lon="-0.4653">
        <ele>124</ele>
        <time>2011-03-06T12:14:42Z</time>
      </trkpt>
      <trkpt lat="48.94631" lon="-0.46524">
        <ele>124</ele>
        <time>2011-03-06T12:14:51Z</time>
      </trkpt>
      <trkpt lat="48.9464" lon="-0.46518">
        <ele>129</ele>
        <time>2011-03-06T12:15:01Z</time>
      </trkpt>
      <trkpt lat="48.94649" lon="-0.46513">
        <ele>129</ele>
        <time>2011-03-06T12:15:09Z</time>
      </trkpt>
      <trkpt lat="48.94658" lon="-0.46507">
        <ele>129</ele>
        <time>2011-03-06T12:15:18Z</time>
      </trkpt>
      <trkpt lat="48.94666" lon="-0.465">
        <ele>129</ele>
        <time>2011-03-06T12:15:25Z</time>
      </trkpt>
      <trkpt lat="48.94675" lon="-0.46495">
        <ele>135</ele>
        <time>2011-03-06T12:15:34Z</time>
      </trkpt>
      <trkpt lat="48.94684" lon="-0.4649">
        <ele>135</ele>
        <time>2011-03-06T12:15:42Z</time>
      </trkpt>
      <trkpt lat="48.94693" lon="-0.46484">
        <ele>135</ele>
        <time>2011-03-06T12:15:52Z</time>
      </trkpt>
      <trkpt lat="48.94703" lon="-0.46479">
        <ele>135</ele>
        <time>2011-03-06T12:16:00Z</time>
      </trkpt>
      <trkpt lat="48.94711" lon="-0.46473">
        <ele>135</ele>
        <time>2011-03-06T12:16:08Z</time>
      </trkpt>
      <trkpt lat="48.9472" lon="-0.46466">
        <ele>141</ele>
        <time>2011-03-06T12:16:17Z</time>
      </trkpt>
      <trkpt lat="48.94728" lon="-0.4646">
        <ele>141</ele>
        <time>2011-03-06T12:16:24Z</time>
      </trkpt>
      <trkpt lat="48.94736" lon="-0.46452">
        <ele>141</ele>
        <time>2011-03-06T12:16:33Z</time>
      </trkpt>
      <trkpt lat="48.94744" lon="-0.46444">
        <ele>141</ele>
        <time>2011-03-06T12:16:42Z</time>
      </trkpt>
      <trkpt lat="48.94753" lon="-0.46439">
        <ele>141</ele>
        <time>2011-03-06T12:16:50Z</time>
      </trkpt>
      <trkpt lat="48.94762" lon="-0.46435">
        <ele>141</ele>
        <time>2011-03-06T12:16:57Z</time>
      </trkpt>
      <trkpt lat="48.94771" lon="-0.46429">
        <ele>141</ele>
        <time>2011-03-06T12:17:07Z</time>
      </trkpt>
      <trkpt lat="48.9478" lon="-0.46424">
        <ele>141</ele>
        <time>2011-03-06T12:17:16Z</time>
      </trkpt>
      <trkpt lat="48.94788" lon="-0.46416">
        <ele>141</ele>
        <time>2011-03-06T12:17:26Z</time>
      </trkpt>
      <trkpt lat="48.94796" lon="-0.46408">
        <ele>135</ele>
        <time>2011-03-06T12:17:37Z</time>
      </trkpt>
      <trkpt lat="48.94803" lon="-0.46398">
        <ele>135</ele>
        <time>2011-03-06T12:17:50Z</time>
      </trkpt>
      <trkpt lat="48.9481" lon="-0.46388">
        <ele>135</ele>
        <time>2011-03-06T12:18:01Z</time>
      </trkpt>
      <trkpt lat="48.94819" lon="-0.46382">
        <ele>135</ele>
        <time>2011-03-06T12:18:08Z</time>
      </trkpt>
      <trkpt lat="48.94827" lon="-0.46376">
        <ele>135</ele>
        <time>2011-03-06T12:18:15Z</time>
      </trkpt>
      <trkpt lat="48.94836" lon="-0.46369">
        <ele>135</ele>
        <time>2011-03-06T12:18:23Z</time>
      </trkpt>
      <trkpt lat="48.94845" lon="-0.4636">
        <ele>130</ele>
        <time>2011-03-06T12:18:33Z</time>
      </trkpt>
      <trkpt lat="48.94854" lon="-0.46354">
        <ele>130</ele>
        <time>2011-03-06T12:18:43Z</time>
      </trkpt>
      <trkpt lat="48.94863" lon="-0.4635">
        <ele>130</ele>
        <time>2011-03-06T12:18:51Z</time>
      </trkpt>
      <trkpt lat="48.94873" lon="-0.46348">
        <ele>124</ele>
        <time>2011-03-06T12:19:01Z</time>
      </trkpt>
      <trkpt lat="48.94882" lon="-0.46344">
        <ele>124</ele>
        <time>2011-03-06T12:19:09Z</time>
      </trkpt>
      <trkpt lat="48.94892" lon="-0.46341">
        <ele>124</ele>
        <time>2011-03-06T12:19:19Z</time>
      </trkpt>
      <trkpt lat="48.94902" lon="-0.46338">
        <ele>117</ele>
        <time>2011-03-06T12:19:30Z</time>
      </trkpt>
      <trkpt lat="48.94912" lon="-0.46338">
        <ele>117</ele>
        <time>2011-03-06T12:19:41Z</time>
      </trkpt>
      <trkpt lat="48.94922" lon="-0.46343">
        <ele>117</ele>
        <time>2011-03-06T12:19:51Z</time>
      </trkpt>
      <trkpt lat="48.94933" lon="-0.46346">
        <ele>110</ele>
        <time>2011-03-06T12:19:59Z</time>
      </trkpt>
      <trkpt lat="48.94942" lon="-0.46346">
        <ele>110</ele>
        <time>2011-03-06T12:20:08Z</time>
      </trkpt>
      <trkpt lat="48.94952" lon="-0.46344">
        <ele>110</ele>
        <time>2011-03-06T12:20:20Z</time>
      </trkpt>
      <trkpt lat="48.94963" lon="-0.46342">
        <ele>110</ele>
        <time>2011-03-06T12:20:28Z</time>
      </trkpt>
      <trkpt lat="48.94972" lon="-0.46341">
        <ele>110</ele>
        <time>2011-03-06T12:20:33Z</time>
      </trkpt>
      <trkpt lat="48.94982" lon="-0.4634">
        <ele>110</ele>
        <time>2011-03-06T12:20:44Z</time>
      </trkpt>
      <trkpt lat="48.94991" lon="-0.46337">
        <ele>115</ele>
        <time>2011-03-06T12:20:51Z</time>
      </trkpt>
      <trkpt lat="48.95003" lon="-0.46336">
        <ele>115</ele>
        <time>2011-03-06T12:20:57Z</time>
      </trkpt>
      <trkpt lat="48.95012" lon="-0.46335">
        <ele>115</ele>
        <time>2011-03-06T12:21:06Z</time>
      </trkpt>
      <trkpt lat="48.95021" lon="-0.46334">
        <ele>115</ele>
        <time>2011-03-06T12:21:15Z</time>
      </trkpt>
      <trkpt lat="48.9503" lon="-0.46331">
        <ele>115</ele>
        <time>2011-03-06T12:21:22Z</time>
      </trkpt>
      <trkpt lat="48.9504" lon="-0.46323">
        <ele>115</ele>
        <time>2011-03-06T12:21:30Z</time>
      </trkpt>
      <trkpt lat="48.95049" lon="-0.46318">
        <ele>115</ele>
        <time>2011-03-06T12:21:38Z</time>
      </trkpt>
      <trkpt lat="48.95058" lon="-0.4631">
        <ele>115</ele>
        <time>2011-03-06T12:21:45Z</time>
      </trkpt>
      <trkpt lat="48.95067" lon="-0.46303">
        <ele>115</ele>
        <time>2011-03-06T12:21:56Z</time>
      </trkpt>
      <trkpt lat="48.95074" lon="-0.46294">
        <ele>123</ele>
        <time>2011-03-06T12:22:05Z</time>
      </trkpt>
      <trkpt lat="48.95081" lon="-0.46285">
        <ele>123</ele>
        <time>2011-03-06T12:22:12Z</time>
      </trkpt>
      <trkpt lat="48.95088" lon="-0.46275">
        <ele>123</ele>
        <time>2011-03-06T12:22:23Z</time>
      </trkpt>
      <trkpt lat="48.95096" lon="-0.46266">
        <ele>123</ele>
        <time>2011-03-06T12:22:33Z</time>
      </trkpt>
      <trkpt lat="48.95104" lon="-0.46258">
        <ele>123</ele>
        <time>2011-03-06T12:22:41Z</time>
      </trkpt>
      <trkpt lat="48.95112" lon="-0.4625">
        <ele>123</ele>
        <time>2011-03-06T12:22:50Z</time>
      </trkpt>
      <trkpt lat="48.95118" lon="-0.46238">
        <ele>123</ele>
        <time>2011-03-06T12:22:59Z</time>
      </trkpt>
      <trkpt lat="48.95126" lon="-0.4623">
        <ele>123</ele>
        <time>2011-03-06T12:23:08Z</time>
      </trkpt>
      <trkpt lat="48.95134" lon="-0.46221">
        <ele>123</ele>
        <time>2011-03-06T12:23:17Z</time>
      </trkpt>
      <trkpt lat="48.9514" lon="-0.46211">
        <ele>132</ele>
        <time>2011-03-06T12:23:26Z</time>
      </trkpt>
      <trkpt lat="48.95147" lon="-0.46202">
        <ele>132</ele>
        <time>2011-03-06T12:23:33Z</time>
      </trkpt>
      <trkpt lat="48.95158" lon="-0.46196">
        <ele>139</ele>
        <time>2011-03-06T12:23:39Z</time>
      </trkpt>
      <trkpt lat="48.95166" lon="-0.46188">
        <ele>139</ele>
        <time>2011-03-06T12:23:49Z</time>
      </trkpt>
      <trkpt lat="48.95175" lon="-0.46179">
        <ele>139</ele>
        <time>2011-03-06T12:23:56Z</time>
      </trkpt>
      <trkpt lat="48.95182" lon="-0.46171">
        <ele>134</ele>
        <time>2011-03-06T12:24:02Z</time>
      </trkpt>
      <trkpt lat="48.95192" lon="-0.46167">
        <ele>134</ele>
        <time>2011-03-06T12:24:11Z</time>
      </trkpt>
      <trkpt lat="48.95202" lon="-0.46164">
        <ele>128</ele>
        <time>2011-03-06T12:24:17Z</time>
      </trkpt>
      <trkpt lat="48.95212" lon="-0.46164">
        <ele>128</ele>
        <time>2011-03-06T12:24:24Z</time>
      </trkpt>
      <trkpt lat="48.95222" lon="-0.46155">
        <ele>122</ele>
        <time>2011-03-06T12:24:35Z</time>
      </trkpt>
      <trkpt lat="48.95233" lon="-0.46155">
        <ele>122</ele>
        <time>2011-03-06T12:24:40Z</time>
      </trkpt>
      <trkpt lat="48.95242" lon="-0.4615">
        <ele>122</ele>
        <time>2011-03-06T12:24:50Z</time>
      </trkpt>
      <trkpt lat="48.9525" lon="-0.46144">
        <ele>129</ele>
        <time>2011-03-06T12:25:03Z</time>
      </trkpt>
      <trkpt lat="48.95259" lon="-0.46138">
        <ele>129</ele>
        <time>2011-03-06T12:25:12Z</time>
      </trkpt>
      <trkpt lat="48.95268" lon="-0.46133">
        <ele>129</ele>
        <time>2011-03-06T12:25:18Z</time>
      </trkpt>
      <trkpt lat="48.95276" lon="-0.46125">
        <ele>129</ele>
        <time>2011-03-06T12:25:25Z</time>
      </trkpt>
      <trkpt lat="48.95284" lon="-0.46116">
        <ele>129</ele>
        <time>2011-03-06T12:25:33Z</time>
      </trkpt>
      <trkpt lat="48.95292" lon="-0.4611">
        <ele>129</ele>
        <time>2011-03-06T12:25:42Z</time>
      </trkpt>
      <trkpt lat="48.953" lon="-0.46101">
        <ele>129</ele>
        <time>2011-03-06T12:25:51Z</time>
      </trkpt>
      <trkpt lat="48.95308" lon="-0.46092">
        <ele>135</ele>
        <time>2011-03-06T12:26:00Z</time>
      </trkpt>
      <trkpt lat="48.95315" lon="-0.46082">
        <ele>135</ele>
        <time>2011-03-06T12:26:09Z</time>
      </trkpt>
      <trkpt lat="48.95323" lon="-0.46071">
        <ele>135</ele>
        <time>2011-03-06T12:26:18Z</time>
      </trkpt>
      <trkpt lat="48.95332" lon="-0.46063">
        <ele>135</ele>
        <time>2011-03-06T12:26:26Z</time>
      </trkpt>
      <trkpt lat="48.95339" lon="-0.46053">
        <ele>135</ele>
        <time>2011-03-06T12:26:34Z</time>
      </trkpt>
      <trkpt lat="48.95347" lon="-0.46044">
        <ele>135</ele>
        <time>2011-03-06T12:26:41Z</time>
      </trkpt>
      <trkpt lat="48.95352" lon="-0.46032">
        <ele>142</ele>
        <time>2011-03-06T12:26:49Z</time>
      </trkpt>
      <trkpt lat="48.95357" lon="-0.46021">
        <ele>142</ele>
        <time>2011-03-06T12:26:57Z</time>
      </trkpt>
      <trkpt lat="48.95364" lon="-0.46011">
        <ele>142</ele>
        <time>2011-03-06T12:27:04Z</time>
      </trkpt>
      <trkpt lat="48.95372" lon="-0.46005">
        <ele>142</ele>
        <time>2011-03-06T12:27:11Z</time>
      </trkpt>
      <trkpt lat="48.95382" lon="-0.45998">
        <ele>142</ele>
        <time>2011-03-06T12:27:19Z</time>
      </trkpt>
      <trkpt lat="48.95392" lon="-0.45994">
        <ele>142</ele>
        <time>2011-03-06T12:27:29Z</time>
      </trkpt>
      <trkpt lat="48.95401" lon="-0.45991">
        <ele>142</ele>
        <time>2011-03-06T12:27:38Z</time>
      </trkpt>
      <trkpt lat="48.9541" lon="-0.45988">
        <ele>142</ele>
        <time>2011-03-06T12:27:45Z</time>
      </trkpt>
      <trkpt lat="48.9542" lon="-0.45988">
        <ele>142</ele>
        <time>2011-03-06T12:27:53Z</time>
      </trkpt>
      <trkpt lat="48.95428" lon="-0.45995">
        <ele>142</ele>
        <time>2011-03-06T12:28:01Z</time>
      </trkpt>
      <trkpt lat="48.95434" lon="-0.46006">
        <ele>142</ele>
        <time>2011-03-06T12:28:09Z</time>
      </trkpt>
      <trkpt lat="48.95435" lon="-0.46021">
        <ele>142</ele>
        <time>2011-03-06T12:28:19Z</time>
      </trkpt>
      <trkpt lat="48.95436" lon="-0.46036">
        <ele>142</ele>
        <time>2011-03-06T12:28:27Z</time>
      </trkpt>
      <trkpt lat="48.95437" lon="-0.46051">
        <ele>142</ele>
        <time>2011-03-06T12:28:36Z</time>
      </trkpt>
      <trkpt lat="48.95436" lon="-0.46066">
        <ele>142</ele>
        <time>2011-03-06T12:28:43Z</time>
      </trkpt>
      <trkpt lat="48.95437" lon="-0.4608">
        <ele>142</ele>
        <time>2011-03-06T12:28:53Z</time>
      </trkpt>
      <trkpt lat="48.95438" lon="-0.46095">
        <ele>142</ele>
        <time>2011-03-06T12:29:01Z</time>
      </trkpt>
      <trkpt lat="48.95441" lon="-0.46109">
        <ele>142</ele>
        <time>2011-03-06T12:29:09Z</time>
      </trkpt>
      <trkpt lat="48.95445" lon="-0.46121">
        <ele>142</ele>
        <time>2011-03-06T12:29:17Z</time>
      </trkpt>
      <trkpt lat="48.95453" lon="-0.4613">
        <ele>142</ele>
        <time>2011-03-06T12:29:27Z</time>
      </trkpt>
      <trkpt lat="48.9546" lon="-0.46139">
        <ele>142</ele>
        <time>2011-03-06T12:29:36Z</time>
      </trkpt>
      <trkpt lat="48.95469" lon="-0.46147">
        <ele>142</ele>
        <time>2011-03-06T12:29:45Z</time>
      </trkpt>
      <trkpt lat="48.95479" lon="-0.4615">
        <ele>147</ele>
        <time>2011-03-06T12:29:55Z</time>
      </trkpt>
      <trkpt lat="48.95489" lon="-0.4615">
        <ele>147</ele>
        <time>2011-03-06T12:30:06Z</time>
      </trkpt>
      <trkpt lat="48.95498" lon="-0.46154">
        <ele>147</ele>
        <time>2011-03-06T12:30:16Z</time>
      </trkpt>
      <trkpt lat="48.95507" lon="-0.46154">
        <ele>147</ele>
        <time>2011-03-06T12:30:25Z</time>
      </trkpt>
      <trkpt lat="48.95517" lon="-0.46155">
        <ele>147</ele>
        <time>2011-03-06T12:30:33Z</time>
      </trkpt>
      <trkpt lat="48.95526" lon="-0.46155">
        <ele>147</ele>
        <time>2011-03-06T12:30:41Z</time>
      </trkpt>
      <trkpt lat="48.95536" lon="-0.46156">
        <ele>147</ele>
        <time>2011-03-06T12:30:49Z</time>
      </trkpt>
      <trkpt lat="48.95546" lon="-0.46156">
        <ele>147</ele>
        <time>2011-03-06T12:30:59Z</time>
      </trkpt>
      <trkpt lat="48.95556" lon="-0.46157">
        <ele>153</ele>
        <time>2011-03-06T12:31:07Z</time>
      </trkpt>
      <trkpt lat="48.95565" lon="-0.46157">
        <ele>153</ele>
        <time>2011-03-06T12:31:15Z</time>
      </trkpt>
      <trkpt lat="48.95575" lon="-0.46157">
        <ele>153</ele>
        <time>2011-03-06T12:31:22Z</time>
      </trkpt>
      <trkpt lat="48.95585" lon="-0.46155">
        <ele>153</ele>
        <time>2011-03-06T12:31:31Z</time>
      </trkpt>
      <trkpt lat="48.95594" lon="-0.46154">
        <ele>153</ele>
        <time>2011-03-06T12:31:40Z</time>
      </trkpt>
      <trkpt lat="48.95604" lon="-0.46151">
        <ele>153</ele>
        <time>2011-03-06T12:31:48Z</time>
      </trkpt>
      <trkpt lat="48.95613" lon="-0.46146">
        <ele>153</ele>
        <time>2011-03-06T12:31:56Z</time>
      </trkpt>
      <trkpt lat="48.95622" lon="-0.46138">
        <ele>153</ele>
        <time>2011-03-06T12:32:05Z</time>
      </trkpt>
      <trkpt lat="48.9563" lon="-0.46129">
        <ele>153</ele>
        <time>2011-03-06T12:32:15Z</time>
      </trkpt>
      <trkpt lat="48.95639" lon="-0.46121">
        <ele>153</ele>
        <time>2011-03-06T12:32:23Z</time>
      </trkpt>
      <trkpt lat="48.95647" lon="-0.46113">
        <ele>153</ele>
        <time>2011-03-06T12:32:32Z</time>
      </trkpt>
      <trkpt lat="48.95655" lon="-0.46105">
        <ele>153</ele>
        <time>2011-03-06T12:32:39Z</time>
      </trkpt>
      <trkpt lat="48.95662" lon="-0.46095">
        <ele>153</ele>
        <time>2011-03-06T12:32:48Z</time>
      </trkpt>
      <trkpt lat="48.9567" lon="-0.46088">
        <ele>153</ele>
        <time>2011-03-06T12:32:55Z</time>
      </trkpt>
      <trkpt lat="48.95679" lon="-0.46081">
        <ele>153</ele>
        <time>2011-03-06T12:33:03Z</time>
      </trkpt>
      <trkpt lat="48.95688" lon="-0.46073">
        <ele>153</ele>
        <time>2011-03-06T12:33:11Z</time>
      </trkpt>
      <trkpt lat="48.95695" lon="-0.46065">
        <ele>153</ele>
        <time>2011-03-06T12:33:19Z</time>
      </trkpt>
      <trkpt lat="48.95704" lon="-0.46056">
        <ele>153</ele>
        <time>2011-03-06T12:33:28Z</time>
      </trkpt>
      <trkpt lat="48.95713" lon="-0.46049">
        <ele>153</ele>
        <time>2011-03-06T12:33:36Z</time>
      </trkpt>
      <trkpt lat="48.95721" lon="-0.46041">
        <ele>153</ele>
        <time>2011-03-06T12:33:44Z</time>
      </trkpt>
      <trkpt lat="48.95729" lon="-0.46032">
        <ele>153</ele>
        <time>2011-03-06T12:33:51Z</time>
      </trkpt>
      <trkpt lat="48.95737" lon="-0.46024">
        <ele>153</ele>
        <time>2011-03-06T12:33:58Z</time>
      </trkpt>
      <trkpt lat="48.95745" lon="-0.46018">
        <ele>153</ele>
        <time>2011-03-06T12:34:04Z</time>
      </trkpt>
      <trkpt lat="48.95753" lon="-0.46011">
        <ele>153</ele>
        <time>2011-03-06T12:34:11Z</time>
      </trkpt>
      <trkpt lat="48.9576" lon="-0.46002">
        <ele>153</ele>
        <time>2011-03-06T12:34:19Z</time>
      </trkpt>
      <trkpt lat="48.95769" lon="-0.45994">
        <ele>153</ele>
        <time>2011-03-06T12:34:27Z</time>
      </trkpt>
      <trkpt lat="48.95776" lon="-0.45986">
        <ele>153</ele>
        <time>2011-03-06T12:34:39Z</time>
      </trkpt>
      <trkpt lat="48.95785" lon="-0.45979">
        <ele>153</ele>
        <time>2011-03-06T12:34:46Z</time>
      </trkpt>
      <trkpt lat="48.95793" lon="-0.45971">
        <ele>153</ele>
        <time>2011-03-06T12:34:54Z</time>
      </trkpt>
      <trkpt lat="48.958" lon="-0.45962">
        <ele>153</ele>
        <time>2011-03-06T12:35:01Z</time>
      </trkpt>
      <trkpt lat="48.95809" lon="-0.45954">
        <ele>153</ele>
        <time>2011-03-06T12:35:10Z</time>
      </trkpt>
      <trkpt lat="48.95815" lon="-0.45943">
        <ele>153</ele>
        <time>2011-03-06T12:35:19Z</time>
      </trkpt>
      <trkpt lat="48.95824" lon="-0.45935">
        <ele>153</ele>
        <time>2011-03-06T12:35:28Z</time>
      </trkpt>
      <trkpt lat="48.9583" lon="-0.45924">
        <ele>153</ele>
        <time>2011-03-06T12:35:37Z</time>
      </trkpt>
      <trkpt lat="48.95837" lon="-0.45915">
        <ele>153</ele>
        <time>2011-03-06T12:36:05Z</time>
      </trkpt>
      <trkpt lat="48.95843" lon="-0.45903">
        <ele>153</ele>
        <time>2011-03-06T12:36:13Z</time>
      </trkpt>
      <trkpt lat="48.95848" lon="-0.45891">
        <ele>153</ele>
        <time>2011-03-06T12:36:21Z</time>
      </trkpt>
      <trkpt lat="48.95856" lon="-0.45882">
        <ele>153</ele>
        <time>2011-03-06T12:36:30Z</time>
      </trkpt>
      <trkpt lat="48.95862" lon="-0.45871">
        <ele>153</ele>
        <time>2011-03-06T12:36:43Z</time>
      </trkpt>
      <trkpt lat="48.9587" lon="-0.45863">
        <ele>153</ele>
        <time>2011-03-06T12:36:52Z</time>
      </trkpt>
      <trkpt lat="48.95879" lon="-0.45858">
        <ele>153</ele>
        <time>2011-03-06T12:37:01Z</time>
      </trkpt>
      <trkpt lat="48.95888" lon="-0.45858">
        <ele>165</ele>
        <time>2011-03-06T12:37:17Z</time>
      </trkpt>
      <trkpt lat="48.95897" lon="-0.45855">
        <ele>156</ele>
        <time>2011-03-06T12:37:47Z</time>
      </trkpt>
      <trkpt lat="48.95906" lon="-0.45854">
        <ele>156</ele>
        <time>2011-03-06T12:37:54Z</time>
      </trkpt>
      <trkpt lat="48.95919" lon="-0.45857">
        <ele>156</ele>
        <time>2011-03-06T12:38:06Z</time>
      </trkpt>
      <trkpt lat="48.9593" lon="-0.45857">
        <ele>156</ele>
        <time>2011-03-06T12:38:13Z</time>
      </trkpt>
      <trkpt lat="48.9594" lon="-0.45858">
        <ele>156</ele>
        <time>2011-03-06T12:38:23Z</time>
      </trkpt>
      <trkpt lat="48.95949" lon="-0.45856">
        <ele>156</ele>
        <time>2011-03-06T12:38:32Z</time>
      </trkpt>
      <trkpt lat="48.9596" lon="-0.45855">
        <ele>156</ele>
        <time>2011-03-06T12:38:39Z</time>
      </trkpt>
      <trkpt lat="48.95971" lon="-0.45855">
        <ele>156</ele>
        <time>2011-03-06T12:38:48Z</time>
      </trkpt>
      <trkpt lat="48.9598" lon="-0.45851">
        <ele>156</ele>
        <time>2011-03-06T12:38:55Z</time>
      </trkpt>
      <trkpt lat="48.95988" lon="-0.45845">
        <ele>156</ele>
        <time>2011-03-06T12:39:05Z</time>
      </trkpt>
      <trkpt lat="48.95998" lon="-0.45844">
        <ele>147</ele>
        <time>2011-03-06T12:39:15Z</time>
      </trkpt>
      <trkpt lat="48.96007" lon="-0.4584">
        <ele>147</ele>
        <time>2011-03-06T12:39:23Z</time>
      </trkpt>
      <trkpt lat="48.96016" lon="-0.45836">
        <ele>147</ele>
        <time>2011-03-06T12:39:30Z</time>
      </trkpt>
      <trkpt lat="48.96026" lon="-0.45835">
        <ele>147</ele>
        <time>2011-03-06T12:39:35Z</time>
      </trkpt>
      <trkpt lat="48.96035" lon="-0.45834">
        <ele>154</ele>
        <time>2011-03-06T12:39:42Z</time>
      </trkpt>
      <trkpt lat="48.96045" lon="-0.45829">
        <ele>154</ele>
        <time>2011-03-06T12:39:49Z</time>
      </trkpt>
      <trkpt lat="48.96055" lon="-0.45828">
        <ele>154</ele>
        <time>2011-03-06T12:39:58Z</time>
      </trkpt>
      <trkpt lat="48.96065" lon="-0.45828">
        <ele>154</ele>
        <time>2011-03-06T12:40:06Z</time>
      </trkpt>
      <trkpt lat="48.96074" lon="-0.45823">
        <ele>154</ele>
        <time>2011-03-06T12:40:19Z</time>
      </trkpt>
      <trkpt lat="48.96083" lon="-0.45823">
        <ele>154</ele>
        <time>2011-03-06T12:40:26Z</time>
      </trkpt>
      <trkpt lat="48.96093" lon="-0.45823">
        <ele>154</ele>
        <time>2011-03-06T12:40:34Z</time>
      </trkpt>
      <trkpt lat="48.96103" lon="-0.4582">
        <ele>154</ele>
        <time>2011-03-06T12:40:42Z</time>
      </trkpt>
      <trkpt lat="48.96112" lon="-0.45819">
        <ele>154</ele>
        <time>2011-03-06T12:40:50Z</time>
      </trkpt>
      <trkpt lat="48.96122" lon="-0.45817">
        <ele>154</ele>
        <time>2011-03-06T12:40:57Z</time>
      </trkpt>
      <trkpt lat="48.96131" lon="-0.45815">
        <ele>154</ele>
        <time>2011-03-06T12:41:05Z</time>
      </trkpt>
      <trkpt lat="48.96141" lon="-0.45811">
        <ele>148</ele>
        <time>2011-03-06T12:41:13Z</time>
      </trkpt>
      <trkpt lat="48.96151" lon="-0.45811">
        <ele>148</ele>
        <time>2011-03-06T12:41:22Z</time>
      </trkpt>
      <trkpt lat="48.96161" lon="-0.45811">
        <ele>148</ele>
        <time>2011-03-06T12:41:32Z</time>
      </trkpt>
      <trkpt lat="48.96171" lon="-0.45811">
        <ele>154</ele>
        <time>2011-03-06T12:41:42Z</time>
      </trkpt>
      <trkpt lat="48.9618" lon="-0.45807">
        <ele>154</ele>
        <time>2011-03-06T12:41:49Z</time>
      </trkpt>
      <trkpt lat="48.9619" lon="-0.45804">
        <ele>154</ele>
        <time>2011-03-06T12:41:58Z</time>
      </trkpt>
      <trkpt lat="48.96198" lon="-0.45794">
        <ele>154</ele>
        <time>2011-03-06T12:42:11Z</time>
      </trkpt>
      <trkpt lat="48.96206" lon="-0.45787">
        <ele>147</ele>
        <time>2011-03-06T12:42:17Z</time>
      </trkpt>
      <trkpt lat="48.96213" lon="-0.45778">
        <ele>154</ele>
        <time>2011-03-06T12:42:25Z</time>
      </trkpt>
      <trkpt lat="48.96217" lon="-0.45764">
        <ele>159</ele>
        <time>2011-03-06T12:42:35Z</time>
      </trkpt>
      <trkpt lat="48.96226" lon="-0.45755">
        <ele>159</ele>
        <time>2011-03-06T12:42:44Z</time>
      </trkpt>
      <trkpt lat="48.96235" lon="-0.45749">
        <ele>152</ele>
        <time>2011-03-06T12:42:51Z</time>
      </trkpt>
      <trkpt lat="48.96244" lon="-0.45749">
        <ele>152</ele>
        <time>2011-03-06T12:42:59Z</time>
      </trkpt>
      <trkpt lat="48.96255" lon="-0.45749">
        <ele>152</ele>
        <time>2011-03-06T12:43:09Z</time>
      </trkpt>
      <trkpt lat="48.96266" lon="-0.4575">
        <ele>152</ele>
        <time>2011-03-06T12:43:18Z</time>
      </trkpt>
      <trkpt lat="48.96275" lon="-0.45754">
        <ele>152</ele>
        <time>2011-03-06T12:43:27Z</time>
      </trkpt>
      <trkpt lat="48.96284" lon="-0.45756">
        <ele>152</ele>
        <time>2011-03-06T12:43:44Z</time>
      </trkpt>
      <trkpt lat="48.96294" lon="-0.45759">
        <ele>152</ele>
        <time>2011-03-06T12:43:54Z</time>
      </trkpt>
      <trkpt lat="48.96305" lon="-0.45759">
        <ele>152</ele>
        <time>2011-03-06T12:44:00Z</time>
      </trkpt>
      <trkpt lat="48.96314" lon="-0.45763">
        <ele>152</ele>
        <time>2011-03-06T12:44:09Z</time>
      </trkpt>
      <trkpt lat="48.96323" lon="-0.4576">
        <ele>152</ele>
        <time>2011-03-06T12:44:18Z</time>
      </trkpt>
      <trkpt lat="48.96332" lon="-0.45755">
        <ele>152</ele>
        <time>2011-03-06T12:44:28Z</time>
      </trkpt>
      <trkpt lat="48.96342" lon="-0.45757">
        <ele>152</ele>
        <time>2011-03-06T12:44:35Z</time>
      </trkpt>
      <trkpt lat="48.96351" lon="-0.45758">
        <ele>152</ele>
        <time>2011-03-06T12:44:44Z</time>
      </trkpt>
      <trkpt lat="48.96361" lon="-0.45754">
        <ele>152</ele>
        <time>2011-03-06T12:44:56Z</time>
      </trkpt>
      <trkpt lat="48.96372" lon="-0.45754">
        <ele>152</ele>
        <time>2011-03-06T12:45:04Z</time>
      </trkpt>
      <trkpt lat="48.96381" lon="-0.45751">
        <ele>152</ele>
        <time>2011-03-06T12:45:14Z</time>
      </trkpt>
      <trkpt lat="48.96392" lon="-0.4575">
        <ele>152</ele>
        <time>2011-03-06T12:45:21Z</time>
      </trkpt>
      <trkpt lat="48.96402" lon="-0.4575">
        <ele>152</ele>
        <time>2011-03-06T12:45:29Z</time>
      </trkpt>
      <trkpt lat="48.96408" lon="-0.45761">
        <ele>164</ele>
        <time>2011-03-06T12:45:51Z</time>
      </trkpt>
      <trkpt lat="48.96415" lon="-0.4577">
        <ele>164</ele>
        <time>2011-03-06T12:45:58Z</time>
      </trkpt>
      <trkpt lat="48.96422" lon="-0.45783">
        <ele>170</ele>
        <time>2011-03-06T12:46:05Z</time>
      </trkpt>
      <trkpt lat="48.96413" lon="-0.45789">
        <ele>163</ele>
        <time>2011-03-06T12:46:23Z</time>
      </trkpt>
      <trkpt lat="48.96414" lon="-0.45803">
        <ele>158</ele>
        <time>2011-03-06T12:46:44Z</time>
      </trkpt>
      <trkpt lat="48.96416" lon="-0.45818">
        <ele>158</ele>
        <time>2011-03-06T12:46:52Z</time>
      </trkpt>
      <trkpt lat="48.96419" lon="-0.45831">
        <ele>158</ele>
        <time>2011-03-06T12:47:00Z</time>
      </trkpt>
      <trkpt lat="48.96419" lon="-0.45846">
        <ele>158</ele>
        <time>2011-03-06T12:47:09Z</time>
      </trkpt>
      <trkpt lat="48.9642" lon="-0.45861">
        <ele>158</ele>
        <time>2011-03-06T12:47:16Z</time>
      </trkpt>
      <trkpt lat="48.96422" lon="-0.45875">
        <ele>158</ele>
        <time>2011-03-06T12:47:24Z</time>
      </trkpt>
      <trkpt lat="48.96423" lon="-0.4589">
        <ele>152</ele>
        <time>2011-03-06T12:47:32Z</time>
      </trkpt>
      <trkpt lat="48.96425" lon="-0.45904">
        <ele>152</ele>
        <time>2011-03-06T12:47:41Z</time>
      </trkpt>
      <trkpt lat="48.96428" lon="-0.45918">
        <ele>152</ele>
        <time>2011-03-06T12:47:50Z</time>
      </trkpt>
      <trkpt lat="48.96428" lon="-0.45934">
        <ele>152</ele>
        <time>2011-03-06T12:47:59Z</time>
      </trkpt>
      <trkpt lat="48.96432" lon="-0.45946">
        <ele>146</ele>
        <time>2011-03-06T12:48:07Z</time>
      </trkpt>
      <trkpt lat="48.96435" lon="-0.45961">
        <ele>146</ele>
        <time>2011-03-06T12:48:18Z</time>
      </trkpt>
      <trkpt lat="48.96438" lon="-0.45974">
        <ele>146</ele>
        <time>2011-03-06T12:48:27Z</time>
      </trkpt>
      <trkpt lat="48.96443" lon="-0.45988">
        <ele>146</ele>
        <time>2011-03-06T12:48:36Z</time>
      </trkpt>
      <trkpt lat="48.96449" lon="-0.45998">
        <ele>140</ele>
        <time>2011-03-06T12:48:47Z</time>
      </trkpt>
      <trkpt lat="48.96456" lon="-0.46009">
        <ele>140</ele>
        <time>2011-03-06T12:48:55Z</time>
      </trkpt>
      <trkpt lat="48.96461" lon="-0.46022">
        <ele>140</ele>
        <time>2011-03-06T12:49:09Z</time>
      </trkpt>
      <trkpt lat="48.96468" lon="-0.46031">
        <ele>140</ele>
        <time>2011-03-06T12:49:22Z</time>
      </trkpt>
      <trkpt lat="48.96474" lon="-0.46042">
        <ele>140</ele>
        <time>2011-03-06T12:49:30Z</time>
      </trkpt>
      <trkpt lat="48.96481" lon="-0.46053">
        <ele>140</ele>
        <time>2011-03-06T12:49:40Z</time>
      </trkpt>
      <trkpt lat="48.9649" lon="-0.46062">
        <ele>133</ele>
        <time>2011-03-06T12:49:48Z</time>
      </trkpt>
      <trkpt lat="48.96496" lon="-0.46073">
        <ele>133</ele>
        <time>2011-03-06T12:49:57Z</time>
      </trkpt>
      <trkpt lat="48.96499" lon="-0.46087">
        <ele>133</ele>
        <time>2011-03-06T12:50:07Z</time>
      </trkpt>
      <trkpt lat="48.96503" lon="-0.46101">
        <ele>126</ele>
        <time>2011-03-06T12:50:18Z</time>
      </trkpt>
      <trkpt lat="48.96509" lon="-0.46113">
        <ele>126</ele>
        <time>2011-03-06T12:50:25Z</time>
      </trkpt>
      <trkpt lat="48.96517" lon="-0.46123">
        <ele>126</ele>
        <time>2011-03-06T12:50:32Z</time>
      </trkpt>
      <trkpt lat="48.96521" lon="-0.46138">
        <ele>126</ele>
        <time>2011-03-06T12:50:41Z</time>
      </trkpt>
      <trkpt lat="48.96528" lon="-0.46149">
        <ele>126</ele>
        <time>2011-03-06T12:50:50Z</time>
      </trkpt>
      <trkpt lat="48.96532" lon="-0.46163">
        <ele>126</ele>
        <time>2011-03-06T12:50:59Z</time>
      </trkpt>
      <trkpt lat="48.96531" lon="-0.46178">
        <ele>126</ele>
        <time>2011-03-06T12:51:07Z</time>
      </trkpt>
      <trkpt lat="48.96529" lon="-0.46192">
        <ele>126</ele>
        <time>2011-03-06T12:51:15Z</time>
      </trkpt>
      <trkpt lat="48.96527" lon="-0.46207">
        <ele>126</ele>
        <time>2011-03-06T12:51:23Z</time>
      </trkpt>
      <trkpt lat="48.96528" lon="-0.46221">
        <ele>126</ele>
        <time>2011-03-06T12:51:32Z</time>
      </trkpt>
      <trkpt lat="48.96528" lon="-0.46237">
        <ele>126</ele>
        <time>2011-03-06T12:51:41Z</time>
      </trkpt>
      <trkpt lat="48.96529" lon="-0.46253">
        <ele>126</ele>
        <time>2011-03-06T12:51:55Z</time>
      </trkpt>
      <trkpt lat="48.96531" lon="-0.46267">
        <ele>126</ele>
        <time>2011-03-06T12:52:02Z</time>
      </trkpt>
      <trkpt lat="48.96531" lon="-0.46282">
        <ele>126</ele>
        <time>2011-03-06T12:52:11Z</time>
      </trkpt>
      <trkpt lat="48.96533" lon="-0.46297">
        <ele>117</ele>
        <time>2011-03-06T12:52:21Z</time>
      </trkpt>
      <trkpt lat="48.96533" lon="-0.46311">
        <ele>117</ele>
        <time>2011-03-06T12:52:29Z</time>
      </trkpt>
      <trkpt lat="48.96532" lon="-0.46326">
        <ele>111</ele>
        <time>2011-03-06T12:52:38Z</time>
      </trkpt>
      <trkpt lat="48.96532" lon="-0.46342">
        <ele>111</ele>
        <time>2011-03-06T12:52:47Z</time>
      </trkpt>
      <trkpt lat="48.9653" lon="-0.46357">
        <ele>111</ele>
        <time>2011-03-06T12:52:56Z</time>
      </trkpt>
      <trkpt lat="48.96528" lon="-0.46371">
        <ele>111</ele>
        <time>2011-03-06T12:53:04Z</time>
      </trkpt>
      <trkpt lat="48.96528" lon="-0.46385">
        <ele>111</ele>
        <time>2011-03-06T12:53:13Z</time>
      </trkpt>
      <trkpt lat="48.96526" lon="-0.464">
        <ele>111</ele>
        <time>2011-03-06T12:53:21Z</time>
      </trkpt>
      <trkpt lat="48.96525" lon="-0.46414">
        <ele>106</ele>
        <time>2011-03-06T12:53:30Z</time>
      </trkpt>
      <trkpt lat="48.96526" lon="-0.46429">
        <ele>106</ele>
        <time>2011-03-06T12:53:37Z</time>
      </trkpt>
      <trkpt lat="48.96523" lon="-0.46443">
        <ele>106</ele>
        <time>2011-03-06T12:53:44Z</time>
      </trkpt>
      <trkpt lat="48.9652" lon="-0.46457">
        <ele>106</ele>
        <time>2011-03-06T12:53:53Z</time>
      </trkpt>
      <trkpt lat="48.96517" lon="-0.46471">
        <ele>106</ele>
        <time>2011-03-06T12:54:03Z</time>
      </trkpt>
      <trkpt lat="48.96513" lon="-0.46484">
        <ele>106</ele>
        <time>2011-03-06T12:54:12Z</time>
      </trkpt>
      <trkpt lat="48.96507" lon="-0.46497">
        <ele>106</ele>
        <time>2011-03-06T12:54:19Z</time>
      </trkpt>
      <trkpt lat="48.96501" lon="-0.46508">
        <ele>106</ele>
        <time>2011-03-06T12:54:26Z</time>
      </trkpt>
      <trkpt lat="48.96493" lon="-0.46517">
        <ele>106</ele>
        <time>2011-03-06T12:54:32Z</time>
      </trkpt>
      <trkpt lat="48.96484" lon="-0.46522">
        <ele>106</ele>
        <time>2011-03-06T12:54:42Z</time>
      </trkpt>
      <trkpt lat="48.96476" lon="-0.46528">
        <ele>99</ele>
        <time>2011-03-06T12:54:51Z</time>
      </trkpt>
      <trkpt lat="48.96471" lon="-0.4654">
        <ele>99</ele>
        <time>2011-03-06T12:55:07Z</time>
      </trkpt>
      <trkpt lat="48.96462" lon="-0.46549">
        <ele>99</ele>
        <time>2011-03-06T12:55:16Z</time>
      </trkpt>
      <trkpt lat="48.96454" lon="-0.46558">
        <ele>99</ele>
        <time>2011-03-06T12:55:24Z</time>
      </trkpt>
      <trkpt lat="48.96457" lon="-0.46571">
        <ele>99</ele>
        <time>2011-03-06T12:55:37Z</time>
      </trkpt>
      <trkpt lat="48.96455" lon="-0.46586">
        <ele>99</ele>
        <time>2011-03-06T12:55:48Z</time>
      </trkpt>
      <trkpt lat="48.9645" lon="-0.46599">
        <ele>94</ele>
        <time>2011-03-06T12:55:56Z</time>
      </trkpt>
      <trkpt lat="48.96452" lon="-0.46613">
        <ele>94</ele>
        <time>2011-03-06T12:56:04Z</time>
      </trkpt>
      <trkpt lat="48.96449" lon="-0.46626">
        <ele>94</ele>
        <time>2011-03-06T12:56:12Z</time>
      </trkpt>
      <trkpt lat="48.96448" lon="-0.46641">
        <ele>94</ele>
        <time>2011-03-06T12:56:19Z</time>
      </trkpt>
      <trkpt lat="48.96448" lon="-0.46656">
        <ele>94</ele>
        <time>2011-03-06T12:56:28Z</time>
      </trkpt>
      <trkpt lat="48.96445" lon="-0.4667">
        <ele>88</ele>
        <time>2011-03-06T12:56:37Z</time>
      </trkpt>
      <trkpt lat="48.96443" lon="-0.46685">
        <ele>88</ele>
        <time>2011-03-06T12:56:47Z</time>
      </trkpt>
      <trkpt lat="48.96439" lon="-0.46698">
        <ele>88</ele>
        <time>2011-03-06T12:56:54Z</time>
      </trkpt>
      <trkpt lat="48.96436" lon="-0.46712">
        <ele>88</ele>
        <time>2011-03-06T12:57:02Z</time>
      </trkpt>
      <trkpt lat="48.96433" lon="-0.46728">
        <ele>88</ele>
        <time>2011-03-06T12:57:12Z</time>
      </trkpt>
      <trkpt lat="48.96432" lon="-0.46743">
        <ele>88</ele>
        <time>2011-03-06T12:57:20Z</time>
      </trkpt>
      <trkpt lat="48.96436" lon="-0.46756">
        <ele>88</ele>
        <time>2011-03-06T12:57:28Z</time>
      </trkpt>
      <trkpt lat="48.96442" lon="-0.46767">
        <ele>78</ele>
        <time>2011-03-06T12:57:40Z</time>
      </trkpt>
      <trkpt lat="48.96447" lon="-0.46781">
        <ele>78</ele>
        <time>2011-03-06T12:57:50Z</time>
      </trkpt>
      <trkpt lat="48.96452" lon="-0.46793">
        <ele>78</ele>
        <time>2011-03-06T12:58:01Z</time>
      </trkpt>
      <trkpt lat="48.96458" lon="-0.46804">
        <ele>78</ele>
        <time>2011-03-06T12:58:16Z</time>
      </trkpt>
      <trkpt lat="48.96463" lon="-0.46816">
        <ele>78</ele>
        <time>2011-03-06T12:58:46Z</time>
      </trkpt>
      <trkpt lat="48.96468" lon="-0.46827">
        <ele>86</ele>
        <time>2011-03-06T12:59:05Z</time>
      </trkpt>
      <trkpt lat="48.96478" lon="-0.46833">
        <ele>86</ele>
        <time>2011-03-06T12:59:27Z</time>
      </trkpt>
      <trkpt lat="48.96489" lon="-0.46839">
        <ele>86</ele>
        <time>2011-03-06T12:59:35Z</time>
      </trkpt>
      <trkpt lat="48.96498" lon="-0.46846">
        <ele>86</ele>
        <time>2011-03-06T12:59:45Z</time>
      </trkpt>
      <trkpt lat="48.96506" lon="-0.46853">
        <ele>86</ele>
        <time>2011-03-06T12:59:54Z</time>
      </trkpt>
      <trkpt lat="48.96515" lon="-0.46858">
        <ele>86</ele>
        <time>2011-03-06T13:00:01Z</time>
      </trkpt>
      <trkpt lat="48.96523" lon="-0.46864">
        <ele>86</ele>
        <time>2011-03-06T13:00:08Z</time>
      </trkpt>
      <trkpt lat="48.96533" lon="-0.46863">
        <ele>86</ele>
        <time>2011-03-06T13:00:14Z</time>
      </trkpt>
      <trkpt lat="48.96542" lon="-0.46867">
        <ele>86</ele>
        <time>2011-03-06T13:00:29Z</time>
      </trkpt>
      <trkpt lat="48.96549" lon="-0.46878">
        <ele>86</ele>
        <time>2011-03-06T13:00:35Z</time>
      </trkpt>
      <trkpt lat="48.96556" lon="-0.46888">
        <ele>86</ele>
        <time>2011-03-06T13:00:47Z</time>
      </trkpt>
      <trkpt lat="48.96566" lon="-0.46896">
        <ele>86</ele>
        <time>2011-03-06T13:01:00Z</time>
      </trkpt>
      <trkpt lat="48.96573" lon="-0.46905">
        <ele>86</ele>
        <time>2011-03-06T13:01:10Z</time>
      </trkpt>
      <trkpt lat="48.96578" lon="-0.46916">
        <ele>86</ele>
        <time>2011-03-06T13:01:21Z</time>
      </trkpt>
      <trkpt lat="48.96585" lon="-0.46926">
        <ele>92</ele>
        <time>2011-03-06T13:01:32Z</time>
      </trkpt>
      <trkpt lat="48.9659" lon="-0.46939">
        <ele>92</ele>
        <time>2011-03-06T13:01:41Z</time>
      </trkpt>
      <trkpt lat="48.96593" lon="-0.46953">
        <ele>92</ele>
        <time>2011-03-06T13:01:52Z</time>
      </trkpt>
      <trkpt lat="48.96596" lon="-0.46967">
        <ele>92</ele>
        <time>2011-03-06T13:02:01Z</time>
      </trkpt>
      <trkpt lat="48.96596" lon="-0.46982">
        <ele>92</ele>
        <time>2011-03-06T13:02:11Z</time>
      </trkpt>
      <trkpt lat="48.96594" lon="-0.46996">
        <ele>92</ele>
        <time>2011-03-06T13:02:20Z</time>
      </trkpt>
      <trkpt lat="48.96597" lon="-0.4701">
        <ele>92</ele>
        <time>2011-03-06T13:02:33Z</time>
      </trkpt>
      <trkpt lat="48.96597" lon="-0.47025">
        <ele>92</ele>
        <time>2011-03-06T13:02:42Z</time>
      </trkpt>
      <trkpt lat="48.96604" lon="-0.47034">
        <ele>92</ele>
        <time>2011-03-06T13:02:55Z</time>
      </trkpt>
      <trkpt lat="48.96614" lon="-0.47031">
        <ele>92</ele>
        <time>2011-03-06T13:03:25Z</time>
      </trkpt>
      <trkpt lat="48.96618" lon="-0.47044">
        <ele>92</ele>
        <time>2011-03-06T13:03:33Z</time>
      </trkpt>
      <trkpt lat="48.96627" lon="-0.47036">
        <ele>92</ele>
        <time>2011-03-06T13:04:58Z</time>
      </trkpt>
      <trkpt lat="48.96636" lon="-0.47044">
        <ele>92</ele>
        <time>2011-03-06T13:05:10Z</time>
      </trkpt>
      <trkpt lat="48.96646" lon="-0.47046">
        <ele>92</ele>
        <time>2011-03-06T13:05:20Z</time>
      </trkpt>
      <trkpt lat="48.96656" lon="-0.47045">
        <ele>92</ele>
        <time>2011-03-06T13:05:29Z</time>
      </trkpt>
      <trkpt lat="48.96666" lon="-0.47048">
        <ele>92</ele>
        <time>2011-03-06T13:05:38Z</time>
      </trkpt>
      <trkpt lat="48.96673" lon="-0.47039">
        <ele>92</ele>
        <time>2011-03-06T13:05:47Z</time>
      </trkpt>
      <trkpt lat="48.96683" lon="-0.47036">
        <ele>92</ele>
        <time>2011-03-06T13:05:56Z</time>
      </trkpt>
      <trkpt lat="48.96693" lon="-0.47037">
        <ele>92</ele>
        <time>2011-03-06T13:06:05Z</time>
      </trkpt>
      <trkpt lat="48.96703" lon="-0.47036">
        <ele>92</ele>
        <time>2011-03-06T13:06:14Z</time>
      </trkpt>
      <trkpt lat="48.96713" lon="-0.47035">
        <ele>92</ele>
        <time>2011-03-06T13:06:23Z</time>
      </trkpt>
      <trkpt lat="48.96723" lon="-0.47033">
        <ele>98</ele>
        <time>2011-03-06T13:06:34Z</time>
      </trkpt>
      <trkpt lat="48.96734" lon="-0.47033">
        <ele>98</ele>
        <time>2011-03-06T13:06:42Z</time>
      </trkpt>
      <trkpt lat="48.96743" lon="-0.47032">
        <ele>98</ele>
        <time>2011-03-06T13:06:51Z</time>
      </trkpt>
      <trkpt lat="48.96753" lon="-0.47031">
        <ele>98</ele>
        <time>2011-03-06T13:07:00Z</time>
      </trkpt>
      <trkpt lat="48.96764" lon="-0.4703">
        <ele>98</ele>
        <time>2011-03-06T13:07:10Z</time>
      </trkpt>
      <trkpt lat="48.96774" lon="-0.4703">
        <ele>98</ele>
        <time>2011-03-06T13:07:19Z</time>
      </trkpt>
      <trkpt lat="48.96783" lon="-0.4703">
        <ele>98</ele>
        <time>2011-03-06T13:07:27Z</time>
      </trkpt>
      <trkpt lat="48.96793" lon="-0.47028">
        <ele>98</ele>
        <time>2011-03-06T13:07:36Z</time>
      </trkpt>
      <trkpt lat="48.96803" lon="-0.47026">
        <ele>98</ele>
        <time>2011-03-06T13:07:53Z</time>
      </trkpt>
      <trkpt lat="48.96813" lon="-0.47026">
        <ele>98</ele>
        <time>2011-03-06T13:08:02Z</time>
      </trkpt>
      <trkpt lat="48.96823" lon="-0.47026">
        <ele>98</ele>
        <time>2011-03-06T13:08:11Z</time>
      </trkpt>
      <trkpt lat="48.96832" lon="-0.47026">
        <ele>98</ele>
        <time>2011-03-06T13:08:21Z</time>
      </trkpt>
      <trkpt lat="48.96842" lon="-0.47024">
        <ele>98</ele>
        <time>2011-03-06T13:08:30Z</time>
      </trkpt>
      <trkpt lat="48.9685" lon="-0.4702">
        <ele>98</ele>
        <time>2011-03-06T13:08:40Z</time>
      </trkpt>
      <trkpt lat="48.9686" lon="-0.47017">
        <ele>91</ele>
        <time>2011-03-06T13:08:49Z</time>
      </trkpt>
      <trkpt lat="48.96869" lon="-0.47013">
        <ele>91</ele>
        <time>2011-03-06T13:08:59Z</time>
      </trkpt>
      <trkpt lat="48.96878" lon="-0.4701">
        <ele>91</ele>
        <time>2011-03-06T13:09:07Z</time>
      </trkpt>
      <trkpt lat="48.96888" lon="-0.4701">
        <ele>91</ele>
        <time>2011-03-06T13:09:15Z</time>
      </trkpt>
      <trkpt lat="48.96898" lon="-0.47008">
        <ele>91</ele>
        <time>2011-03-06T13:09:24Z</time>
      </trkpt>
      <trkpt lat="48.96908" lon="-0.47006">
        <ele>91</ele>
        <time>2011-03-06T13:09:35Z</time>
      </trkpt>
      <trkpt lat="48.96917" lon="-0.47004">
        <ele>91</ele>
        <time>2011-03-06T13:09:45Z</time>
      </trkpt>
      <trkpt lat="48.96927" lon="-0.47003">
        <ele>91</ele>
        <time>2011-03-06T13:09:53Z</time>
      </trkpt>
      <trkpt lat="48.96937" lon="-0.47">
        <ele>91</ele>
        <time>2011-03-06T13:10:04Z</time>
      </trkpt>
      <trkpt lat="48.96947" lon="-0.46998">
        <ele>91</ele>
        <time>2011-03-06T13:10:15Z</time>
      </trkpt>
      <trkpt lat="48.96956" lon="-0.46995">
        <ele>91</ele>
        <time>2011-03-06T13:10:23Z</time>
      </trkpt>
      <trkpt lat="48.96966" lon="-0.46991">
        <ele>91</ele>
        <time>2011-03-06T13:10:31Z</time>
      </trkpt>
      <trkpt lat="48.96974" lon="-0.46984">
        <ele>97</ele>
        <time>2011-03-06T13:10:42Z</time>
      </trkpt>
      <trkpt lat="48.96984" lon="-0.4698">
        <ele>97</ele>
        <time>2011-03-06T13:11:07Z</time>
      </trkpt>
      <trkpt lat="48.96994" lon="-0.46977">
        <ele>97</ele>
        <time>2011-03-06T13:11:15Z</time>
      </trkpt>
      <trkpt lat="48.97004" lon="-0.46975">
        <ele>97</ele>
        <time>2011-03-06T13:11:23Z</time>
      </trkpt>
      <trkpt lat="48.97013" lon="-0.46971">
        <ele>97</ele>
        <time>2011-03-06T13:11:31Z</time>
      </trkpt>
      <trkpt lat="48.97022" lon="-0.46968">
        <ele>97</ele>
        <time>2011-03-06T13:11:40Z</time>
      </trkpt>
      <trkpt lat="48.97032" lon="-0.46966">
        <ele>97</ele>
        <time>2011-03-06T13:11:49Z</time>
      </trkpt>
      <trkpt lat="48.97042" lon="-0.46963">
        <ele>97</ele>
        <time>2011-03-06T13:11:58Z</time>
      </trkpt>
      <trkpt lat="48.9705" lon="-0.46959">
        <ele>97</ele>
        <time>2011-03-06T13:12:05Z</time>
      </trkpt>
      <trkpt lat="48.9706" lon="-0.46959">
        <ele>97</ele>
        <time>2011-03-06T13:12:13Z</time>
      </trkpt>
      <trkpt lat="48.97069" lon="-0.46955">
        <ele>97</ele>
        <time>2011-03-06T13:12:21Z</time>
      </trkpt>
      <trkpt lat="48.97079" lon="-0.46952">
        <ele>97</ele>
        <time>2011-03-06T13:12:29Z</time>
      </trkpt>
      <trkpt lat="48.97089" lon="-0.4695">
        <ele>97</ele>
        <time>2011-03-06T13:12:38Z</time>
      </trkpt>
      <trkpt lat="48.97098" lon="-0.46949">
        <ele>97</ele>
        <time>2011-03-06T13:12:46Z</time>
      </trkpt>
      <trkpt lat="48.97108" lon="-0.46946">
        <ele>97</ele>
        <time>2011-03-06T13:12:55Z</time>
      </trkpt>
      <trkpt lat="48.97118" lon="-0.46942">
        <ele>97</ele>
        <time>2011-03-06T13:13:04Z</time>
      </trkpt>
      <trkpt lat="48.97128" lon="-0.46939">
        <ele>97</ele>
        <time>2011-03-06T13:13:13Z</time>
      </trkpt>
      <trkpt lat="48.97137" lon="-0.46937">
        <ele>97</ele>
        <time>2011-03-06T13:13:20Z</time>
      </trkpt>
      <trkpt lat="48.97147" lon="-0.46934">
        <ele>91</ele>
        <time>2011-03-06T13:13:29Z</time>
      </trkpt>
      <trkpt lat="48.97157" lon="-0.46933">
        <ele>91</ele>
        <time>2011-03-06T13:13:38Z</time>
      </trkpt>
      <trkpt lat="48.97166" lon="-0.46938">
        <ele>91</ele>
        <time>2011-03-06T13:13:45Z</time>
      </trkpt>
      <trkpt lat="48.9717" lon="-0.4695">
        <ele>91</ele>
        <time>2011-03-06T13:13:54Z</time>
      </trkpt>
      <trkpt lat="48.97171" lon="-0.46965">
        <ele>91</ele>
        <time>2011-03-06T13:14:02Z</time>
      </trkpt>
      <trkpt lat="48.97172" lon="-0.46979">
        <ele>91</ele>
        <time>2011-03-06T13:14:11Z</time>
      </trkpt>
      <trkpt lat="48.97173" lon="-0.46994">
        <ele>91</ele>
        <time>2011-03-06T13:14:20Z</time>
      </trkpt>
      <trkpt lat="48.97176" lon="-0.47007">
        <ele>91</ele>
        <time>2011-03-06T13:14:30Z</time>
      </trkpt>
      <trkpt lat="48.97185" lon="-0.47009">
        <ele>91</ele>
        <time>2011-03-06T13:14:40Z</time>
      </trkpt>
      <trkpt lat="48.97195" lon="-0.47007">
        <ele>85</ele>
        <time>2011-03-06T13:14:50Z</time>
      </trkpt>
      <trkpt lat="48.97204" lon="-0.47003">
        <ele>85</ele>
        <time>2011-03-06T13:14:58Z</time>
      </trkpt>
      <trkpt lat="48.97214" lon="-0.47">
        <ele>85</ele>
        <time>2011-03-06T13:15:08Z</time>
      </trkpt>
      <trkpt lat="48.97224" lon="-0.46996">
        <ele>85</ele>
        <time>2011-03-06T13:15:32Z</time>
      </trkpt>
      <trkpt lat="48.97234" lon="-0.46995">
        <ele>85</ele>
        <time>2011-03-06T13:15:40Z</time>
      </trkpt>
      <trkpt lat="48.97243" lon="-0.46991">
        <ele>85</ele>
        <time>2011-03-06T13:15:47Z</time>
      </trkpt>
      <trkpt lat="48.97253" lon="-0.46988">
        <ele>80</ele>
        <time>2011-03-06T13:15:56Z</time>
      </trkpt>
      <trkpt lat="48.97262" lon="-0.46984">
        <ele>80</ele>
        <time>2011-03-06T13:16:04Z</time>
      </trkpt>
      <trkpt lat="48.97272" lon="-0.46982">
        <ele>80</ele>
        <time>2011-03-06T13:16:11Z</time>
      </trkpt>
      <trkpt lat="48.97282" lon="-0.46978">
        <ele>80</ele>
        <time>2011-03-06T13:16:19Z</time>
      </trkpt>
      <trkpt lat="48.97292" lon="-0.46978">
        <ele>87</ele>
        <time>2011-03-06T13:16:30Z</time>
      </trkpt>
      <trkpt lat="48.973" lon="-0.46986">
        <ele>87</ele>
        <time>2011-03-06T13:16:40Z</time>
      </trkpt>
      <trkpt lat="48.97309" lon="-0.46991">
        <ele>87</ele>
        <time>2011-03-06T13:16:49Z</time>
      </trkpt>
      <trkpt lat="48.97318" lon="-0.46995">
        <ele>87</ele>
        <time>2011-03-06T13:16:58Z</time>
      </trkpt>
      <trkpt lat="48.97326" lon="-0.47002">
        <ele>87</ele>
        <time>2011-03-06T13:17:11Z</time>
      </trkpt>
      <trkpt lat="48.97335" lon="-0.47005">
        <ele>93</ele>
        <time>2011-03-06T13:17:21Z</time>
      </trkpt>
      <trkpt lat="48.97345" lon="-0.47007">
        <ele>93</ele>
        <time>2011-03-06T13:17:31Z</time>
      </trkpt>
      <trkpt lat="48.97355" lon="-0.47009">
        <ele>93</ele>
        <time>2011-03-06T13:17:40Z</time>
      </trkpt>
      <trkpt lat="48.97364" lon="-0.47012">
        <ele>93</ele>
        <time>2011-03-06T13:17:49Z</time>
      </trkpt>
      <trkpt lat="48.97373" lon="-0.47016">
        <ele>98</ele>
        <time>2011-03-06T13:17:59Z</time>
      </trkpt>
      <trkpt lat="48.97382" lon="-0.47021">
        <ele>98</ele>
        <time>2011-03-06T13:18:08Z</time>
      </trkpt>
      <trkpt lat="48.97391" lon="-0.47026">
        <ele>98</ele>
        <time>2011-03-06T13:18:17Z</time>
      </trkpt>
      <trkpt lat="48.974" lon="-0.47032">
        <ele>98</ele>
        <time>2011-03-06T13:18:26Z</time>
      </trkpt>
      <trkpt lat="48.97409" lon="-0.47038">
        <ele>98</ele>
        <time>2011-03-06T13:18:38Z</time>
      </trkpt>
      <trkpt lat="48.97417" lon="-0.47044">
        <ele>98</ele>
        <time>2011-03-06T13:18:55Z</time>
      </trkpt>
      <trkpt lat="48.97426" lon="-0.47048">
        <ele>98</ele>
        <time>2011-03-06T13:19:06Z</time>
      </trkpt>
      <trkpt lat="48.97435" lon="-0.47053">
        <ele>98</ele>
        <time>2011-03-06T13:19:19Z</time>
      </trkpt>
      <trkpt lat="48.97444" lon="-0.47056">
        <ele>98</ele>
        <time>2011-03-06T13:19:27Z</time>
      </trkpt>
      <trkpt lat="48.97453" lon="-0.47057">
        <ele>98</ele>
        <time>2011-03-06T13:19:35Z</time>
      </trkpt>
      <trkpt lat="48.97463" lon="-0.47061">
        <ele>92</ele>
        <time>2011-03-06T13:19:44Z</time>
      </trkpt>
      <trkpt lat="48.97472" lon="-0.47065">
        <ele>92</ele>
        <time>2011-03-06T13:19:53Z</time>
      </trkpt>
      <trkpt lat="48.97481" lon="-0.47069">
        <ele>92</ele>
        <time>2011-03-06T13:20:02Z</time>
      </trkpt>
      <trkpt lat="48.9749" lon="-0.47074">
        <ele>92</ele>
        <time>2011-03-06T13:20:11Z</time>
      </trkpt>
      <trkpt lat="48.97499" lon="-0.4708">
        <ele>92</ele>
        <time>2011-03-06T13:20:20Z</time>
      </trkpt>
      <trkpt lat="48.97508" lon="-0.47086">
        <ele>92</ele>
        <time>2011-03-06T13:20:29Z</time>
      </trkpt>
      <trkpt lat="48.97516" lon="-0.47094">
        <ele>86</ele>
        <time>2011-03-06T13:20:39Z</time>
      </trkpt>
      <trkpt lat="48.97525" lon="-0.471">
        <ele>86</ele>
        <time>2011-03-06T13:20:48Z</time>
      </trkpt>
      <trkpt lat="48.97535" lon="-0.47105">
        <ele>86</ele>
        <time>2011-03-06T13:20:57Z</time>
      </trkpt>
      <trkpt lat="48.97544" lon="-0.4711">
        <ele>86</ele>
        <time>2011-03-06T13:21:06Z</time>
      </trkpt>
      <trkpt lat="48.97553" lon="-0.47114">
        <ele>86</ele>
        <time>2011-03-06T13:21:15Z</time>
      </trkpt>
      <trkpt lat="48.97563" lon="-0.47115">
        <ele>86</ele>
        <time>2011-03-06T13:21:24Z</time>
      </trkpt>
      <trkpt lat="48.97573" lon="-0.47115">
        <ele>86</ele>
        <time>2011-03-06T13:21:36Z</time>
      </trkpt>
      <trkpt lat="48.97583" lon="-0.47113">
        <ele>86</ele>
        <time>2011-03-06T13:21:46Z</time>
      </trkpt>
      <trkpt lat="48.97593" lon="-0.47112">
        <ele>86</ele>
        <time>2011-03-06T13:21:55Z</time>
      </trkpt>
      <trkpt lat="48.97602" lon="-0.47112">
        <ele>86</ele>
        <time>2011-03-06T13:22:03Z</time>
      </trkpt>
      <trkpt lat="48.97612" lon="-0.47111">
        <ele>86</ele>
        <time>2011-03-06T13:22:11Z</time>
      </trkpt>
      <trkpt lat="48.97621" lon="-0.4711">
        <ele>86</ele>
        <time>2011-03-06T13:22:20Z</time>
      </trkpt>
      <trkpt lat="48.97631" lon="-0.47109">
        <ele>81</ele>
        <time>2011-03-06T13:22:28Z</time>
      </trkpt>
      <trkpt lat="48.9764" lon="-0.47107">
        <ele>81</ele>
        <time>2011-03-06T13:22:36Z</time>
      </trkpt>
      <trkpt lat="48.97649" lon="-0.47105">
        <ele>81</ele>
        <time>2011-03-06T13:22:44Z</time>
      </trkpt>
      <trkpt lat="48.97659" lon="-0.47105">
        <ele>81</ele>
        <time>2011-03-06T13:22:51Z</time>
      </trkpt>
      <trkpt lat="48.97669" lon="-0.47107">
        <ele>81</ele>
        <time>2011-03-06T13:22:59Z</time>
      </trkpt>
      <trkpt lat="48.97679" lon="-0.4711">
        <ele>81</ele>
        <time>2011-03-06T13:23:08Z</time>
      </trkpt>
      <trkpt lat="48.97688" lon="-0.47114">
        <ele>81</ele>
        <time>2011-03-06T13:23:17Z</time>
      </trkpt>
      <trkpt lat="48.97698" lon="-0.47118">
        <ele>81</ele>
        <time>2011-03-06T13:23:26Z</time>
      </trkpt>
      <trkpt lat="48.97707" lon="-0.47122">
        <ele>81</ele>
        <time>2011-03-06T13:23:35Z</time>
      </trkpt>
      <trkpt lat="48.97716" lon="-0.47127">
        <ele>81</ele>
        <time>2011-03-06T13:23:44Z</time>
      </trkpt>
      <trkpt lat="48.97725" lon="-0.47132">
        <ele>81</ele>
        <time>2011-03-06T13:23:52Z</time>
      </trkpt>
      <trkpt lat="48.97735" lon="-0.47137">
        <ele>81</ele>
        <time>2011-03-06T13:24:01Z</time>
      </trkpt>
      <trkpt lat="48.97744" lon="-0.47144">
        <ele>81</ele>
        <time>2011-03-06T13:24:11Z</time>
      </trkpt>
      <trkpt lat="48.97754" lon="-0.47149">
        <ele>81</ele>
        <time>2011-03-06T13:24:21Z</time>
      </trkpt>
      <trkpt lat="48.97763" lon="-0.47154">
        <ele>75</ele>
        <time>2011-03-06T13:24:30Z</time>
      </trkpt>
      <trkpt lat="48.97772" lon="-0.47161">
        <ele>75</ele>
        <time>2011-03-06T13:24:41Z</time>
      </trkpt>
      <trkpt lat="48.97781" lon="-0.47166">
        <ele>75</ele>
        <time>2011-03-06T13:24:50Z</time>
      </trkpt>
      <trkpt lat="48.9779" lon="-0.47171">
        <ele>75</ele>
        <time>2011-03-06T13:24:58Z</time>
      </trkpt>
      <trkpt lat="48.97799" lon="-0.47176">
        <ele>75</ele>
        <time>2011-03-06T13:25:06Z</time>
      </trkpt>
      <trkpt lat="48.97808" lon="-0.47182">
        <ele>75</ele>
        <time>2011-03-06T13:25:16Z</time>
      </trkpt>
      <trkpt lat="48.97817" lon="-0.47188">
        <ele>75</ele>
        <time>2011-03-06T13:25:26Z</time>
      </trkpt>
      <trkpt lat="48.97817" lon="-0.47202">
        <ele>75</ele>
        <time>2011-03-06T13:25:44Z</time>
      </trkpt>
      <trkpt lat="48.97819" lon="-0.47217">
        <ele>75</ele>
        <time>2011-03-06T13:25:54Z</time>
      </trkpt>
      <trkpt lat="48.97818" lon="-0.47233">
        <ele>81</ele>
        <time>2011-03-06T13:26:05Z</time>
      </trkpt>
      <trkpt lat="48.97813" lon="-0.47246">
        <ele>81</ele>
        <time>2011-03-06T13:26:14Z</time>
      </trkpt>
      <trkpt lat="48.9781" lon="-0.4726">
        <ele>72</ele>
        <time>2011-03-06T13:26:26Z</time>
      </trkpt>
      <trkpt lat="48.97807" lon="-0.47274">
        <ele>72</ele>
        <time>2011-03-06T13:26:35Z</time>
      </trkpt>
      <trkpt lat="48.97803" lon="-0.47287">
        <ele>72</ele>
        <time>2011-03-06T13:26:43Z</time>
      </trkpt>
      <trkpt lat="48.978" lon="-0.47301">
        <ele>72</ele>
        <time>2011-03-06T13:26:52Z</time>
      </trkpt>
      <trkpt lat="48.97801" lon="-0.47316">
        <ele>72</ele>
        <time>2011-03-06T13:27:02Z</time>
      </trkpt>
      <trkpt lat="48.97802" lon="-0.4733">
        <ele>72</ele>
        <time>2011-03-06T13:27:12Z</time>
      </trkpt>
      <trkpt lat="48.97805" lon="-0.47345">
        <ele>72</ele>
        <time>2011-03-06T13:27:20Z</time>
      </trkpt>
      <trkpt lat="48.97806" lon="-0.47359">
        <ele>66</ele>
        <time>2011-03-06T13:27:29Z</time>
      </trkpt>
      <trkpt lat="48.97807" lon="-0.47374">
        <ele>66</ele>
        <time>2011-03-06T13:27:39Z</time>
      </trkpt>
      <trkpt lat="48.97813" lon="-0.47385">
        <ele>66</ele>
        <time>2011-03-06T13:27:48Z</time>
      </trkpt>
      <trkpt lat="48.97819" lon="-0.47397">
        <ele>66</ele>
        <time>2011-03-06T13:28:00Z</time>
      </trkpt>
      <trkpt lat="48.97826" lon="-0.47406">
        <ele>66</ele>
        <time>2011-03-06T13:28:16Z</time>
      </trkpt>
      <trkpt lat="48.97836" lon="-0.47404">
        <ele>66</ele>
        <time>2011-03-06T13:28:24Z</time>
      </trkpt>
      <trkpt lat="48.97845" lon="-0.47396">
        <ele>66</ele>
        <time>2011-03-06T13:28:33Z</time>
      </trkpt>
      <trkpt lat="48.97852" lon="-0.47387">
        <ele>66</ele>
        <time>2011-03-06T13:28:42Z</time>
      </trkpt>
      <trkpt lat="48.97861" lon="-0.47382">
        <ele>66</ele>
        <time>2011-03-06T13:28:51Z</time>
      </trkpt>
      <trkpt lat="48.97871" lon="-0.47377">
        <ele>66</ele>
        <time>2011-03-06T13:29:00Z</time>
      </trkpt>
      <trkpt lat="48.97881" lon="-0.47375">
        <ele>66</ele>
        <time>2011-03-06T13:29:10Z</time>
      </trkpt>
      <trkpt lat="48.9789" lon="-0.47372">
        <ele>72</ele>
        <time>2011-03-06T13:29:20Z</time>
      </trkpt>
      <trkpt lat="48.979" lon="-0.4737">
        <ele>72</ele>
        <time>2011-03-06T13:29:29Z</time>
      </trkpt>
      <trkpt lat="48.9791" lon="-0.4737">
        <ele>72</ele>
        <time>2011-03-06T13:29:39Z</time>
      </trkpt>
      <trkpt lat="48.9792" lon="-0.47366">
        <ele>72</ele>
        <time>2011-03-06T13:29:47Z</time>
      </trkpt>
      <trkpt lat="48.9793" lon="-0.47366">
        <ele>72</ele>
        <time>2011-03-06T13:29:56Z</time>
      </trkpt>
      <trkpt lat="48.9794" lon="-0.47366">
        <ele>72</ele>
        <time>2011-03-06T13:30:05Z</time>
      </trkpt>
      <trkpt lat="48.9795" lon="-0.47366">
        <ele>72</ele>
        <time>2011-03-06T13:30:14Z</time>
      </trkpt>
      <trkpt lat="48.9796" lon="-0.47365">
        <ele>72</ele>
        <time>2011-03-06T13:30:23Z</time>
      </trkpt>
      <trkpt lat="48.9797" lon="-0.47363">
        <ele>72</ele>
        <time>2011-03-06T13:30:32Z</time>
      </trkpt>
      <trkpt lat="48.9798" lon="-0.47362">
        <ele>72</ele>
        <time>2011-03-06T13:30:40Z</time>
      </trkpt>
      <trkpt lat="48.9799" lon="-0.47362">
        <ele>72</ele>
        <time>2011-03-06T13:30:48Z</time>
      </trkpt>
      <trkpt lat="48.98" lon="-0.4736">
        <ele>72</ele>
        <time>2011-03-06T13:30:57Z</time>
      </trkpt>
      <trkpt lat="48.98009" lon="-0.47358">
        <ele>72</ele>
        <time>2011-03-06T13:31:08Z</time>
      </trkpt>
      <trkpt lat="48.98018" lon="-0.4736">
        <ele>72</ele>
        <time>2011-03-06T13:31:15Z</time>
      </trkpt>
      <trkpt lat="48.98028" lon="-0.4736">
        <ele>72</ele>
        <time>2011-03-06T13:31:24Z</time>
      </trkpt>
      <trkpt lat="48.98038" lon="-0.4736">
        <ele>72</ele>
        <time>2011-03-06T13:31:33Z</time>
      </trkpt>
      <trkpt lat="48.98048" lon="-0.47357">
        <ele>72</ele>
        <time>2011-03-06T13:31:42Z</time>
      </trkpt>
      <trkpt lat="48.98057" lon="-0.47357">
        <ele>72</ele>
        <time>2011-03-06T13:31:51Z</time>
      </trkpt>
      <trkpt lat="48.98067" lon="-0.4736">
        <ele>72</ele>
        <time>2011-03-06T13:31:59Z</time>
      </trkpt>
      <trkpt lat="48.98077" lon="-0.47363">
        <ele>72</ele>
        <time>2011-03-06T13:32:08Z</time>
      </trkpt>
      <trkpt lat="48.98086" lon="-0.47367">
        <ele>72</ele>
        <time>2011-03-06T13:32:17Z</time>
      </trkpt>
      <trkpt lat="48.98085" lon="-0.47399">
        <ele>64</ele>
        <time>2011-03-06T13:36:39Z</time>
      </trkpt>
      <trkpt lat="48.98084" lon="-0.47413">
        <ele>64</ele>
        <time>2011-03-06T13:36:49Z</time>
      </trkpt>
      <trkpt lat="48.98085" lon="-0.47428">
        <ele>64</ele>
        <time>2011-03-06T13:37:00Z</time>
      </trkpt>
      <trkpt lat="48.98082" lon="-0.47443">
        <ele>64</ele>
        <time>2011-03-06T13:37:08Z</time>
      </trkpt>
      <trkpt lat="48.98082" lon="-0.47458">
        <ele>64</ele>
        <time>2011-03-06T13:37:18Z</time>
      </trkpt>
      <trkpt lat="48.98083" lon="-0.47473">
        <ele>64</ele>
        <time>2011-03-06T13:37:30Z</time>
      </trkpt>
      <trkpt lat="48.98083" lon="-0.47488">
        <ele>64</ele>
        <time>2011-03-06T13:37:39Z</time>
      </trkpt>
      <trkpt lat="48.98083" lon="-0.47503">
        <ele>64</ele>
        <time>2011-03-06T13:37:50Z</time>
      </trkpt>
      <trkpt lat="48.9808" lon="-0.47517">
        <ele>64</ele>
        <time>2011-03-06T13:37:56Z</time>
      </trkpt>
      <trkpt lat="48.9808" lon="-0.47533">
        <ele>64</ele>
        <time>2011-03-06T13:38:05Z</time>
      </trkpt>
      <trkpt lat="48.98081" lon="-0.47548">
        <ele>64</ele>
        <time>2011-03-06T13:38:16Z</time>
      </trkpt>
      <trkpt lat="48.98088" lon="-0.47559">
        <ele>64</ele>
        <time>2011-03-06T13:38:26Z</time>
      </trkpt>
      <trkpt lat="48.98087" lon="-0.47574">
        <ele>64</ele>
        <time>2011-03-06T13:38:37Z</time>
      </trkpt>
      <trkpt lat="48.98081" lon="-0.47586">
        <ele>64</ele>
        <time>2011-03-06T13:38:47Z</time>
      </trkpt>
      <trkpt lat="48.98082" lon="-0.47601">
        <ele>64</ele>
        <time>2011-03-06T13:38:58Z</time>
      </trkpt>
      <trkpt lat="48.98086" lon="-0.47613">
        <ele>64</ele>
        <time>2011-03-06T13:39:08Z</time>
      </trkpt>
      <trkpt lat="48.98092" lon="-0.47626">
        <ele>64</ele>
        <time>2011-03-06T13:39:20Z</time>
      </trkpt>
      <trkpt lat="48.98097" lon="-0.47638">
        <ele>64</ele>
        <time>2011-03-06T13:39:28Z</time>
      </trkpt>
      <trkpt lat="48.98104" lon="-0.47647">
        <ele>64</ele>
        <time>2011-03-06T13:39:35Z</time>
      </trkpt>
      <trkpt lat="48.98109" lon="-0.47659">
        <ele>64</ele>
        <time>2011-03-06T13:39:46Z</time>
      </trkpt>
      <trkpt lat="48.98117" lon="-0.47668">
        <ele>64</ele>
        <time>2011-03-06T13:39:55Z</time>
      </trkpt>
      <trkpt lat="48.98125" lon="-0.47677">
        <ele>64</ele>
        <time>2011-03-06T13:40:02Z</time>
      </trkpt>
      <trkpt lat="48.98133" lon="-0.47688">
        <ele>64</ele>
        <time>2011-03-06T13:40:11Z</time>
      </trkpt>
      <trkpt lat="48.9814" lon="-0.47697">
        <ele>64</ele>
        <time>2011-03-06T13:40:26Z</time>
      </trkpt>
      <trkpt lat="48.98147" lon="-0.47705">
        <ele>64</ele>
        <time>2011-03-06T13:40:35Z</time>
      </trkpt>
      <trkpt lat="48.98154" lon="-0.47717">
        <ele>59</ele>
        <time>2011-03-06T13:40:46Z</time>
      </trkpt>
      <trkpt lat="48.9816" lon="-0.47727">
        <ele>59</ele>
        <time>2011-03-06T13:40:55Z</time>
      </trkpt>
      <trkpt lat="48.98167" lon="-0.47736">
        <ele>59</ele>
        <time>2011-03-06T13:41:03Z</time>
      </trkpt>
      <trkpt lat="48.98173" lon="-0.47747">
        <ele>54</ele>
        <time>2011-03-06T13:41:14Z</time>
      </trkpt>
      <trkpt lat="48.9818" lon="-0.47755">
        <ele>54</ele>
        <time>2011-03-06T13:41:21Z</time>
      </trkpt>
      <trkpt lat="48.98189" lon="-0.47765">
        <ele>54</ele>
        <time>2011-03-06T13:41:30Z</time>
      </trkpt>
      <trkpt lat="48.98196" lon="-0.47774">
        <ele>54</ele>
        <time>2011-03-06T13:41:39Z</time>
      </trkpt>
      <trkpt lat="48.98205" lon="-0.47782">
        <ele>54</ele>
        <time>2011-03-06T13:41:48Z</time>
      </trkpt>
      <trkpt lat="48.98214" lon="-0.4779">
        <ele>54</ele>
        <time>2011-03-06T13:41:56Z</time>
      </trkpt>
      <trkpt lat="48.98222" lon="-0.47796">
        <ele>54</ele>
        <time>2011-03-06T13:42:04Z</time>
      </trkpt>
      <trkpt lat="48.98231" lon="-0.47801">
        <ele>54</ele>
        <time>2011-03-06T13:42:13Z</time>
      </trkpt>
      <trkpt lat="48.9824" lon="-0.47808">
        <ele>54</ele>
        <time>2011-03-06T13:42:21Z</time>
      </trkpt>
      <trkpt lat="48.98249" lon="-0.47813">
        <ele>54</ele>
        <time>2011-03-06T13:42:29Z</time>
      </trkpt>
      <trkpt lat="48.98258" lon="-0.47814">
        <ele>54</ele>
        <time>2011-03-06T13:42:40Z</time>
      </trkpt>
      <trkpt lat="48.98267" lon="-0.47808">
        <ele>54</ele>
        <time>2011-03-06T13:42:51Z</time>
      </trkpt>
      <trkpt lat="48.98276" lon="-0.47805">
        <ele>54</ele>
        <time>2011-03-06T13:42:59Z</time>
      </trkpt>
      <trkpt lat="48.98283" lon="-0.47816">
        <ele>54</ele>
        <time>2011-03-06T13:43:08Z</time>
      </trkpt>
      <trkpt lat="48.98291" lon="-0.47825">
        <ele>48</ele>
        <time>2011-03-06T13:43:17Z</time>
      </trkpt>
      <trkpt lat="48.983" lon="-0.47827">
        <ele>48</ele>
        <time>2011-03-06T13:43:25Z</time>
      </trkpt>
      <trkpt lat="48.98311" lon="-0.47827">
        <ele>48</ele>
        <time>2011-03-06T13:43:34Z</time>
      </trkpt>
      <trkpt lat="48.98321" lon="-0.47826">
        <ele>48</ele>
        <time>2011-03-06T13:43:45Z</time>
      </trkpt>
      <trkpt lat="48.98331" lon="-0.47825">
        <ele>48</ele>
        <time>2011-03-06T13:43:54Z</time>
      </trkpt>
      <trkpt lat="48.98341" lon="-0.47821">
        <ele>48</ele>
        <time>2011-03-06T13:44:03Z</time>
      </trkpt>
      <trkpt lat="48.98351" lon="-0.47821">
        <ele>48</ele>
        <time>2011-03-06T13:44:11Z</time>
      </trkpt>
      <trkpt lat="48.98361" lon="-0.47817">
        <ele>48</ele>
        <time>2011-03-06T13:44:21Z</time>
      </trkpt>
      <trkpt lat="48.9837" lon="-0.47814">
        <ele>48</ele>
        <time>2011-03-06T13:44:30Z</time>
      </trkpt>
      <trkpt lat="48.9838" lon="-0.47814">
        <ele>48</ele>
        <time>2011-03-06T13:44:37Z</time>
      </trkpt>
      <trkpt lat="48.9839" lon="-0.47812">
        <ele>48</ele>
        <time>2011-03-06T13:44:45Z</time>
      </trkpt>
      <trkpt lat="48.98399" lon="-0.47809">
        <ele>48</ele>
        <time>2011-03-06T13:44:53Z</time>
      </trkpt>
      <trkpt lat="48.98409" lon="-0.47808">
        <ele>48</ele>
        <time>2011-03-06T13:45:01Z</time>
      </trkpt>
      <trkpt lat="48.98419" lon="-0.47808">
        <ele>48</ele>
        <time>2011-03-06T13:45:10Z</time>
      </trkpt>
      <trkpt lat="48.98428" lon="-0.4781">
        <ele>48</ele>
        <time>2011-03-06T13:45:19Z</time>
      </trkpt>
      <trkpt lat="48.98438" lon="-0.4781">
        <ele>48</ele>
        <time>2011-03-06T13:45:28Z</time>
      </trkpt>
      <trkpt lat="48.98447" lon="-0.47813">
        <ele>48</ele>
        <time>2011-03-06T13:45:34Z</time>
      </trkpt>
      <trkpt lat="48.98457" lon="-0.47816">
        <ele>48</ele>
        <time>2011-03-06T13:45:41Z</time>
      </trkpt>
      <trkpt lat="48.98466" lon="-0.47819">
        <ele>48</ele>
        <time>2011-03-06T13:45:49Z</time>
      </trkpt>
      <trkpt lat="48.98475" lon="-0.47824">
        <ele>48</ele>
        <time>2011-03-06T13:45:58Z</time>
      </trkpt>
      <trkpt lat="48.98486" lon="-0.47826">
        <ele>48</ele>
        <time>2011-03-06T13:46:07Z</time>
      </trkpt>
      <trkpt lat="48.98494" lon="-0.47831">
        <ele>48</ele>
        <time>2011-03-06T13:46:16Z</time>
      </trkpt>
      <trkpt lat="48.98504" lon="-0.47834">
        <ele>48</ele>
        <time>2011-03-06T13:46:24Z</time>
      </trkpt>
      <trkpt lat="48.98513" lon="-0.47839">
        <ele>48</ele>
        <time>2011-03-06T13:46:33Z</time>
      </trkpt>
      <trkpt lat="48.98523" lon="-0.47841">
        <ele>48</ele>
        <time>2011-03-06T13:46:43Z</time>
      </trkpt>
      <trkpt lat="48.98532" lon="-0.47844">
        <ele>48</ele>
        <time>2011-03-06T13:46:52Z</time>
      </trkpt>
      <trkpt lat="48.98538" lon="-0.47834">
        <ele>48</ele>
        <time>2011-03-06T13:47:02Z</time>
      </trkpt>
      <trkpt lat="48.98547" lon="-0.47827">
        <ele>48</ele>
        <time>2011-03-06T13:47:11Z</time>
      </trkpt>
      <trkpt lat="48.98556" lon="-0.47822">
        <ele>48</ele>
        <time>2011-03-06T13:47:19Z</time>
      </trkpt>
      <trkpt lat="48.98563" lon="-0.47812">
        <ele>48</ele>
        <time>2011-03-06T13:47:39Z</time>
      </trkpt>
    </trkseg>
  </trk>
</gpx>